<?xml version='1.0' encoding='UTF-8'?>
<gpx version="1.1" creator="https://www.komoot.de" xmlns="http://www.topografix.com/GPX/1/1" xmlns:xsi="http://www.w3.org/2001/XMLSchema-instance" xsi:schemaLocation="http://www.topografix.com/GPX/1/1 http://www.topografix.com/GPX/1/1/gpx.xsd">
  <metadata>
    <name>Prlg route lang</name>
    <author>
      <link href="https://www.komoot.de">
        <text>komoot</text>
        <type>text/html</type>
      </link>
    </author>
  </metadata>
  <wpt lat="51.994187" lon="5.841678">
    <name>Over het spoor bij Oosterbeek</name>
    <sym>Bridge</sym>
  </wpt>
  <wpt lat="52.048945" lon="5.491347">
    <name>Grebbelinie Fietspad langs de Grift</name>
    <sym>Flag, Blue</sym>
  </wpt>
  <trk>
    <name>Prlg route lang</name>
    <trkseg>
      <trkpt lat="52.003670" lon="5.461567">
        <ele>20.443753</ele>
        <time>2026-04-22T19:14:41.677Z</time>
      </trkpt>
      <trkpt lat="52.003568" lon="5.461798">
        <ele>20.443753</ele>
        <time>2026-04-22T19:14:53.866Z</time>
      </trkpt>
      <trkpt lat="52.003096" lon="5.461639">
        <ele>20.443753</ele>
        <time>2026-04-22T19:15:11.136Z</time>
      </trkpt>
      <trkpt lat="52.003089" lon="5.461667">
        <ele>20.443753</ele>
        <time>2026-04-22T19:15:11.491Z</time>
      </trkpt>
      <trkpt lat="52.002963" lon="5.462136">
        <ele>20.386477</ele>
        <time>2026-04-22T19:15:17.311Z</time>
      </trkpt>
      <trkpt lat="52.002873" lon="5.462049">
        <ele>20.320811</ele>
        <time>2026-04-22T19:15:19.195Z</time>
      </trkpt>
      <trkpt lat="52.002487" lon="5.461696">
        <ele>20.043073</ele>
        <time>2026-04-22T19:15:27.252Z</time>
      </trkpt>
      <trkpt lat="52.001813" lon="5.461113">
        <ele>19.564299</ele>
        <time>2026-04-22T19:15:41.028Z</time>
      </trkpt>
      <trkpt lat="52.001672" lon="5.461540">
        <ele>19.377264</ele>
        <time>2026-04-22T19:15:46.398Z</time>
      </trkpt>
      <trkpt lat="52.001466" lon="5.462161">
        <ele>19.173724</ele>
        <time>2026-04-22T19:15:54.368Z</time>
      </trkpt>
      <trkpt lat="52.000734" lon="5.464099">
        <ele>18.581978</ele>
        <time>2026-04-22T19:16:21.147Z</time>
      </trkpt>
      <trkpt lat="52.000211" lon="5.463896">
        <ele>18.039002</ele>
        <time>2026-04-22T19:16:30.977Z</time>
      </trkpt>
      <trkpt lat="52.000161" lon="5.463877">
        <ele>17.983203</ele>
        <time>2026-04-22T19:16:31.884Z</time>
      </trkpt>
      <trkpt lat="52.000122" lon="5.464049">
        <ele>17.860578</ele>
        <time>2026-04-22T19:16:33.308Z</time>
      </trkpt>
      <trkpt lat="51.999801" lon="5.465797">
        <ele>16.640241</ele>
        <time>2026-04-22T19:16:46.208Z</time>
      </trkpt>
      <trkpt lat="51.999789" lon="5.465857">
        <ele>16.599722</ele>
        <time>2026-04-22T19:16:46.689Z</time>
      </trkpt>
      <trkpt lat="51.999736" lon="5.465828">
        <ele>16.571688</ele>
        <time>2026-04-22T19:16:47.341Z</time>
      </trkpt>
      <trkpt lat="51.999685" lon="5.465800">
        <ele>16.544702</ele>
        <time>2026-04-22T19:16:48.006Z</time>
      </trkpt>
      <trkpt lat="51.999629" lon="5.465769">
        <ele>16.515046</ele>
        <time>2026-04-22T19:16:48.750Z</time>
      </trkpt>
      <trkpt lat="51.999585" lon="5.465855">
        <ele>16.480538</ele>
        <time>2026-04-22T19:16:49.568Z</time>
      </trkpt>
      <trkpt lat="51.999567" lon="5.465952">
        <ele>16.449272</ele>
        <time>2026-04-22T19:16:50.386Z</time>
      </trkpt>
      <trkpt lat="51.999546" lon="5.466042">
        <ele>16.419569</ele>
        <time>2026-04-22T19:16:51.093Z</time>
      </trkpt>
      <trkpt lat="51.999531" lon="5.466128">
        <ele>16.391984</ele>
        <time>2026-04-22T19:16:51.798Z</time>
      </trkpt>
      <trkpt lat="51.999522" lon="5.466320">
        <ele>16.332560</ele>
        <time>2026-04-22T19:16:53.282Z</time>
      </trkpt>
      <trkpt lat="51.999442" lon="5.466747">
        <ele>16.194816</ele>
        <time>2026-04-22T19:16:56.850Z</time>
      </trkpt>
      <trkpt lat="51.999426" lon="5.466823">
        <ele>16.170028</ele>
        <time>2026-04-22T19:16:57.489Z</time>
      </trkpt>
      <trkpt lat="51.999380" lon="5.467042">
        <ele>16.098617</ele>
        <time>2026-04-22T19:16:59.382Z</time>
      </trkpt>
      <trkpt lat="51.999397" lon="5.467053">
        <ele>16.089444</ele>
        <time>2026-04-22T19:16:59.648Z</time>
      </trkpt>
      <trkpt lat="51.999449" lon="5.467079">
        <ele>16.062172</ele>
        <time>2026-04-22T19:17:00.430Z</time>
      </trkpt>
      <trkpt lat="51.999500" lon="5.467097">
        <ele>16.036011</ele>
        <time>2026-04-22T19:17:01.105Z</time>
      </trkpt>
      <trkpt lat="51.999560" lon="5.467119">
        <ele>16.005178</ele>
        <time>2026-04-22T19:17:01.971Z</time>
      </trkpt>
      <trkpt lat="51.999293" lon="5.468674">
        <ele>15.605927</ele>
        <time>2026-04-22T19:17:17.492Z</time>
      </trkpt>
      <trkpt lat="51.998977" lon="5.470219">
        <ele>15.361632</ele>
        <time>2026-04-22T19:17:30.949Z</time>
      </trkpt>
      <trkpt lat="51.998822" lon="5.470739">
        <ele>15.274939</ele>
        <time>2026-04-22T19:17:35.597Z</time>
      </trkpt>
      <trkpt lat="51.997957" lon="5.472313">
        <ele>15.146480</ele>
        <time>2026-04-22T19:17:54.067Z</time>
      </trkpt>
      <trkpt lat="51.997949" lon="5.472540">
        <ele>15.133556</ele>
        <time>2026-04-22T19:17:56.218Z</time>
      </trkpt>
      <trkpt lat="51.997916" lon="5.472676">
        <ele>15.125246</ele>
        <time>2026-04-22T19:17:57.498Z</time>
      </trkpt>
      <trkpt lat="51.997847" lon="5.472777">
        <ele>15.116671</ele>
        <time>2026-04-22T19:17:58.998Z</time>
      </trkpt>
      <trkpt lat="51.997806" lon="5.472812">
        <ele>15.112395</ele>
        <time>2026-04-22T19:17:59.606Z</time>
      </trkpt>
      <trkpt lat="51.997870" lon="5.472923">
        <ele>15.103751</ele>
        <time>2026-04-22T19:18:01.694Z</time>
      </trkpt>
      <trkpt lat="51.997921" lon="5.473091">
        <ele>15.105818</ele>
        <time>2026-04-22T19:18:04.085Z</time>
      </trkpt>
      <trkpt lat="51.998000" lon="5.473350">
        <ele>15.191730</ele>
        <time>2026-04-22T19:18:07.840Z</time>
      </trkpt>
      <trkpt lat="51.998083" lon="5.473628">
        <ele>15.283564</ele>
        <time>2026-04-22T19:18:11.802Z</time>
      </trkpt>
      <trkpt lat="51.998166" lon="5.473902">
        <ele>15.374328</ele>
        <time>2026-04-22T19:18:15.720Z</time>
      </trkpt>
      <trkpt lat="51.998252" lon="5.474184">
        <ele>15.467866</ele>
        <time>2026-04-22T19:18:20.051Z</time>
      </trkpt>
      <trkpt lat="51.998328" lon="5.474438">
        <ele>15.551806</ele>
        <time>2026-04-22T19:18:24.037Z</time>
      </trkpt>
      <trkpt lat="51.998408" lon="5.474704">
        <ele>15.639798</ele>
        <time>2026-04-22T19:18:28.298Z</time>
      </trkpt>
      <trkpt lat="51.998490" lon="5.474975">
        <ele>15.729549</ele>
        <time>2026-04-22T19:18:32.447Z</time>
      </trkpt>
      <trkpt lat="51.998573" lon="5.475249">
        <ele>15.820313</ele>
        <time>2026-04-22T19:18:36.635Z</time>
      </trkpt>
      <trkpt lat="51.998653" lon="5.475513">
        <ele>15.907771</ele>
        <time>2026-04-22T19:18:40.762Z</time>
      </trkpt>
      <trkpt lat="51.998723" lon="5.475767">
        <ele>16.012838</ele>
        <time>2026-04-22T19:18:44.740Z</time>
      </trkpt>
      <trkpt lat="51.998762" lon="5.475745">
        <ele>16.049257</ele>
        <time>2026-04-22T19:18:45.699Z</time>
      </trkpt>
      <trkpt lat="51.998974" lon="5.475612">
        <ele>16.249734</ele>
        <time>2026-04-22T19:18:50.982Z</time>
      </trkpt>
      <trkpt lat="51.999067" lon="5.475884">
        <ele>16.418710</ele>
        <time>2026-04-22T19:18:55.502Z</time>
      </trkpt>
      <trkpt lat="51.999353" lon="5.476694">
        <ele>16.925834</ele>
        <time>2026-04-22T19:19:09.663Z</time>
      </trkpt>
      <trkpt lat="51.999141" lon="5.477049">
        <ele>17.194434</ele>
        <time>2026-04-22T19:19:19.575Z</time>
      </trkpt>
      <trkpt lat="51.999085" lon="5.477243">
        <ele>17.310802</ele>
        <time>2026-04-22T19:19:23.713Z</time>
      </trkpt>
      <trkpt lat="51.999061" lon="5.477464">
        <ele>17.432682</ele>
        <time>2026-04-22T19:19:27.966Z</time>
      </trkpt>
      <trkpt lat="51.999113" lon="5.477856">
        <ele>17.634911</ele>
        <time>2026-04-22T19:19:35.347Z</time>
      </trkpt>
      <trkpt lat="51.999242" lon="5.478460">
        <ele>17.928313</ele>
        <time>2026-04-22T19:19:47.137Z</time>
      </trkpt>
      <trkpt lat="51.999248" lon="5.478482">
        <ele>17.939356</ele>
        <time>2026-04-22T19:19:47.592Z</time>
      </trkpt>
      <trkpt lat="51.999496" lon="5.478857">
        <ele>18.191929</ele>
        <time>2026-04-22T19:19:53.536Z</time>
      </trkpt>
      <trkpt lat="51.999593" lon="5.479052">
        <ele>18.306981</ele>
        <time>2026-04-22T19:19:56.238Z</time>
      </trkpt>
      <trkpt lat="51.999628" lon="5.479197">
        <ele>18.378458</ele>
        <time>2026-04-22T19:19:57.878Z</time>
      </trkpt>
      <trkpt lat="51.999640" lon="5.479553">
        <ele>18.542082</ele>
        <time>2026-04-22T19:20:01.653Z</time>
      </trkpt>
      <trkpt lat="51.999522" lon="5.481816">
        <ele>20.013841</ele>
        <time>2026-04-22T19:20:28.029Z</time>
      </trkpt>
      <trkpt lat="51.999512" lon="5.482062">
        <ele>20.197051</ele>
        <time>2026-04-22T19:20:31.108Z</time>
      </trkpt>
      <trkpt lat="51.999490" lon="5.482570">
        <ele>20.575500</ele>
        <time>2026-04-22T19:20:37.463Z</time>
      </trkpt>
      <trkpt lat="51.999655" lon="5.484730">
        <ele>22.559848</ele>
        <time>2026-04-22T19:21:05.132Z</time>
      </trkpt>
      <trkpt lat="51.999963" lon="5.487508">
        <ele>25.469337</ele>
        <time>2026-04-22T19:21:43.412Z</time>
      </trkpt>
      <trkpt lat="52.000044" lon="5.487776">
        <ele>25.790744</ele>
        <time>2026-04-22T19:21:49.898Z</time>
      </trkpt>
      <trkpt lat="52.000245" lon="5.488145">
        <ele>26.321157</ele>
        <time>2026-04-22T19:22:00.740Z</time>
      </trkpt>
      <trkpt lat="52.000462" lon="5.488419">
        <ele>26.801772</ele>
        <time>2026-04-22T19:22:10.370Z</time>
      </trkpt>
      <trkpt lat="52.000610" lon="5.488575">
        <ele>27.097076</ele>
        <time>2026-04-22T19:22:14.071Z</time>
      </trkpt>
      <trkpt lat="52.001008" lon="5.489389">
        <ele>27.689171</ele>
        <time>2026-04-22T19:22:26.452Z</time>
      </trkpt>
      <trkpt lat="52.001809" lon="5.491218">
        <ele>28.871005</ele>
        <time>2026-04-22T19:22:50.605Z</time>
      </trkpt>
      <trkpt lat="52.002596" lon="5.492990">
        <ele>29.571948</ele>
        <time>2026-04-22T19:23:14.043Z</time>
      </trkpt>
      <trkpt lat="52.002637" lon="5.493094">
        <ele>29.611565</ele>
        <time>2026-04-22T19:23:15.730Z</time>
      </trkpt>
      <trkpt lat="52.002786" lon="5.493422">
        <ele>29.642129</ele>
        <time>2026-04-22T19:23:21.173Z</time>
      </trkpt>
      <trkpt lat="52.002812" lon="5.493479">
        <ele>29.626050</ele>
        <time>2026-04-22T19:23:22.104Z</time>
      </trkpt>
      <trkpt lat="52.004188" lon="5.496487">
        <ele>28.009913</ele>
        <time>2026-04-22T19:24:04.662Z</time>
      </trkpt>
      <trkpt lat="52.005016" lon="5.498907">
        <ele>24.842296</ele>
        <time>2026-04-22T19:24:31.330Z</time>
      </trkpt>
      <trkpt lat="52.005735" lon="5.501119">
        <ele>21.211317</ele>
        <time>2026-04-22T19:24:54.262Z</time>
      </trkpt>
      <trkpt lat="52.006136" lon="5.502354">
        <ele>19.760536</ele>
        <time>2026-04-22T19:25:07.692Z</time>
      </trkpt>
      <trkpt lat="52.006159" lon="5.502427">
        <ele>19.675328</ele>
        <time>2026-04-22T19:25:08.509Z</time>
      </trkpt>
      <trkpt lat="52.006913" lon="5.504799">
        <ele>18.892899</ele>
        <time>2026-04-22T19:25:30.585Z</time>
      </trkpt>
      <trkpt lat="52.007350" lon="5.506278">
        <ele>19.319994</ele>
        <time>2026-04-22T19:25:50.162Z</time>
      </trkpt>
      <trkpt lat="52.007738" lon="5.507589">
        <ele>20.273667</ele>
        <time>2026-04-22T19:26:07.732Z</time>
      </trkpt>
      <trkpt lat="52.008631" lon="5.510805">
        <ele>21.945304</ele>
        <time>2026-04-22T19:26:47.612Z</time>
      </trkpt>
      <trkpt lat="52.008759" lon="5.510968">
        <ele>22.051056</ele>
        <time>2026-04-22T19:26:50.347Z</time>
      </trkpt>
      <trkpt lat="52.009215" lon="5.512596">
        <ele>21.028501</ele>
        <time>2026-04-22T19:27:04.853Z</time>
      </trkpt>
      <trkpt lat="52.009246" lon="5.512730">
        <ele>20.934287</ele>
        <time>2026-04-22T19:27:05.864Z</time>
      </trkpt>
      <trkpt lat="52.010151" lon="5.515551">
        <ele>17.867244</ele>
        <time>2026-04-22T19:27:27.140Z</time>
      </trkpt>
      <trkpt lat="52.010365" lon="5.516215">
        <ele>17.017165</ele>
        <time>2026-04-22T19:27:32.414Z</time>
      </trkpt>
      <trkpt lat="52.011039" lon="5.517921">
        <ele>16.167332</ele>
        <time>2026-04-22T19:27:48.001Z</time>
      </trkpt>
      <trkpt lat="52.011199" lon="5.518336">
        <ele>15.985615</ele>
        <time>2026-04-22T19:27:53.799Z</time>
      </trkpt>
      <trkpt lat="52.011211" lon="5.518458">
        <ele>15.939768</ele>
        <time>2026-04-22T19:27:55.283Z</time>
      </trkpt>
      <trkpt lat="52.011015" lon="5.521711">
        <ele>16.225449</ele>
        <time>2026-04-22T19:28:39.229Z</time>
      </trkpt>
      <trkpt lat="52.010968" lon="5.522439">
        <ele>16.021581</ele>
        <time>2026-04-22T19:28:47.979Z</time>
      </trkpt>
      <trkpt lat="52.010877" lon="5.523917">
        <ele>15.547230</ele>
        <time>2026-04-22T19:29:04.449Z</time>
      </trkpt>
      <trkpt lat="52.010761" lon="5.525852">
        <ele>15.176189</ele>
        <time>2026-04-22T19:29:25.647Z</time>
      </trkpt>
      <trkpt lat="52.010741" lon="5.525962">
        <ele>15.163925</ele>
        <time>2026-04-22T19:29:26.963Z</time>
      </trkpt>
      <trkpt lat="52.010622" lon="5.526390">
        <ele>15.113708</ele>
        <time>2026-04-22T19:29:32.633Z</time>
      </trkpt>
      <trkpt lat="52.010506" lon="5.526635">
        <ele>15.080658</ele>
        <time>2026-04-22T19:29:36.650Z</time>
      </trkpt>
      <trkpt lat="52.010272" lon="5.527050">
        <ele>15.020479</ele>
        <time>2026-04-22T19:29:44.359Z</time>
      </trkpt>
      <trkpt lat="52.009512" lon="5.527759">
        <ele>15.528973</ele>
        <time>2026-04-22T19:30:04.495Z</time>
      </trkpt>
      <trkpt lat="52.009496" lon="5.527776">
        <ele>15.543750</ele>
        <time>2026-04-22T19:30:04.956Z</time>
      </trkpt>
      <trkpt lat="52.008637" lon="5.528651">
        <ele>16.327429</ele>
        <time>2026-04-22T19:30:29.184Z</time>
      </trkpt>
      <trkpt lat="52.008553" lon="5.528773">
        <ele>16.405512</ele>
        <time>2026-04-22T19:30:31.674Z</time>
      </trkpt>
      <trkpt lat="52.008406" lon="5.529169">
        <ele>16.568550</ele>
        <time>2026-04-22T19:30:38.010Z</time>
      </trkpt>
      <trkpt lat="52.007976" lon="5.531246">
        <ele>17.341136</ele>
        <time>2026-04-22T19:31:08.888Z</time>
      </trkpt>
      <trkpt lat="52.007944" lon="5.531517">
        <ele>17.389591</ele>
        <time>2026-04-22T19:31:12.578Z</time>
      </trkpt>
      <trkpt lat="52.007941" lon="5.531972">
        <ele>17.274993</ele>
        <time>2026-04-22T19:31:18.419Z</time>
      </trkpt>
      <trkpt lat="52.008105" lon="5.532932">
        <ele>17.024081</ele>
        <time>2026-04-22T19:31:30.026Z</time>
      </trkpt>
      <trkpt lat="52.008121" lon="5.533173">
        <ele>16.963033</ele>
        <time>2026-04-22T19:31:32.700Z</time>
      </trkpt>
      <trkpt lat="52.008077" lon="5.533398">
        <ele>16.903577</ele>
        <time>2026-04-22T19:31:35.282Z</time>
      </trkpt>
      <trkpt lat="52.007719" lon="5.534390">
        <ele>16.619075</ele>
        <time>2026-04-22T19:31:47.574Z</time>
      </trkpt>
      <trkpt lat="52.007133" lon="5.536494">
        <ele>16.086893</ele>
        <time>2026-04-22T19:32:14.398Z</time>
      </trkpt>
      <trkpt lat="52.007037" lon="5.536729">
        <ele>16.021897</ele>
        <time>2026-04-22T19:32:18.153Z</time>
      </trkpt>
      <trkpt lat="52.006556" lon="5.537828">
        <ele>15.883384</ele>
        <time>2026-04-22T19:32:34.931Z</time>
      </trkpt>
      <trkpt lat="52.006308" lon="5.538367">
        <ele>15.820560</ele>
        <time>2026-04-22T19:32:43.155Z</time>
      </trkpt>
      <trkpt lat="52.006239" lon="5.538507">
        <ele>15.803817</ele>
        <time>2026-04-22T19:32:45.260Z</time>
      </trkpt>
      <trkpt lat="52.006236" lon="5.538559">
        <ele>15.798941</ele>
        <time>2026-04-22T19:32:45.837Z</time>
      </trkpt>
      <trkpt lat="52.006153" lon="5.538626">
        <ele>15.784885</ele>
        <time>2026-04-22T19:32:47.555Z</time>
      </trkpt>
      <trkpt lat="52.006110" lon="5.538723">
        <ele>15.773725</ele>
        <time>2026-04-22T19:32:48.906Z</time>
      </trkpt>
      <trkpt lat="52.005643" lon="5.539268">
        <ele>15.907122</ele>
        <time>2026-04-22T19:32:59.702Z</time>
      </trkpt>
      <trkpt lat="52.005415" lon="5.539473">
        <ele>16.078318</ele>
        <time>2026-04-22T19:33:05.139Z</time>
      </trkpt>
      <trkpt lat="52.005299" lon="5.539596">
        <ele>16.169322</ele>
        <time>2026-04-22T19:33:08.267Z</time>
      </trkpt>
      <trkpt lat="52.005226" lon="5.539467">
        <ele>16.240184</ele>
        <time>2026-04-22T19:33:10.254Z</time>
      </trkpt>
      <trkpt lat="52.005130" lon="5.539457">
        <ele>16.303380</ele>
        <time>2026-04-22T19:33:12.026Z</time>
      </trkpt>
      <trkpt lat="52.004728" lon="5.539596">
        <ele>16.573390</ele>
        <time>2026-04-22T19:33:20.023Z</time>
      </trkpt>
      <trkpt lat="52.003503" lon="5.539844">
        <ele>17.045755</ele>
        <time>2026-04-22T19:33:44.266Z</time>
      </trkpt>
      <trkpt lat="52.002964" lon="5.539739">
        <ele>17.148079</ele>
        <time>2026-04-22T19:33:52.055Z</time>
      </trkpt>
      <trkpt lat="52.002952" lon="5.539843">
        <ele>17.160357</ele>
        <time>2026-04-22T19:33:53.259Z</time>
      </trkpt>
      <trkpt lat="52.002933" lon="5.539988">
        <ele>17.177559</ele>
        <time>2026-04-22T19:33:54.965Z</time>
      </trkpt>
      <trkpt lat="52.002906" lon="5.540118">
        <ele>17.193479</ele>
        <time>2026-04-22T19:33:56.499Z</time>
      </trkpt>
      <trkpt lat="52.002739" lon="5.540415">
        <ele>17.240154</ele>
        <time>2026-04-22T19:34:00.939Z</time>
      </trkpt>
      <trkpt lat="52.002318" lon="5.541056">
        <ele>16.873923</ele>
        <time>2026-04-22T19:34:10.818Z</time>
      </trkpt>
      <trkpt lat="52.002164" lon="5.541195">
        <ele>16.750003</ele>
        <time>2026-04-22T19:34:13.778Z</time>
      </trkpt>
      <trkpt lat="52.001172" lon="5.541519">
        <ele>16.038283</ele>
        <time>2026-04-22T19:34:32.286Z</time>
      </trkpt>
      <trkpt lat="52.001030" lon="5.541590">
        <ele>15.992227</ele>
        <time>2026-04-22T19:34:35.088Z</time>
      </trkpt>
      <trkpt lat="52.000530" lon="5.541990">
        <ele>16.061954</ele>
        <time>2026-04-22T19:34:45.942Z</time>
      </trkpt>
      <trkpt lat="51.999889" lon="5.542564">
        <ele>16.153525</ele>
        <time>2026-04-22T19:35:01.450Z</time>
      </trkpt>
      <trkpt lat="51.999498" lon="5.542919">
        <ele>16.210811</ele>
        <time>2026-04-22T19:35:11.402Z</time>
      </trkpt>
      <trkpt lat="51.999362" lon="5.543038">
        <ele>16.251157</ele>
        <time>2026-04-22T19:35:14.922Z</time>
      </trkpt>
      <trkpt lat="51.998743" lon="5.543582">
        <ele>16.434976</ele>
        <time>2026-04-22T19:35:31.015Z</time>
      </trkpt>
      <trkpt lat="51.998264" lon="5.544073">
        <ele>16.582913</ele>
        <time>2026-04-22T19:35:43.125Z</time>
      </trkpt>
      <trkpt lat="51.998030" lon="5.544555">
        <ele>16.668891</ele>
        <time>2026-04-22T19:35:50.540Z</time>
      </trkpt>
      <trkpt lat="51.997754" lon="5.545307">
        <ele>16.287236</ele>
        <time>2026-04-22T19:36:00.435Z</time>
      </trkpt>
      <trkpt lat="51.997271" lon="5.546246">
        <ele>15.753829</ele>
        <time>2026-04-22T19:36:13.472Z</time>
      </trkpt>
      <trkpt lat="51.996813" lon="5.547162">
        <ele>15.309956</ele>
        <time>2026-04-22T19:36:26.289Z</time>
      </trkpt>
      <trkpt lat="51.996464" lon="5.548070">
        <ele>15.042523</ele>
        <time>2026-04-22T19:36:38.907Z</time>
      </trkpt>
      <trkpt lat="51.995951" lon="5.549279">
        <ele>14.675677</ele>
        <time>2026-04-22T19:36:56.765Z</time>
      </trkpt>
      <trkpt lat="51.995190" lon="5.551670">
        <ele>13.601141</ele>
        <time>2026-04-22T19:37:26.596Z</time>
      </trkpt>
      <trkpt lat="51.994605" lon="5.553218">
        <ele>13.035693</ele>
        <time>2026-04-22T19:37:46.203Z</time>
      </trkpt>
      <trkpt lat="51.994400" lon="5.553657">
        <ele>12.871315</ele>
        <time>2026-04-22T19:37:52.531Z</time>
      </trkpt>
      <trkpt lat="51.994040" lon="5.554423">
        <ele>12.694877</ele>
        <time>2026-04-22T19:38:04.554Z</time>
      </trkpt>
      <trkpt lat="51.992975" lon="5.556613">
        <ele>13.606478</ele>
        <time>2026-04-22T19:38:44.288Z</time>
      </trkpt>
      <trkpt lat="51.992730" lon="5.557009">
        <ele>13.664654</ele>
        <time>2026-04-22T19:38:51.730Z</time>
      </trkpt>
      <trkpt lat="51.992611" lon="5.557202">
        <ele>13.692960</ele>
        <time>2026-04-22T19:38:55.365Z</time>
      </trkpt>
      <trkpt lat="51.992121" lon="5.557894">
        <ele>13.802250</ele>
        <time>2026-04-22T19:39:08.936Z</time>
      </trkpt>
      <trkpt lat="51.991636" lon="5.558402">
        <ele>13.899382</ele>
        <time>2026-04-22T19:39:20.337Z</time>
      </trkpt>
      <trkpt lat="51.989050" lon="5.560780">
        <ele>13.849342</ele>
        <time>2026-04-22T19:40:18.970Z</time>
      </trkpt>
      <trkpt lat="51.988530" lon="5.561360">
        <ele>13.923239</ele>
        <time>2026-04-22T19:40:33.120Z</time>
      </trkpt>
      <trkpt lat="51.988208" lon="5.561764">
        <ele>14.084833</ele>
        <time>2026-04-22T19:40:42.207Z</time>
      </trkpt>
      <trkpt lat="51.987580" lon="5.562540">
        <ele>14.412360</ele>
        <time>2026-04-22T19:40:59.481Z</time>
      </trkpt>
      <trkpt lat="51.987138" lon="5.562932">
        <ele>14.621385</ele>
        <time>2026-04-22T19:41:10.291Z</time>
      </trkpt>
      <trkpt lat="51.986234" lon="5.563756">
        <ele>14.612164</ele>
        <time>2026-04-22T19:41:32.792Z</time>
      </trkpt>
      <trkpt lat="51.985700" lon="5.564250">
        <ele>14.571486</ele>
        <time>2026-04-22T19:41:45.114Z</time>
      </trkpt>
      <trkpt lat="51.985380" lon="5.564470">
        <ele>14.446243</ele>
        <time>2026-04-22T19:41:51.300Z</time>
      </trkpt>
      <trkpt lat="51.984927" lon="5.564721">
        <ele>13.776579</ele>
        <time>2026-04-22T19:41:59.286Z</time>
      </trkpt>
      <trkpt lat="51.984330" lon="5.564980">
        <ele>12.912033</ele>
        <time>2026-04-22T19:42:09.268Z</time>
      </trkpt>
      <trkpt lat="51.983990" lon="5.565060">
        <ele>12.431380</ele>
        <time>2026-04-22T19:42:14.754Z</time>
      </trkpt>
      <trkpt lat="51.982570" lon="5.565190">
        <ele>11.108238</ele>
        <time>2026-04-22T19:42:38.447Z</time>
      </trkpt>
      <trkpt lat="51.982330" lon="5.565190">
        <ele>10.912761</ele>
        <time>2026-04-22T19:42:42.922Z</time>
      </trkpt>
      <trkpt lat="51.981780" lon="5.565080">
        <ele>10.732606</ele>
        <time>2026-04-22T19:42:54.619Z</time>
      </trkpt>
      <trkpt lat="51.981470" lon="5.564910">
        <ele>11.118698</ele>
        <time>2026-04-22T19:43:02.397Z</time>
      </trkpt>
      <trkpt lat="51.980840" lon="5.564560">
        <ele>11.904393</ele>
        <time>2026-04-22T19:43:19.461Z</time>
      </trkpt>
      <trkpt lat="51.980610" lon="5.564500">
        <ele>12.179267</ele>
        <time>2026-04-22T19:43:25.651Z</time>
      </trkpt>
      <trkpt lat="51.980340" lon="5.564480">
        <ele>12.498190</ele>
        <time>2026-04-22T19:43:32.912Z</time>
      </trkpt>
      <trkpt lat="51.979260" lon="5.564630">
        <ele>13.743413</ele>
        <time>2026-04-22T19:44:01.829Z</time>
      </trkpt>
      <trkpt lat="51.978320" lon="5.564924">
        <ele>14.645334</ele>
        <time>2026-04-22T19:44:25.166Z</time>
      </trkpt>
      <trkpt lat="51.978254" lon="5.564945">
        <ele>14.552452</ele>
        <time>2026-04-22T19:44:26.450Z</time>
      </trkpt>
      <trkpt lat="51.977707" lon="5.565149">
        <ele>13.777352</ele>
        <time>2026-04-22T19:44:36.257Z</time>
      </trkpt>
      <trkpt lat="51.977670" lon="5.565200">
        <ele>13.710320</ele>
        <time>2026-04-22T19:44:37.071Z</time>
      </trkpt>
      <trkpt lat="51.977728" lon="5.565281">
        <ele>13.604661</ele>
        <time>2026-04-22T19:44:38.320Z</time>
      </trkpt>
      <trkpt lat="51.977868" lon="5.565759">
        <ele>13.154415</ele>
        <time>2026-04-22T19:44:43.467Z</time>
      </trkpt>
      <trkpt lat="51.978189" lon="5.566536">
        <ele>12.358549</ele>
        <time>2026-04-22T19:44:52.180Z</time>
      </trkpt>
      <trkpt lat="51.978191" lon="5.566540">
        <ele>12.354167</ele>
        <time>2026-04-22T19:44:52.226Z</time>
      </trkpt>
      <trkpt lat="51.979023" lon="5.567913">
        <ele>10.416287</ele>
        <time>2026-04-22T19:45:10.845Z</time>
      </trkpt>
      <trkpt lat="51.979663" lon="5.568942">
        <ele>9.195698</ele>
        <time>2026-04-22T19:45:26.598Z</time>
      </trkpt>
      <trkpt lat="51.980067" lon="5.569662">
        <ele>8.909807</ele>
        <time>2026-04-22T19:45:37.689Z</time>
      </trkpt>
      <trkpt lat="51.980174" lon="5.569785">
        <ele>8.847328</ele>
        <time>2026-04-22T19:45:40.145Z</time>
      </trkpt>
      <trkpt lat="51.980468" lon="5.569826">
        <ele>8.706703</ele>
        <time>2026-04-22T19:45:45.696Z</time>
      </trkpt>
      <trkpt lat="51.980659" lon="5.569786">
        <ele>8.614926</ele>
        <time>2026-04-22T19:45:49.413Z</time>
      </trkpt>
      <trkpt lat="51.981221" lon="5.569288">
        <ele>8.471286</ele>
        <time>2026-04-22T19:46:01.905Z</time>
      </trkpt>
      <trkpt lat="51.981265" lon="5.569250">
        <ele>8.475741</ele>
        <time>2026-04-22T19:46:02.877Z</time>
      </trkpt>
      <trkpt lat="51.981424" lon="5.569132">
        <ele>8.491366</ele>
        <time>2026-04-22T19:46:06.308Z</time>
      </trkpt>
      <trkpt lat="51.981509" lon="5.569118">
        <ele>8.499002</ele>
        <time>2026-04-22T19:46:07.998Z</time>
      </trkpt>
      <trkpt lat="51.981686" lon="5.569218">
        <ele>8.515753</ele>
        <time>2026-04-22T19:46:11.776Z</time>
      </trkpt>
      <trkpt lat="51.981913" lon="5.569387">
        <ele>8.538073</ele>
        <time>2026-04-22T19:46:16.986Z</time>
      </trkpt>
      <trkpt lat="51.982009" lon="5.569456">
        <ele>8.547457</ele>
        <time>2026-04-22T19:46:19.202Z</time>
      </trkpt>
      <trkpt lat="51.982125" lon="5.569482">
        <ele>8.557923</ele>
        <time>2026-04-22T19:46:21.691Z</time>
      </trkpt>
      <trkpt lat="51.982327" lon="5.569402">
        <ele>8.576507</ele>
        <time>2026-04-22T19:46:26.182Z</time>
      </trkpt>
      <trkpt lat="51.982432" lon="5.569369">
        <ele>8.586066</ele>
        <time>2026-04-22T19:46:28.512Z</time>
      </trkpt>
      <trkpt lat="51.982513" lon="5.569448">
        <ele>8.594511</ele>
        <time>2026-04-22T19:46:30.574Z</time>
      </trkpt>
      <trkpt lat="51.982458" lon="5.569541">
        <ele>8.601609</ele>
        <time>2026-04-22T19:46:31.861Z</time>
      </trkpt>
      <trkpt lat="51.982533" lon="5.569636">
        <ele>8.613215</ele>
        <time>2026-04-22T19:46:33.935Z</time>
      </trkpt>
      <trkpt lat="51.982719" lon="5.569948">
        <ele>8.657920</ele>
        <time>2026-04-22T19:46:38.273Z</time>
      </trkpt>
      <trkpt lat="51.983197" lon="5.571128">
        <ele>8.803329</ele>
        <time>2026-04-22T19:46:52.124Z</time>
      </trkpt>
      <trkpt lat="51.983434" lon="5.571898">
        <ele>8.891952</ele>
        <time>2026-04-22T19:46:59.967Z</time>
      </trkpt>
      <trkpt lat="51.983606" lon="5.572255">
        <ele>8.839308</ele>
        <time>2026-04-22T19:47:03.930Z</time>
      </trkpt>
      <trkpt lat="51.983747" lon="5.572507">
        <ele>8.763520</ele>
        <time>2026-04-22T19:47:06.845Z</time>
      </trkpt>
      <trkpt lat="51.984190" lon="5.573460">
        <ele>8.497739</ele>
        <time>2026-04-22T19:47:16.718Z</time>
      </trkpt>
      <trkpt lat="51.985082" lon="5.575669">
        <ele>8.073299</ele>
        <time>2026-04-22T19:47:38.745Z</time>
      </trkpt>
      <trkpt lat="51.985456" lon="5.576559">
        <ele>7.946383</ele>
        <time>2026-04-22T19:47:48.585Z</time>
      </trkpt>
      <trkpt lat="51.986842" lon="5.579975">
        <ele>7.931304</ele>
        <time>2026-04-22T19:48:26.224Z</time>
      </trkpt>
      <trkpt lat="51.987229" lon="5.580913">
        <ele>7.873270</ele>
        <time>2026-04-22T19:48:36.762Z</time>
      </trkpt>
      <trkpt lat="51.987538" lon="5.581675">
        <ele>7.825201</ele>
        <time>2026-04-22T19:48:44.629Z</time>
      </trkpt>
      <trkpt lat="51.987988" lon="5.582792">
        <ele>7.569918</ele>
        <time>2026-04-22T19:48:55.565Z</time>
      </trkpt>
      <trkpt lat="51.990509" lon="5.588955">
        <ele>6.278923</ele>
        <time>2026-04-22T19:49:58.527Z</time>
      </trkpt>
      <trkpt lat="51.991451" lon="5.591270">
        <ele>6.253769</ele>
        <time>2026-04-22T19:50:24.300Z</time>
      </trkpt>
      <trkpt lat="51.992283" lon="5.593294">
        <ele>6.118363</ele>
        <time>2026-04-22T19:50:45.743Z</time>
      </trkpt>
      <trkpt lat="51.992447" lon="5.593599">
        <ele>6.094417</ele>
        <time>2026-04-22T19:50:49.414Z</time>
      </trkpt>
      <trkpt lat="51.992645" lon="5.593828">
        <ele>6.059302</ele>
        <time>2026-04-22T19:50:52.969Z</time>
      </trkpt>
      <trkpt lat="51.993163" lon="5.594171">
        <ele>5.932234</ele>
        <time>2026-04-22T19:51:01.126Z</time>
      </trkpt>
      <trkpt lat="51.993358" lon="5.594387">
        <ele>5.878618</ele>
        <time>2026-04-22T19:51:04.491Z</time>
      </trkpt>
      <trkpt lat="51.993473" lon="5.594638">
        <ele>5.834859</ele>
        <time>2026-04-22T19:51:07.228Z</time>
      </trkpt>
      <trkpt lat="51.993050" lon="5.595152">
        <ele>5.714857</ele>
        <time>2026-04-22T19:51:17.244Z</time>
      </trkpt>
      <trkpt lat="51.993313" lon="5.595798">
        <ele>5.562649</ele>
        <time>2026-04-22T19:51:26.016Z</time>
      </trkpt>
      <trkpt lat="51.995593" lon="5.601364">
        <ele>3.916284</ele>
        <time>2026-04-22T19:52:22.376Z</time>
      </trkpt>
      <trkpt lat="51.995487" lon="5.601448">
        <ele>3.849390</ele>
        <time>2026-04-22T19:52:23.845Z</time>
      </trkpt>
      <trkpt lat="51.995339" lon="5.601645">
        <ele>3.740860</ele>
        <time>2026-04-22T19:52:26.205Z</time>
      </trkpt>
      <trkpt lat="51.995245" lon="5.601854">
        <ele>3.650476</ele>
        <time>2026-04-22T19:52:28.155Z</time>
      </trkpt>
      <trkpt lat="51.995176" lon="5.601918">
        <ele>3.605410</ele>
        <time>2026-04-22T19:52:29.130Z</time>
      </trkpt>
      <trkpt lat="51.994873" lon="5.602219">
        <ele>3.403961</ele>
        <time>2026-04-22T19:52:33.612Z</time>
      </trkpt>
      <trkpt lat="51.994779" lon="5.602360">
        <ele>3.352814</ele>
        <time>2026-04-22T19:52:35.258Z</time>
      </trkpt>
      <trkpt lat="51.994723" lon="5.602504">
        <ele>3.355688</ele>
        <time>2026-04-22T19:52:36.603Z</time>
      </trkpt>
      <trkpt lat="51.994556" lon="5.603170">
        <ele>3.367824</ele>
        <time>2026-04-22T19:52:42.686Z</time>
      </trkpt>
      <trkpt lat="51.993921" lon="5.604395">
        <ele>3.394849</ele>
        <time>2026-04-22T19:52:58.133Z</time>
      </trkpt>
      <trkpt lat="51.993801" lon="5.604748">
        <ele>3.406300</ele>
        <time>2026-04-22T19:53:02.520Z</time>
      </trkpt>
      <trkpt lat="51.993773" lon="5.604878">
        <ele>3.429026</ele>
        <time>2026-04-22T19:53:04.013Z</time>
      </trkpt>
      <trkpt lat="51.993772" lon="5.605208">
        <ele>3.483482</ele>
        <time>2026-04-22T19:53:07.528Z</time>
      </trkpt>
      <trkpt lat="51.994138" lon="5.606693">
        <ele>3.747429</ele>
        <time>2026-04-22T19:53:23.460Z</time>
      </trkpt>
      <trkpt lat="51.994144" lon="5.606843">
        <ele>3.772234</ele>
        <time>2026-04-22T19:53:24.866Z</time>
      </trkpt>
      <trkpt lat="51.994127" lon="5.606998">
        <ele>3.798213</ele>
        <time>2026-04-22T19:53:26.333Z</time>
      </trkpt>
      <trkpt lat="51.994073" lon="5.607172">
        <ele>3.830366</ele>
        <time>2026-04-22T19:53:28.120Z</time>
      </trkpt>
      <trkpt lat="51.993732" lon="5.608028">
        <ele>3.842426</ele>
        <time>2026-04-22T19:53:37.269Z</time>
      </trkpt>
      <trkpt lat="51.993676" lon="5.608303">
        <ele>3.825569</ele>
        <time>2026-04-22T19:53:39.829Z</time>
      </trkpt>
      <trkpt lat="51.993590" lon="5.609298">
        <ele>3.767095</ele>
        <time>2026-04-22T19:53:48.670Z</time>
      </trkpt>
      <trkpt lat="51.993492" lon="5.609679">
        <ele>3.743065</ele>
        <time>2026-04-22T19:53:52.300Z</time>
      </trkpt>
      <trkpt lat="51.993420" lon="5.609864">
        <ele>3.730328</ele>
        <time>2026-04-22T19:53:54.215Z</time>
      </trkpt>
      <trkpt lat="51.993277" lon="5.610073">
        <ele>3.712595</ele>
        <time>2026-04-22T19:53:56.959Z</time>
      </trkpt>
      <trkpt lat="51.992633" lon="5.610775">
        <ele>3.672205</ele>
        <time>2026-04-22T19:54:08.116Z</time>
      </trkpt>
      <trkpt lat="51.992102" lon="5.611184">
        <ele>3.641601</ele>
        <time>2026-04-22T19:54:16.778Z</time>
      </trkpt>
      <trkpt lat="51.991994" lon="5.611301">
        <ele>3.634841</ele>
        <time>2026-04-22T19:54:18.709Z</time>
      </trkpt>
      <trkpt lat="51.991885" lon="5.611460">
        <ele>3.627211</ele>
        <time>2026-04-22T19:54:20.899Z</time>
      </trkpt>
      <trkpt lat="51.991609" lon="5.611980">
        <ele>3.653204</ele>
        <time>2026-04-22T19:54:27.256Z</time>
      </trkpt>
      <trkpt lat="51.990254" lon="5.613570">
        <ele>3.839637</ele>
        <time>2026-04-22T19:54:52.946Z</time>
      </trkpt>
      <trkpt lat="51.989968" lon="5.613696">
        <ele>3.837798</ele>
        <time>2026-04-22T19:54:57.352Z</time>
      </trkpt>
      <trkpt lat="51.988785" lon="5.614070">
        <ele>3.830316</ele>
        <time>2026-04-22T19:55:14.849Z</time>
      </trkpt>
      <trkpt lat="51.988461" lon="5.614051">
        <ele>3.857173</ele>
        <time>2026-04-22T19:55:19.675Z</time>
      </trkpt>
      <trkpt lat="51.988441" lon="5.614048">
        <ele>3.860370</ele>
        <time>2026-04-22T19:55:19.981Z</time>
      </trkpt>
      <trkpt lat="51.987604" lon="5.613925">
        <ele>3.994155</ele>
        <time>2026-04-22T19:55:33.007Z</time>
      </trkpt>
      <trkpt lat="51.987338" lon="5.613925">
        <ele>4.036498</ele>
        <time>2026-04-22T19:55:37.236Z</time>
      </trkpt>
      <trkpt lat="51.986525" lon="5.614059">
        <ele>4.145172</ele>
        <time>2026-04-22T19:55:50.219Z</time>
      </trkpt>
      <trkpt lat="51.986136" lon="5.614123">
        <ele>4.181218</ele>
        <time>2026-04-22T19:55:56.320Z</time>
      </trkpt>
      <trkpt lat="51.985931" lon="5.614247">
        <ele>4.201387</ele>
        <time>2026-04-22T19:55:59.623Z</time>
      </trkpt>
      <trkpt lat="51.985696" lon="5.614570">
        <ele>4.229772</ele>
        <time>2026-04-22T19:56:04.216Z</time>
      </trkpt>
      <trkpt lat="51.985481" lon="5.614810">
        <ele>4.253825</ele>
        <time>2026-04-22T19:56:08.101Z</time>
      </trkpt>
      <trkpt lat="51.985204" lon="5.614946">
        <ele>4.280504</ele>
        <time>2026-04-22T19:56:12.371Z</time>
      </trkpt>
      <trkpt lat="51.985032" lon="5.614954">
        <ele>4.274236</ele>
        <time>2026-04-22T19:56:14.898Z</time>
      </trkpt>
      <trkpt lat="51.984928" lon="5.614942">
        <ele>4.269511</ele>
        <time>2026-04-22T19:56:16.415Z</time>
      </trkpt>
      <trkpt lat="51.984351" lon="5.614653">
        <ele>4.242146</ele>
        <time>2026-04-22T19:56:25.198Z</time>
      </trkpt>
      <trkpt lat="51.984233" lon="5.614627">
        <ele>4.236749</ele>
        <time>2026-04-22T19:56:26.931Z</time>
      </trkpt>
      <trkpt lat="51.982717" lon="5.614770">
        <ele>4.243626</ele>
        <time>2026-04-22T19:56:49.354Z</time>
      </trkpt>
      <trkpt lat="51.982559" lon="5.614872">
        <ele>4.254099</ele>
        <time>2026-04-22T19:56:51.944Z</time>
      </trkpt>
      <trkpt lat="51.981313" lon="5.616037">
        <ele>4.231442</ele>
        <time>2026-04-22T19:57:13.762Z</time>
      </trkpt>
      <trkpt lat="51.980402" lon="5.616881">
        <ele>4.070522</ele>
        <time>2026-04-22T19:57:28.278Z</time>
      </trkpt>
      <trkpt lat="51.979564" lon="5.617931">
        <ele>4.059023</ele>
        <time>2026-04-22T19:57:43.050Z</time>
      </trkpt>
      <trkpt lat="51.979577" lon="5.617961">
        <ele>4.059684</ele>
        <time>2026-04-22T19:57:43.374Z</time>
      </trkpt>
      <trkpt lat="51.979673" lon="5.618170">
        <ele>4.064383</ele>
        <time>2026-04-22T19:57:46.678Z</time>
      </trkpt>
      <trkpt lat="51.979783" lon="5.618415">
        <ele>4.069847</ele>
        <time>2026-04-22T19:57:50.613Z</time>
      </trkpt>
      <trkpt lat="51.979985" lon="5.619181">
        <ele>4.084865</ele>
        <time>2026-04-22T19:58:01.806Z</time>
      </trkpt>
      <trkpt lat="51.980412" lon="5.620817">
        <ele>4.341019</ele>
        <time>2026-04-22T19:58:26.083Z</time>
      </trkpt>
      <trkpt lat="51.980435" lon="5.620903">
        <ele>4.355588</ele>
        <time>2026-04-22T19:58:26.974Z</time>
      </trkpt>
      <trkpt lat="51.981964" lon="5.626745">
        <ele>4.357492</ele>
        <time>2026-04-22T19:59:23.640Z</time>
      </trkpt>
      <trkpt lat="51.981984" lon="5.626820">
        <ele>4.355734</ele>
        <time>2026-04-22T19:59:24.408Z</time>
      </trkpt>
      <trkpt lat="51.981123" lon="5.627411">
        <ele>4.249297</ele>
        <time>2026-04-22T19:59:38.673Z</time>
      </trkpt>
      <trkpt lat="51.979853" lon="5.628288">
        <ele>3.972120</ele>
        <time>2026-04-22T19:59:58.208Z</time>
      </trkpt>
      <trkpt lat="51.979015" lon="5.628870">
        <ele>3.516975</ele>
        <time>2026-04-22T20:00:09.823Z</time>
      </trkpt>
      <trkpt lat="51.977977" lon="5.629591">
        <ele>3.258297</ele>
        <time>2026-04-22T20:00:24.850Z</time>
      </trkpt>
      <trkpt lat="51.975955" lon="5.630995">
        <ele>4.041986</ele>
        <time>2026-04-22T20:01:02.347Z</time>
      </trkpt>
      <trkpt lat="51.975882" lon="5.631081">
        <ele>4.084319</ele>
        <time>2026-04-22T20:01:03.879Z</time>
      </trkpt>
      <trkpt lat="51.975210" lon="5.632590">
        <ele>4.590707</ele>
        <time>2026-04-22T20:01:22.622Z</time>
      </trkpt>
      <trkpt lat="51.974308" lon="5.634715">
        <ele>5.108458</ele>
        <time>2026-04-22T20:01:48.089Z</time>
      </trkpt>
      <trkpt lat="51.974306" lon="5.635515">
        <ele>5.221439</ele>
        <time>2026-04-22T20:01:56.109Z</time>
      </trkpt>
      <trkpt lat="51.974544" lon="5.641286">
        <ele>5.882423</ele>
        <time>2026-04-22T20:02:51.648Z</time>
      </trkpt>
      <trkpt lat="51.974868" lon="5.646545">
        <ele>6.363841</ele>
        <time>2026-04-22T20:03:41.221Z</time>
      </trkpt>
      <trkpt lat="51.974918" lon="5.647336">
        <ele>6.581280</ele>
        <time>2026-04-22T20:03:49.153Z</time>
      </trkpt>
      <trkpt lat="51.975056" lon="5.649540">
        <ele>7.198454</ele>
        <time>2026-04-22T20:04:12.602Z</time>
      </trkpt>
      <trkpt lat="51.975078" lon="5.649622">
        <ele>7.226249</ele>
        <time>2026-04-22T20:04:13.571Z</time>
      </trkpt>
      <trkpt lat="51.975157" lon="5.649752">
        <ele>7.282998</ele>
        <time>2026-04-22T20:04:15.499Z</time>
      </trkpt>
      <trkpt lat="51.975217" lon="5.649864">
        <ele>7.329125</ele>
        <time>2026-04-22T20:04:17.570Z</time>
      </trkpt>
      <trkpt lat="51.975201" lon="5.649890">
        <ele>7.340546</ele>
        <time>2026-04-22T20:04:17.950Z</time>
      </trkpt>
      <trkpt lat="51.974945" lon="5.650249">
        <ele>7.511210</ele>
        <time>2026-04-22T20:04:23.684Z</time>
      </trkpt>
      <trkpt lat="51.974714" lon="5.650546">
        <ele>7.659870</ele>
        <time>2026-04-22T20:04:28.762Z</time>
      </trkpt>
      <trkpt lat="51.974517" lon="5.650619">
        <ele>7.761811</ele>
        <time>2026-04-22T20:04:32.287Z</time>
      </trkpt>
      <trkpt lat="51.974089" lon="5.650950">
        <ele>8.000983</ele>
        <time>2026-04-22T20:04:39.991Z</time>
      </trkpt>
      <trkpt lat="51.973657" lon="5.651290">
        <ele>8.101653</ele>
        <time>2026-04-22T20:04:47.276Z</time>
      </trkpt>
      <trkpt lat="51.973492" lon="5.651418">
        <ele>8.137642</ele>
        <time>2026-04-22T20:04:50.126Z</time>
      </trkpt>
      <trkpt lat="51.973438" lon="5.651462">
        <ele>8.149532</ele>
        <time>2026-04-22T20:04:51.057Z</time>
      </trkpt>
      <trkpt lat="51.973320" lon="5.651559">
        <ele>8.175561</ele>
        <time>2026-04-22T20:04:53.076Z</time>
      </trkpt>
      <trkpt lat="51.973295" lon="5.651614">
        <ele>8.183848</ele>
        <time>2026-04-22T20:04:53.726Z</time>
      </trkpt>
      <trkpt lat="51.973167" lon="5.651894">
        <ele>8.226118</ele>
        <time>2026-04-22T20:04:57.093Z</time>
      </trkpt>
      <trkpt lat="51.973074" lon="5.652122">
        <ele>8.259268</ele>
        <time>2026-04-22T20:04:59.769Z</time>
      </trkpt>
      <trkpt lat="51.972970" lon="5.652280">
        <ele>8.287300</ele>
        <time>2026-04-22T20:05:01.996Z</time>
      </trkpt>
      <trkpt lat="51.972597" lon="5.652585">
        <ele>8.369882</ele>
        <time>2026-04-22T20:05:08.425Z</time>
      </trkpt>
      <trkpt lat="51.972504" lon="5.652654">
        <ele>8.391794</ele>
        <time>2026-04-22T20:05:09.976Z</time>
      </trkpt>
      <trkpt lat="51.971628" lon="5.653309">
        <ele>8.598470</ele>
        <time>2026-04-22T20:05:25.195Z</time>
      </trkpt>
      <trkpt lat="51.971538" lon="5.653297">
        <ele>8.617821</ele>
        <time>2026-04-22T20:05:26.662Z</time>
      </trkpt>
      <trkpt lat="51.971426" lon="5.653332">
        <ele>8.642263</ele>
        <time>2026-04-22T20:05:28.579Z</time>
      </trkpt>
      <trkpt lat="51.971364" lon="5.653393">
        <ele>8.657799</ele>
        <time>2026-04-22T20:05:29.819Z</time>
      </trkpt>
      <trkpt lat="51.971263" lon="5.653576">
        <ele>8.690235</ele>
        <time>2026-04-22T20:05:32.349Z</time>
      </trkpt>
      <trkpt lat="51.971029" lon="5.653756">
        <ele>8.745724</ele>
        <time>2026-04-22T20:05:36.396Z</time>
      </trkpt>
      <trkpt lat="51.970554" lon="5.654114">
        <ele>8.822287</ele>
        <time>2026-04-22T20:05:43.985Z</time>
      </trkpt>
      <trkpt lat="51.970352" lon="5.654229">
        <ele>8.852931</ele>
        <time>2026-04-22T20:05:47.266Z</time>
      </trkpt>
      <trkpt lat="51.969785" lon="5.654675">
        <ele>8.943125</ele>
        <time>2026-04-22T20:05:56.951Z</time>
      </trkpt>
      <trkpt lat="51.969762" lon="5.654721">
        <ele>8.948350</ele>
        <time>2026-04-22T20:05:57.506Z</time>
      </trkpt>
      <trkpt lat="51.969690" lon="5.654748">
        <ele>8.958928</ele>
        <time>2026-04-22T20:05:58.675Z</time>
      </trkpt>
      <trkpt lat="51.969667" lon="5.654757">
        <ele>8.962315</ele>
        <time>2026-04-22T20:05:59.057Z</time>
      </trkpt>
      <trkpt lat="51.969612" lon="5.654802">
        <ele>8.971132</ele>
        <time>2026-04-22T20:05:59.975Z</time>
      </trkpt>
      <trkpt lat="51.969599" lon="5.654817">
        <ele>8.973415</ele>
        <time>2026-04-22T20:06:00.234Z</time>
      </trkpt>
      <trkpt lat="51.969578" lon="5.654849">
        <ele>8.977538</ele>
        <time>2026-04-22T20:06:00.690Z</time>
      </trkpt>
      <trkpt lat="51.969550" lon="5.654913">
        <ele>8.984461</ele>
        <time>2026-04-22T20:06:01.443Z</time>
      </trkpt>
      <trkpt lat="51.969515" lon="5.654905">
        <ele>8.989520</ele>
        <time>2026-04-22T20:06:01.952Z</time>
      </trkpt>
      <trkpt lat="51.969148" lon="5.655163">
        <ele>9.041913</ele>
        <time>2026-04-22T20:06:08.121Z</time>
      </trkpt>
      <trkpt lat="51.968909" lon="5.655349">
        <ele>9.075101</ele>
        <time>2026-04-22T20:06:13.963Z</time>
      </trkpt>
      <trkpt lat="51.968810" lon="5.655427">
        <ele>9.088879</ele>
        <time>2026-04-22T20:06:16.468Z</time>
      </trkpt>
      <trkpt lat="51.968659" lon="5.655545">
        <ele>9.109863</ele>
        <time>2026-04-22T20:06:20.261Z</time>
      </trkpt>
      <trkpt lat="51.968382" lon="5.655761">
        <ele>9.148341</ele>
        <time>2026-04-22T20:06:26.520Z</time>
      </trkpt>
      <trkpt lat="51.968322" lon="5.655808">
        <ele>9.156683</ele>
        <time>2026-04-22T20:06:27.874Z</time>
      </trkpt>
      <trkpt lat="51.968214" lon="5.655957">
        <ele>9.174431</ele>
        <time>2026-04-22T20:06:30.619Z</time>
      </trkpt>
      <trkpt lat="51.968091" lon="5.656001">
        <ele>9.190201</ele>
        <time>2026-04-22T20:06:33.042Z</time>
      </trkpt>
      <trkpt lat="51.968010" lon="5.656031">
        <ele>9.200604</ele>
        <time>2026-04-22T20:06:34.652Z</time>
      </trkpt>
      <trkpt lat="51.967895" lon="5.656058">
        <ele>9.215153</ele>
        <time>2026-04-22T20:06:36.892Z</time>
      </trkpt>
      <trkpt lat="51.967864" lon="5.656170">
        <ele>9.224624</ele>
        <time>2026-04-22T20:06:37.912Z</time>
      </trkpt>
      <trkpt lat="51.967883" lon="5.656362">
        <ele>9.241807</ele>
        <time>2026-04-22T20:06:39.612Z</time>
      </trkpt>
      <trkpt lat="51.967912" lon="5.656531">
        <ele>9.259943</ele>
        <time>2026-04-22T20:06:41.226Z</time>
      </trkpt>
      <trkpt lat="51.967954" lon="5.656743">
        <ele>9.282963</ele>
        <time>2026-04-22T20:06:43.245Z</time>
      </trkpt>
      <trkpt lat="51.968000" lon="5.656799">
        <ele>9.292612</ele>
        <time>2026-04-22T20:06:44.090Z</time>
      </trkpt>
      <trkpt lat="51.968025" lon="5.656937">
        <ele>9.307481</ele>
        <time>2026-04-22T20:06:45.409Z</time>
      </trkpt>
      <trkpt lat="51.968075" lon="5.657480">
        <ele>9.364238</ele>
        <time>2026-04-22T20:06:50.440Z</time>
      </trkpt>
      <trkpt lat="51.968114" lon="5.657654">
        <ele>9.383379</ele>
        <time>2026-04-22T20:06:52.141Z</time>
      </trkpt>
      <trkpt lat="51.968189" lon="5.658409">
        <ele>9.462435</ele>
        <time>2026-04-22T20:06:59.285Z</time>
      </trkpt>
      <trkpt lat="51.968209" lon="5.658640">
        <ele>9.486550</ele>
        <time>2026-04-22T20:07:01.643Z</time>
      </trkpt>
      <trkpt lat="51.968405" lon="5.660780">
        <ele>9.878868</ele>
        <time>2026-04-22T20:07:25.023Z</time>
      </trkpt>
      <trkpt lat="51.968491" lon="5.661769">
        <ele>10.081520</ele>
        <time>2026-04-22T20:07:34.119Z</time>
      </trkpt>
      <trkpt lat="51.968544" lon="5.662381">
        <ele>10.183164</ele>
        <time>2026-04-22T20:07:39.489Z</time>
      </trkpt>
      <trkpt lat="51.968624" lon="5.663247">
        <ele>10.307808</ele>
        <time>2026-04-22T20:07:47.147Z</time>
      </trkpt>
      <trkpt lat="51.968646" lon="5.663473">
        <ele>10.340376</ele>
        <time>2026-04-22T20:07:49.296Z</time>
      </trkpt>
      <trkpt lat="51.968733" lon="5.663950">
        <ele>10.411184</ele>
        <time>2026-04-22T20:07:54.218Z</time>
      </trkpt>
      <trkpt lat="51.968821" lon="5.664892">
        <ele>10.559622</ele>
        <time>2026-04-22T20:08:04.492Z</time>
      </trkpt>
      <trkpt lat="51.968588" lon="5.665116">
        <ele>10.827477</ele>
        <time>2026-04-22T20:08:10.877Z</time>
      </trkpt>
      <trkpt lat="51.968325" lon="5.665207">
        <ele>11.093459</ele>
        <time>2026-04-22T20:08:17.272Z</time>
      </trkpt>
      <trkpt lat="51.968259" lon="5.665230">
        <ele>11.160228</ele>
        <time>2026-04-22T20:08:18.915Z</time>
      </trkpt>
      <trkpt lat="51.968193" lon="5.665307">
        <ele>11.240624</ele>
        <time>2026-04-22T20:08:20.919Z</time>
      </trkpt>
      <trkpt lat="51.968066" lon="5.665327">
        <ele>11.366832</ele>
        <time>2026-04-22T20:08:24.059Z</time>
      </trkpt>
      <trkpt lat="51.967955" lon="5.665404">
        <ele>11.486230</ele>
        <time>2026-04-22T20:08:27.077Z</time>
      </trkpt>
      <trkpt lat="51.967856" lon="5.665490">
        <ele>11.597295</ele>
        <time>2026-04-22T20:08:29.897Z</time>
      </trkpt>
      <trkpt lat="51.967527" lon="5.665644">
        <ele>11.935976</ele>
        <time>2026-04-22T20:08:38.593Z</time>
      </trkpt>
      <trkpt lat="51.967492" lon="5.665687">
        <ele>11.979394</ele>
        <time>2026-04-22T20:08:39.663Z</time>
      </trkpt>
      <trkpt lat="51.967472" lon="5.665766">
        <ele>12.031443</ele>
        <time>2026-04-22T20:08:40.989Z</time>
      </trkpt>
      <trkpt lat="51.967485" lon="5.666025">
        <ele>12.189801</ele>
        <time>2026-04-22T20:08:44.958Z</time>
      </trkpt>
      <trkpt lat="51.967523" lon="5.666663">
        <ele>12.347253</ele>
        <time>2026-04-22T20:08:54.389Z</time>
      </trkpt>
      <trkpt lat="51.967531" lon="5.666946">
        <ele>12.364150</ele>
        <time>2026-04-22T20:08:58.410Z</time>
      </trkpt>
      <trkpt lat="51.967489" lon="5.667287">
        <ele>12.384891</ele>
        <time>2026-04-22T20:09:03.353Z</time>
      </trkpt>
      <trkpt lat="51.967387" lon="5.667781">
        <ele>12.415966</ele>
        <time>2026-04-22T20:09:10.552Z</time>
      </trkpt>
      <trkpt lat="51.967247" lon="5.667983">
        <ele>12.434100</ele>
        <time>2026-04-22T20:09:14.394Z</time>
      </trkpt>
      <trkpt lat="51.967110" lon="5.668042">
        <ele>12.447821</ele>
        <time>2026-04-22T20:09:17.109Z</time>
      </trkpt>
      <trkpt lat="51.967030" lon="5.668123">
        <ele>12.456949</ele>
        <time>2026-04-22T20:09:18.815Z</time>
      </trkpt>
      <trkpt lat="51.966928" lon="5.668225">
        <ele>12.468548</ele>
        <time>2026-04-22T20:09:20.930Z</time>
      </trkpt>
      <trkpt lat="51.966633" lon="5.668519">
        <ele>12.436523</ele>
        <time>2026-04-22T20:09:26.900Z</time>
      </trkpt>
      <trkpt lat="51.966417" lon="5.668732">
        <ele>12.192848</ele>
        <time>2026-04-22T20:09:31.135Z</time>
      </trkpt>
      <trkpt lat="51.966343" lon="5.668805">
        <ele>12.109358</ele>
        <time>2026-04-22T20:09:32.599Z</time>
      </trkpt>
      <trkpt lat="51.966219" lon="5.668858">
        <ele>11.985730</ele>
        <time>2026-04-22T20:09:34.757Z</time>
      </trkpt>
      <trkpt lat="51.966207" lon="5.669066">
        <ele>11.861633</ele>
        <time>2026-04-22T20:09:36.929Z</time>
      </trkpt>
      <trkpt lat="51.966121" lon="5.669280">
        <ele>11.709861</ele>
        <time>2026-04-22T20:09:39.625Z</time>
      </trkpt>
      <trkpt lat="51.966045" lon="5.669577">
        <ele>11.518824</ele>
        <time>2026-04-22T20:09:43.037Z</time>
      </trkpt>
      <trkpt lat="51.965849" lon="5.670440">
        <ele>10.972459</ele>
        <time>2026-04-22T20:09:52.909Z</time>
      </trkpt>
      <trkpt lat="51.965825" lon="5.670554">
        <ele>10.900895</ele>
        <time>2026-04-22T20:09:54.244Z</time>
      </trkpt>
      <trkpt lat="51.965696" lon="5.671131">
        <ele>10.547946</ele>
        <time>2026-04-22T20:10:01.282Z</time>
      </trkpt>
      <trkpt lat="51.965587" lon="5.671674">
        <ele>10.226246</ele>
        <time>2026-04-22T20:10:07.722Z</time>
      </trkpt>
      <trkpt lat="51.965429" lon="5.672141">
        <ele>9.926130</ele>
        <time>2026-04-22T20:10:11.824Z</time>
      </trkpt>
      <trkpt lat="51.965297" lon="5.672635">
        <ele>9.622813</ele>
        <time>2026-04-22T20:10:15.838Z</time>
      </trkpt>
      <trkpt lat="51.965158" lon="5.673326">
        <ele>9.213344</ele>
        <time>2026-04-22T20:10:21.159Z</time>
      </trkpt>
      <trkpt lat="51.964975" lon="5.674284">
        <ele>8.806197</ele>
        <time>2026-04-22T20:10:28.567Z</time>
      </trkpt>
      <trkpt lat="51.964871" lon="5.675095">
        <ele>8.496550</ele>
        <time>2026-04-22T20:10:35.032Z</time>
      </trkpt>
      <trkpt lat="51.964832" lon="5.676031">
        <ele>8.145874</ele>
        <time>2026-04-22T20:10:43.051Z</time>
      </trkpt>
      <trkpt lat="51.964849" lon="5.676575">
        <ele>8.012142</ele>
        <time>2026-04-22T20:10:48.083Z</time>
      </trkpt>
      <trkpt lat="51.964721" lon="5.678240">
        <ele>7.906225</ele>
        <time>2026-04-22T20:11:03.389Z</time>
      </trkpt>
      <trkpt lat="51.964625" lon="5.679365">
        <ele>7.844926</ele>
        <time>2026-04-22T20:11:13.258Z</time>
      </trkpt>
      <trkpt lat="51.964539" lon="5.680086">
        <ele>7.862510</ele>
        <time>2026-04-22T20:11:19.664Z</time>
      </trkpt>
      <trkpt lat="51.964308" lon="5.683141">
        <ele>8.254180</ele>
        <time>2026-04-22T20:11:48.989Z</time>
      </trkpt>
      <trkpt lat="51.964245" lon="5.684851">
        <ele>8.833171</ele>
        <time>2026-04-22T20:12:07.462Z</time>
      </trkpt>
      <trkpt lat="51.964264" lon="5.685129">
        <ele>8.950237</ele>
        <time>2026-04-22T20:12:10.591Z</time>
      </trkpt>
      <trkpt lat="51.964314" lon="5.685302">
        <ele>9.064806</ele>
        <time>2026-04-22T20:12:12.772Z</time>
      </trkpt>
      <trkpt lat="51.964341" lon="5.685446">
        <ele>9.155053</ele>
        <time>2026-04-22T20:12:14.576Z</time>
      </trkpt>
      <trkpt lat="51.964264" lon="5.686017">
        <ele>9.505509</ele>
        <time>2026-04-22T20:12:21.535Z</time>
      </trkpt>
      <trkpt lat="51.964407" lon="5.687855">
        <ele>10.616262</ele>
        <time>2026-04-22T20:12:43.647Z</time>
      </trkpt>
      <trkpt lat="51.964423" lon="5.688245">
        <ele>10.683589</ele>
        <time>2026-04-22T20:12:48.043Z</time>
      </trkpt>
      <trkpt lat="51.964598" lon="5.693439">
        <ele>11.064350</ele>
        <time>2026-04-22T20:13:35.276Z</time>
      </trkpt>
      <trkpt lat="51.964745" lon="5.695880">
        <ele>11.155071</ele>
        <time>2026-04-22T20:14:00.753Z</time>
      </trkpt>
      <trkpt lat="51.964902" lon="5.697939">
        <ele>10.617532</ele>
        <time>2026-04-22T20:14:16.538Z</time>
      </trkpt>
      <trkpt lat="51.965071" lon="5.699486">
        <ele>9.938709</ele>
        <time>2026-04-22T20:14:28.783Z</time>
      </trkpt>
      <trkpt lat="51.965377" lon="5.701815">
        <ele>9.750957</ele>
        <time>2026-04-22T20:14:49.952Z</time>
      </trkpt>
      <trkpt lat="51.965720" lon="5.703926">
        <ele>10.056016</ele>
        <time>2026-04-22T20:15:10.952Z</time>
      </trkpt>
      <trkpt lat="51.965947" lon="5.704817">
        <ele>10.264496</ele>
        <time>2026-04-22T20:15:21.497Z</time>
      </trkpt>
      <trkpt lat="51.966250" lon="5.705861">
        <ele>10.252931</ele>
        <time>2026-04-22T20:15:33.254Z</time>
      </trkpt>
      <trkpt lat="51.966507" lon="5.706952">
        <ele>10.126337</ele>
        <time>2026-04-22T20:15:43.732Z</time>
      </trkpt>
      <trkpt lat="51.966790" lon="5.707863">
        <ele>10.006482</ele>
        <time>2026-04-22T20:15:51.493Z</time>
      </trkpt>
      <trkpt lat="51.966939" lon="5.708850">
        <ele>9.767756</ele>
        <time>2026-04-22T20:15:59.230Z</time>
      </trkpt>
      <trkpt lat="51.967118" lon="5.709984">
        <ele>9.492751</ele>
        <time>2026-04-22T20:16:08.856Z</time>
      </trkpt>
      <trkpt lat="51.967335" lon="5.710932">
        <ele>9.356357</ele>
        <time>2026-04-22T20:16:19.277Z</time>
      </trkpt>
      <trkpt lat="51.967415" lon="5.711253">
        <ele>9.374514</ele>
        <time>2026-04-22T20:16:22.817Z</time>
      </trkpt>
      <trkpt lat="51.967545" lon="5.711481">
        <ele>9.390803</ele>
        <time>2026-04-22T20:16:25.954Z</time>
      </trkpt>
      <trkpt lat="51.967661" lon="5.711559">
        <ele>9.401489</ele>
        <time>2026-04-22T20:16:28.026Z</time>
      </trkpt>
      <trkpt lat="51.967797" lon="5.711575">
        <ele>9.413093</ele>
        <time>2026-04-22T20:16:30.292Z</time>
      </trkpt>
      <trkpt lat="51.967824" lon="5.711859">
        <ele>9.428161</ele>
        <time>2026-04-22T20:16:33.092Z</time>
      </trkpt>
      <trkpt lat="51.968345" lon="5.715903">
        <ele>9.181455</ele>
        <time>2026-04-22T20:17:08.277Z</time>
      </trkpt>
      <trkpt lat="51.968467" lon="5.717176">
        <ele>9.769830</ele>
        <time>2026-04-22T20:17:21.647Z</time>
      </trkpt>
      <trkpt lat="51.968565" lon="5.717540">
        <ele>9.951249</ele>
        <time>2026-04-22T20:17:26.194Z</time>
      </trkpt>
      <trkpt lat="51.968688" lon="5.718209">
        <ele>10.270097</ele>
        <time>2026-04-22T20:17:34.517Z</time>
      </trkpt>
      <trkpt lat="51.968770" lon="5.719181">
        <ele>10.904861</ele>
        <time>2026-04-22T20:17:46.553Z</time>
      </trkpt>
      <trkpt lat="51.968944" lon="5.720009">
        <ele>11.659833</ele>
        <time>2026-04-22T20:17:57.664Z</time>
      </trkpt>
      <trkpt lat="51.969390" lon="5.720802">
        <ele>12.586443</ele>
        <time>2026-04-22T20:18:11.422Z</time>
      </trkpt>
      <trkpt lat="51.969762" lon="5.722005">
        <ele>13.329454</ele>
        <time>2026-04-22T20:18:28.520Z</time>
      </trkpt>
      <trkpt lat="51.969903" lon="5.722478">
        <ele>13.519411</ele>
        <time>2026-04-22T20:18:34.515Z</time>
      </trkpt>
      <trkpt lat="51.970147" lon="5.723228">
        <ele>13.826022</ele>
        <time>2026-04-22T20:18:45.905Z</time>
      </trkpt>
      <trkpt lat="51.970452" lon="5.724331">
        <ele>13.892168</ele>
        <time>2026-04-22T20:19:00.330Z</time>
      </trkpt>
      <trkpt lat="51.970721" lon="5.725530">
        <ele>13.402698</ele>
        <time>2026-04-22T20:19:14.051Z</time>
      </trkpt>
      <trkpt lat="51.970847" lon="5.726246">
        <ele>13.117065</ele>
        <time>2026-04-22T20:19:22.230Z</time>
      </trkpt>
      <trkpt lat="51.970926" lon="5.726719">
        <ele>12.950358</ele>
        <time>2026-04-22T20:19:27.721Z</time>
      </trkpt>
      <trkpt lat="51.971802" lon="5.732004">
        <ele>12.214134</ele>
        <time>2026-04-22T20:20:15.795Z</time>
      </trkpt>
      <trkpt lat="51.972059" lon="5.733774">
        <ele>11.951639</ele>
        <time>2026-04-22T20:20:30.654Z</time>
      </trkpt>
      <trkpt lat="51.972068" lon="5.735186">
        <ele>11.757686</ele>
        <time>2026-04-22T20:20:42.999Z</time>
      </trkpt>
      <trkpt lat="51.972115" lon="5.735283">
        <ele>11.794767</ele>
        <time>2026-04-22T20:20:44.170Z</time>
      </trkpt>
      <trkpt lat="51.972178" lon="5.735334">
        <ele>11.829104</ele>
        <time>2026-04-22T20:20:45.317Z</time>
      </trkpt>
      <trkpt lat="51.972352" lon="5.735288">
        <ele>11.915091</ele>
        <time>2026-04-22T20:20:48.138Z</time>
      </trkpt>
      <trkpt lat="51.972369" lon="5.735281">
        <ele>11.923645</ele>
        <time>2026-04-22T20:20:48.422Z</time>
      </trkpt>
      <trkpt lat="51.972414" lon="5.735261">
        <ele>11.946402</ele>
        <time>2026-04-22T20:20:49.172Z</time>
      </trkpt>
      <trkpt lat="51.972434" lon="5.735252">
        <ele>11.956525</ele>
        <time>2026-04-22T20:20:49.643Z</time>
      </trkpt>
      <trkpt lat="51.972457" lon="5.735241">
        <ele>11.968220</ele>
        <time>2026-04-22T20:20:50.048Z</time>
      </trkpt>
      <trkpt lat="51.972482" lon="5.735231">
        <ele>11.980778</ele>
        <time>2026-04-22T20:20:50.476Z</time>
      </trkpt>
      <trkpt lat="51.972576" lon="5.735192">
        <ele>12.028101</ele>
        <time>2026-04-22T20:20:52.136Z</time>
      </trkpt>
      <trkpt lat="51.972809" lon="5.735089">
        <ele>12.145885</ele>
        <time>2026-04-22T20:20:56.442Z</time>
      </trkpt>
      <trkpt lat="51.972882" lon="5.735113">
        <ele>12.182214</ele>
        <time>2026-04-22T20:20:57.784Z</time>
      </trkpt>
      <trkpt lat="51.972901" lon="5.735191">
        <ele>12.207416</ele>
        <time>2026-04-22T20:20:58.733Z</time>
      </trkpt>
      <trkpt lat="51.972914" lon="5.735294">
        <ele>12.239008</ele>
        <time>2026-04-22T20:20:59.915Z</time>
      </trkpt>
      <trkpt lat="51.972923" lon="5.735344">
        <ele>12.254659</ele>
        <time>2026-04-22T20:21:00.523Z</time>
      </trkpt>
      <trkpt lat="51.972942" lon="5.735474">
        <ele>12.294805</ele>
        <time>2026-04-22T20:21:02.058Z</time>
      </trkpt>
      <trkpt lat="51.972946" lon="5.735499">
        <ele>12.302566</ele>
        <time>2026-04-22T20:21:02.349Z</time>
      </trkpt>
      <trkpt lat="51.972995" lon="5.735754">
        <ele>12.382827</ele>
        <time>2026-04-22T20:21:05.465Z</time>
      </trkpt>
      <trkpt lat="51.973075" lon="5.736540">
        <ele>12.622198</ele>
        <time>2026-04-22T20:21:13.934Z</time>
      </trkpt>
      <trkpt lat="51.973210" lon="5.737352">
        <ele>12.460051</ele>
        <time>2026-04-22T20:21:21.698Z</time>
      </trkpt>
      <trkpt lat="51.973319" lon="5.737759">
        <ele>12.372151</ele>
        <time>2026-04-22T20:21:25.360Z</time>
      </trkpt>
      <trkpt lat="51.973494" lon="5.738243">
        <ele>12.260997</ele>
        <time>2026-04-22T20:21:29.842Z</time>
      </trkpt>
      <trkpt lat="51.973623" lon="5.738568">
        <ele>12.184423</ele>
        <time>2026-04-22T20:21:32.889Z</time>
      </trkpt>
      <trkpt lat="51.974250" lon="5.740176">
        <ele>12.279082</ele>
        <time>2026-04-22T20:21:48.309Z</time>
      </trkpt>
      <trkpt lat="51.974642" lon="5.741193">
        <ele>12.510151</ele>
        <time>2026-04-22T20:22:00.452Z</time>
      </trkpt>
      <trkpt lat="51.974928" lon="5.741651">
        <ele>12.784969</ele>
        <time>2026-04-22T20:22:08.814Z</time>
      </trkpt>
      <trkpt lat="51.975000" lon="5.741830">
        <ele>13.055395</ele>
        <time>2026-04-22T20:22:11.752Z</time>
      </trkpt>
      <trkpt lat="51.975347" lon="5.742698">
        <ele>14.364334</ele>
        <time>2026-04-22T20:22:26.968Z</time>
      </trkpt>
      <trkpt lat="51.975502" lon="5.743099">
        <ele>14.963174</ele>
        <time>2026-04-22T20:22:34.209Z</time>
      </trkpt>
      <trkpt lat="51.976431" lon="5.745480">
        <ele>18.124230</ele>
        <time>2026-04-22T20:23:14.025Z</time>
      </trkpt>
      <trkpt lat="51.976754" lon="5.746306">
        <ele>19.137126</ele>
        <time>2026-04-22T20:23:26.334Z</time>
      </trkpt>
      <trkpt lat="51.976889" lon="5.746663">
        <ele>19.392047</ele>
        <time>2026-04-22T20:23:31.441Z</time>
      </trkpt>
      <trkpt lat="51.976911" lon="5.746720">
        <ele>19.410952</ele>
        <time>2026-04-22T20:23:32.259Z</time>
      </trkpt>
      <trkpt lat="51.977546" lon="5.748299">
        <ele>19.940955</ele>
        <time>2026-04-22T20:23:52.138Z</time>
      </trkpt>
      <trkpt lat="51.977504" lon="5.748417">
        <ele>19.979259</ele>
        <time>2026-04-22T20:23:53.370Z</time>
      </trkpt>
      <trkpt lat="51.977516" lon="5.748507">
        <ele>20.005140</ele>
        <time>2026-04-22T20:23:54.214Z</time>
      </trkpt>
      <trkpt lat="51.977563" lon="5.748574">
        <ele>20.033680</ele>
        <time>2026-04-22T20:23:55.116Z</time>
      </trkpt>
      <trkpt lat="51.977625" lon="5.748581">
        <ele>20.062038</ele>
        <time>2026-04-22T20:23:56.042Z</time>
      </trkpt>
      <trkpt lat="51.978056" lon="5.749660">
        <ele>19.959419</ele>
        <time>2026-04-22T20:24:06.792Z</time>
      </trkpt>
      <trkpt lat="51.978680" lon="5.751251">
        <ele>19.602568</ele>
        <time>2026-04-22T20:24:22.375Z</time>
      </trkpt>
      <trkpt lat="51.979099" lon="5.752332">
        <ele>19.554535</ele>
        <time>2026-04-22T20:24:34.018Z</time>
      </trkpt>
      <trkpt lat="51.979295" lon="5.752835">
        <ele>19.535603</ele>
        <time>2026-04-22T20:24:39.944Z</time>
      </trkpt>
      <trkpt lat="51.979481" lon="5.753313">
        <ele>19.517620</ele>
        <time>2026-04-22T20:24:45.175Z</time>
      </trkpt>
      <trkpt lat="51.979697" lon="5.753871">
        <ele>19.476722</ele>
        <time>2026-04-22T20:24:50.702Z</time>
      </trkpt>
      <trkpt lat="51.979817" lon="5.754182">
        <ele>19.408627</ele>
        <time>2026-04-22T20:24:53.715Z</time>
      </trkpt>
      <trkpt lat="51.979965" lon="5.754564">
        <ele>19.324890</ele>
        <time>2026-04-22T20:24:57.419Z</time>
      </trkpt>
      <trkpt lat="51.980055" lon="5.754834">
        <ele>19.267925</ele>
        <time>2026-04-22T20:25:00.981Z</time>
      </trkpt>
      <trkpt lat="51.980075" lon="5.754886">
        <ele>19.256550</ele>
        <time>2026-04-22T20:25:01.685Z</time>
      </trkpt>
      <trkpt lat="51.980417" lon="5.755757">
        <ele>19.064889</ele>
        <time>2026-04-22T20:25:13.673Z</time>
      </trkpt>
      <trkpt lat="51.980480" lon="5.755920">
        <ele>19.029183</ele>
        <time>2026-04-22T20:25:15.883Z</time>
      </trkpt>
      <trkpt lat="51.980495" lon="5.755956">
        <ele>19.021118</ele>
        <time>2026-04-22T20:25:16.397Z</time>
      </trkpt>
      <trkpt lat="51.980794" lon="5.756700">
        <ele>18.824336</ele>
        <time>2026-04-22T20:25:27.457Z</time>
      </trkpt>
      <trkpt lat="51.980887" lon="5.756933">
        <ele>18.756787</ele>
        <time>2026-04-22T20:25:31.095Z</time>
      </trkpt>
      <trkpt lat="51.981116" lon="5.757515">
        <ele>18.588765</ele>
        <time>2026-04-22T20:25:38.073Z</time>
      </trkpt>
      <trkpt lat="51.981223" lon="5.757799">
        <ele>18.507770</ele>
        <time>2026-04-22T20:25:41.267Z</time>
      </trkpt>
      <trkpt lat="51.981626" lon="5.758832">
        <ele>18.097051</ele>
        <time>2026-04-22T20:25:50.370Z</time>
      </trkpt>
      <trkpt lat="51.981749" lon="5.759149">
        <ele>17.735680</ele>
        <time>2026-04-22T20:25:52.959Z</time>
      </trkpt>
      <trkpt lat="51.981810" lon="5.759568">
        <ele>17.320406</ele>
        <time>2026-04-22T20:25:55.891Z</time>
      </trkpt>
      <trkpt lat="51.981937" lon="5.760189">
        <ele>16.689279</ele>
        <time>2026-04-22T20:26:00.335Z</time>
      </trkpt>
      <trkpt lat="51.981962" lon="5.760499">
        <ele>16.387725</ele>
        <time>2026-04-22T20:26:02.446Z</time>
      </trkpt>
      <trkpt lat="51.981958" lon="5.760903">
        <ele>15.998007</ele>
        <time>2026-04-22T20:26:05.152Z</time>
      </trkpt>
      <trkpt lat="51.981903" lon="5.761810">
        <ele>15.488744</ele>
        <time>2026-04-22T20:26:11.693Z</time>
      </trkpt>
      <trkpt lat="51.981899" lon="5.761878">
        <ele>15.500744</ele>
        <time>2026-04-22T20:26:12.240Z</time>
      </trkpt>
      <trkpt lat="51.981861" lon="5.761985">
        <ele>15.522441</ele>
        <time>2026-04-22T20:26:13.278Z</time>
      </trkpt>
      <trkpt lat="51.981851" lon="5.762167">
        <ele>15.554540</ele>
        <time>2026-04-22T20:26:14.891Z</time>
      </trkpt>
      <trkpt lat="51.981871" lon="5.762266">
        <ele>15.572842</ele>
        <time>2026-04-22T20:26:15.898Z</time>
      </trkpt>
      <trkpt lat="51.981800" lon="5.762650">
        <ele>15.643273</ele>
        <time>2026-04-22T20:26:19.756Z</time>
      </trkpt>
      <trkpt lat="51.981652" lon="5.763293">
        <ele>15.763858</ele>
        <time>2026-04-22T20:26:27.050Z</time>
      </trkpt>
      <trkpt lat="51.981621" lon="5.763410">
        <ele>15.786233</ele>
        <time>2026-04-22T20:26:28.450Z</time>
      </trkpt>
      <trkpt lat="51.981482" lon="5.763911">
        <ele>15.882761</ele>
        <time>2026-04-22T20:26:34.742Z</time>
      </trkpt>
      <trkpt lat="51.981009" lon="5.765376">
        <ele>17.199302</ele>
        <time>2026-04-22T20:26:56.073Z</time>
      </trkpt>
      <trkpt lat="51.980900" lon="5.765789">
        <ele>17.632551</ele>
        <time>2026-04-22T20:27:01.891Z</time>
      </trkpt>
      <trkpt lat="51.980816" lon="5.766472">
        <ele>18.304127</ele>
        <time>2026-04-22T20:27:11.063Z</time>
      </trkpt>
      <trkpt lat="51.980789" lon="5.767156">
        <ele>18.992255</ele>
        <time>2026-04-22T20:27:20.279Z</time>
      </trkpt>
      <trkpt lat="51.981111" lon="5.771714">
        <ele>23.778171</ele>
        <time>2026-04-22T20:28:22.458Z</time>
      </trkpt>
      <trkpt lat="51.981181" lon="5.772090">
        <ele>24.159899</ele>
        <time>2026-04-22T20:28:27.433Z</time>
      </trkpt>
      <trkpt lat="51.981867" lon="5.774387">
        <ele>25.987362</ele>
        <time>2026-04-22T20:28:57.651Z</time>
      </trkpt>
      <trkpt lat="51.981994" lon="5.774783">
        <ele>26.268118</ele>
        <time>2026-04-22T20:29:02.694Z</time>
      </trkpt>
      <trkpt lat="51.982121" lon="5.775046">
        <ele>26.478273</ele>
        <time>2026-04-22T20:29:06.299Z</time>
      </trkpt>
      <trkpt lat="51.982237" lon="5.775295">
        <ele>26.638945</ele>
        <time>2026-04-22T20:29:09.784Z</time>
      </trkpt>
      <trkpt lat="51.982332" lon="5.775589">
        <ele>26.695178</ele>
        <time>2026-04-22T20:29:13.530Z</time>
      </trkpt>
      <trkpt lat="51.982342" lon="5.775773">
        <ele>26.726463</ele>
        <time>2026-04-22T20:29:15.620Z</time>
      </trkpt>
      <trkpt lat="51.982316" lon="5.775941">
        <ele>26.755802</ele>
        <time>2026-04-22T20:29:17.557Z</time>
      </trkpt>
      <trkpt lat="51.982402" lon="5.776004">
        <ele>26.781748</ele>
        <time>2026-04-22T20:29:19.248Z</time>
      </trkpt>
      <trkpt lat="51.982444" lon="5.776072">
        <ele>26.798059</ele>
        <time>2026-04-22T20:29:20.352Z</time>
      </trkpt>
      <trkpt lat="51.982524" lon="5.776188">
        <ele>26.827554</ele>
        <time>2026-04-22T20:29:22.296Z</time>
      </trkpt>
      <trkpt lat="51.982540" lon="5.776212">
        <ele>26.833545</ele>
        <time>2026-04-22T20:29:22.701Z</time>
      </trkpt>
      <trkpt lat="51.982630" lon="5.776343">
        <ele>26.866784</ele>
        <time>2026-04-22T20:29:24.816Z</time>
      </trkpt>
      <trkpt lat="51.982579" lon="5.776432">
        <ele>26.887373</ele>
        <time>2026-04-22T20:29:26.068Z</time>
      </trkpt>
      <trkpt lat="51.982528" lon="5.776526">
        <ele>26.908590</ele>
        <time>2026-04-22T20:29:27.289Z</time>
      </trkpt>
      <trkpt lat="51.982428" lon="5.776689">
        <ele>26.947557</ele>
        <time>2026-04-22T20:29:29.415Z</time>
      </trkpt>
      <trkpt lat="51.982419" lon="5.776704">
        <ele>26.951104</ele>
        <time>2026-04-22T20:29:29.601Z</time>
      </trkpt>
      <trkpt lat="51.982344" lon="5.776811">
        <ele>26.978560</ele>
        <time>2026-04-22T20:29:30.997Z</time>
      </trkpt>
      <trkpt lat="51.982275" lon="5.776935">
        <ele>27.006864</ele>
        <time>2026-04-22T20:29:32.388Z</time>
      </trkpt>
      <trkpt lat="51.982035" lon="5.777503">
        <ele>27.121257</ele>
        <time>2026-04-22T20:29:38.020Z</time>
      </trkpt>
      <trkpt lat="51.981995" lon="5.777719">
        <ele>27.131505</ele>
        <time>2026-04-22T20:29:39.893Z</time>
      </trkpt>
      <trkpt lat="51.981831" lon="5.778227">
        <ele>27.157567</ele>
        <time>2026-04-22T20:29:44.638Z</time>
      </trkpt>
      <trkpt lat="51.981771" lon="5.778397">
        <ele>27.166469</ele>
        <time>2026-04-22T20:29:46.180Z</time>
      </trkpt>
      <trkpt lat="51.981217" lon="5.779973">
        <ele>27.248922</ele>
        <time>2026-04-22T20:30:02.980Z</time>
      </trkpt>
      <trkpt lat="51.981124" lon="5.780262">
        <ele>27.465191</ele>
        <time>2026-04-22T20:30:07.124Z</time>
      </trkpt>
      <trkpt lat="51.981042" lon="5.780560">
        <ele>27.761273</ele>
        <time>2026-04-22T20:30:11.284Z</time>
      </trkpt>
      <trkpt lat="51.980949" lon="5.781036">
        <ele>28.214281</ele>
        <time>2026-04-22T20:30:17.658Z</time>
      </trkpt>
      <trkpt lat="51.980879" lon="5.781766">
        <ele>28.884480</ele>
        <time>2026-04-22T20:30:27.612Z</time>
      </trkpt>
      <trkpt lat="51.980847" lon="5.782521">
        <ele>29.571000</ele>
        <time>2026-04-22T20:30:38.179Z</time>
      </trkpt>
      <trkpt lat="51.980831" lon="5.784303">
        <ele>31.690225</ele>
        <time>2026-04-22T20:31:01.205Z</time>
      </trkpt>
      <trkpt lat="51.980830" lon="5.784436">
        <ele>31.858051</ele>
        <time>2026-04-22T20:31:03.047Z</time>
      </trkpt>
      <trkpt lat="51.980818" lon="5.784988">
        <ele>32.554977</ele>
        <time>2026-04-22T20:31:10.928Z</time>
      </trkpt>
      <trkpt lat="51.980758" lon="5.785923">
        <ele>33.838956</ele>
        <time>2026-04-22T20:31:25.130Z</time>
      </trkpt>
      <trkpt lat="51.980613" lon="5.787208">
        <ele>36.532824</ele>
        <time>2026-04-22T20:31:47.647Z</time>
      </trkpt>
      <trkpt lat="51.980410" lon="5.788328">
        <ele>38.940279</ele>
        <time>2026-04-22T20:32:08.907Z</time>
      </trkpt>
      <trkpt lat="51.980044" lon="5.789675">
        <ele>42.228323</ele>
        <time>2026-04-22T20:32:35.493Z</time>
      </trkpt>
      <trkpt lat="51.979967" lon="5.789930">
        <ele>42.876316</ele>
        <time>2026-04-22T20:32:40.402Z</time>
      </trkpt>
      <trkpt lat="51.979522" lon="5.791415">
        <ele>46.625464</ele>
        <time>2026-04-22T20:33:10.874Z</time>
      </trkpt>
      <trkpt lat="51.979222" lon="5.792484">
        <ele>49.169814</ele>
        <time>2026-04-22T20:33:33.022Z</time>
      </trkpt>
      <trkpt lat="51.979204" lon="5.792570">
        <ele>49.366543</ele>
        <time>2026-04-22T20:33:34.658Z</time>
      </trkpt>
      <trkpt lat="51.978945" lon="5.793834">
        <ele>52.251779</ele>
        <time>2026-04-22T20:33:58.267Z</time>
      </trkpt>
      <trkpt lat="51.978918" lon="5.793989">
        <ele>52.598453</ele>
        <time>2026-04-22T20:34:01.009Z</time>
      </trkpt>
      <trkpt lat="51.978815" lon="5.794634">
        <ele>53.313920</ele>
        <time>2026-04-22T20:34:11.300Z</time>
      </trkpt>
      <trkpt lat="51.978791" lon="5.794809">
        <ele>53.506428</ele>
        <time>2026-04-22T20:34:13.915Z</time>
      </trkpt>
      <trkpt lat="51.978763" lon="5.795047">
        <ele>53.766602</ele>
        <time>2026-04-22T20:34:17.341Z</time>
      </trkpt>
      <trkpt lat="51.978700" lon="5.795693">
        <ele>54.468888</ele>
        <time>2026-04-22T20:34:26.032Z</time>
      </trkpt>
      <trkpt lat="51.978651" lon="5.796314">
        <ele>55.141140</ele>
        <time>2026-04-22T20:34:33.953Z</time>
      </trkpt>
      <trkpt lat="51.978635" lon="5.796555">
        <ele>55.401414</ele>
        <time>2026-04-22T20:34:36.917Z</time>
      </trkpt>
      <trkpt lat="51.978621" lon="5.796808">
        <ele>55.674169</ele>
        <time>2026-04-22T20:34:39.820Z</time>
      </trkpt>
      <trkpt lat="51.978593" lon="5.797321">
        <ele>55.630515</ele>
        <time>2026-04-22T20:34:44.885Z</time>
      </trkpt>
      <trkpt lat="51.978555" lon="5.797976">
        <ele>55.486170</ele>
        <time>2026-04-22T20:34:50.441Z</time>
      </trkpt>
      <trkpt lat="51.978541" lon="5.798767">
        <ele>55.312550</ele>
        <time>2026-04-22T20:34:56.876Z</time>
      </trkpt>
      <trkpt lat="51.978557" lon="5.799424">
        <ele>55.168289</ele>
        <time>2026-04-22T20:35:01.992Z</time>
      </trkpt>
      <trkpt lat="51.978560" lon="5.799568">
        <ele>55.136677</ele>
        <time>2026-04-22T20:35:03.110Z</time>
      </trkpt>
      <trkpt lat="51.978611" lon="5.801961">
        <ele>53.065805</ele>
        <time>2026-04-22T20:35:20.785Z</time>
      </trkpt>
      <trkpt lat="51.978609" lon="5.802180">
        <ele>52.862938</ele>
        <time>2026-04-22T20:35:22.258Z</time>
      </trkpt>
      <trkpt lat="51.978608" lon="5.803137">
        <ele>51.914685</ele>
        <time>2026-04-22T20:35:28.458Z</time>
      </trkpt>
      <trkpt lat="51.978608" lon="5.803187">
        <ele>51.861385</ele>
        <time>2026-04-22T20:35:28.781Z</time>
      </trkpt>
      <trkpt lat="51.978605" lon="5.803592">
        <ele>51.429624</ele>
        <time>2026-04-22T20:35:31.369Z</time>
      </trkpt>
      <trkpt lat="51.978598" lon="5.804567">
        <ele>50.390204</ele>
        <time>2026-04-22T20:35:37.772Z</time>
      </trkpt>
      <trkpt lat="51.978600" lon="5.805136">
        <ele>49.783640</ele>
        <time>2026-04-22T20:35:41.815Z</time>
      </trkpt>
      <trkpt lat="51.978604" lon="5.805328">
        <ele>49.578851</ele>
        <time>2026-04-22T20:35:43.301Z</time>
      </trkpt>
      <trkpt lat="51.978534" lon="5.805407">
        <ele>49.431311</ele>
        <time>2026-04-22T20:35:44.432Z</time>
      </trkpt>
      <trkpt lat="51.978533" lon="5.805546">
        <ele>49.283126</ele>
        <time>2026-04-22T20:35:45.603Z</time>
      </trkpt>
      <trkpt lat="51.978564" lon="5.805601">
        <ele>49.303415</ele>
        <time>2026-04-22T20:35:46.274Z</time>
      </trkpt>
      <trkpt lat="51.978632" lon="5.805624">
        <ele>49.354707</ele>
        <time>2026-04-22T20:35:47.283Z</time>
      </trkpt>
      <trkpt lat="51.978698" lon="5.805541">
        <ele>49.416355</ele>
        <time>2026-04-22T20:35:48.605Z</time>
      </trkpt>
      <trkpt lat="51.978705" lon="5.805450">
        <ele>49.458067</ele>
        <time>2026-04-22T20:35:49.519Z</time>
      </trkpt>
      <trkpt lat="51.978864" lon="5.805377">
        <ele>49.580084</ele>
        <time>2026-04-22T20:35:52.381Z</time>
      </trkpt>
      <trkpt lat="51.978888" lon="5.805492">
        <ele>49.635311</ele>
        <time>2026-04-22T20:35:54.155Z</time>
      </trkpt>
      <trkpt lat="51.978988" lon="5.805641">
        <ele>49.735540</ele>
        <time>2026-04-22T20:35:57.473Z</time>
      </trkpt>
      <trkpt lat="51.979280" lon="5.805868">
        <ele>49.974609</ele>
        <time>2026-04-22T20:36:05.658Z</time>
      </trkpt>
      <trkpt lat="51.979468" lon="5.805970">
        <ele>50.120981</ele>
        <time>2026-04-22T20:36:10.756Z</time>
      </trkpt>
      <trkpt lat="51.979613" lon="5.806043">
        <ele>50.233085</ele>
        <time>2026-04-22T20:36:14.635Z</time>
      </trkpt>
      <trkpt lat="51.980568" lon="5.806404">
        <ele>51.178152</ele>
        <time>2026-04-22T20:36:38.261Z</time>
      </trkpt>
      <trkpt lat="51.980862" lon="5.806429">
        <ele>51.530738</ele>
        <time>2026-04-22T20:36:45.489Z</time>
      </trkpt>
      <trkpt lat="51.980914" lon="5.806538">
        <ele>51.632440</ele>
        <time>2026-04-22T20:36:47.602Z</time>
      </trkpt>
      <trkpt lat="51.980952" lon="5.809446">
        <ele>52.823308</ele>
        <time>2026-04-22T20:37:33.318Z</time>
      </trkpt>
      <trkpt lat="51.980928" lon="5.809684">
        <ele>52.835044</ele>
        <time>2026-04-22T20:37:36.326Z</time>
      </trkpt>
      <trkpt lat="51.980919" lon="5.809731">
        <ele>52.837440</ele>
        <time>2026-04-22T20:37:36.912Z</time>
      </trkpt>
      <trkpt lat="51.980895" lon="5.809929">
        <ele>52.847260</ele>
        <time>2026-04-22T20:37:41.394Z</time>
      </trkpt>
      <trkpt lat="51.980788" lon="5.810134">
        <ele>52.860337</ele>
        <time>2026-04-22T20:37:47.130Z</time>
      </trkpt>
      <trkpt lat="51.980630" lon="5.810505">
        <ele>52.882288</ele>
        <time>2026-04-22T20:37:56.414Z</time>
      </trkpt>
      <trkpt lat="51.979930" lon="5.812152">
        <ele>51.658978</ele>
        <time>2026-04-22T20:38:35.506Z</time>
      </trkpt>
      <trkpt lat="51.979835" lon="5.812386">
        <ele>51.452091</ele>
        <time>2026-04-22T20:38:41.130Z</time>
      </trkpt>
      <trkpt lat="51.979360" lon="5.813556">
        <ele>50.920345</ele>
        <time>2026-04-22T20:39:11.674Z</time>
      </trkpt>
      <trkpt lat="51.978958" lon="5.813902">
        <ele>51.219375</ele>
        <time>2026-04-22T20:39:29.893Z</time>
      </trkpt>
      <trkpt lat="51.978925" lon="5.813851">
        <ele>51.249319</ele>
        <time>2026-04-22T20:39:30.919Z</time>
      </trkpt>
      <trkpt lat="51.978927" lon="5.813968">
        <ele>51.296700</ele>
        <time>2026-04-22T20:39:32.697Z</time>
      </trkpt>
      <trkpt lat="51.979074" lon="5.814526">
        <ele>51.542377</ele>
        <time>2026-04-22T20:39:41.839Z</time>
      </trkpt>
      <trkpt lat="51.979155" lon="5.814710">
        <ele>51.633929</ele>
        <time>2026-04-22T20:39:45.366Z</time>
      </trkpt>
      <trkpt lat="51.979625" lon="5.815537">
        <ele>52.006026</ele>
        <time>2026-04-22T20:40:02.901Z</time>
      </trkpt>
      <trkpt lat="51.980338" lon="5.816808">
        <ele>52.350212</ele>
        <time>2026-04-22T20:40:26.165Z</time>
      </trkpt>
      <trkpt lat="51.981428" lon="5.817747">
        <ele>51.262699</ele>
        <time>2026-04-22T20:40:42.526Z</time>
      </trkpt>
      <trkpt lat="51.981671" lon="5.817985">
        <ele>50.788114</ele>
        <time>2026-04-22T20:40:45.739Z</time>
      </trkpt>
      <trkpt lat="51.981695" lon="5.818156">
        <ele>50.607470</ele>
        <time>2026-04-22T20:40:46.913Z</time>
      </trkpt>
      <trkpt lat="51.981712" lon="5.819216">
        <ele>49.515304</ele>
        <time>2026-04-22T20:40:53.729Z</time>
      </trkpt>
      <trkpt lat="51.981729" lon="5.820164">
        <ele>47.468945</ele>
        <time>2026-04-22T20:40:59.575Z</time>
      </trkpt>
      <trkpt lat="51.981708" lon="5.820910">
        <ele>45.845255</ele>
        <time>2026-04-22T20:41:04.104Z</time>
      </trkpt>
      <trkpt lat="51.981723" lon="5.821127">
        <ele>45.370478</ele>
        <time>2026-04-22T20:41:05.417Z</time>
      </trkpt>
      <trkpt lat="51.981776" lon="5.821398">
        <ele>44.752263</ele>
        <time>2026-04-22T20:41:07.128Z</time>
      </trkpt>
      <trkpt lat="51.981851" lon="5.821800">
        <ele>43.838993</ele>
        <time>2026-04-22T20:41:09.651Z</time>
      </trkpt>
      <trkpt lat="51.981844" lon="5.823158">
        <ele>41.964901</ele>
        <time>2026-04-22T20:41:18.069Z</time>
      </trkpt>
      <trkpt lat="51.981843" lon="5.823189">
        <ele>41.929543</ele>
        <time>2026-04-22T20:41:18.270Z</time>
      </trkpt>
      <trkpt lat="51.981932" lon="5.823265">
        <ele>41.743576</ele>
        <time>2026-04-22T20:41:19.808Z</time>
      </trkpt>
      <trkpt lat="51.982118" lon="5.823321">
        <ele>41.393736</ele>
        <time>2026-04-22T20:41:22.744Z</time>
      </trkpt>
      <trkpt lat="51.982174" lon="5.823333">
        <ele>41.289275</ele>
        <time>2026-04-22T20:41:23.654Z</time>
      </trkpt>
      <trkpt lat="51.982175" lon="5.823410">
        <ele>41.201551</ele>
        <time>2026-04-22T20:41:24.421Z</time>
      </trkpt>
      <trkpt lat="51.982185" lon="5.823506">
        <ele>41.090652</ele>
        <time>2026-04-22T20:41:25.397Z</time>
      </trkpt>
      <trkpt lat="51.982269" lon="5.823631">
        <ele>40.879932</ele>
        <time>2026-04-22T20:41:27.295Z</time>
      </trkpt>
      <trkpt lat="51.982473" lon="5.823733">
        <ele>40.485185</ele>
        <time>2026-04-22T20:41:31.016Z</time>
      </trkpt>
      <trkpt lat="51.982628" lon="5.823933">
        <ele>40.119043</ele>
        <time>2026-04-22T20:41:34.725Z</time>
      </trkpt>
      <trkpt lat="51.982848" lon="5.823939">
        <ele>39.927201</ele>
        <time>2026-04-22T20:41:39.352Z</time>
      </trkpt>
      <trkpt lat="51.983109" lon="5.824094">
        <ele>40.389059</ele>
        <time>2026-04-22T20:41:45.700Z</time>
      </trkpt>
      <trkpt lat="51.983320" lon="5.824016">
        <ele>40.748692</ele>
        <time>2026-04-22T20:41:51.108Z</time>
      </trkpt>
      <trkpt lat="51.983583" lon="5.824024">
        <ele>41.185847</ele>
        <time>2026-04-22T20:41:57.998Z</time>
      </trkpt>
      <trkpt lat="51.983612" lon="5.824018">
        <ele>41.234432</ele>
        <time>2026-04-22T20:41:58.816Z</time>
      </trkpt>
      <trkpt lat="51.983639" lon="5.824039">
        <ele>41.284186</ele>
        <time>2026-04-22T20:41:59.635Z</time>
      </trkpt>
      <trkpt lat="51.983685" lon="5.824094">
        <ele>41.379124</ele>
        <time>2026-04-22T20:42:02.171Z</time>
      </trkpt>
      <trkpt lat="51.983690" lon="5.824099">
        <ele>41.388883</ele>
        <time>2026-04-22T20:42:02.338Z</time>
      </trkpt>
      <trkpt lat="51.983755" lon="5.824186">
        <ele>41.528877</ele>
        <time>2026-04-22T20:42:04.743Z</time>
      </trkpt>
      <trkpt lat="51.983759" lon="5.824298">
        <ele>41.643706</ele>
        <time>2026-04-22T20:42:06.718Z</time>
      </trkpt>
      <trkpt lat="51.983613" lon="5.824608">
        <ele>42.043142</ele>
        <time>2026-04-22T20:42:13.741Z</time>
      </trkpt>
      <trkpt lat="51.983599" lon="5.824688">
        <ele>42.128267</ele>
        <time>2026-04-22T20:42:15.248Z</time>
      </trkpt>
      <trkpt lat="51.983615" lon="5.824766">
        <ele>42.212415</ele>
        <time>2026-04-22T20:42:16.784Z</time>
      </trkpt>
      <trkpt lat="51.983714" lon="5.824874">
        <ele>42.410629</ele>
        <time>2026-04-22T20:42:20.435Z</time>
      </trkpt>
      <trkpt lat="51.983816" lon="5.824962">
        <ele>42.602586</ele>
        <time>2026-04-22T20:42:23.407Z</time>
      </trkpt>
      <trkpt lat="51.983992" lon="5.825025">
        <ele>42.960800</ele>
        <time>2026-04-22T20:42:28.194Z</time>
      </trkpt>
      <trkpt lat="51.984238" lon="5.825233">
        <ele>43.730797</ele>
        <time>2026-04-22T20:42:35.862Z</time>
      </trkpt>
      <trkpt lat="51.985079" lon="5.826444">
        <ele>46.851443</ele>
        <time>2026-04-22T20:43:07.527Z</time>
      </trkpt>
      <trkpt lat="51.985112" lon="5.826531">
        <ele>47.026142</ele>
        <time>2026-04-22T20:43:09.082Z</time>
      </trkpt>
      <trkpt lat="51.985088" lon="5.826644">
        <ele>47.230512</ele>
        <time>2026-04-22T20:43:10.877Z</time>
      </trkpt>
      <trkpt lat="51.984949" lon="5.826990">
        <ele>47.814543</ele>
        <time>2026-04-22T20:43:16.685Z</time>
      </trkpt>
      <trkpt lat="51.984947" lon="5.827038">
        <ele>47.818741</ele>
        <time>2026-04-22T20:43:17.319Z</time>
      </trkpt>
      <trkpt lat="51.985018" lon="5.827242">
        <ele>47.839192</ele>
        <time>2026-04-22T20:43:20.311Z</time>
      </trkpt>
      <trkpt lat="51.985724" lon="5.828437">
        <ele>47.983716</ele>
        <time>2026-04-22T20:43:35.479Z</time>
      </trkpt>
      <trkpt lat="51.985887" lon="5.828766">
        <ele>48.020568</ele>
        <time>2026-04-22T20:43:38.579Z</time>
      </trkpt>
      <trkpt lat="51.985940" lon="5.828971">
        <ele>48.039972</ele>
        <time>2026-04-22T20:43:40.240Z</time>
      </trkpt>
      <trkpt lat="51.985951" lon="5.829455">
        <ele>48.076116</ele>
        <time>2026-04-22T20:43:44.034Z</time>
      </trkpt>
      <trkpt lat="51.985939" lon="5.830638">
        <ele>48.146749</ele>
        <time>2026-04-22T20:43:53.502Z</time>
      </trkpt>
      <trkpt lat="51.985976" lon="5.830906">
        <ele>48.163146</ele>
        <time>2026-04-22T20:43:55.880Z</time>
      </trkpt>
      <trkpt lat="51.986031" lon="5.831104">
        <ele>48.176113</ele>
        <time>2026-04-22T20:43:57.816Z</time>
      </trkpt>
      <trkpt lat="51.986026" lon="5.831557">
        <ele>48.203160</ele>
        <time>2026-04-22T20:44:02.626Z</time>
      </trkpt>
      <trkpt lat="51.986008" lon="5.831864">
        <ele>48.221571</ele>
        <time>2026-04-22T20:44:06.328Z</time>
      </trkpt>
      <trkpt lat="51.986018" lon="5.832101">
        <ele>48.235753</ele>
        <time>2026-04-22T20:44:09.401Z</time>
      </trkpt>
      <trkpt lat="51.986066" lon="5.832348">
        <ele>48.472459</ele>
        <time>2026-04-22T20:44:12.944Z</time>
      </trkpt>
      <trkpt lat="51.986300" lon="5.832768">
        <ele>49.040394</ele>
        <time>2026-04-22T20:44:20.636Z</time>
      </trkpt>
      <trkpt lat="51.986465" lon="5.832954">
        <ele>49.367454</ele>
        <time>2026-04-22T20:44:25.175Z</time>
      </trkpt>
      <trkpt lat="51.986699" lon="5.833421">
        <ele>49.971165</ele>
        <time>2026-04-22T20:44:33.519Z</time>
      </trkpt>
      <trkpt lat="51.986770" lon="5.833633">
        <ele>50.213151</ele>
        <time>2026-04-22T20:44:36.812Z</time>
      </trkpt>
      <trkpt lat="51.986847" lon="5.833987">
        <ele>50.589617</ele>
        <time>2026-04-22T20:44:41.991Z</time>
      </trkpt>
      <trkpt lat="51.986869" lon="5.834138">
        <ele>50.745213</ele>
        <time>2026-04-22T20:44:44.140Z</time>
      </trkpt>
      <trkpt lat="51.986913" lon="5.834415">
        <ele>51.032067</ele>
        <time>2026-04-22T20:44:48.120Z</time>
      </trkpt>
      <trkpt lat="51.987078" lon="5.834962">
        <ele>51.111829</ele>
        <time>2026-04-22T20:44:55.526Z</time>
      </trkpt>
      <trkpt lat="51.987188" lon="5.835218">
        <ele>51.076357</ele>
        <time>2026-04-22T20:44:58.864Z</time>
      </trkpt>
      <trkpt lat="51.987679" lon="5.835228">
        <ele>50.985750</ele>
        <time>2026-04-22T20:45:06.040Z</time>
      </trkpt>
      <trkpt lat="51.987842" lon="5.835231">
        <ele>50.955671</ele>
        <time>2026-04-22T20:45:08.121Z</time>
      </trkpt>
      <trkpt lat="51.987957" lon="5.835236">
        <ele>50.934444</ele>
        <time>2026-04-22T20:45:09.542Z</time>
      </trkpt>
      <trkpt lat="51.988228" lon="5.835255">
        <ele>50.884392</ele>
        <time>2026-04-22T20:45:12.821Z</time>
      </trkpt>
      <trkpt lat="51.988127" lon="5.836074">
        <ele>50.622971</ele>
        <time>2026-04-22T20:45:18.794Z</time>
      </trkpt>
      <trkpt lat="51.988089" lon="5.836405">
        <ele>50.441589</ele>
        <time>2026-04-22T20:45:21.089Z</time>
      </trkpt>
      <trkpt lat="51.987969" lon="5.837361">
        <ele>49.916002</ele>
        <time>2026-04-22T20:45:27.867Z</time>
      </trkpt>
      <trkpt lat="51.987930" lon="5.837674">
        <ele>49.743971</ele>
        <time>2026-04-22T20:45:30.251Z</time>
      </trkpt>
      <trkpt lat="51.987891" lon="5.837965">
        <ele>49.583539</ele>
        <time>2026-04-22T20:45:32.569Z</time>
      </trkpt>
      <trkpt lat="51.987961" lon="5.837986">
        <ele>49.521270</ele>
        <time>2026-04-22T20:45:33.515Z</time>
      </trkpt>
      <trkpt lat="51.988013" lon="5.838009">
        <ele>49.474125</ele>
        <time>2026-04-22T20:45:34.279Z</time>
      </trkpt>
      <trkpt lat="51.988086" lon="5.838050">
        <ele>49.406556</ele>
        <time>2026-04-22T20:45:35.360Z</time>
      </trkpt>
      <trkpt lat="51.989536" lon="5.838799">
        <ele>50.592574</ele>
        <time>2026-04-22T20:46:05.155Z</time>
      </trkpt>
      <trkpt lat="51.989854" lon="5.838962">
        <ele>50.920431</ele>
        <time>2026-04-22T20:46:11.867Z</time>
      </trkpt>
      <trkpt lat="51.990629" lon="5.839362">
        <ele>51.290182</ele>
        <time>2026-04-22T20:46:26.699Z</time>
      </trkpt>
      <trkpt lat="51.991834" lon="5.840067">
        <ele>51.431595</ele>
        <time>2026-04-22T20:46:45.877Z</time>
      </trkpt>
      <trkpt lat="51.991950" lon="5.840140">
        <ele>51.252766</ele>
        <time>2026-04-22T20:46:47.604Z</time>
      </trkpt>
      <trkpt lat="51.991993" lon="5.840163">
        <ele>51.187688</ele>
        <time>2026-04-22T20:46:48.222Z</time>
      </trkpt>
      <trkpt lat="51.992111" lon="5.840245">
        <ele>51.003190</ele>
        <time>2026-04-22T20:46:49.971Z</time>
      </trkpt>
      <trkpt lat="51.992379" lon="5.840406">
        <ele>50.592433</ele>
        <time>2026-04-22T20:46:53.621Z</time>
      </trkpt>
      <trkpt lat="51.993151" lon="5.840872">
        <ele>49.408526</ele>
        <time>2026-04-22T20:47:02.605Z</time>
      </trkpt>
      <trkpt lat="51.993492" lon="5.841071">
        <ele>48.896238</ele>
        <time>2026-04-22T20:47:06.352Z</time>
      </trkpt>
      <trkpt lat="51.993558" lon="5.841111">
        <ele>48.798847</ele>
        <time>2026-04-22T20:47:07.089Z</time>
      </trkpt>
      <trkpt lat="51.994026" lon="5.841502">
        <ele>48.071242</ele>
        <time>2026-04-22T20:47:12.695Z</time>
      </trkpt>
      <trkpt lat="51.994106" lon="5.841578">
        <ele>47.943110</ele>
        <time>2026-04-22T20:47:13.708Z</time>
      </trkpt>
      <trkpt lat="51.994127" lon="5.841598">
        <ele>47.909454</ele>
        <time>2026-04-22T20:47:13.978Z</time>
      </trkpt>
      <trkpt lat="51.994192" lon="5.841664">
        <ele>47.803473</ele>
        <time>2026-04-22T20:47:14.812Z</time>
      </trkpt>
      <trkpt lat="51.994127" lon="5.841598">
        <ele>47.697493</ele>
        <time>2026-04-22T20:47:15.678Z</time>
      </trkpt>
      <trkpt lat="51.994106" lon="5.841578">
        <ele>47.663837</ele>
        <time>2026-04-22T20:47:15.944Z</time>
      </trkpt>
      <trkpt lat="51.994026" lon="5.841502">
        <ele>47.535704</ele>
        <time>2026-04-22T20:47:16.994Z</time>
      </trkpt>
      <trkpt lat="51.993230" lon="5.843490">
        <ele>46.896640</ele>
        <time>2026-04-22T20:47:39.465Z</time>
      </trkpt>
      <trkpt lat="51.992578" lon="5.845078">
        <ele>47.408648</ele>
        <time>2026-04-22T20:47:59.034Z</time>
      </trkpt>
      <trkpt lat="51.992083" lon="5.846254">
        <ele>48.267649</ele>
        <time>2026-04-22T20:48:14.429Z</time>
      </trkpt>
      <trkpt lat="51.991253" lon="5.848271">
        <ele>49.652897</ele>
        <time>2026-04-22T20:48:45.528Z</time>
      </trkpt>
      <trkpt lat="51.990814" lon="5.849347">
        <ele>50.349036</ele>
        <time>2026-04-22T20:48:59.807Z</time>
      </trkpt>
      <trkpt lat="51.990766" lon="5.849496">
        <ele>50.439729</ele>
        <time>2026-04-22T20:49:01.393Z</time>
      </trkpt>
      <trkpt lat="51.990662" lon="5.849767">
        <ele>50.538532</ele>
        <time>2026-04-22T20:49:04.318Z</time>
      </trkpt>
      <trkpt lat="51.990282" lon="5.850670">
        <ele>50.075867</ele>
        <time>2026-04-22T20:49:13.404Z</time>
      </trkpt>
      <trkpt lat="51.990110" lon="5.851100">
        <ele>49.858960</ele>
        <time>2026-04-22T20:49:17.365Z</time>
      </trkpt>
      <trkpt lat="51.989605" lon="5.852455">
        <ele>48.982633</ele>
        <time>2026-04-22T20:49:29.179Z</time>
      </trkpt>
      <trkpt lat="51.988931" lon="5.854426">
        <ele>46.683573</ele>
        <time>2026-04-22T20:49:44.975Z</time>
      </trkpt>
      <trkpt lat="51.988780" lon="5.854991">
        <ele>45.899767</ele>
        <time>2026-04-22T20:49:49.059Z</time>
      </trkpt>
      <trkpt lat="51.988544" lon="5.855998">
        <ele>44.233012</ele>
        <time>2026-04-22T20:49:56.021Z</time>
      </trkpt>
      <trkpt lat="51.988251" lon="5.857438">
        <ele>41.886970</ele>
        <time>2026-04-22T20:50:05.772Z</time>
      </trkpt>
      <trkpt lat="51.987950" lon="5.859486">
        <ele>38.165808</ele>
        <time>2026-04-22T20:50:19.521Z</time>
      </trkpt>
      <trkpt lat="51.987912" lon="5.859645">
        <ele>37.863813</ele>
        <time>2026-04-22T20:50:20.594Z</time>
      </trkpt>
      <trkpt lat="51.987860" lon="5.859976">
        <ele>37.258950</ele>
        <time>2026-04-22T20:50:22.711Z</time>
      </trkpt>
      <trkpt lat="51.987583" lon="5.862380">
        <ele>32.531165</ele>
        <time>2026-04-22T20:50:37.409Z</time>
      </trkpt>
      <trkpt lat="51.987426" lon="5.863172">
        <ele>30.958844</ele>
        <time>2026-04-22T20:50:42.901Z</time>
      </trkpt>
      <trkpt lat="51.987349" lon="5.863663">
        <ele>31.248184</ele>
        <time>2026-04-22T20:50:46.745Z</time>
      </trkpt>
      <trkpt lat="51.987758" lon="5.863782">
        <ele>31.633490</ele>
        <time>2026-04-22T20:50:53.683Z</time>
      </trkpt>
      <trkpt lat="51.987735" lon="5.864210">
        <ele>31.878831</ele>
        <time>2026-04-22T20:50:59.146Z</time>
      </trkpt>
      <trkpt lat="51.987730" lon="5.864305">
        <ele>31.933280</ele>
        <time>2026-04-22T20:51:00.476Z</time>
      </trkpt>
      <trkpt lat="51.987724" lon="5.864410">
        <ele>31.993498</ele>
        <time>2026-04-22T20:51:01.963Z</time>
      </trkpt>
      <trkpt lat="51.987705" lon="5.864656">
        <ele>32.135079</ele>
        <time>2026-04-22T20:51:05.631Z</time>
      </trkpt>
      <trkpt lat="51.987529" lon="5.868507">
        <ele>36.412486</ele>
        <time>2026-04-22T20:52:05.072Z</time>
      </trkpt>
      <trkpt lat="51.987516" lon="5.868843">
        <ele>36.227342</ele>
        <time>2026-04-22T20:52:08.130Z</time>
      </trkpt>
      <trkpt lat="51.987361" lon="5.872182">
        <ele>35.283460</ele>
        <time>2026-04-22T20:52:31.533Z</time>
      </trkpt>
      <trkpt lat="51.987336" lon="5.872752">
        <ele>35.560685</ele>
        <time>2026-04-22T20:52:37.361Z</time>
      </trkpt>
      <trkpt lat="51.987350" lon="5.872917">
        <ele>35.641488</ele>
        <time>2026-04-22T20:52:39.285Z</time>
      </trkpt>
      <trkpt lat="51.987409" lon="5.873176">
        <ele>35.775457</ele>
        <time>2026-04-22T20:52:42.836Z</time>
      </trkpt>
      <trkpt lat="51.987542" lon="5.873584">
        <ele>35.999409</ele>
        <time>2026-04-22T20:52:49.446Z</time>
      </trkpt>
      <trkpt lat="51.987571" lon="5.873672">
        <ele>36.047829</ele>
        <time>2026-04-22T20:52:51.041Z</time>
      </trkpt>
      <trkpt lat="51.987730" lon="5.874068">
        <ele>36.277164</ele>
        <time>2026-04-22T20:52:58.914Z</time>
      </trkpt>
      <trkpt lat="51.987831" lon="5.874248">
        <ele>36.526484</ele>
        <time>2026-04-22T20:53:03.144Z</time>
      </trkpt>
      <trkpt lat="51.988195" lon="5.874766">
        <ele>37.340339</ele>
        <time>2026-04-22T20:53:17.012Z</time>
      </trkpt>
      <trkpt lat="51.988264" lon="5.874930">
        <ele>37.546014</ele>
        <time>2026-04-22T20:53:20.423Z</time>
      </trkpt>
      <trkpt lat="51.988298" lon="5.875106">
        <ele>37.737022</ele>
        <time>2026-04-22T20:53:23.504Z</time>
      </trkpt>
      <trkpt lat="51.988279" lon="5.875314">
        <ele>37.954766</ele>
        <time>2026-04-22T20:53:26.772Z</time>
      </trkpt>
      <trkpt lat="51.987946" lon="5.876253">
        <ele>39.076823</ele>
        <time>2026-04-22T20:53:38.366Z</time>
      </trkpt>
      <trkpt lat="51.987673" lon="5.876991">
        <ele>38.921250</ele>
        <time>2026-04-22T20:53:44.668Z</time>
      </trkpt>
      <trkpt lat="51.987668" lon="5.877165">
        <ele>38.817272</ele>
        <time>2026-04-22T20:53:45.945Z</time>
      </trkpt>
      <trkpt lat="51.987297" lon="5.877355">
        <ele>38.440198</ele>
        <time>2026-04-22T20:53:50.391Z</time>
      </trkpt>
      <trkpt lat="51.987276" lon="5.879475">
        <ele>37.158896</ele>
        <time>2026-04-22T20:54:06.615Z</time>
      </trkpt>
      <trkpt lat="51.987223" lon="5.880612">
        <ele>36.450672</ele>
        <time>2026-04-22T20:54:15.179Z</time>
      </trkpt>
      <trkpt lat="51.987029" lon="5.881722">
        <ele>35.730399</ele>
        <time>2026-04-22T20:54:23.634Z</time>
      </trkpt>
      <trkpt lat="51.986997" lon="5.881958">
        <ele>35.537386</ele>
        <time>2026-04-22T20:54:26.322Z</time>
      </trkpt>
      <trkpt lat="51.987000" lon="5.882066">
        <ele>35.451037</ele>
        <time>2026-04-22T20:54:27.530Z</time>
      </trkpt>
      <trkpt lat="51.987005" lon="5.882151">
        <ele>35.382837</ele>
        <time>2026-04-22T20:54:28.442Z</time>
      </trkpt>
      <trkpt lat="51.987915" lon="5.881976">
        <ele>34.194357</ele>
        <time>2026-04-22T20:54:39.442Z</time>
      </trkpt>
      <trkpt lat="51.988007" lon="5.882039">
        <ele>34.064861</ele>
        <time>2026-04-22T20:54:40.668Z</time>
      </trkpt>
      <trkpt lat="51.988042" lon="5.882238">
        <ele>33.899564</ele>
        <time>2026-04-22T20:54:42.238Z</time>
      </trkpt>
      <trkpt lat="51.987909" lon="5.883562">
        <ele>32.649838</ele>
        <time>2026-04-22T20:54:51.507Z</time>
      </trkpt>
      <trkpt lat="51.987944" lon="5.883699">
        <ele>32.495322</ele>
        <time>2026-04-22T20:54:52.463Z</time>
      </trkpt>
      <trkpt lat="51.987990" lon="5.883763">
        <ele>32.392848</ele>
        <time>2026-04-22T20:54:53.084Z</time>
      </trkpt>
      <trkpt lat="51.987855" lon="5.884152">
        <ele>31.927679</ele>
        <time>2026-04-22T20:54:55.951Z</time>
      </trkpt>
      <trkpt lat="51.987788" lon="5.884854">
        <ele>31.187621</ele>
        <time>2026-04-22T20:55:00.716Z</time>
      </trkpt>
      <trkpt lat="51.987763" lon="5.885073">
        <ele>30.955585</ele>
        <time>2026-04-22T20:55:02.290Z</time>
      </trkpt>
      <trkpt lat="51.987653" lon="5.885797">
        <ele>30.387567</ele>
        <time>2026-04-22T20:55:10.273Z</time>
      </trkpt>
      <trkpt lat="51.987655" lon="5.885896">
        <ele>30.396356</ele>
        <time>2026-04-22T20:55:11.413Z</time>
      </trkpt>
      <trkpt lat="51.987471" lon="5.886981">
        <ele>30.496213</ele>
        <time>2026-04-22T20:55:25.498Z</time>
      </trkpt>
      <trkpt lat="51.987251" lon="5.888422">
        <ele>30.627946</ele>
        <time>2026-04-22T20:55:45.778Z</time>
      </trkpt>
      <trkpt lat="51.987230" lon="5.888687">
        <ele>30.799611</ele>
        <time>2026-04-22T20:55:49.824Z</time>
      </trkpt>
      <trkpt lat="51.987135" lon="5.889212">
        <ele>31.185057</ele>
        <time>2026-04-22T20:55:58.429Z</time>
      </trkpt>
      <trkpt lat="51.987005" lon="5.890067">
        <ele>31.805409</ele>
        <time>2026-04-22T20:56:12.746Z</time>
      </trkpt>
      <trkpt lat="51.986853" lon="5.891092">
        <ele>32.548066</ele>
        <time>2026-04-22T20:56:29.150Z</time>
      </trkpt>
      <trkpt lat="51.986750" lon="5.891769">
        <ele>32.568752</ele>
        <time>2026-04-22T20:56:39.182Z</time>
      </trkpt>
      <trkpt lat="51.986711" lon="5.892009">
        <ele>32.509635</ele>
        <time>2026-04-22T20:56:42.585Z</time>
      </trkpt>
      <trkpt lat="51.986716" lon="5.892131">
        <ele>32.480515</ele>
        <time>2026-04-22T20:56:44.257Z</time>
      </trkpt>
      <trkpt lat="51.986687" lon="5.892254">
        <ele>32.449147</ele>
        <time>2026-04-22T20:56:45.926Z</time>
      </trkpt>
      <trkpt lat="51.986475" lon="5.892746">
        <ele>32.306133</ele>
        <time>2026-04-22T20:56:53.225Z</time>
      </trkpt>
      <trkpt lat="51.986357" lon="5.893454">
        <ele>32.131443</ele>
        <time>2026-04-22T20:57:00.837Z</time>
      </trkpt>
      <trkpt lat="51.986227" lon="5.894221">
        <ele>31.882749</ele>
        <time>2026-04-22T20:57:08.629Z</time>
      </trkpt>
      <trkpt lat="51.985985" lon="5.895286">
        <ele>31.292605</ele>
        <time>2026-04-22T20:57:20.713Z</time>
      </trkpt>
      <trkpt lat="51.985766" lon="5.896328">
        <ele>30.720224</ele>
        <time>2026-04-22T20:57:33.047Z</time>
      </trkpt>
      <trkpt lat="51.985743" lon="5.896556">
        <ele>30.600114</ele>
        <time>2026-04-22T20:57:36.077Z</time>
      </trkpt>
      <trkpt lat="51.985837" lon="5.896844">
        <ele>30.389676</ele>
        <time>2026-04-22T20:57:40.691Z</time>
      </trkpt>
      <trkpt lat="51.985770" lon="5.896865">
        <ele>30.277263</ele>
        <time>2026-04-22T20:57:41.571Z</time>
      </trkpt>
      <trkpt lat="51.985735" lon="5.896867">
        <ele>30.219568</ele>
        <time>2026-04-22T20:57:42.045Z</time>
      </trkpt>
      <trkpt lat="51.985002" lon="5.896955">
        <ele>29.008722</ele>
        <time>2026-04-22T20:57:51.039Z</time>
      </trkpt>
      <trkpt lat="51.984929" lon="5.896966">
        <ele>28.887945</ele>
        <time>2026-04-22T20:57:52.234Z</time>
      </trkpt>
      <trkpt lat="51.983804" lon="5.897024">
        <ele>27.064793</ele>
        <time>2026-04-22T20:58:09.116Z</time>
      </trkpt>
      <trkpt lat="51.983766" lon="5.897195">
        <ele>26.892379</ele>
        <time>2026-04-22T20:58:10.246Z</time>
      </trkpt>
      <trkpt lat="51.983703" lon="5.897671">
        <ele>26.430623</ele>
        <time>2026-04-22T20:58:13.385Z</time>
      </trkpt>
      <trkpt lat="51.983678" lon="5.898057">
        <ele>26.062512</ele>
        <time>2026-04-22T20:58:16.044Z</time>
      </trkpt>
      <trkpt lat="51.983650" lon="5.898641">
        <ele>25.506956</ele>
        <time>2026-04-22T20:58:20.432Z</time>
      </trkpt>
      <trkpt lat="51.983629" lon="5.899082">
        <ele>25.087452</ele>
        <time>2026-04-22T20:58:24.660Z</time>
      </trkpt>
      <trkpt lat="51.983545" lon="5.900038">
        <ele>24.435883</ele>
        <time>2026-04-22T20:58:32.988Z</time>
      </trkpt>
      <trkpt lat="51.983524" lon="5.900276">
        <ele>24.313726</ele>
        <time>2026-04-22T20:58:34.931Z</time>
      </trkpt>
      <trkpt lat="51.983513" lon="5.900390">
        <ele>24.255098</ele>
        <time>2026-04-22T20:58:36.246Z</time>
      </trkpt>
      <trkpt lat="51.983499" lon="5.900551">
        <ele>24.172486</ele>
        <time>2026-04-22T20:58:38.094Z</time>
      </trkpt>
      <trkpt lat="51.983490" lon="5.900663">
        <ele>24.115098</ele>
        <time>2026-04-22T20:58:39.369Z</time>
      </trkpt>
      <trkpt lat="51.983463" lon="5.900934">
        <ele>23.975618</ele>
        <time>2026-04-22T20:58:42.276Z</time>
      </trkpt>
      <trkpt lat="51.983432" lon="5.901263">
        <ele>23.806515</ele>
        <time>2026-04-22T20:58:45.630Z</time>
      </trkpt>
      <trkpt lat="51.983328" lon="5.902356">
        <ele>23.247379</ele>
        <time>2026-04-22T20:58:57.272Z</time>
      </trkpt>
      <trkpt lat="51.983308" lon="5.902536">
        <ele>23.175238</ele>
        <time>2026-04-22T20:58:59.187Z</time>
      </trkpt>
      <trkpt lat="51.983283" lon="5.902760">
        <ele>23.085450</ele>
        <time>2026-04-22T20:59:01.587Z</time>
      </trkpt>
      <trkpt lat="51.983266" lon="5.902868">
        <ele>23.041484</ele>
        <time>2026-04-22T20:59:02.797Z</time>
      </trkpt>
      <trkpt lat="51.983208" lon="5.902954">
        <ele>22.991183</ele>
        <time>2026-04-22T20:59:04.156Z</time>
      </trkpt>
      <trkpt lat="51.983083" lon="5.903429">
        <ele>22.787451</ele>
        <time>2026-04-22T20:59:08.239Z</time>
      </trkpt>
      <trkpt lat="51.983091" lon="5.903444">
        <ele>22.779624</ele>
        <time>2026-04-22T20:59:08.480Z</time>
      </trkpt>
      <trkpt lat="51.983118" lon="5.903513">
        <ele>22.747381</ele>
        <time>2026-04-22T20:59:09.424Z</time>
      </trkpt>
      <trkpt lat="51.983171" lon="5.903770">
        <ele>22.640485</ele>
        <time>2026-04-22T20:59:12.503Z</time>
      </trkpt>
      <trkpt lat="51.983209" lon="5.904524">
        <ele>22.342101</ele>
        <time>2026-04-22T20:59:21.302Z</time>
      </trkpt>
      <trkpt lat="51.983149" lon="5.904651">
        <ele>22.278971</ele>
        <time>2026-04-22T20:59:23.369Z</time>
      </trkpt>
      <trkpt lat="51.983137" lon="5.904818">
        <ele>22.212656</ele>
        <time>2026-04-22T20:59:25.519Z</time>
      </trkpt>
      <trkpt lat="51.983162" lon="5.905286">
        <ele>21.948798</ele>
        <time>2026-04-22T20:59:31.247Z</time>
      </trkpt>
      <trkpt lat="51.983192" lon="5.905706">
        <ele>21.613647</ele>
        <time>2026-04-22T20:59:35.955Z</time>
      </trkpt>
      <trkpt lat="51.983230" lon="5.906479">
        <ele>20.998969</ele>
        <time>2026-04-22T20:59:43.887Z</time>
      </trkpt>
      <trkpt lat="51.983235" lon="5.906610">
        <ele>20.894931</ele>
        <time>2026-04-22T20:59:45.188Z</time>
      </trkpt>
      <trkpt lat="51.983243" lon="5.906774">
        <ele>20.764527</ele>
        <time>2026-04-22T20:59:46.832Z</time>
      </trkpt>
      <trkpt lat="51.983247" lon="5.907093">
        <ele>20.511614</ele>
        <time>2026-04-22T20:59:49.977Z</time>
      </trkpt>
      <trkpt lat="51.983251" lon="5.907419">
        <ele>20.253155</ele>
        <time>2026-04-22T20:59:53.157Z</time>
      </trkpt>
      <trkpt lat="51.983252" lon="5.907802">
        <ele>19.949562</ele>
        <time>2026-04-22T20:59:56.918Z</time>
      </trkpt>
      <trkpt lat="51.983267" lon="5.908782">
        <ele>19.504217</ele>
        <time>2026-04-22T21:00:06.804Z</time>
      </trkpt>
      <trkpt lat="51.983283" lon="5.908874">
        <ele>19.469126</ele>
        <time>2026-04-22T21:00:07.809Z</time>
      </trkpt>
      <trkpt lat="51.983328" lon="5.908941">
        <ele>19.432737</ele>
        <time>2026-04-22T21:00:08.827Z</time>
      </trkpt>
      <trkpt lat="51.983462" lon="5.909088">
        <ele>19.336352</ele>
        <time>2026-04-22T21:00:11.667Z</time>
      </trkpt>
      <trkpt lat="51.983498" lon="5.909238">
        <ele>19.277259</ele>
        <time>2026-04-22T21:00:13.503Z</time>
      </trkpt>
      <trkpt lat="51.983482" lon="5.909541">
        <ele>19.165628</ele>
        <time>2026-04-22T21:00:17.141Z</time>
      </trkpt>
      <trkpt lat="51.983389" lon="5.910498">
        <ele>18.809995</ele>
        <time>2026-04-22T21:00:29.797Z</time>
      </trkpt>
      <trkpt lat="51.983324" lon="5.910688">
        <ele>18.730215</ele>
        <time>2026-04-22T21:00:32.378Z</time>
      </trkpt>
      <trkpt lat="51.983174" lon="5.910969">
        <ele>18.705628</ele>
        <time>2026-04-22T21:00:37.252Z</time>
      </trkpt>
      <trkpt lat="51.982864" lon="5.911510">
        <ele>18.678001</ele>
        <time>2026-04-22T21:00:46.634Z</time>
      </trkpt>
      <trkpt lat="51.982845" lon="5.911565">
        <ele>18.675644</ele>
        <time>2026-04-22T21:00:47.397Z</time>
      </trkpt>
      <trkpt lat="51.982861" lon="5.911672">
        <ele>18.671527</ele>
        <time>2026-04-22T21:00:48.725Z</time>
      </trkpt>
      <trkpt lat="51.983061" lon="5.912021">
        <ele>18.653704</ele>
        <time>2026-04-22T21:00:54.464Z</time>
      </trkpt>
      <trkpt lat="51.982979" lon="5.912291">
        <ele>18.642449</ele>
        <time>2026-04-22T21:00:57.967Z</time>
      </trkpt>
      <trkpt lat="51.982943" lon="5.912434">
        <ele>18.636674</ele>
        <time>2026-04-22T21:00:59.694Z</time>
      </trkpt>
      <trkpt lat="51.982987" lon="5.912633">
        <ele>18.628769</ele>
        <time>2026-04-22T21:01:02.056Z</time>
      </trkpt>
      <trkpt lat="51.983087" lon="5.913124">
        <ele>18.609434</ele>
        <time>2026-04-22T21:01:08.007Z</time>
      </trkpt>
      <trkpt lat="51.983157" lon="5.913371">
        <ele>18.757213</ele>
        <time>2026-04-22T21:01:11.269Z</time>
      </trkpt>
      <trkpt lat="51.983216" lon="5.913493">
        <ele>18.844253</ele>
        <time>2026-04-22T21:01:13.377Z</time>
      </trkpt>
      <trkpt lat="51.983438" lon="5.913577">
        <ele>19.051933</ele>
        <time>2026-04-22T21:01:18.919Z</time>
      </trkpt>
      <trkpt lat="51.983505" lon="5.913599">
        <ele>19.114211</ele>
        <time>2026-04-22T21:01:20.612Z</time>
      </trkpt>
      <trkpt lat="51.983550" lon="5.913639">
        <ele>19.160951</ele>
        <time>2026-04-22T21:01:21.564Z</time>
      </trkpt>
      <trkpt lat="51.983589" lon="5.913677">
        <ele>19.202390</ele>
        <time>2026-04-22T21:01:22.424Z</time>
      </trkpt>
      <trkpt lat="51.983612" lon="5.913699">
        <ele>19.226711</ele>
        <time>2026-04-22T21:01:22.906Z</time>
      </trkpt>
      <trkpt lat="51.983680" lon="5.913761">
        <ele>19.297764</ele>
        <time>2026-04-22T21:01:24.737Z</time>
      </trkpt>
      <trkpt lat="51.983739" lon="5.913811">
        <ele>19.358400</ele>
        <time>2026-04-22T21:01:26.037Z</time>
      </trkpt>
      <trkpt lat="51.983823" lon="5.913941">
        <ele>19.464126</ele>
        <time>2026-04-22T21:01:28.313Z</time>
      </trkpt>
      <trkpt lat="51.984118" lon="5.914559">
        <ele>19.902860</ele>
        <time>2026-04-22T21:01:38.088Z</time>
      </trkpt>
      <trkpt lat="51.984158" lon="5.914651">
        <ele>19.966050</ele>
        <time>2026-04-22T21:01:39.474Z</time>
      </trkpt>
      <trkpt lat="51.984197" lon="5.914759">
        <ele>20.036299</ele>
        <time>2026-04-22T21:01:41.098Z</time>
      </trkpt>
      <trkpt lat="51.984388" lon="5.915710">
        <ele>20.351007</ele>
        <time>2026-04-22T21:01:53.836Z</time>
      </trkpt>
      <trkpt lat="51.984408" lon="5.915805">
        <ele>20.367624</ele>
        <time>2026-04-22T21:01:54.999Z</time>
      </trkpt>
      <trkpt lat="51.984721" lon="5.917430">
        <ele>20.649427</ele>
        <time>2026-04-22T21:02:11.076Z</time>
      </trkpt>
      <trkpt lat="51.984739" lon="5.917536">
        <ele>20.667626</ele>
        <time>2026-04-22T21:02:11.971Z</time>
      </trkpt>
      <trkpt lat="51.984787" lon="5.917849">
        <ele>20.721013</ele>
        <time>2026-04-22T21:02:14.531Z</time>
      </trkpt>
      <trkpt lat="51.984804" lon="5.918737">
        <ele>20.359894</ele>
        <time>2026-04-22T21:02:21.346Z</time>
      </trkpt>
      <trkpt lat="51.984806" lon="5.918771">
        <ele>20.344554</ele>
        <time>2026-04-22T21:02:21.604Z</time>
      </trkpt>
      <trkpt lat="51.984797" lon="5.919344">
        <ele>20.087118</ele>
        <time>2026-04-22T21:02:25.841Z</time>
      </trkpt>
      <trkpt lat="51.984818" lon="5.919369">
        <ele>20.068128</ele>
        <time>2026-04-22T21:02:26.147Z</time>
      </trkpt>
      <trkpt lat="51.984893" lon="5.919402">
        <ele>20.011461</ele>
        <time>2026-04-22T21:02:27.079Z</time>
      </trkpt>
      <trkpt lat="51.984926" lon="5.919421">
        <ele>19.985927</ele>
        <time>2026-04-22T21:02:27.502Z</time>
      </trkpt>
      <trkpt lat="51.984953" lon="5.919435">
        <ele>19.965257</ele>
        <time>2026-04-22T21:02:27.845Z</time>
      </trkpt>
      <trkpt lat="51.985034" lon="5.919510">
        <ele>19.897258</ele>
        <time>2026-04-22T21:02:28.966Z</time>
      </trkpt>
      <trkpt lat="51.985069" lon="5.919578">
        <ele>19.857455</ele>
        <time>2026-04-22T21:02:29.625Z</time>
      </trkpt>
      <trkpt lat="51.985091" lon="5.919626">
        <ele>19.830583</ele>
        <time>2026-04-22T21:02:30.069Z</time>
      </trkpt>
      <trkpt lat="51.985224" lon="5.919889">
        <ele>19.677743</ele>
        <time>2026-04-22T21:02:32.688Z</time>
      </trkpt>
      <trkpt lat="51.985300" lon="5.920011">
        <ele>19.599806</ele>
        <time>2026-04-22T21:02:34.051Z</time>
      </trkpt>
      <trkpt lat="51.985352" lon="5.920086">
        <ele>19.549085</ele>
        <time>2026-04-22T21:02:34.974Z</time>
      </trkpt>
      <trkpt lat="51.985492" lon="5.920274">
        <ele>19.420621</ele>
        <time>2026-04-22T21:02:37.430Z</time>
      </trkpt>
      <trkpt lat="51.985757" lon="5.920647">
        <ele>19.514953</ele>
        <time>2026-04-22T21:02:42.659Z</time>
      </trkpt>
      <trkpt lat="51.985942" lon="5.920908">
        <ele>19.580872</ele>
        <time>2026-04-22T21:02:46.589Z</time>
      </trkpt>
      <trkpt lat="51.986530" lon="5.921780">
        <ele>19.795065</ele>
        <time>2026-04-22T21:02:59.858Z</time>
      </trkpt>
      <trkpt lat="51.986595" lon="5.921893">
        <ele>19.820679</ele>
        <time>2026-04-22T21:03:01.418Z</time>
      </trkpt>
      <trkpt lat="51.987067" lon="5.922777">
        <ele>20.378550</ele>
        <time>2026-04-22T21:03:13.607Z</time>
      </trkpt>
      <trkpt lat="51.987145" lon="5.922939">
        <ele>20.524179</ele>
        <time>2026-04-22T21:03:15.792Z</time>
      </trkpt>
      <trkpt lat="51.987226" lon="5.923103">
        <ele>20.673060</ele>
        <time>2026-04-22T21:03:18.068Z</time>
      </trkpt>
      <trkpt lat="51.987409" lon="5.923496">
        <ele>21.021982</ele>
        <time>2026-04-22T21:03:23.446Z</time>
      </trkpt>
      <trkpt lat="51.987735" lon="5.924142">
        <ele>21.613450</ele>
        <time>2026-04-22T21:03:33.813Z</time>
      </trkpt>
      <trkpt lat="51.988111" lon="5.924718">
        <ele>22.327384</ele>
        <time>2026-04-22T21:03:45.788Z</time>
      </trkpt>
      <trkpt lat="51.988526" lon="5.925293">
        <ele>23.272153</ele>
        <time>2026-04-22T21:03:59.347Z</time>
      </trkpt>
      <trkpt lat="51.988941" lon="5.925877">
        <ele>24.223177</ele>
        <time>2026-04-22T21:04:12.790Z</time>
      </trkpt>
      <trkpt lat="51.989257" lon="5.926423">
        <ele>25.022272</ele>
        <time>2026-04-22T21:04:21.758Z</time>
      </trkpt>
      <trkpt lat="51.989295" lon="5.926511">
        <ele>25.068314</ele>
        <time>2026-04-22T21:04:22.760Z</time>
      </trkpt>
      <trkpt lat="51.989566" lon="5.927147">
        <ele>24.768007</ele>
        <time>2026-04-22T21:04:29.260Z</time>
      </trkpt>
      <trkpt lat="51.989286" lon="5.927431">
        <ele>24.559847</ele>
        <time>2026-04-22T21:04:35.194Z</time>
      </trkpt>
      <trkpt lat="51.988916" lon="5.927808">
        <ele>24.284424</ele>
        <time>2026-04-22T21:04:42.711Z</time>
      </trkpt>
      <trkpt lat="51.989054" lon="5.928163">
        <ele>24.121412</ele>
        <time>2026-04-22T21:04:47.051Z</time>
      </trkpt>
      <trkpt lat="51.989100" lon="5.928280">
        <ele>24.067512</ele>
        <time>2026-04-22T21:04:48.442Z</time>
      </trkpt>
      <trkpt lat="51.989157" lon="5.928499">
        <ele>23.975193</ele>
        <time>2026-04-22T21:04:50.847Z</time>
      </trkpt>
      <trkpt lat="51.989593" lon="5.930357">
        <ele>22.237334</ele>
        <time>2026-04-22T21:05:12.082Z</time>
      </trkpt>
      <trkpt lat="51.989600" lon="5.930479">
        <ele>22.128439</ele>
        <time>2026-04-22T21:05:13.322Z</time>
      </trkpt>
      <trkpt lat="51.989695" lon="5.931422">
        <ele>21.230359</ele>
        <time>2026-04-22T21:05:19.804Z</time>
      </trkpt>
      <trkpt lat="51.989732" lon="5.931792">
        <ele>20.687082</ele>
        <time>2026-04-22T21:05:22.268Z</time>
      </trkpt>
      <trkpt lat="51.989814" lon="5.932575">
        <ele>19.535963</ele>
        <time>2026-04-22T21:05:27.259Z</time>
      </trkpt>
      <trkpt lat="51.989268" lon="5.932476">
        <ele>18.242930</ele>
        <time>2026-04-22T21:05:32.994Z</time>
      </trkpt>
      <trkpt lat="51.989211" lon="5.932463">
        <ele>18.107461</ele>
        <time>2026-04-22T21:05:33.596Z</time>
      </trkpt>
      <trkpt lat="51.989061" lon="5.932324">
        <ele>17.700988</ele>
        <time>2026-04-22T21:05:35.455Z</time>
      </trkpt>
      <trkpt lat="51.988733" lon="5.932172">
        <ele>17.111075</ele>
        <time>2026-04-22T21:05:39.286Z</time>
      </trkpt>
      <trkpt lat="51.988679" lon="5.932031">
        <ele>17.097839</ele>
        <time>2026-04-22T21:05:40.495Z</time>
      </trkpt>
      <trkpt lat="51.988600" lon="5.932043">
        <ele>17.087568</ele>
        <time>2026-04-22T21:05:41.853Z</time>
      </trkpt>
      <trkpt lat="51.988510" lon="5.932056">
        <ele>17.075871</ele>
        <time>2026-04-22T21:05:43.388Z</time>
      </trkpt>
      <trkpt lat="51.988437" lon="5.932066">
        <ele>17.066388</ele>
        <time>2026-04-22T21:05:44.684Z</time>
      </trkpt>
      <trkpt lat="51.988471" lon="5.932292">
        <ele>17.047842</ele>
        <time>2026-04-22T21:05:47.199Z</time>
      </trkpt>
      <trkpt lat="51.988488" lon="5.932425">
        <ele>17.037014</ele>
        <time>2026-04-22T21:05:48.690Z</time>
      </trkpt>
      <trkpt lat="51.988498" lon="5.932554">
        <ele>17.026649</ele>
        <time>2026-04-22T21:05:50.203Z</time>
      </trkpt>
      <trkpt lat="51.988510" lon="5.932719">
        <ele>17.013404</ele>
        <time>2026-04-22T21:05:52.133Z</time>
      </trkpt>
      <trkpt lat="51.988534" lon="5.932893">
        <ele>16.999190</ele>
        <time>2026-04-22T21:05:54.402Z</time>
      </trkpt>
      <trkpt lat="51.988529" lon="5.933186">
        <ele>16.975824</ele>
        <time>2026-04-22T21:05:58.345Z</time>
      </trkpt>
      <trkpt lat="51.988540" lon="5.933380">
        <ele>16.960293</ele>
        <time>2026-04-22T21:06:01.226Z</time>
      </trkpt>
      <trkpt lat="51.988581" lon="5.933599">
        <ele>16.942046</ele>
        <time>2026-04-22T21:06:04.634Z</time>
      </trkpt>
      <trkpt lat="51.988761" lon="5.934125">
        <ele>16.894076</ele>
        <time>2026-04-22T21:06:13.625Z</time>
      </trkpt>
      <trkpt lat="51.988847" lon="5.934536">
        <ele>17.113609</ele>
        <time>2026-04-22T21:06:19.028Z</time>
      </trkpt>
      <trkpt lat="51.989406" lon="5.936889">
        <ele>18.552268</ele>
        <time>2026-04-22T21:06:48.279Z</time>
      </trkpt>
      <trkpt lat="51.989440" lon="5.937036">
        <ele>18.540718</ele>
        <time>2026-04-22T21:06:49.900Z</time>
      </trkpt>
      <trkpt lat="51.989472" lon="5.937168">
        <ele>18.525470</ele>
        <time>2026-04-22T21:06:51.364Z</time>
      </trkpt>
      <trkpt lat="51.989560" lon="5.937433">
        <ele>18.493109</ele>
        <time>2026-04-22T21:06:54.370Z</time>
      </trkpt>
      <trkpt lat="51.989581" lon="5.937596">
        <ele>18.475210</ele>
        <time>2026-04-22T21:06:56.003Z</time>
      </trkpt>
      <trkpt lat="51.989584" lon="5.937619">
        <ele>18.472683</ele>
        <time>2026-04-22T21:06:56.233Z</time>
      </trkpt>
      <trkpt lat="51.989897" lon="5.938972">
        <ele>18.317334</ele>
        <time>2026-04-22T21:07:08.755Z</time>
      </trkpt>
      <trkpt lat="51.990104" lon="5.939849">
        <ele>18.144559</ele>
        <time>2026-04-22T21:07:15.880Z</time>
      </trkpt>
      <trkpt lat="51.990160" lon="5.940087">
        <ele>18.042745</ele>
        <time>2026-04-22T21:07:17.785Z</time>
      </trkpt>
      <trkpt lat="51.990386" lon="5.941037">
        <ele>17.635770</ele>
        <time>2026-04-22T21:07:25.380Z</time>
      </trkpt>
      <trkpt lat="51.990423" lon="5.941170">
        <ele>17.577450</ele>
        <time>2026-04-22T21:07:26.936Z</time>
      </trkpt>
      <trkpt lat="51.990434" lon="5.941201">
        <ele>17.563153</ele>
        <time>2026-04-22T21:07:27.314Z</time>
      </trkpt>
      <trkpt lat="51.990480" lon="5.941338">
        <ele>17.500797</ele>
        <time>2026-04-22T21:07:29.007Z</time>
      </trkpt>
      <trkpt lat="51.990510" lon="5.941439">
        <ele>17.455986</ele>
        <time>2026-04-22T21:07:30.207Z</time>
      </trkpt>
      <trkpt lat="51.990524" lon="5.941477">
        <ele>17.438291</ele>
        <time>2026-04-22T21:07:30.685Z</time>
      </trkpt>
      <trkpt lat="51.990739" lon="5.942138">
        <ele>17.139566</ele>
        <time>2026-04-22T21:07:36.958Z</time>
      </trkpt>
      <trkpt lat="51.990948" lon="5.942777">
        <ele>17.295471</ele>
        <time>2026-04-22T21:07:44.239Z</time>
      </trkpt>
      <trkpt lat="51.991015" lon="5.942990">
        <ele>17.388794</ele>
        <time>2026-04-22T21:07:46.797Z</time>
      </trkpt>
      <trkpt lat="51.991276" lon="5.943808">
        <ele>17.748259</ele>
        <time>2026-04-22T21:07:57.086Z</time>
      </trkpt>
      <trkpt lat="51.991897" lon="5.945677">
        <ele>18.574004</ele>
        <time>2026-04-22T21:08:21.021Z</time>
      </trkpt>
      <trkpt lat="51.991913" lon="5.945796">
        <ele>18.621151</ele>
        <time>2026-04-22T21:08:22.177Z</time>
      </trkpt>
      <trkpt lat="51.992086" lon="5.946351">
        <ele>18.861930</ele>
        <time>2026-04-22T21:08:28.449Z</time>
      </trkpt>
      <trkpt lat="51.992262" lon="5.946914">
        <ele>19.106323</ele>
        <time>2026-04-22T21:08:35.003Z</time>
      </trkpt>
      <trkpt lat="51.992350" lon="5.947160">
        <ele>19.216443</ele>
        <time>2026-04-22T21:08:38.030Z</time>
      </trkpt>
      <trkpt lat="51.992518" lon="5.947632">
        <ele>19.453342</ele>
        <time>2026-04-22T21:08:43.888Z</time>
      </trkpt>
      <trkpt lat="51.992712" lon="5.948100">
        <ele>19.740984</ele>
        <time>2026-04-22T21:08:49.644Z</time>
      </trkpt>
      <trkpt lat="51.992969" lon="5.948862">
        <ele>20.183951</ele>
        <time>2026-04-22T21:08:59.689Z</time>
      </trkpt>
      <trkpt lat="51.992950" lon="5.948951">
        <ele>20.231978</ele>
        <time>2026-04-22T21:09:00.800Z</time>
      </trkpt>
      <trkpt lat="51.992944" lon="5.949039">
        <ele>20.277119</ele>
        <time>2026-04-22T21:09:01.849Z</time>
      </trkpt>
      <trkpt lat="51.992949" lon="5.949121">
        <ele>20.319131</ele>
        <time>2026-04-22T21:09:02.805Z</time>
      </trkpt>
      <trkpt lat="51.993004" lon="5.949293">
        <ele>20.417945</ele>
        <time>2026-04-22T21:09:05.087Z</time>
      </trkpt>
      <trkpt lat="51.993119" lon="5.949401">
        <ele>20.527940</ele>
        <time>2026-04-22T21:09:07.602Z</time>
      </trkpt>
      <trkpt lat="51.993418" lon="5.950320">
        <ele>21.008562</ele>
        <time>2026-04-22T21:09:19.192Z</time>
      </trkpt>
      <trkpt lat="51.993478" lon="5.950610">
        <ele>21.130003</ele>
        <time>2026-04-22T21:09:23.537Z</time>
      </trkpt>
      <trkpt lat="51.994104" lon="5.952544">
        <ele>21.994084</ele>
        <time>2026-04-22T21:09:54.153Z</time>
      </trkpt>
      <trkpt lat="51.994549" lon="5.953924">
        <ele>21.851398</ele>
        <time>2026-04-22T21:10:14.505Z</time>
      </trkpt>
      <trkpt lat="51.994739" lon="5.954512">
        <ele>21.790575</ele>
        <time>2026-04-22T21:10:19.964Z</time>
      </trkpt>
      <trkpt lat="51.995004" lon="5.955308">
        <ele>21.684275</ele>
        <time>2026-04-22T21:10:26.813Z</time>
      </trkpt>
      <trkpt lat="51.995348" lon="5.956365">
        <ele>21.442854</ele>
        <time>2026-04-22T21:10:36.350Z</time>
      </trkpt>
      <trkpt lat="51.995454" lon="5.956679">
        <ele>21.370543</ele>
        <time>2026-04-22T21:10:39.474Z</time>
      </trkpt>
      <trkpt lat="51.995505" lon="5.956901">
        <ele>21.322697</ele>
        <time>2026-04-22T21:10:41.606Z</time>
      </trkpt>
      <trkpt lat="51.995655" lon="5.957365">
        <ele>21.216873</ele>
        <time>2026-04-22T21:10:46.438Z</time>
      </trkpt>
      <trkpt lat="51.995824" lon="5.957843">
        <ele>21.134828</ele>
        <time>2026-04-22T21:10:51.582Z</time>
      </trkpt>
      <trkpt lat="51.995918" lon="5.958121">
        <ele>21.129920</ele>
        <time>2026-04-22T21:10:54.623Z</time>
      </trkpt>
      <trkpt lat="51.996029" lon="5.958475">
        <ele>21.123772</ele>
        <time>2026-04-22T21:10:59.862Z</time>
      </trkpt>
      <trkpt lat="51.996148" lon="5.959019">
        <ele>21.114838</ele>
        <time>2026-04-22T21:11:07.177Z</time>
      </trkpt>
      <trkpt lat="51.996211" lon="5.959541">
        <ele>21.106607</ele>
        <time>2026-04-22T21:11:13.559Z</time>
      </trkpt>
      <trkpt lat="51.996227" lon="5.960035">
        <ele>21.098951</ele>
        <time>2026-04-22T21:11:19.468Z</time>
      </trkpt>
      <trkpt lat="51.996135" lon="5.961533">
        <ele>20.838635</ele>
        <time>2026-04-22T21:11:37.786Z</time>
      </trkpt>
      <trkpt lat="51.996070" lon="5.962332">
        <ele>20.645862</ele>
        <time>2026-04-22T21:11:47.303Z</time>
      </trkpt>
      <trkpt lat="51.996046" lon="5.962634">
        <ele>20.573028</ele>
        <time>2026-04-22T21:11:50.839Z</time>
      </trkpt>
      <trkpt lat="51.996053" lon="5.962873">
        <ele>20.515798</ele>
        <time>2026-04-22T21:11:53.594Z</time>
      </trkpt>
      <trkpt lat="51.996038" lon="5.963011">
        <ele>20.482279</ele>
        <time>2026-04-22T21:11:54.720Z</time>
      </trkpt>
      <trkpt lat="51.996068" lon="5.963109">
        <ele>20.456101</ele>
        <time>2026-04-22T21:11:55.596Z</time>
      </trkpt>
      <trkpt lat="51.996127" lon="5.963165">
        <ele>20.429554</ele>
        <time>2026-04-22T21:11:56.451Z</time>
      </trkpt>
      <trkpt lat="51.996076" lon="5.963894">
        <ele>20.091452</ele>
        <time>2026-04-22T21:12:01.978Z</time>
      </trkpt>
      <trkpt lat="51.996025" lon="5.964526">
        <ele>19.760970</ele>
        <time>2026-04-22T21:12:06.678Z</time>
      </trkpt>
      <trkpt lat="51.995990" lon="5.964950">
        <ele>19.539167</ele>
        <time>2026-04-22T21:12:09.925Z</time>
      </trkpt>
      <trkpt lat="51.995953" lon="5.965396">
        <ele>19.305834</ele>
        <time>2026-04-22T21:12:13.348Z</time>
      </trkpt>
      <trkpt lat="51.995793" lon="5.967654">
        <ele>18.753861</ele>
        <time>2026-04-22T21:12:31.543Z</time>
      </trkpt>
      <trkpt lat="51.995793" lon="5.968006">
        <ele>18.723531</ele>
        <time>2026-04-22T21:12:34.924Z</time>
      </trkpt>
      <trkpt lat="51.995791" lon="5.968411">
        <ele>18.688633</ele>
        <time>2026-04-22T21:12:38.873Z</time>
      </trkpt>
      <trkpt lat="51.995835" lon="5.969777">
        <ele>18.699952</ele>
        <time>2026-04-22T21:12:52.955Z</time>
      </trkpt>
      <trkpt lat="51.995845" lon="5.970071">
        <ele>18.732848</ele>
        <time>2026-04-22T21:12:55.909Z</time>
      </trkpt>
      <trkpt lat="51.995866" lon="5.970850">
        <ele>18.819962</ele>
        <time>2026-04-22T21:13:03.572Z</time>
      </trkpt>
      <trkpt lat="51.995879" lon="5.971426">
        <ele>18.884357</ele>
        <time>2026-04-22T21:13:08.956Z</time>
      </trkpt>
      <trkpt lat="51.995924" lon="5.973204">
        <ele>18.807216</ele>
        <time>2026-04-22T21:13:24.377Z</time>
      </trkpt>
      <trkpt lat="51.996014" lon="5.973954">
        <ele>18.711075</ele>
        <time>2026-04-22T21:13:30.530Z</time>
      </trkpt>
      <trkpt lat="51.996005" lon="5.974156">
        <ele>18.685593</ele>
        <time>2026-04-22T21:13:32.205Z</time>
      </trkpt>
      <trkpt lat="51.995967" lon="5.974343">
        <ele>18.660816</ele>
        <time>2026-04-22T21:13:33.909Z</time>
      </trkpt>
      <trkpt lat="51.995917" lon="5.974736">
        <ele>18.610324</ele>
        <time>2026-04-22T21:13:37.504Z</time>
      </trkpt>
      <trkpt lat="51.995923" lon="5.975364">
        <ele>18.686700</ele>
        <time>2026-04-22T21:13:43.520Z</time>
      </trkpt>
      <trkpt lat="51.995906" lon="5.975491">
        <ele>18.716948</ele>
        <time>2026-04-22T21:13:44.839Z</time>
      </trkpt>
      <trkpt lat="51.995985" lon="5.976117">
        <ele>18.865670</ele>
        <time>2026-04-22T21:13:51.298Z</time>
      </trkpt>
      <trkpt lat="51.996105" lon="5.976944">
        <ele>19.063416</ele>
        <time>2026-04-22T21:14:00.208Z</time>
      </trkpt>
      <trkpt lat="51.996215" lon="5.977564">
        <ele>19.213583</ele>
        <time>2026-04-22T21:14:07.285Z</time>
      </trkpt>
      <trkpt lat="51.996249" lon="5.977623">
        <ele>19.232391</ele>
        <time>2026-04-22T21:14:08.145Z</time>
      </trkpt>
      <trkpt lat="51.996265" lon="5.977712">
        <ele>19.253969</ele>
        <time>2026-04-22T21:14:09.099Z</time>
      </trkpt>
      <trkpt lat="51.996280" lon="5.977804">
        <ele>19.263780</ele>
        <time>2026-04-22T21:14:10.087Z</time>
      </trkpt>
      <trkpt lat="51.996353" lon="5.978224">
        <ele>19.244998</ele>
        <time>2026-04-22T21:14:14.465Z</time>
      </trkpt>
      <trkpt lat="51.996542" lon="5.979392">
        <ele>19.193026</ele>
        <time>2026-04-22T21:14:25.273Z</time>
      </trkpt>
      <trkpt lat="51.996572" lon="5.979594">
        <ele>19.184083</ele>
        <time>2026-04-22T21:14:27.034Z</time>
      </trkpt>
      <trkpt lat="51.996662" lon="5.980101">
        <ele>19.161376</ele>
        <time>2026-04-22T21:14:31.479Z</time>
      </trkpt>
      <trkpt lat="51.996747" lon="5.980409">
        <ele>19.146850</ele>
        <time>2026-04-22T21:14:34.273Z</time>
      </trkpt>
      <trkpt lat="51.997194" lon="5.981670">
        <ele>18.815489</ele>
        <time>2026-04-22T21:14:46.227Z</time>
      </trkpt>
      <trkpt lat="51.997309" lon="5.981992">
        <ele>18.722254</ele>
        <time>2026-04-22T21:14:49.252Z</time>
      </trkpt>
      <trkpt lat="51.997998" lon="5.983873">
        <ele>18.092335</ele>
        <time>2026-04-22T21:15:07.609Z</time>
      </trkpt>
      <trkpt lat="51.998020" lon="5.983943">
        <ele>18.065783</ele>
        <time>2026-04-22T21:15:08.249Z</time>
      </trkpt>
      <trkpt lat="51.998286" lon="5.984654">
        <ele>17.784702</ele>
        <time>2026-04-22T21:15:14.860Z</time>
      </trkpt>
      <trkpt lat="51.998453" lon="5.985115">
        <ele>17.603995</ele>
        <time>2026-04-22T21:15:19.136Z</time>
      </trkpt>
      <trkpt lat="51.998485" lon="5.985455">
        <ele>17.487792</ele>
        <time>2026-04-22T21:15:21.923Z</time>
      </trkpt>
      <trkpt lat="51.998506" lon="5.985592">
        <ele>17.440094</ele>
        <time>2026-04-22T21:15:23.082Z</time>
      </trkpt>
      <trkpt lat="51.998635" lon="5.985959">
        <ele>17.256106</ele>
        <time>2026-04-22T21:15:26.448Z</time>
      </trkpt>
      <trkpt lat="51.999092" lon="5.987227">
        <ele>16.594746</ele>
        <time>2026-04-22T21:15:38.149Z</time>
      </trkpt>
      <trkpt lat="51.999151" lon="5.987544">
        <ele>16.445679</ele>
        <time>2026-04-22T21:15:40.670Z</time>
      </trkpt>
      <trkpt lat="51.999293" lon="5.987738">
        <ele>16.310020</ele>
        <time>2026-04-22T21:15:43.017Z</time>
      </trkpt>
      <trkpt lat="51.999334" lon="5.987861">
        <ele>16.247062</ele>
        <time>2026-04-22T21:15:44.096Z</time>
      </trkpt>
      <trkpt lat="51.999684" lon="5.988860">
        <ele>15.785389</ele>
        <time>2026-04-22T21:15:56.390Z</time>
      </trkpt>
      <trkpt lat="52.001258" lon="5.993263">
        <ele>14.200849</ele>
        <time>2026-04-22T21:16:38.035Z</time>
      </trkpt>
      <trkpt lat="52.002788" lon="5.997509">
        <ele>14.138236</ele>
        <time>2026-04-22T21:17:22.139Z</time>
      </trkpt>
      <trkpt lat="52.003375" lon="5.999141">
        <ele>14.846027</ele>
        <time>2026-04-22T21:17:41.836Z</time>
      </trkpt>
      <trkpt lat="52.003529" lon="5.999680">
        <ele>15.210943</ele>
        <time>2026-04-22T21:17:48.844Z</time>
      </trkpt>
      <trkpt lat="52.004009" lon="6.001742">
        <ele>16.477126</ele>
        <time>2026-04-22T21:18:16.459Z</time>
      </trkpt>
      <trkpt lat="52.004131" lon="6.002394">
        <ele>16.831344</ele>
        <time>2026-04-22T21:18:24.588Z</time>
      </trkpt>
      <trkpt lat="52.004163" lon="6.002530">
        <ele>16.907024</ele>
        <time>2026-04-22T21:18:26.217Z</time>
      </trkpt>
      <trkpt lat="52.004230" lon="6.002780">
        <ele>17.048753</ele>
        <time>2026-04-22T21:18:29.179Z</time>
      </trkpt>
      <trkpt lat="52.004630" lon="6.003681">
        <ele>17.442371</ele>
        <time>2026-04-22T21:18:40.096Z</time>
      </trkpt>
      <trkpt lat="52.004771" lon="6.004173">
        <ele>17.266476</ele>
        <time>2026-04-22T21:18:44.875Z</time>
      </trkpt>
      <trkpt lat="52.004897" lon="6.004706">
        <ele>17.081427</ele>
        <time>2026-04-22T21:18:49.709Z</time>
      </trkpt>
      <trkpt lat="52.005204" lon="6.006014">
        <ele>16.627728</ele>
        <time>2026-04-22T21:18:59.998Z</time>
      </trkpt>
      <trkpt lat="52.005366" lon="6.006679">
        <ele>16.766277</ele>
        <time>2026-04-22T21:19:05.620Z</time>
      </trkpt>
      <trkpt lat="52.005424" lon="6.006934">
        <ele>16.870056</ele>
        <time>2026-04-22T21:19:08.009Z</time>
      </trkpt>
      <trkpt lat="52.005612" lon="6.007933">
        <ele>17.268846</ele>
        <time>2026-04-22T21:19:18.923Z</time>
      </trkpt>
      <trkpt lat="52.005770" lon="6.009010">
        <ele>17.700033</ele>
        <time>2026-04-22T21:19:34.063Z</time>
      </trkpt>
      <trkpt lat="52.006062" lon="6.011024">
        <ele>19.156497</ele>
        <time>2026-04-22T21:20:01.756Z</time>
      </trkpt>
      <trkpt lat="52.006190" lon="6.011973">
        <ele>19.726314</ele>
        <time>2026-04-22T21:20:10.501Z</time>
      </trkpt>
      <trkpt lat="52.006265" lon="6.013305">
        <ele>19.617533</ele>
        <time>2026-04-22T21:20:21.313Z</time>
      </trkpt>
      <trkpt lat="52.006789" lon="6.015994">
        <ele>19.749535</ele>
        <time>2026-04-22T21:20:47.400Z</time>
      </trkpt>
      <trkpt lat="52.006772" lon="6.016682">
        <ele>19.873666</ele>
        <time>2026-04-22T21:20:54.661Z</time>
      </trkpt>
      <trkpt lat="52.006856" lon="6.016705">
        <ele>19.898613</ele>
        <time>2026-04-22T21:20:56.137Z</time>
      </trkpt>
      <trkpt lat="52.006916" lon="6.016731">
        <ele>19.916800</ele>
        <time>2026-04-22T21:20:57.171Z</time>
      </trkpt>
      <trkpt lat="52.006911" lon="6.016833">
        <ele>19.935246</ele>
        <time>2026-04-22T21:20:58.267Z</time>
      </trkpt>
      <trkpt lat="52.006935" lon="6.016970">
        <ele>19.960925</ele>
        <time>2026-04-22T21:20:59.735Z</time>
      </trkpt>
      <trkpt lat="52.006961" lon="6.017081">
        <ele>19.982335</ele>
        <time>2026-04-22T21:21:00.995Z</time>
      </trkpt>
      <trkpt lat="52.006984" lon="6.017169">
        <ele>19.999571</ele>
        <time>2026-04-22T21:21:01.975Z</time>
      </trkpt>
      <trkpt lat="52.007168" lon="6.017292">
        <ele>20.045662</ele>
        <time>2026-04-22T21:21:05.322Z</time>
      </trkpt>
      <trkpt lat="52.007206" lon="6.017378">
        <ele>20.057147</ele>
        <time>2026-04-22T21:21:06.432Z</time>
      </trkpt>
      <trkpt lat="52.007237" lon="6.017682">
        <ele>20.090578</ele>
        <time>2026-04-22T21:21:09.547Z</time>
      </trkpt>
      <trkpt lat="52.007294" lon="6.017834">
        <ele>20.109888</ele>
        <time>2026-04-22T21:21:11.333Z</time>
      </trkpt>
      <trkpt lat="52.007406" lon="6.018126">
        <ele>20.147214</ele>
        <time>2026-04-22T21:21:14.697Z</time>
      </trkpt>
      <trkpt lat="52.007661" lon="6.018858">
        <ele>20.238465</ele>
        <time>2026-04-22T21:21:22.576Z</time>
      </trkpt>
      <trkpt lat="52.008621" lon="6.022528">
        <ele>20.454877</ele>
        <time>2026-04-22T21:21:58.388Z</time>
      </trkpt>
      <trkpt lat="52.008943" lon="6.023779">
        <ele>21.123118</ele>
        <time>2026-04-22T21:22:13.957Z</time>
      </trkpt>
      <trkpt lat="52.008970" lon="6.023899">
        <ele>21.186082</ele>
        <time>2026-04-22T21:22:15.441Z</time>
      </trkpt>
      <trkpt lat="52.009032" lon="6.024146">
        <ele>21.317539</ele>
        <time>2026-04-22T21:22:18.642Z</time>
      </trkpt>
      <trkpt lat="52.009055" lon="6.024242">
        <ele>21.368306</ele>
        <time>2026-04-22T21:22:19.897Z</time>
      </trkpt>
      <trkpt lat="52.009104" lon="6.024444">
        <ele>21.475305</ele>
        <time>2026-04-22T21:22:22.496Z</time>
      </trkpt>
      <trkpt lat="52.009181" lon="6.024743">
        <ele>21.635032</ele>
        <time>2026-04-22T21:22:26.289Z</time>
      </trkpt>
      <trkpt lat="52.009252" lon="6.025033">
        <ele>21.788837</ele>
        <time>2026-04-22T21:22:29.811Z</time>
      </trkpt>
      <trkpt lat="52.009324" lon="6.025267">
        <ele>21.898292</ele>
        <time>2026-04-22T21:22:32.694Z</time>
      </trkpt>
      <trkpt lat="52.010175" lon="6.028498">
        <ele>23.013286</ele>
        <time>2026-04-22T21:23:09.174Z</time>
      </trkpt>
      <trkpt lat="52.010199" lon="6.028589">
        <ele>23.032118</ele>
        <time>2026-04-22T21:23:10.169Z</time>
      </trkpt>
      <trkpt lat="52.010611" lon="6.030135">
        <ele>23.352582</ele>
        <time>2026-04-22T21:23:26.610Z</time>
      </trkpt>
      <trkpt lat="52.010627" lon="6.030204">
        <ele>23.366608</ele>
        <time>2026-04-22T21:23:27.320Z</time>
      </trkpt>
      <trkpt lat="52.010678" lon="6.030405">
        <ele>23.407963</ele>
        <time>2026-04-22T21:23:29.383Z</time>
      </trkpt>
      <trkpt lat="52.010730" lon="6.030706">
        <ele>23.416420</ele>
        <time>2026-04-22T21:23:32.343Z</time>
      </trkpt>
      <trkpt lat="52.010827" lon="6.030963">
        <ele>23.394649</ele>
        <time>2026-04-22T21:23:35.159Z</time>
      </trkpt>
      <trkpt lat="52.010848" lon="6.031067">
        <ele>23.386744</ele>
        <time>2026-04-22T21:23:36.155Z</time>
      </trkpt>
      <trkpt lat="52.010892" lon="6.031252">
        <ele>23.372421</ele>
        <time>2026-04-22T21:23:37.987Z</time>
      </trkpt>
      <trkpt lat="52.010941" lon="6.031457">
        <ele>23.356539</ele>
        <time>2026-04-22T21:23:40.001Z</time>
      </trkpt>
      <trkpt lat="52.012239" lon="6.036443">
        <ele>22.663617</ele>
        <time>2026-04-22T21:24:26.669Z</time>
      </trkpt>
      <trkpt lat="52.012270" lon="6.036573">
        <ele>22.633512</ele>
        <time>2026-04-22T21:24:27.832Z</time>
      </trkpt>
      <trkpt lat="52.012314" lon="6.036760">
        <ele>22.590281</ele>
        <time>2026-04-22T21:24:29.523Z</time>
      </trkpt>
      <trkpt lat="52.012394" lon="6.037020">
        <ele>22.527512</ele>
        <time>2026-04-22T21:24:31.975Z</time>
      </trkpt>
      <trkpt lat="52.012513" lon="6.037486">
        <ele>22.418567</ele>
        <time>2026-04-22T21:24:36.260Z</time>
      </trkpt>
      <trkpt lat="52.012976" lon="6.039220">
        <ele>21.878111</ele>
        <time>2026-04-22T21:24:51.835Z</time>
      </trkpt>
      <trkpt lat="52.013610" lon="6.041668">
        <ele>20.914854</ele>
        <time>2026-04-22T21:25:12.470Z</time>
      </trkpt>
      <trkpt lat="52.013634" lon="6.041752">
        <ele>20.902184</ele>
        <time>2026-04-22T21:25:13.199Z</time>
      </trkpt>
      <trkpt lat="52.013919" lon="6.042835">
        <ele>20.741040</ele>
        <time>2026-04-22T21:25:23.201Z</time>
      </trkpt>
      <trkpt lat="52.014019" lon="6.043254">
        <ele>20.679556</ele>
        <time>2026-04-22T21:25:27.316Z</time>
      </trkpt>
      <trkpt lat="52.014097" lon="6.043565">
        <ele>20.633611</ele>
        <time>2026-04-22T21:25:30.507Z</time>
      </trkpt>
      <trkpt lat="52.014726" lon="6.045921">
        <ele>20.684711</ele>
        <time>2026-04-22T21:25:55.049Z</time>
      </trkpt>
      <trkpt lat="52.014888" lon="6.046573">
        <ele>20.721343</ele>
        <time>2026-04-22T21:26:01.287Z</time>
      </trkpt>
      <trkpt lat="52.015163" lon="6.047434">
        <ele>20.683272</ele>
        <time>2026-04-22T21:26:10.200Z</time>
      </trkpt>
      <trkpt lat="52.015272" lon="6.047678">
        <ele>20.668659</ele>
        <time>2026-04-22T21:26:12.935Z</time>
      </trkpt>
      <trkpt lat="52.015394" lon="6.047921">
        <ele>20.653460</ele>
        <time>2026-04-22T21:26:15.777Z</time>
      </trkpt>
      <trkpt lat="52.015408" lon="6.047995">
        <ele>20.649708</ele>
        <time>2026-04-22T21:26:16.482Z</time>
      </trkpt>
      <trkpt lat="52.015731" lon="6.048534">
        <ele>20.613246</ele>
        <time>2026-04-22T21:26:23.214Z</time>
      </trkpt>
      <trkpt lat="52.015873" lon="6.048836">
        <ele>20.594826</ele>
        <time>2026-04-22T21:26:26.565Z</time>
      </trkpt>
      <trkpt lat="52.016387" lon="6.050277">
        <ele>19.941200</ele>
        <time>2026-04-22T21:26:40.568Z</time>
      </trkpt>
      <trkpt lat="52.016686" lon="6.051364">
        <ele>19.412750</ele>
        <time>2026-04-22T21:26:49.875Z</time>
      </trkpt>
      <trkpt lat="52.016935" lon="6.052694">
        <ele>17.525041</ele>
        <time>2026-04-22T21:26:59.394Z</time>
      </trkpt>
      <trkpt lat="52.016972" lon="6.053082">
        <ele>16.900197</ele>
        <time>2026-04-22T21:27:01.872Z</time>
      </trkpt>
      <trkpt lat="52.016972" lon="6.053483">
        <ele>16.262034</ele>
        <time>2026-04-22T21:27:04.342Z</time>
      </trkpt>
      <trkpt lat="52.016902" lon="6.054704">
        <ele>14.539321</ele>
        <time>2026-04-22T21:27:11.906Z</time>
      </trkpt>
      <trkpt lat="52.016976" lon="6.055185">
        <ele>14.304824</ele>
        <time>2026-04-22T21:27:14.982Z</time>
      </trkpt>
      <trkpt lat="52.017425" lon="6.057072">
        <ele>13.347962</ele>
        <time>2026-04-22T21:27:31.380Z</time>
      </trkpt>
      <trkpt lat="52.017680" lon="6.057996">
        <ele>14.426905</ele>
        <time>2026-04-22T21:27:47.256Z</time>
      </trkpt>
      <trkpt lat="52.017981" lon="6.058646">
        <ele>15.599823</ele>
        <time>2026-04-22T21:28:01.053Z</time>
      </trkpt>
      <trkpt lat="52.018094" lon="6.058759">
        <ele>15.910695</ele>
        <time>2026-04-22T21:28:04.760Z</time>
      </trkpt>
      <trkpt lat="52.018194" lon="6.058922">
        <ele>16.242554</ele>
        <time>2026-04-22T21:28:08.594Z</time>
      </trkpt>
      <trkpt lat="52.018747" lon="6.059817">
        <ele>17.699836</ele>
        <time>2026-04-22T21:28:27.429Z</time>
      </trkpt>
      <trkpt lat="52.018781" lon="6.059869">
        <ele>17.741887</ele>
        <time>2026-04-22T21:28:28.268Z</time>
      </trkpt>
      <trkpt lat="52.018958" lon="6.060160">
        <ele>17.968660</ele>
        <time>2026-04-22T21:28:32.669Z</time>
      </trkpt>
      <trkpt lat="52.019072" lon="6.060363">
        <ele>18.120977</ele>
        <time>2026-04-22T21:28:35.496Z</time>
      </trkpt>
      <trkpt lat="52.019181" lon="6.060535">
        <ele>18.257817</ele>
        <time>2026-04-22T21:28:38.059Z</time>
      </trkpt>
      <trkpt lat="52.019257" lon="6.060702">
        <ele>18.372936</ele>
        <time>2026-04-22T21:28:40.226Z</time>
      </trkpt>
      <trkpt lat="52.019591" lon="6.061257">
        <ele>18.803178</ele>
        <time>2026-04-22T21:28:48.186Z</time>
      </trkpt>
      <trkpt lat="52.020112" lon="6.062208">
        <ele>19.409621</ele>
        <time>2026-04-22T21:29:01.214Z</time>
      </trkpt>
      <trkpt lat="52.020248" lon="6.062394">
        <ele>19.531977</ele>
        <time>2026-04-22T21:29:04.484Z</time>
      </trkpt>
      <trkpt lat="52.020434" lon="6.062718">
        <ele>19.719666</ele>
        <time>2026-04-22T21:29:09.821Z</time>
      </trkpt>
      <trkpt lat="52.020830" lon="6.063445">
        <ele>20.130921</ele>
        <time>2026-04-22T21:29:20.773Z</time>
      </trkpt>
      <trkpt lat="52.020842" lon="6.063550">
        <ele>20.176158</ele>
        <time>2026-04-22T21:29:21.858Z</time>
      </trkpt>
      <trkpt lat="52.020944" lon="6.063764">
        <ele>20.290815</ele>
        <time>2026-04-22T21:29:24.593Z</time>
      </trkpt>
      <trkpt lat="52.020985" lon="6.063943">
        <ele>20.323913</ele>
        <time>2026-04-22T21:29:26.525Z</time>
      </trkpt>
      <trkpt lat="52.021129" lon="6.064310">
        <ele>20.315857</ele>
        <time>2026-04-22T21:29:30.926Z</time>
      </trkpt>
      <trkpt lat="52.021373" lon="6.064839">
        <ele>20.303620</ele>
        <time>2026-04-22T21:29:37.185Z</time>
      </trkpt>
      <trkpt lat="52.022795" lon="6.067684">
        <ele>19.697430</ele>
        <time>2026-04-22T21:30:08.345Z</time>
      </trkpt>
      <trkpt lat="52.023058" lon="6.068206">
        <ele>19.498390</ele>
        <time>2026-04-22T21:30:13.737Z</time>
      </trkpt>
      <trkpt lat="52.024564" lon="6.071241">
        <ele>17.544869</ele>
        <time>2026-04-22T21:30:42.744Z</time>
      </trkpt>
      <trkpt lat="52.025492" lon="6.073088">
        <ele>17.268537</ele>
        <time>2026-04-22T21:31:05.273Z</time>
      </trkpt>
      <trkpt lat="52.026087" lon="6.074276">
        <ele>17.326563</ele>
        <time>2026-04-22T21:31:19.193Z</time>
      </trkpt>
      <trkpt lat="52.028731" lon="6.079565">
        <ele>17.617596</ele>
        <time>2026-04-22T21:32:23.282Z</time>
      </trkpt>
      <trkpt lat="52.028777" lon="6.079626">
        <ele>17.620243</ele>
        <time>2026-04-22T21:32:24.426Z</time>
      </trkpt>
      <trkpt lat="52.029197" lon="6.080436">
        <ele>17.522042</ele>
        <time>2026-04-22T21:32:37.091Z</time>
      </trkpt>
      <trkpt lat="52.029487" lon="6.080701">
        <ele>17.457626</ele>
        <time>2026-04-22T21:32:43.305Z</time>
      </trkpt>
      <trkpt lat="52.029650" lon="6.080831">
        <ele>17.422470</ele>
        <time>2026-04-22T21:32:45.664Z</time>
      </trkpt>
      <trkpt lat="52.030146" lon="6.081235">
        <ele>17.315048</ele>
        <time>2026-04-22T21:32:53.743Z</time>
      </trkpt>
      <trkpt lat="52.030386" lon="6.081436">
        <ele>17.267981</ele>
        <time>2026-04-22T21:32:57.806Z</time>
      </trkpt>
      <trkpt lat="52.030604" lon="6.081668">
        <ele>17.235713</ele>
        <time>2026-04-22T21:33:01.529Z</time>
      </trkpt>
      <trkpt lat="52.030852" lon="6.082013">
        <ele>17.195290</ele>
        <time>2026-04-22T21:33:06.157Z</time>
      </trkpt>
      <trkpt lat="52.031124" lon="6.082497">
        <ele>17.145347</ele>
        <time>2026-04-22T21:33:11.845Z</time>
      </trkpt>
      <trkpt lat="52.031228" lon="6.082572">
        <ele>17.131258</ele>
        <time>2026-04-22T21:33:14.102Z</time>
      </trkpt>
      <trkpt lat="52.032092" lon="6.084104">
        <ele>17.146428</ele>
        <time>2026-04-22T21:33:39.633Z</time>
      </trkpt>
      <trkpt lat="52.032140" lon="6.084250">
        <ele>17.160643</ele>
        <time>2026-04-22T21:33:41.726Z</time>
      </trkpt>
      <trkpt lat="52.032832" lon="6.085545">
        <ele>17.308549</ele>
        <time>2026-04-22T21:34:04.030Z</time>
      </trkpt>
      <trkpt lat="52.033003" lon="6.085849">
        <ele>17.352943</ele>
        <time>2026-04-22T21:34:09.493Z</time>
      </trkpt>
      <trkpt lat="52.033071" lon="6.085966">
        <ele>17.370290</ele>
        <time>2026-04-22T21:34:11.670Z</time>
      </trkpt>
      <trkpt lat="52.033423" lon="6.086591">
        <ele>17.461611</ele>
        <time>2026-04-22T21:34:22.905Z</time>
      </trkpt>
      <trkpt lat="52.034016" lon="6.087643">
        <ele>17.615384</ele>
        <time>2026-04-22T21:34:40.820Z</time>
      </trkpt>
      <trkpt lat="52.034097" lon="6.087794">
        <ele>17.588480</ele>
        <time>2026-04-22T21:34:43.311Z</time>
      </trkpt>
      <trkpt lat="52.034496" lon="6.088501">
        <ele>17.384987</ele>
        <time>2026-04-22T21:34:55.333Z</time>
      </trkpt>
      <trkpt lat="52.035624" lon="6.090495">
        <ele>16.336129</ele>
        <time>2026-04-22T21:35:17.147Z</time>
      </trkpt>
      <trkpt lat="52.035668" lon="6.090601">
        <ele>16.241331</ele>
        <time>2026-04-22T21:35:18.048Z</time>
      </trkpt>
      <trkpt lat="52.035697" lon="6.090679">
        <ele>16.173766</ele>
        <time>2026-04-22T21:35:18.684Z</time>
      </trkpt>
      <trkpt lat="52.035932" lon="6.091410">
        <ele>15.562313</ele>
        <time>2026-04-22T21:35:24.470Z</time>
      </trkpt>
      <trkpt lat="52.036022" lon="6.092133">
        <ele>15.015466</ele>
        <time>2026-04-22T21:35:29.724Z</time>
      </trkpt>
      <trkpt lat="52.036038" lon="6.092318">
        <ele>14.876970</ele>
        <time>2026-04-22T21:35:31.048Z</time>
      </trkpt>
      <trkpt lat="52.036067" lon="6.092635">
        <ele>14.760792</ele>
        <time>2026-04-22T21:35:33.275Z</time>
      </trkpt>
      <trkpt lat="52.036352" lon="6.092586">
        <ele>14.632006</ele>
        <time>2026-04-22T21:35:36.630Z</time>
      </trkpt>
      <trkpt lat="52.036529" lon="6.092632">
        <ele>14.551457</ele>
        <time>2026-04-22T21:35:38.834Z</time>
      </trkpt>
      <trkpt lat="52.036616" lon="6.092734">
        <ele>14.503255</ele>
        <time>2026-04-22T21:35:40.235Z</time>
      </trkpt>
      <trkpt lat="52.036685" lon="6.092886">
        <ele>14.451034</ele>
        <time>2026-04-22T21:35:41.797Z</time>
      </trkpt>
      <trkpt lat="52.036707" lon="6.092947">
        <ele>14.431487</ele>
        <time>2026-04-22T21:35:42.379Z</time>
      </trkpt>
      <trkpt lat="52.037039" lon="6.093867">
        <ele>14.136637</ele>
        <time>2026-04-22T21:35:52.227Z</time>
      </trkpt>
      <trkpt lat="52.037108" lon="6.093976">
        <ele>14.093402</ele>
        <time>2026-04-22T21:35:53.760Z</time>
      </trkpt>
      <trkpt lat="52.037211" lon="6.093882">
        <ele>14.040321</ele>
        <time>2026-04-22T21:35:55.632Z</time>
      </trkpt>
      <trkpt lat="52.038162" lon="6.096500">
        <ele>14.860476</ele>
        <time>2026-04-22T21:36:37.667Z</time>
      </trkpt>
      <trkpt lat="52.038487" lon="6.097398">
        <ele>14.926283</ele>
        <time>2026-04-22T21:36:50.775Z</time>
      </trkpt>
      <trkpt lat="52.038626" lon="6.097796">
        <ele>14.955190</ele>
        <time>2026-04-22T21:36:56.335Z</time>
      </trkpt>
      <trkpt lat="52.039687" lon="6.100612">
        <ele>14.979073</ele>
        <time>2026-04-22T21:37:37.755Z</time>
      </trkpt>
      <trkpt lat="52.040400" lon="6.102395">
        <ele>14.722108</ele>
        <time>2026-04-22T21:38:03.024Z</time>
      </trkpt>
      <trkpt lat="52.040437" lon="6.102469">
        <ele>14.703272</ele>
        <time>2026-04-22T21:38:04.160Z</time>
      </trkpt>
      <trkpt lat="52.040499" lon="6.102505">
        <ele>14.682131</ele>
        <time>2026-04-22T21:38:05.452Z</time>
      </trkpt>
      <trkpt lat="52.040571" lon="6.102529">
        <ele>14.658530</ele>
        <time>2026-04-22T21:38:06.892Z</time>
      </trkpt>
      <trkpt lat="52.040599" lon="6.102597">
        <ele>14.642367</ele>
        <time>2026-04-22T21:38:07.610Z</time>
      </trkpt>
      <trkpt lat="52.040634" lon="6.102606">
        <ele>14.630988</ele>
        <time>2026-04-22T21:38:08.116Z</time>
      </trkpt>
      <trkpt lat="52.040607" lon="6.103127">
        <ele>14.527717</ele>
        <time>2026-04-22T21:38:12.702Z</time>
      </trkpt>
      <trkpt lat="52.040586" lon="6.103474">
        <ele>14.458847</ele>
        <time>2026-04-22T21:38:15.643Z</time>
      </trkpt>
      <trkpt lat="52.040582" lon="6.103510">
        <ele>14.451621</ele>
        <time>2026-04-22T21:38:15.960Z</time>
      </trkpt>
      <trkpt lat="52.040516" lon="6.104005">
        <ele>14.303321</ele>
        <time>2026-04-22T21:38:20.089Z</time>
      </trkpt>
      <trkpt lat="52.040386" lon="6.104443">
        <ele>13.952878</ele>
        <time>2026-04-22T21:38:23.921Z</time>
      </trkpt>
      <trkpt lat="52.040303" lon="6.104608">
        <ele>13.799283</ele>
        <time>2026-04-22T21:38:25.558Z</time>
      </trkpt>
      <trkpt lat="52.040354" lon="6.104711">
        <ele>13.704003</ele>
        <time>2026-04-22T21:38:26.992Z</time>
      </trkpt>
      <trkpt lat="52.040384" lon="6.104811">
        <ele>13.623829</ele>
        <time>2026-04-22T21:38:28.166Z</time>
      </trkpt>
      <trkpt lat="52.040623" lon="6.105797">
        <ele>12.860146</ele>
        <time>2026-04-22T21:38:39.256Z</time>
      </trkpt>
      <trkpt lat="52.040645" lon="6.105887">
        <ele>12.790359</ele>
        <time>2026-04-22T21:38:40.247Z</time>
      </trkpt>
      <trkpt lat="52.040971" lon="6.107105">
        <ele>11.310173</ele>
        <time>2026-04-22T21:38:53.464Z</time>
      </trkpt>
      <trkpt lat="52.041192" lon="6.107732">
        <ele>10.155336</ele>
        <time>2026-04-22T21:39:00.279Z</time>
      </trkpt>
      <trkpt lat="52.041489" lon="6.108480">
        <ele>8.732573</ele>
        <time>2026-04-22T21:39:08.279Z</time>
      </trkpt>
      <trkpt lat="52.041514" lon="6.108865">
        <ele>8.113906</ele>
        <time>2026-04-22T21:39:10.663Z</time>
      </trkpt>
      <trkpt lat="52.041587" lon="6.109242">
        <ele>7.538353</ele>
        <time>2026-04-22T21:39:13.124Z</time>
      </trkpt>
      <trkpt lat="52.041639" lon="6.109507">
        <ele>7.325860</ele>
        <time>2026-04-22T21:39:14.867Z</time>
      </trkpt>
      <trkpt lat="52.041746" lon="6.110055">
        <ele>6.886641</ele>
        <time>2026-04-22T21:39:18.594Z</time>
      </trkpt>
      <trkpt lat="52.041866" lon="6.110340">
        <ele>6.622797</ele>
        <time>2026-04-22T21:39:21.549Z</time>
      </trkpt>
      <trkpt lat="52.041931" lon="6.110783">
        <ele>6.274883</ele>
        <time>2026-04-22T21:39:25.444Z</time>
      </trkpt>
      <trkpt lat="52.041872" lon="6.111153">
        <ele>5.982888</ele>
        <time>2026-04-22T21:39:28.711Z</time>
      </trkpt>
      <trkpt lat="52.041736" lon="6.111428">
        <ele>5.713325</ele>
        <time>2026-04-22T21:39:31.728Z</time>
      </trkpt>
      <trkpt lat="52.041691" lon="6.111605">
        <ele>5.567015</ele>
        <time>2026-04-22T21:39:33.624Z</time>
      </trkpt>
      <trkpt lat="52.041691" lon="6.111714">
        <ele>5.483747</ele>
        <time>2026-04-22T21:39:34.821Z</time>
      </trkpt>
      <trkpt lat="52.041744" lon="6.111946">
        <ele>5.363670</ele>
        <time>2026-04-22T21:39:37.495Z</time>
      </trkpt>
      <trkpt lat="52.041709" lon="6.112884">
        <ele>5.455927</ele>
        <time>2026-04-22T21:39:47.630Z</time>
      </trkpt>
      <trkpt lat="52.041536" lon="6.116207">
        <ele>5.788072</ele>
        <time>2026-04-22T21:40:17.537Z</time>
      </trkpt>
      <trkpt lat="52.041444" lon="6.116574">
        <ele>5.828294</ele>
        <time>2026-04-22T21:40:21.276Z</time>
      </trkpt>
      <trkpt lat="52.040400" lon="6.119780">
        <ele>6.801012</ele>
        <time>2026-04-22T21:40:58.882Z</time>
      </trkpt>
      <trkpt lat="52.040380" lon="6.119960">
        <ele>6.863283</ele>
        <time>2026-04-22T21:41:00.831Z</time>
      </trkpt>
      <trkpt lat="52.040392" lon="6.120036">
        <ele>6.889995</ele>
        <time>2026-04-22T21:41:01.661Z</time>
      </trkpt>
      <trkpt lat="52.040458" lon="6.120262">
        <ele>6.993810</ele>
        <time>2026-04-22T21:41:04.348Z</time>
      </trkpt>
      <trkpt lat="52.041345" lon="6.122125">
        <ele>8.169620</ele>
        <time>2026-04-22T21:41:31.472Z</time>
      </trkpt>
      <trkpt lat="52.041481" lon="6.122309">
        <ele>8.313183</ele>
        <time>2026-04-22T21:41:34.708Z</time>
      </trkpt>
      <trkpt lat="52.041749" lon="6.122504">
        <ele>8.399218</ele>
        <time>2026-04-22T21:41:39.860Z</time>
      </trkpt>
      <trkpt lat="52.042947" lon="6.120778">
        <ele>8.437638</ele>
        <time>2026-04-22T21:42:11.476Z</time>
      </trkpt>
      <trkpt lat="52.043349" lon="6.120356">
        <ele>8.355856</ele>
        <time>2026-04-22T21:42:20.502Z</time>
      </trkpt>
      <trkpt lat="52.043593" lon="6.120167">
        <ele>8.309148</ele>
        <time>2026-04-22T21:42:25.732Z</time>
      </trkpt>
      <trkpt lat="52.043876" lon="6.120013">
        <ele>8.257574</ele>
        <time>2026-04-22T21:42:31.622Z</time>
      </trkpt>
      <trkpt lat="52.044197" lon="6.119908">
        <ele>8.200988</ele>
        <time>2026-04-22T21:42:38.190Z</time>
      </trkpt>
      <trkpt lat="52.044618" lon="6.119861">
        <ele>8.128061</ele>
        <time>2026-04-22T21:42:46.612Z</time>
      </trkpt>
      <trkpt lat="52.045039" lon="6.119913">
        <ele>7.883713</ele>
        <time>2026-04-22T21:42:54.864Z</time>
      </trkpt>
      <trkpt lat="52.045584" lon="6.120164">
        <ele>7.552222</ele>
        <time>2026-04-22T21:43:05.480Z</time>
      </trkpt>
      <trkpt lat="52.046181" lon="6.120587">
        <ele>7.171116</ele>
        <time>2026-04-22T21:43:16.981Z</time>
      </trkpt>
      <trkpt lat="52.048033" lon="6.121970">
        <ele>5.430214</ele>
        <time>2026-04-22T21:43:52.160Z</time>
      </trkpt>
      <trkpt lat="52.050005" lon="6.123532">
        <ele>5.605950</ele>
        <time>2026-04-22T21:44:38.486Z</time>
      </trkpt>
      <trkpt lat="52.050311" lon="6.123826">
        <ele>5.689725</ele>
        <time>2026-04-22T21:44:45.852Z</time>
      </trkpt>
      <trkpt lat="52.050685" lon="6.124280">
        <ele>5.799734</ele>
        <time>2026-04-22T21:44:55.385Z</time>
      </trkpt>
      <trkpt lat="52.051345" lon="6.125200">
        <ele>6.106515</ele>
        <time>2026-04-22T21:45:14.101Z</time>
      </trkpt>
      <trkpt lat="52.051424" lon="6.125376">
        <ele>6.175851</ele>
        <time>2026-04-22T21:45:17.101Z</time>
      </trkpt>
      <trkpt lat="52.051834" lon="6.126634">
        <ele>6.628894</ele>
        <time>2026-04-22T21:45:37.302Z</time>
      </trkpt>
      <trkpt lat="52.052408" lon="6.128932">
        <ele>7.069210</ele>
        <time>2026-04-22T21:46:10.656Z</time>
      </trkpt>
      <trkpt lat="52.052917" lon="6.130438">
        <ele>7.049944</ele>
        <time>2026-04-22T21:46:31.647Z</time>
      </trkpt>
      <trkpt lat="52.053043" lon="6.130893">
        <ele>6.912716</ele>
        <time>2026-04-22T21:46:37.546Z</time>
      </trkpt>
      <trkpt lat="52.053177" lon="6.131819">
        <ele>6.651110</ele>
        <time>2026-04-22T21:46:48.593Z</time>
      </trkpt>
      <trkpt lat="52.053368" lon="6.134238">
        <ele>5.992212</ele>
        <time>2026-04-22T21:47:15.084Z</time>
      </trkpt>
      <trkpt lat="52.053428" lon="6.134607">
        <ele>5.890165</ele>
        <time>2026-04-22T21:47:19.298Z</time>
      </trkpt>
      <trkpt lat="52.053553" lon="6.135033">
        <ele>5.763967</ele>
        <time>2026-04-22T21:47:24.880Z</time>
      </trkpt>
      <trkpt lat="52.053863" lon="6.135730">
        <ele>5.714324</ele>
        <time>2026-04-22T21:47:36.268Z</time>
      </trkpt>
      <trkpt lat="52.054641" lon="6.136699">
        <ele>6.154189</ele>
        <time>2026-04-22T21:47:58.655Z</time>
      </trkpt>
      <trkpt lat="52.054807" lon="6.136826">
        <ele>6.236533</ele>
        <time>2026-04-22T21:48:02.986Z</time>
      </trkpt>
      <trkpt lat="52.055212" lon="6.137278">
        <ele>6.424021</ele>
        <time>2026-04-22T21:48:13.963Z</time>
      </trkpt>
      <trkpt lat="52.055460" lon="6.137587">
        <ele>6.392624</ele>
        <time>2026-04-22T21:48:20.162Z</time>
      </trkpt>
      <trkpt lat="52.055775" lon="6.138074">
        <ele>6.348946</ele>
        <time>2026-04-22T21:48:28.382Z</time>
      </trkpt>
      <trkpt lat="52.056138" lon="6.138571">
        <ele>6.301260</ele>
        <time>2026-04-22T21:48:37.622Z</time>
      </trkpt>
      <trkpt lat="52.056968" lon="6.139590">
        <ele>6.167597</ele>
        <time>2026-04-22T21:48:58.078Z</time>
      </trkpt>
      <trkpt lat="52.057945" lon="6.140868">
        <ele>5.971695</ele>
        <time>2026-04-22T21:49:15.775Z</time>
      </trkpt>
      <trkpt lat="52.058373" lon="6.141483">
        <ele>6.147653</ele>
        <time>2026-04-22T21:49:24.077Z</time>
      </trkpt>
      <trkpt lat="52.059195" lon="6.142901">
        <ele>6.539053</ele>
        <time>2026-04-22T21:49:44.295Z</time>
      </trkpt>
      <trkpt lat="52.059659" lon="6.143945">
        <ele>6.605476</ele>
        <time>2026-04-22T21:49:58.158Z</time>
      </trkpt>
      <trkpt lat="52.059806" lon="6.144545">
        <ele>6.632117</ele>
        <time>2026-04-22T21:50:04.133Z</time>
      </trkpt>
      <trkpt lat="52.060018" lon="6.146253">
        <ele>6.583222</ele>
        <time>2026-04-22T21:50:18.070Z</time>
      </trkpt>
      <trkpt lat="52.060194" lon="6.147245">
        <ele>6.439118</ele>
        <time>2026-04-22T21:50:26.639Z</time>
      </trkpt>
      <trkpt lat="52.060387" lon="6.148023">
        <ele>6.322027</ele>
        <time>2026-04-22T21:50:34.445Z</time>
      </trkpt>
      <trkpt lat="52.060988" lon="6.149472">
        <ele>6.171958</ele>
        <time>2026-04-22T21:50:51.154Z</time>
      </trkpt>
      <trkpt lat="52.061109" lon="6.149883">
        <ele>6.139774</ele>
        <time>2026-04-22T21:50:55.087Z</time>
      </trkpt>
      <trkpt lat="52.061370" lon="6.151090">
        <ele>6.062655</ele>
        <time>2026-04-22T21:51:05.716Z</time>
      </trkpt>
      <trkpt lat="52.061511" lon="6.151557">
        <ele>6.066101</ele>
        <time>2026-04-22T21:51:09.957Z</time>
      </trkpt>
      <trkpt lat="52.061824" lon="6.152444">
        <ele>6.072874</ele>
        <time>2026-04-22T21:51:19.196Z</time>
      </trkpt>
      <trkpt lat="52.062135" lon="6.153165">
        <ele>6.078707</ele>
        <time>2026-04-22T21:51:28.125Z</time>
      </trkpt>
      <trkpt lat="52.062636" lon="6.154010">
        <ele>6.109602</ele>
        <time>2026-04-22T21:51:39.437Z</time>
      </trkpt>
      <trkpt lat="52.062962" lon="6.154442">
        <ele>6.132876</ele>
        <time>2026-04-22T21:51:45.898Z</time>
      </trkpt>
      <trkpt lat="52.064263" lon="6.155480">
        <ele>5.928820</ele>
        <time>2026-04-22T21:52:06.639Z</time>
      </trkpt>
      <trkpt lat="52.064829" lon="6.155808">
        <ele>5.672385</ele>
        <time>2026-04-22T21:52:15.381Z</time>
      </trkpt>
      <trkpt lat="52.065969" lon="6.156539">
        <ele>4.759622</ele>
        <time>2026-04-22T21:52:30.549Z</time>
      </trkpt>
      <trkpt lat="52.066083" lon="6.156662">
        <ele>4.614842</ele>
        <time>2026-04-22T21:52:32.060Z</time>
      </trkpt>
      <trkpt lat="52.066860" lon="6.157869">
        <ele>3.535016</ele>
        <time>2026-04-22T21:52:44.458Z</time>
      </trkpt>
      <trkpt lat="52.067396" lon="6.158945">
        <ele>4.274923</ele>
        <time>2026-04-22T21:52:58.577Z</time>
      </trkpt>
      <trkpt lat="52.067504" lon="6.159228">
        <ele>4.452883</ele>
        <time>2026-04-22T21:53:03.009Z</time>
      </trkpt>
      <trkpt lat="52.067644" lon="6.159708">
        <ele>4.736725</ele>
        <time>2026-04-22T21:53:10.511Z</time>
      </trkpt>
      <trkpt lat="52.068114" lon="6.160758">
        <ele>5.368943</ele>
        <time>2026-04-22T21:53:28.057Z</time>
      </trkpt>
      <trkpt lat="52.068174" lon="6.160965">
        <ele>5.470153</ele>
        <time>2026-04-22T21:53:30.880Z</time>
      </trkpt>
      <trkpt lat="52.068305" lon="6.161907">
        <ele>5.897266</ele>
        <time>2026-04-22T21:53:41.460Z</time>
      </trkpt>
      <trkpt lat="52.068607" lon="6.164533">
        <ele>6.216730</ele>
        <time>2026-04-22T21:54:04.847Z</time>
      </trkpt>
      <trkpt lat="52.068699" lon="6.165283">
        <ele>6.145705</ele>
        <time>2026-04-22T21:54:11.356Z</time>
      </trkpt>
      <trkpt lat="52.068791" lon="6.165599">
        <ele>6.113233</ele>
        <time>2026-04-22T21:54:14.370Z</time>
      </trkpt>
      <trkpt lat="52.069291" lon="6.166328">
        <ele>6.224112</ele>
        <time>2026-04-22T21:54:24.053Z</time>
      </trkpt>
      <trkpt lat="52.071314" lon="6.169106">
        <ele>7.033335</ele>
        <time>2026-04-22T21:55:07.829Z</time>
      </trkpt>
      <trkpt lat="52.071349" lon="6.169144">
        <ele>7.048811</ele>
        <time>2026-04-22T21:55:08.558Z</time>
      </trkpt>
      <trkpt lat="52.072074" lon="6.170705">
        <ele>7.266760</ele>
        <time>2026-04-22T21:55:27.613Z</time>
      </trkpt>
      <trkpt lat="52.072318" lon="6.171190">
        <ele>7.305901</ele>
        <time>2026-04-22T21:55:33.254Z</time>
      </trkpt>
      <trkpt lat="52.074926" lon="6.174545">
        <ele>7.559907</ele>
        <time>2026-04-22T21:56:21.830Z</time>
      </trkpt>
      <trkpt lat="52.075080" lon="6.174732">
        <ele>7.620723</ele>
        <time>2026-04-22T21:56:25.126Z</time>
      </trkpt>
      <trkpt lat="52.075583" lon="6.175449">
        <ele>7.833497</ele>
        <time>2026-04-22T21:56:36.843Z</time>
      </trkpt>
      <trkpt lat="52.076085" lon="6.175902">
        <ele>8.051471</ele>
        <time>2026-04-22T21:56:47.123Z</time>
      </trkpt>
      <trkpt lat="52.076948" lon="6.176691">
        <ele>8.427360</ele>
        <time>2026-04-22T21:57:03.142Z</time>
      </trkpt>
      <trkpt lat="52.076984" lon="6.176723">
        <ele>8.442937</ele>
        <time>2026-04-22T21:57:03.769Z</time>
      </trkpt>
      <trkpt lat="52.078047" lon="6.177820">
        <ele>8.278043</ele>
        <time>2026-04-22T21:57:21.716Z</time>
      </trkpt>
      <trkpt lat="52.078111" lon="6.177881">
        <ele>8.262177</ele>
        <time>2026-04-22T21:57:22.726Z</time>
      </trkpt>
      <trkpt lat="52.080667" lon="6.179983">
        <ele>7.077805</ele>
        <time>2026-04-22T21:58:01.422Z</time>
      </trkpt>
      <trkpt lat="52.081624" lon="6.180759">
        <ele>6.388510</ele>
        <time>2026-04-22T21:58:14.767Z</time>
      </trkpt>
      <trkpt lat="52.082758" lon="6.181682">
        <ele>6.076012</ele>
        <time>2026-04-22T21:58:31.545Z</time>
      </trkpt>
      <trkpt lat="52.083373" lon="6.182134">
        <ele>5.995054</ele>
        <time>2026-04-22T21:58:42.613Z</time>
      </trkpt>
      <trkpt lat="52.083536" lon="6.182284">
        <ele>5.983880</ele>
        <time>2026-04-22T21:58:45.573Z</time>
      </trkpt>
      <trkpt lat="52.083789" lon="6.182635">
        <ele>6.090032</ele>
        <time>2026-04-22T21:58:50.816Z</time>
      </trkpt>
      <trkpt lat="52.083848" lon="6.182756">
        <ele>6.120339</ele>
        <time>2026-04-22T21:58:52.361Z</time>
      </trkpt>
      <trkpt lat="52.083957" lon="6.182984">
        <ele>6.177017</ele>
        <time>2026-04-22T21:58:55.238Z</time>
      </trkpt>
      <trkpt lat="52.084109" lon="6.183405">
        <ele>6.272821</ele>
        <time>2026-04-22T21:59:00.222Z</time>
      </trkpt>
      <trkpt lat="52.084238" lon="6.183998">
        <ele>6.396246</ele>
        <time>2026-04-22T21:59:06.723Z</time>
      </trkpt>
      <trkpt lat="52.084623" lon="6.186210">
        <ele>6.496036</ele>
        <time>2026-04-22T21:59:28.507Z</time>
      </trkpt>
      <trkpt lat="52.084660" lon="6.186540">
        <ele>6.484101</ele>
        <time>2026-04-22T21:59:31.503Z</time>
      </trkpt>
      <trkpt lat="52.084935" lon="6.188131">
        <ele>6.419093</ele>
        <time>2026-04-22T21:59:45.441Z</time>
      </trkpt>
      <trkpt lat="52.085001" lon="6.188640">
        <ele>6.394988</ele>
        <time>2026-04-22T21:59:49.789Z</time>
      </trkpt>
      <trkpt lat="52.085218" lon="6.191943">
        <ele>6.503945</ele>
        <time>2026-04-22T22:00:20.650Z</time>
      </trkpt>
      <trkpt lat="52.085155" lon="6.193941">
        <ele>6.761159</ele>
        <time>2026-04-22T22:00:40.749Z</time>
      </trkpt>
      <trkpt lat="52.085171" lon="6.194216">
        <ele>6.795746</ele>
        <time>2026-04-22T22:00:43.484Z</time>
      </trkpt>
      <trkpt lat="52.086178" lon="6.197852">
        <ele>7.182324</ele>
        <time>2026-04-22T22:01:20.978Z</time>
      </trkpt>
      <trkpt lat="52.086241" lon="6.198201">
        <ele>7.206306</ele>
        <time>2026-04-22T22:01:24.434Z</time>
      </trkpt>
      <trkpt lat="52.085826" lon="6.198715">
        <ele>7.232107</ele>
        <time>2026-04-22T22:01:32.480Z</time>
      </trkpt>
      <trkpt lat="52.085370" lon="6.199280">
        <ele>7.144058</ele>
        <time>2026-04-22T22:01:40.972Z</time>
      </trkpt>
      <trkpt lat="52.085485" lon="6.199576">
        <ele>7.110998</ele>
        <time>2026-04-22T22:01:43.968Z</time>
      </trkpt>
      <trkpt lat="52.085659" lon="6.200354">
        <ele>7.032839</ele>
        <time>2026-04-22T22:01:51.161Z</time>
      </trkpt>
      <trkpt lat="52.085930" lon="6.202430">
        <ele>6.736942</ele>
        <time>2026-04-22T22:02:08.908Z</time>
      </trkpt>
      <trkpt lat="52.086202" lon="6.203395">
        <ele>6.568827</ele>
        <time>2026-04-22T22:02:18.087Z</time>
      </trkpt>
      <trkpt lat="52.086725" lon="6.205236">
        <ele>6.339412</ele>
        <time>2026-04-22T22:02:36.207Z</time>
      </trkpt>
      <trkpt lat="52.086811" lon="6.205802">
        <ele>6.279373</ele>
        <time>2026-04-22T22:02:41.320Z</time>
      </trkpt>
      <trkpt lat="52.086833" lon="6.206354">
        <ele>6.222412</ele>
        <time>2026-04-22T22:02:46.071Z</time>
      </trkpt>
      <trkpt lat="52.086874" lon="6.211134">
        <ele>4.977709</ele>
        <time>2026-04-22T22:03:25.090Z</time>
      </trkpt>
      <trkpt lat="52.086895" lon="6.211376">
        <ele>4.917181</ele>
        <time>2026-04-22T22:03:27.095Z</time>
      </trkpt>
      <trkpt lat="52.087053" lon="6.212161">
        <ele>4.712604</ele>
        <time>2026-04-22T22:03:34.068Z</time>
      </trkpt>
      <trkpt lat="52.087371" lon="6.213735">
        <ele>4.772575</ele>
        <time>2026-04-22T22:03:49.147Z</time>
      </trkpt>
      <trkpt lat="52.088106" lon="6.217338">
        <ele>5.196992</ele>
        <time>2026-04-22T22:04:26.302Z</time>
      </trkpt>
      <trkpt lat="52.088107" lon="6.217539">
        <ele>5.225378</ele>
        <time>2026-04-22T22:04:28.186Z</time>
      </trkpt>
      <trkpt lat="52.088083" lon="6.217710">
        <ele>5.250149</ele>
        <time>2026-04-22T22:04:29.807Z</time>
      </trkpt>
      <trkpt lat="52.087974" lon="6.217981">
        <ele>5.280586</ele>
        <time>2026-04-22T22:04:32.805Z</time>
      </trkpt>
      <trkpt lat="52.087765" lon="6.218362">
        <ele>5.304390</ele>
        <time>2026-04-22T22:04:37.497Z</time>
      </trkpt>
      <trkpt lat="52.087309" lon="6.219069">
        <ele>5.352160</ele>
        <time>2026-04-22T22:04:46.815Z</time>
      </trkpt>
      <trkpt lat="52.086880" lon="6.220470">
        <ele>5.464049</ele>
        <time>2026-04-22T22:05:01.260Z</time>
      </trkpt>
      <trkpt lat="52.086855" lon="6.220703">
        <ele>5.502514</ele>
        <time>2026-04-22T22:05:03.564Z</time>
      </trkpt>
      <trkpt lat="52.086875" lon="6.220898">
        <ele>5.534665</ele>
        <time>2026-04-22T22:05:05.596Z</time>
      </trkpt>
      <trkpt lat="52.086885" lon="6.220952">
        <ele>5.543836</ele>
        <time>2026-04-22T22:05:06.182Z</time>
      </trkpt>
      <trkpt lat="52.087079" lon="6.222126">
        <ele>5.741541</ele>
        <time>2026-04-22T22:05:18.601Z</time>
      </trkpt>
      <trkpt lat="52.086979" lon="6.222173">
        <ele>5.769088</ele>
        <time>2026-04-22T22:05:20.271Z</time>
      </trkpt>
      <trkpt lat="52.086943" lon="6.222271">
        <ele>5.787656</ele>
        <time>2026-04-22T22:05:21.407Z</time>
      </trkpt>
      <trkpt lat="52.086960" lon="6.222406">
        <ele>5.810067</ele>
        <time>2026-04-22T22:05:22.766Z</time>
      </trkpt>
      <trkpt lat="52.086978" lon="6.222533">
        <ele>5.831262</ele>
        <time>2026-04-22T22:05:24.054Z</time>
      </trkpt>
      <trkpt lat="52.087085" lon="6.222517">
        <ele>5.859700</ele>
        <time>2026-04-22T22:05:25.770Z</time>
      </trkpt>
      <trkpt lat="52.087980" lon="6.222211">
        <ele>5.647874</ele>
        <time>2026-04-22T22:05:39.160Z</time>
      </trkpt>
      <trkpt lat="52.088391" lon="6.222005">
        <ele>5.522799</ele>
        <time>2026-04-22T22:05:44.666Z</time>
      </trkpt>
      <trkpt lat="52.088589" lon="6.222005">
        <ele>5.465213</ele>
        <time>2026-04-22T22:05:47.194Z</time>
      </trkpt>
      <trkpt lat="52.088636" lon="6.221970">
        <ele>5.450181</ele>
        <time>2026-04-22T22:05:47.856Z</time>
      </trkpt>
      <trkpt lat="52.088846" lon="6.221823">
        <ele>5.383695</ele>
        <time>2026-04-22T22:05:50.860Z</time>
      </trkpt>
      <trkpt lat="52.089485" lon="6.221273">
        <ele>5.542963</ele>
        <time>2026-04-22T22:06:00.994Z</time>
      </trkpt>
      <trkpt lat="52.090629" lon="6.220281">
        <ele>5.955246</ele>
        <time>2026-04-22T22:06:23.181Z</time>
      </trkpt>
      <trkpt lat="52.091097" lon="6.219945">
        <ele>6.277980</ele>
        <time>2026-04-22T22:06:32.636Z</time>
      </trkpt>
      <trkpt lat="52.091469" lon="6.219739">
        <ele>6.525904</ele>
        <time>2026-04-22T22:06:39.712Z</time>
      </trkpt>
      <trkpt lat="52.092091" lon="6.219481">
        <ele>6.930894</ele>
        <time>2026-04-22T22:06:50.749Z</time>
      </trkpt>
      <trkpt lat="52.092596" lon="6.219376">
        <ele>6.976096</ele>
        <time>2026-04-22T22:06:58.950Z</time>
      </trkpt>
      <trkpt lat="52.092865" lon="6.219359">
        <ele>6.962020</ele>
        <time>2026-04-22T22:07:02.955Z</time>
      </trkpt>
      <trkpt lat="52.093482" lon="6.219384">
        <ele>6.929748</ele>
        <time>2026-04-22T22:07:11.672Z</time>
      </trkpt>
      <trkpt lat="52.094042" lon="6.219473">
        <ele>6.886193</ele>
        <time>2026-04-22T22:07:19.359Z</time>
      </trkpt>
      <trkpt lat="52.094789" lon="6.219675">
        <ele>6.649829</ele>
        <time>2026-04-22T22:07:29.541Z</time>
      </trkpt>
      <trkpt lat="52.095995" lon="6.219891">
        <ele>6.379931</ele>
        <time>2026-04-22T22:07:46.108Z</time>
      </trkpt>
      <trkpt lat="52.096977" lon="6.219949">
        <ele>6.545770</ele>
        <time>2026-04-22T22:08:01.641Z</time>
      </trkpt>
      <trkpt lat="52.097265" lon="6.220011">
        <ele>6.594799</ele>
        <time>2026-04-22T22:08:06.470Z</time>
      </trkpt>
      <trkpt lat="52.097231" lon="6.220397">
        <ele>6.635228</ele>
        <time>2026-04-22T22:08:10.485Z</time>
      </trkpt>
      <trkpt lat="52.097133" lon="6.220942">
        <ele>6.695694</ele>
        <time>2026-04-22T22:08:16.314Z</time>
      </trkpt>
      <trkpt lat="52.097135" lon="6.221371">
        <ele>6.741623</ele>
        <time>2026-04-22T22:08:20.753Z</time>
      </trkpt>
      <trkpt lat="52.097523" lon="6.223761">
        <ele>6.969459</ele>
        <time>2026-04-22T22:08:43.312Z</time>
      </trkpt>
      <trkpt lat="52.097630" lon="6.224850">
        <ele>6.996078</ele>
        <time>2026-04-22T22:08:53.243Z</time>
      </trkpt>
      <trkpt lat="52.097640" lon="6.225160">
        <ele>7.003571</ele>
        <time>2026-04-22T22:08:56.132Z</time>
      </trkpt>
      <trkpt lat="52.097630" lon="6.225390">
        <ele>7.009136</ele>
        <time>2026-04-22T22:08:58.305Z</time>
      </trkpt>
      <trkpt lat="52.097380" lon="6.227220">
        <ele>7.012399</ele>
        <time>2026-04-22T22:09:16.145Z</time>
      </trkpt>
      <trkpt lat="52.097094" lon="6.228844">
        <ele>6.984619</ele>
        <time>2026-04-22T22:09:31.432Z</time>
      </trkpt>
      <trkpt lat="52.096960" lon="6.229290">
        <ele>6.900904</ele>
        <time>2026-04-22T22:09:37.245Z</time>
      </trkpt>
      <trkpt lat="52.096570" lon="6.230067">
        <ele>6.625399</ele>
        <time>2026-04-22T22:09:48.748Z</time>
      </trkpt>
      <trkpt lat="52.095660" lon="6.231880">
        <ele>6.136096</ele>
        <time>2026-04-22T22:10:15.165Z</time>
      </trkpt>
      <trkpt lat="52.095580" lon="6.231960">
        <ele>6.127209</ele>
        <time>2026-04-22T22:10:16.946Z</time>
      </trkpt>
      <trkpt lat="52.095470" lon="6.231990">
        <ele>6.116652</ele>
        <time>2026-04-22T22:10:19.077Z</time>
      </trkpt>
      <trkpt lat="52.093310" lon="6.231870">
        <ele>6.087308</ele>
        <time>2026-04-22T22:11:03.631Z</time>
      </trkpt>
      <trkpt lat="52.092960" lon="6.231950">
        <ele>6.115546</ele>
        <time>2026-04-22T22:11:10.949Z</time>
      </trkpt>
      <trkpt lat="52.092874" lon="6.232022">
        <ele>6.123273</ele>
        <time>2026-04-22T22:11:12.953Z</time>
      </trkpt>
      <trkpt lat="52.092430" lon="6.232840">
        <ele>6.178407</ele>
        <time>2026-04-22T22:11:26.761Z</time>
      </trkpt>
      <trkpt lat="52.092180" lon="6.233400">
        <ele>6.214415</ele>
        <time>2026-04-22T22:11:35.531Z</time>
      </trkpt>
      <trkpt lat="52.091630" lon="6.234890">
        <ele>6.303647</ele>
        <time>2026-04-22T22:11:57.562Z</time>
      </trkpt>
      <trkpt lat="52.091278" lon="6.236156">
        <ele>6.326647</ele>
        <time>2026-04-22T22:12:15.056Z</time>
      </trkpt>
      <trkpt lat="52.089128" lon="6.243890">
        <ele>6.224644</ele>
        <time>2026-04-22T22:14:00.670Z</time>
      </trkpt>
      <trkpt lat="52.088435" lon="6.246506">
        <ele>5.840197</ele>
        <time>2026-04-22T22:14:24.145Z</time>
      </trkpt>
      <trkpt lat="52.088413" lon="6.246707">
        <ele>5.818276</ele>
        <time>2026-04-22T22:14:25.803Z</time>
      </trkpt>
      <trkpt lat="52.088447" lon="6.247122">
        <ele>5.773324</ele>
        <time>2026-04-22T22:14:29.302Z</time>
      </trkpt>
      <trkpt lat="52.088487" lon="6.247347">
        <ele>5.748175</ele>
        <time>2026-04-22T22:14:31.308Z</time>
      </trkpt>
      <trkpt lat="52.088608" lon="6.248041">
        <ele>5.670720</ele>
        <time>2026-04-22T22:14:37.799Z</time>
      </trkpt>
      <trkpt lat="52.088568" lon="6.249288">
        <ele>5.961391</ele>
        <time>2026-04-22T22:14:50.358Z</time>
      </trkpt>
      <trkpt lat="52.088603" lon="6.250824">
        <ele>6.482815</ele>
        <time>2026-04-22T22:15:07.469Z</time>
      </trkpt>
      <trkpt lat="52.088669" lon="6.251813">
        <ele>6.748141</ele>
        <time>2026-04-22T22:15:18.064Z</time>
      </trkpt>
      <trkpt lat="52.088373" lon="6.254401">
        <ele>7.294621</ele>
        <time>2026-04-22T22:15:43.506Z</time>
      </trkpt>
      <trkpt lat="52.088370" lon="6.254427">
        <ele>7.299682</ele>
        <time>2026-04-22T22:15:43.756Z</time>
      </trkpt>
      <trkpt lat="52.088300" lon="6.254588">
        <ele>7.337413</ele>
        <time>2026-04-22T22:15:45.623Z</time>
      </trkpt>
      <trkpt lat="52.088087" lon="6.255168">
        <ele>7.466677</ele>
        <time>2026-04-22T22:15:52.061Z</time>
      </trkpt>
      <trkpt lat="52.087828" lon="6.255472">
        <ele>7.566099</ele>
        <time>2026-04-22T22:15:57.063Z</time>
      </trkpt>
      <trkpt lat="52.087896" lon="6.257320">
        <ele>7.901696</ele>
        <time>2026-04-22T22:16:16.209Z</time>
      </trkpt>
      <trkpt lat="52.087920" lon="6.257903">
        <ele>7.995513</ele>
        <time>2026-04-22T22:16:22.242Z</time>
      </trkpt>
      <trkpt lat="52.087924" lon="6.258139">
        <ele>8.033419</ele>
        <time>2026-04-22T22:16:24.626Z</time>
      </trkpt>
      <trkpt lat="52.087999" lon="6.260080">
        <ele>8.348425</ele>
        <time>2026-04-22T22:16:42.749Z</time>
      </trkpt>
      <trkpt lat="52.087974" lon="6.260673">
        <ele>8.447548</ele>
        <time>2026-04-22T22:16:48.123Z</time>
      </trkpt>
      <trkpt lat="52.087910" lon="6.260803">
        <ele>8.475328</ele>
        <time>2026-04-22T22:16:49.665Z</time>
      </trkpt>
      <trkpt lat="52.087921" lon="6.260936">
        <ele>8.497707</ele>
        <time>2026-04-22T22:16:50.933Z</time>
      </trkpt>
      <trkpt lat="52.087957" lon="6.261001">
        <ele>8.512300</ele>
        <time>2026-04-22T22:16:51.756Z</time>
      </trkpt>
      <trkpt lat="52.087989" lon="6.261026">
        <ele>8.521934</ele>
        <time>2026-04-22T22:16:52.302Z</time>
      </trkpt>
      <trkpt lat="52.088058" lon="6.261656">
        <ele>8.628651</ele>
        <time>2026-04-22T22:16:58.552Z</time>
      </trkpt>
      <trkpt lat="52.088139" lon="6.263894">
        <ele>9.065290</ele>
        <time>2026-04-22T22:17:21.904Z</time>
      </trkpt>
      <trkpt lat="52.088174" lon="6.264726">
        <ele>9.240794</ele>
        <time>2026-04-22T22:17:30.137Z</time>
      </trkpt>
      <trkpt lat="52.088238" lon="6.266228">
        <ele>9.448850</ele>
        <time>2026-04-22T22:17:44.198Z</time>
      </trkpt>
      <trkpt lat="52.088275" lon="6.267375">
        <ele>9.543431</ele>
        <time>2026-04-22T22:17:55.037Z</time>
      </trkpt>
      <trkpt lat="52.088344" lon="6.268429">
        <ele>9.609160</ele>
        <time>2026-04-22T22:18:05.323Z</time>
      </trkpt>
      <trkpt lat="52.088405" lon="6.268934">
        <ele>9.566587</ele>
        <time>2026-04-22T22:18:10.143Z</time>
      </trkpt>
      <trkpt lat="52.088520" lon="6.269411">
        <ele>9.524201</ele>
        <time>2026-04-22T22:18:14.737Z</time>
      </trkpt>
      <trkpt lat="52.088643" lon="6.269890">
        <ele>9.481257</ele>
        <time>2026-04-22T22:18:19.207Z</time>
      </trkpt>
      <trkpt lat="52.088894" lon="6.270606">
        <ele>9.413069</ele>
        <time>2026-04-22T22:18:26.090Z</time>
      </trkpt>
      <trkpt lat="52.089267" lon="6.271269">
        <ele>9.333504</ele>
        <time>2026-04-22T22:18:33.605Z</time>
      </trkpt>
      <trkpt lat="52.089560" lon="6.271660">
        <ele>9.275704</ele>
        <time>2026-04-22T22:18:38.810Z</time>
      </trkpt>
      <trkpt lat="52.089898" lon="6.272032">
        <ele>9.213461</ele>
        <time>2026-04-22T22:18:44.608Z</time>
      </trkpt>
      <trkpt lat="52.090426" lon="6.272414">
        <ele>9.125317</ele>
        <time>2026-04-22T22:18:53.092Z</time>
      </trkpt>
      <trkpt lat="52.091141" lon="6.273001">
        <ele>9.294065</ele>
        <time>2026-04-22T22:19:05.549Z</time>
      </trkpt>
      <trkpt lat="52.093079" lon="6.274510">
        <ele>9.650721</ele>
        <time>2026-04-22T22:19:40.550Z</time>
      </trkpt>
      <trkpt lat="52.094161" lon="6.275353">
        <ele>9.580299</ele>
        <time>2026-04-22T22:19:56.802Z</time>
      </trkpt>
      <trkpt lat="52.094370" lon="6.275500">
        <ele>9.529713</ele>
        <time>2026-04-22T22:19:59.804Z</time>
      </trkpt>
      <trkpt lat="52.095355" lon="6.276252">
        <ele>9.287985</ele>
        <time>2026-04-22T22:20:15.112Z</time>
      </trkpt>
      <trkpt lat="52.096051" lon="6.276782">
        <ele>9.428890</ele>
        <time>2026-04-22T22:20:27.180Z</time>
      </trkpt>
      <trkpt lat="52.097174" lon="6.277643">
        <ele>9.735011</ele>
        <time>2026-04-22T22:20:47.160Z</time>
      </trkpt>
      <trkpt lat="52.098330" lon="6.278528">
        <ele>10.251170</ele>
        <time>2026-04-22T22:21:08.345Z</time>
      </trkpt>
      <trkpt lat="52.098467" lon="6.278635">
        <ele>10.312566</ele>
        <time>2026-04-22T22:21:10.862Z</time>
      </trkpt>
      <trkpt lat="52.098592" lon="6.278743">
        <ele>10.369745</ele>
        <time>2026-04-22T22:21:13.202Z</time>
      </trkpt>
      <trkpt lat="52.099918" lon="6.279789">
        <ele>10.602579</ele>
        <time>2026-04-22T22:21:36.399Z</time>
      </trkpt>
      <trkpt lat="52.099955" lon="6.279817">
        <ele>10.608361</ele>
        <time>2026-04-22T22:21:37.002Z</time>
      </trkpt>
      <trkpt lat="52.100103" lon="6.279926">
        <ele>10.631381</ele>
        <time>2026-04-22T22:21:39.356Z</time>
      </trkpt>
      <trkpt lat="52.100231" lon="6.280019">
        <ele>10.651245</ele>
        <time>2026-04-22T22:21:41.355Z</time>
      </trkpt>
      <trkpt lat="52.100299" lon="6.280068">
        <ele>10.661529</ele>
        <time>2026-04-22T22:21:42.411Z</time>
      </trkpt>
      <trkpt lat="52.101416" lon="6.280933">
        <ele>10.533882</ele>
        <time>2026-04-22T22:21:59.712Z</time>
      </trkpt>
      <trkpt lat="52.102987" lon="6.282133">
        <ele>10.542922</ele>
        <time>2026-04-22T22:22:26.028Z</time>
      </trkpt>
      <trkpt lat="52.103160" lon="6.282260">
        <ele>10.553730</ele>
        <time>2026-04-22T22:22:29.933Z</time>
      </trkpt>
      <trkpt lat="52.103894" lon="6.282839">
        <ele>10.561821</ele>
        <time>2026-04-22T22:22:46.414Z</time>
      </trkpt>
      <trkpt lat="52.104211" lon="6.283074">
        <ele>10.546627</ele>
        <time>2026-04-22T22:22:53.308Z</time>
      </trkpt>
      <trkpt lat="52.107559" lon="6.285656">
        <ele>10.843783</ele>
        <time>2026-04-22T22:24:08.032Z</time>
      </trkpt>
      <trkpt lat="52.108957" lon="6.286728">
        <ele>11.448274</ele>
        <time>2026-04-22T22:24:43.973Z</time>
      </trkpt>
      <trkpt lat="52.109176" lon="6.286764">
        <ele>11.527663</ele>
        <time>2026-04-22T22:24:48.995Z</time>
      </trkpt>
      <trkpt lat="52.109401" lon="6.286681">
        <ele>11.610870</ele>
        <time>2026-04-22T22:24:54.182Z</time>
      </trkpt>
      <trkpt lat="52.109484" lon="6.286648">
        <ele>11.641686</ele>
        <time>2026-04-22T22:24:56.081Z</time>
      </trkpt>
      <trkpt lat="52.109966" lon="6.288833">
        <ele>11.459320</ele>
        <time>2026-04-22T22:25:16.473Z</time>
      </trkpt>
      <trkpt lat="52.110124" lon="6.289591">
        <ele>11.178264</ele>
        <time>2026-04-22T22:25:22.655Z</time>
      </trkpt>
      <trkpt lat="52.110212" lon="6.290095">
        <ele>10.994291</ele>
        <time>2026-04-22T22:25:26.641Z</time>
      </trkpt>
      <trkpt lat="52.110207" lon="6.290438">
        <ele>10.873825</ele>
        <time>2026-04-22T22:25:29.221Z</time>
      </trkpt>
      <trkpt lat="52.110177" lon="6.290659">
        <ele>10.788006</ele>
        <time>2026-04-22T22:25:30.905Z</time>
      </trkpt>
      <trkpt lat="52.110218" lon="6.291038">
        <ele>10.639439</ele>
        <time>2026-04-22T22:25:33.799Z</time>
      </trkpt>
      <trkpt lat="52.110226" lon="6.291379">
        <ele>10.507699</ele>
        <time>2026-04-22T22:25:36.391Z</time>
      </trkpt>
      <trkpt lat="52.109871" lon="6.293135">
        <ele>9.794003</ele>
        <time>2026-04-22T22:25:51.259Z</time>
      </trkpt>
      <trkpt lat="52.109713" lon="6.294012">
        <ele>9.792355</ele>
        <time>2026-04-22T22:25:59.018Z</time>
      </trkpt>
      <trkpt lat="52.109426" lon="6.295057">
        <ele>9.892373</ele>
        <time>2026-04-22T22:26:10.027Z</time>
      </trkpt>
      <trkpt lat="52.109225" lon="6.295822">
        <ele>9.965074</ele>
        <time>2026-04-22T22:26:18.473Z</time>
      </trkpt>
      <trkpt lat="52.109077" lon="6.296457">
        <ele>10.086227</ele>
        <time>2026-04-22T22:26:25.451Z</time>
      </trkpt>
      <trkpt lat="52.109033" lon="6.296728">
        <ele>10.147651</ele>
        <time>2026-04-22T22:26:28.377Z</time>
      </trkpt>
      <trkpt lat="52.109023" lon="6.297012">
        <ele>10.209985</ele>
        <time>2026-04-22T22:26:31.375Z</time>
      </trkpt>
      <trkpt lat="52.109048" lon="6.297530">
        <ele>10.323843</ele>
        <time>2026-04-22T22:26:36.673Z</time>
      </trkpt>
      <trkpt lat="52.109151" lon="6.298426">
        <ele>10.523591</ele>
        <time>2026-04-22T22:26:45.602Z</time>
      </trkpt>
      <trkpt lat="52.109172" lon="6.298578">
        <ele>10.557731</ele>
        <time>2026-04-22T22:26:47.125Z</time>
      </trkpt>
      <trkpt lat="52.109313" lon="6.299355">
        <ele>10.677170</ele>
        <time>2026-04-22T22:26:54.940Z</time>
      </trkpt>
      <trkpt lat="52.109488" lon="6.300302">
        <ele>10.779519</ele>
        <time>2026-04-22T22:27:04.421Z</time>
      </trkpt>
      <trkpt lat="52.109645" lon="6.300922">
        <ele>10.848926</ele>
        <time>2026-04-22T22:27:10.837Z</time>
      </trkpt>
      <trkpt lat="52.110055" lon="6.301880">
        <ele>10.948620</ele>
        <time>2026-04-22T22:27:21.697Z</time>
      </trkpt>
      <trkpt lat="52.110111" lon="6.302043">
        <ele>10.958099</ele>
        <time>2026-04-22T22:27:24.054Z</time>
      </trkpt>
      <trkpt lat="52.110152" lon="6.302186">
        <ele>10.966109</ele>
        <time>2026-04-22T22:27:26.072Z</time>
      </trkpt>
      <trkpt lat="52.110473" lon="6.303233">
        <ele>11.025499</ele>
        <time>2026-04-22T22:27:40.994Z</time>
      </trkpt>
      <trkpt lat="52.110713" lon="6.304172">
        <ele>11.076606</ele>
        <time>2026-04-22T22:27:53.574Z</time>
      </trkpt>
      <trkpt lat="52.111140" lon="6.305842">
        <ele>10.948582</ele>
        <time>2026-04-22T22:28:15.681Z</time>
      </trkpt>
      <trkpt lat="52.111297" lon="6.306451">
        <ele>10.901839</ele>
        <time>2026-04-22T22:28:23.477Z</time>
      </trkpt>
      <trkpt lat="52.111330" lon="6.306584">
        <ele>10.891687</ele>
        <time>2026-04-22T22:28:25.174Z</time>
      </trkpt>
      <trkpt lat="52.111360" lon="6.306693">
        <ele>10.883234</ele>
        <time>2026-04-22T22:28:26.624Z</time>
      </trkpt>
      <trkpt lat="52.111515" lon="6.307319">
        <ele>10.878711</ele>
        <time>2026-04-22T22:28:32.582Z</time>
      </trkpt>
      <trkpt lat="52.112438" lon="6.310942">
        <ele>11.036844</ele>
        <time>2026-04-22T22:29:09.059Z</time>
      </trkpt>
      <trkpt lat="52.112441" lon="6.311576">
        <ele>11.084995</ele>
        <time>2026-04-22T22:29:15.215Z</time>
      </trkpt>
      <trkpt lat="52.112462" lon="6.311714">
        <ele>11.095793</ele>
        <time>2026-04-22T22:29:16.576Z</time>
      </trkpt>
      <trkpt lat="52.112512" lon="6.311801">
        <ele>11.104842</ele>
        <time>2026-04-22T22:29:17.736Z</time>
      </trkpt>
      <trkpt lat="52.112951" lon="6.312428">
        <ele>11.164504</ele>
        <time>2026-04-22T22:29:26.864Z</time>
      </trkpt>
      <trkpt lat="52.114596" lon="6.314675">
        <ele>11.357746</ele>
        <time>2026-04-22T22:30:10.770Z</time>
      </trkpt>
      <trkpt lat="52.114675" lon="6.318176">
        <ele>11.843891</ele>
        <time>2026-04-22T22:31:11.882Z</time>
      </trkpt>
      <trkpt lat="52.114665" lon="6.318901">
        <ele>11.994645</ele>
        <time>2026-04-22T22:31:25.121Z</time>
      </trkpt>
      <trkpt lat="52.114636" lon="6.319084">
        <ele>12.033934</ele>
        <time>2026-04-22T22:31:28.598Z</time>
      </trkpt>
      <trkpt lat="52.114133" lon="6.321131">
        <ele>12.566648</ele>
        <time>2026-04-22T22:32:09.477Z</time>
      </trkpt>
      <trkpt lat="52.114129" lon="6.321369">
        <ele>12.626406</ele>
        <time>2026-04-22T22:32:13.812Z</time>
      </trkpt>
      <trkpt lat="52.114182" lon="6.321674">
        <ele>12.705962</ele>
        <time>2026-04-22T22:32:19.510Z</time>
      </trkpt>
      <trkpt lat="52.114533" lon="6.322412">
        <ele>12.855079</ele>
        <time>2026-04-22T22:32:35.620Z</time>
      </trkpt>
      <trkpt lat="52.114571" lon="6.322560">
        <ele>12.847419</ele>
        <time>2026-04-22T22:32:38.323Z</time>
      </trkpt>
      <trkpt lat="52.114707" lon="6.323081">
        <ele>12.820386</ele>
        <time>2026-04-22T22:32:47.799Z</time>
      </trkpt>
      <trkpt lat="52.114895" lon="6.323877">
        <ele>12.779662</ele>
        <time>2026-04-22T22:33:02.028Z</time>
      </trkpt>
      <trkpt lat="52.115074" lon="6.324573">
        <ele>12.743630</ele>
        <time>2026-04-22T22:33:14.605Z</time>
      </trkpt>
      <trkpt lat="52.115417" lon="6.325999">
        <ele>12.588433</ele>
        <time>2026-04-22T22:33:40.626Z</time>
      </trkpt>
      <trkpt lat="52.115989" lon="6.326602">
        <ele>12.460900</ele>
        <time>2026-04-22T22:33:50.390Z</time>
      </trkpt>
      <trkpt lat="52.117368" lon="6.328005">
        <ele>11.979957</ele>
        <time>2026-04-22T22:34:12.080Z</time>
      </trkpt>
      <trkpt lat="52.117634" lon="6.328273">
        <ele>11.877530</ele>
        <time>2026-04-22T22:34:16.393Z</time>
      </trkpt>
      <trkpt lat="52.120800" lon="6.331463">
        <ele>12.283667</ele>
        <time>2026-04-22T22:35:13.730Z</time>
      </trkpt>
      <trkpt lat="52.120965" lon="6.331679">
        <ele>12.299816</ele>
        <time>2026-04-22T22:35:17.020Z</time>
      </trkpt>
      <trkpt lat="52.121259" lon="6.332506">
        <ele>12.304011</ele>
        <time>2026-04-22T22:35:26.081Z</time>
      </trkpt>
      <trkpt lat="52.121283" lon="6.332572">
        <ele>12.304348</ele>
        <time>2026-04-22T22:35:26.769Z</time>
      </trkpt>
      <trkpt lat="52.121501" lon="6.333305">
        <ele>12.307923</ele>
        <time>2026-04-22T22:35:34.251Z</time>
      </trkpt>
      <trkpt lat="52.122907" lon="6.338228">
        <ele>11.965459</ele>
        <time>2026-04-22T22:36:21.759Z</time>
      </trkpt>
      <trkpt lat="52.122928" lon="6.338307">
        <ele>11.961060</ele>
        <time>2026-04-22T22:36:22.512Z</time>
      </trkpt>
      <trkpt lat="52.123270" lon="6.340150">
        <ele>11.883537</ele>
        <time>2026-04-22T22:36:39.924Z</time>
      </trkpt>
      <trkpt lat="52.123959" lon="6.343602">
        <ele>11.852364</ele>
        <time>2026-04-22T22:37:12.560Z</time>
      </trkpt>
      <trkpt lat="52.124024" lon="6.343946">
        <ele>11.856195</ele>
        <time>2026-04-22T22:37:15.775Z</time>
      </trkpt>
      <trkpt lat="52.124062" lon="6.344120">
        <ele>11.858160</ele>
        <time>2026-04-22T22:37:17.429Z</time>
      </trkpt>
      <trkpt lat="52.124839" lon="6.348346">
        <ele>12.384351</ele>
        <time>2026-04-22T22:38:00.088Z</time>
      </trkpt>
      <trkpt lat="52.125131" lon="6.349864">
        <ele>12.567807</ele>
        <time>2026-04-22T22:38:15.764Z</time>
      </trkpt>
      <trkpt lat="52.125174" lon="6.350090">
        <ele>12.595093</ele>
        <time>2026-04-22T22:38:18.041Z</time>
      </trkpt>
      <trkpt lat="52.125217" lon="6.350317">
        <ele>12.622490</ele>
        <time>2026-04-22T22:38:20.297Z</time>
      </trkpt>
      <trkpt lat="52.125341" lon="6.350968">
        <ele>12.643980</ele>
        <time>2026-04-22T22:38:26.635Z</time>
      </trkpt>
      <trkpt lat="52.126966" lon="6.359485">
        <ele>11.934093</ele>
        <time>2026-04-22T22:39:44.648Z</time>
      </trkpt>
      <trkpt lat="52.127015" lon="6.359930">
        <ele>11.914487</ele>
        <time>2026-04-22T22:39:48.675Z</time>
      </trkpt>
      <trkpt lat="52.126999" lon="6.360144">
        <ele>11.905138</ele>
        <time>2026-04-22T22:39:50.589Z</time>
      </trkpt>
      <trkpt lat="52.126713" lon="6.361176">
        <ele>11.856036</ele>
        <time>2026-04-22T22:40:00.617Z</time>
      </trkpt>
      <trkpt lat="52.126869" lon="6.361294">
        <ele>11.843886</ele>
        <time>2026-04-22T22:40:05.359Z</time>
      </trkpt>
      <trkpt lat="52.127321" lon="6.362174">
        <ele>12.022384</ele>
        <time>2026-04-22T22:40:25.158Z</time>
      </trkpt>
      <trkpt lat="52.127801" lon="6.362993">
        <ele>12.332099</ele>
        <time>2026-04-22T22:40:45.337Z</time>
      </trkpt>
      <trkpt lat="52.127914" lon="6.363187">
        <ele>12.405247</ele>
        <time>2026-04-22T22:40:50.426Z</time>
      </trkpt>
      <trkpt lat="52.128147" lon="6.363580">
        <ele>12.554688</ele>
        <time>2026-04-22T22:41:01.060Z</time>
      </trkpt>
      <trkpt lat="52.128266" lon="6.363780">
        <ele>12.629075</ele>
        <time>2026-04-22T22:41:06.467Z</time>
      </trkpt>
      <trkpt lat="52.128388" lon="6.364007">
        <ele>12.675578</ele>
        <time>2026-04-22T22:41:12.293Z</time>
      </trkpt>
      <trkpt lat="52.128447" lon="6.364193">
        <ele>12.707849</ele>
        <time>2026-04-22T22:41:16.283Z</time>
      </trkpt>
      <trkpt lat="52.128527" lon="6.364483">
        <ele>12.756854</ele>
        <time>2026-04-22T22:41:22.312Z</time>
      </trkpt>
      <trkpt lat="52.128616" lon="6.364803">
        <ele>12.811003</ele>
        <time>2026-04-22T22:41:28.883Z</time>
      </trkpt>
      <trkpt lat="52.128677" lon="6.365023">
        <ele>12.848211</ele>
        <time>2026-04-22T22:41:33.340Z</time>
      </trkpt>
      <trkpt lat="52.129528" lon="6.368093">
        <ele>12.866762</ele>
        <time>2026-04-22T22:42:28.779Z</time>
      </trkpt>
      <trkpt lat="52.129672" lon="6.368605">
        <ele>12.803216</ele>
        <time>2026-04-22T22:42:38.227Z</time>
      </trkpt>
      <trkpt lat="52.129768" lon="6.368930">
        <ele>12.762521</ele>
        <time>2026-04-22T22:42:44.364Z</time>
      </trkpt>
      <trkpt lat="52.130312" lon="6.370928">
        <ele>12.797148</ele>
        <time>2026-04-22T22:43:22.097Z</time>
      </trkpt>
      <trkpt lat="52.130347" lon="6.371043">
        <ele>12.800233</ele>
        <time>2026-04-22T22:43:24.297Z</time>
      </trkpt>
      <trkpt lat="52.130584" lon="6.371910">
        <ele>12.830062</ele>
        <time>2026-04-22T22:43:40.528Z</time>
      </trkpt>
      <trkpt lat="52.131257" lon="6.374272">
        <ele>12.982994</ele>
        <time>2026-04-22T22:44:25.704Z</time>
      </trkpt>
      <trkpt lat="52.131314" lon="6.374508">
        <ele>12.990705</ele>
        <time>2026-04-22T22:44:30.109Z</time>
      </trkpt>
      <trkpt lat="52.131879" lon="6.376504">
        <ele>12.998272</ele>
        <time>2026-04-22T22:45:07.788Z</time>
      </trkpt>
      <trkpt lat="52.132186" lon="6.377664">
        <ele>12.845209</ele>
        <time>2026-04-22T22:45:28.859Z</time>
      </trkpt>
      <trkpt lat="52.132191" lon="6.377763">
        <ele>12.821897</ele>
        <time>2026-04-22T22:45:30.479Z</time>
      </trkpt>
      <trkpt lat="52.132300" lon="6.378163">
        <ele>12.719188</ele>
        <time>2026-04-22T22:45:34.133Z</time>
      </trkpt>
      <trkpt lat="52.132419" lon="6.378599">
        <ele>12.607205</ele>
        <time>2026-04-22T22:45:38.039Z</time>
      </trkpt>
      <trkpt lat="52.132834" lon="6.380095">
        <ele>12.308186</ele>
        <time>2026-04-22T22:45:51.074Z</time>
      </trkpt>
      <trkpt lat="52.133254" lon="6.381614">
        <ele>12.288834</ele>
        <time>2026-04-22T22:46:06.257Z</time>
      </trkpt>
      <trkpt lat="52.133658" lon="6.383066">
        <ele>12.333649</ele>
        <time>2026-04-22T22:46:22.193Z</time>
      </trkpt>
      <trkpt lat="52.133733" lon="6.383341">
        <ele>12.356746</ele>
        <time>2026-04-22T22:46:25.173Z</time>
      </trkpt>
      <trkpt lat="52.133892" lon="6.383695">
        <ele>12.390415</ele>
        <time>2026-04-22T22:46:29.377Z</time>
      </trkpt>
      <trkpt lat="52.134963" lon="6.385547">
        <ele>12.685936</ele>
        <time>2026-04-22T22:46:52.344Z</time>
      </trkpt>
      <trkpt lat="52.135002" lon="6.385706">
        <ele>12.715109</ele>
        <time>2026-04-22T22:46:54.072Z</time>
      </trkpt>
      <trkpt lat="52.135149" lon="6.385721">
        <ele>12.755993</ele>
        <time>2026-04-22T22:46:56.520Z</time>
      </trkpt>
      <trkpt lat="52.135279" lon="6.385726">
        <ele>12.792089</ele>
        <time>2026-04-22T22:46:58.723Z</time>
      </trkpt>
      <trkpt lat="52.135801" lon="6.385836">
        <ele>12.938191</ele>
        <time>2026-04-22T22:47:07.715Z</time>
      </trkpt>
      <trkpt lat="52.138168" lon="6.386464">
        <ele>13.407081</ele>
        <time>2026-04-22T22:47:45.384Z</time>
      </trkpt>
      <trkpt lat="52.139976" lon="6.387047">
        <ele>13.388466</ele>
        <time>2026-04-22T22:48:12.236Z</time>
      </trkpt>
      <trkpt lat="52.140117" lon="6.387092">
        <ele>13.376148</ele>
        <time>2026-04-22T22:48:14.337Z</time>
      </trkpt>
      <trkpt lat="52.140195" lon="6.387118">
        <ele>13.369322</ele>
        <time>2026-04-22T22:48:15.509Z</time>
      </trkpt>
      <trkpt lat="52.142820" lon="6.387970">
        <ele>13.163823</ele>
        <time>2026-04-22T22:48:54.271Z</time>
      </trkpt>
      <trkpt lat="52.145199" lon="6.388808">
        <ele>13.271309</ele>
        <time>2026-04-22T22:49:31.201Z</time>
      </trkpt>
      <trkpt lat="52.145254" lon="6.388825">
        <ele>13.272417</ele>
        <time>2026-04-22T22:49:32.031Z</time>
      </trkpt>
      <trkpt lat="52.144936" lon="6.386990">
        <ele>13.295576</ele>
        <time>2026-04-22T22:51:42.113Z</time>
      </trkpt>
      <trkpt lat="52.144863" lon="6.387018">
        <ele>13.297060</ele>
        <time>2026-04-22T22:51:50.480Z</time>
      </trkpt>
      <trkpt lat="52.144820" lon="6.386779">
        <ele>13.299916</ele>
        <time>2026-04-22T22:52:07.479Z</time>
      </trkpt>
      <trkpt lat="52.144863" lon="6.387018">
        <ele>13.296968</ele>
        <time>2026-04-22T22:52:24.486Z</time>
      </trkpt>
      <trkpt lat="52.145199" lon="6.388808">
        <ele>13.274812</ele>
        <time>2026-04-22T22:54:32.223Z</time>
      </trkpt>
      <trkpt lat="52.145254" lon="6.388825">
        <ele>13.273732</ele>
        <time>2026-04-22T22:54:33.038Z</time>
      </trkpt>
      <trkpt lat="52.146655" lon="6.389296">
        <ele>13.101193</ele>
        <time>2026-04-22T22:54:53.616Z</time>
      </trkpt>
      <trkpt lat="52.147675" lon="6.389661">
        <ele>12.906167</ele>
        <time>2026-04-22T22:55:08.133Z</time>
      </trkpt>
      <trkpt lat="52.148357" lon="6.389894">
        <ele>12.725420</ele>
        <time>2026-04-22T22:55:17.827Z</time>
      </trkpt>
      <trkpt lat="52.148841" lon="6.390054">
        <ele>12.597321</ele>
        <time>2026-04-22T22:55:24.594Z</time>
      </trkpt>
      <trkpt lat="52.148818" lon="6.390174">
        <ele>12.577311</ele>
        <time>2026-04-22T22:55:25.666Z</time>
      </trkpt>
      <trkpt lat="52.148899" lon="6.390586">
        <ele>12.508452</ele>
        <time>2026-04-22T22:55:29.361Z</time>
      </trkpt>
      <trkpt lat="52.149146" lon="6.391884">
        <ele>12.676288</ele>
        <time>2026-04-22T22:55:41.981Z</time>
      </trkpt>
      <trkpt lat="52.149370" lon="6.393076">
        <ele>12.841586</ele>
        <time>2026-04-22T22:55:53.950Z</time>
      </trkpt>
      <trkpt lat="52.149388" lon="6.393166">
        <ele>12.854137</ele>
        <time>2026-04-22T22:55:54.927Z</time>
      </trkpt>
      <trkpt lat="52.149438" lon="6.393428">
        <ele>12.890738</ele>
        <time>2026-04-22T22:55:57.867Z</time>
      </trkpt>
      <trkpt lat="52.149576" lon="6.394156">
        <ele>13.151148</ele>
        <time>2026-04-22T22:56:06.190Z</time>
      </trkpt>
      <trkpt lat="52.149723" lon="6.394928">
        <ele>13.427404</ele>
        <time>2026-04-22T22:56:14.719Z</time>
      </trkpt>
      <trkpt lat="52.149887" lon="6.395788">
        <ele>13.735190</ele>
        <time>2026-04-22T22:56:24.379Z</time>
      </trkpt>
      <trkpt lat="52.150110" lon="6.396866">
        <ele>14.107875</ele>
        <time>2026-04-22T22:56:35.900Z</time>
      </trkpt>
      <trkpt lat="52.150133" lon="6.396953">
        <ele>14.138000</ele>
        <time>2026-04-22T22:56:36.856Z</time>
      </trkpt>
      <trkpt lat="52.150353" lon="6.397697">
        <ele>14.400638</ele>
        <time>2026-04-22T22:56:45.457Z</time>
      </trkpt>
      <trkpt lat="52.150505" lon="6.398175">
        <ele>14.571845</ele>
        <time>2026-04-22T22:56:51.247Z</time>
      </trkpt>
      <trkpt lat="52.150860" lon="6.399291">
        <ele>14.852524</ele>
        <time>2026-04-22T22:57:04.177Z</time>
      </trkpt>
      <trkpt lat="52.151026" lon="6.399784">
        <ele>14.886711</ele>
        <time>2026-04-22T22:57:09.813Z</time>
      </trkpt>
      <trkpt lat="52.151191" lon="6.400296">
        <ele>14.921869</ele>
        <time>2026-04-22T22:57:15.214Z</time>
      </trkpt>
      <trkpt lat="52.151349" lon="6.400778">
        <ele>14.955091</ele>
        <time>2026-04-22T22:57:19.938Z</time>
      </trkpt>
      <trkpt lat="52.151376" lon="6.400856">
        <ele>14.960535</ele>
        <time>2026-04-22T22:57:20.698Z</time>
      </trkpt>
      <trkpt lat="52.151451" lon="6.401141">
        <ele>14.979388</ele>
        <time>2026-04-22T22:57:23.311Z</time>
      </trkpt>
      <trkpt lat="52.151672" lon="6.401780">
        <ele>15.025027</ele>
        <time>2026-04-22T22:57:29.540Z</time>
      </trkpt>
      <trkpt lat="52.151747" lon="6.402015">
        <ele>15.041918</ele>
        <time>2026-04-22T22:57:31.911Z</time>
      </trkpt>
      <trkpt lat="52.151842" lon="6.402333">
        <ele>15.064471</ele>
        <time>2026-04-22T22:57:35.116Z</time>
      </trkpt>
      <trkpt lat="52.152005" lon="6.402788">
        <ele>15.098068</ele>
        <time>2026-04-22T22:57:40.235Z</time>
      </trkpt>
      <trkpt lat="52.152134" lon="6.403078">
        <ele>15.120908</ele>
        <time>2026-04-22T22:57:43.701Z</time>
      </trkpt>
      <trkpt lat="52.152229" lon="6.403312">
        <ele>15.138800</ele>
        <time>2026-04-22T22:57:46.444Z</time>
      </trkpt>
      <trkpt lat="52.152386" lon="6.403839">
        <ele>15.176156</ele>
        <time>2026-04-22T22:57:52.167Z</time>
      </trkpt>
      <trkpt lat="52.152404" lon="6.403901">
        <ele>15.180530</ele>
        <time>2026-04-22T22:57:52.843Z</time>
      </trkpt>
      <trkpt lat="52.152405" lon="6.404108">
        <ele>15.192006</ele>
        <time>2026-04-22T22:57:54.902Z</time>
      </trkpt>
      <trkpt lat="52.152458" lon="6.404230">
        <ele>15.197640</ele>
        <time>2026-04-22T22:57:56.340Z</time>
      </trkpt>
      <trkpt lat="52.152501" lon="6.404335">
        <ele>15.202398</ele>
        <time>2026-04-22T22:57:57.554Z</time>
      </trkpt>
      <trkpt lat="52.152611" lon="6.404439">
        <ele>15.210209</ele>
        <time>2026-04-22T22:57:59.539Z</time>
      </trkpt>
      <trkpt lat="52.152633" lon="6.404488">
        <ele>15.212498</ele>
        <time>2026-04-22T22:58:00.099Z</time>
      </trkpt>
      <trkpt lat="52.152870" lon="6.405060">
        <ele>15.238511</ele>
        <time>2026-04-22T22:58:06.564Z</time>
      </trkpt>
      <trkpt lat="52.153441" lon="6.406230">
        <ele>15.294855</ele>
        <time>2026-04-22T22:58:20.120Z</time>
      </trkpt>
      <trkpt lat="52.154300" lon="6.407821">
        <ele>15.404793</ele>
        <time>2026-04-22T22:58:46.428Z</time>
      </trkpt>
      <trkpt lat="52.154572" lon="6.408280">
        <ele>15.438520</ele>
        <time>2026-04-22T22:58:54.228Z</time>
      </trkpt>
      <trkpt lat="52.154774" lon="6.408619">
        <ele>15.570522</ele>
        <time>2026-04-22T22:59:00.392Z</time>
      </trkpt>
      <trkpt lat="52.154803" lon="6.408570">
        <ele>15.619116</ele>
        <time>2026-04-22T22:59:01.315Z</time>
      </trkpt>
      <trkpt lat="52.154892" lon="6.408716">
        <ele>15.766014</ele>
        <time>2026-04-22T22:59:04.075Z</time>
      </trkpt>
      <trkpt lat="52.154990" lon="6.408885">
        <ele>15.931990</ele>
        <time>2026-04-22T22:59:07.299Z</time>
      </trkpt>
      <trkpt lat="52.154964" lon="6.408924">
        <ele>15.973096</ele>
        <time>2026-04-22T22:59:08.115Z</time>
      </trkpt>
      <trkpt lat="52.155144" lon="6.409183">
        <ele>16.252421</ele>
        <time>2026-04-22T22:59:13.775Z</time>
      </trkpt>
      <trkpt lat="52.155259" lon="6.409395">
        <ele>16.454397</ele>
        <time>2026-04-22T22:59:18.008Z</time>
      </trkpt>
      <trkpt lat="52.155374" lon="6.409694">
        <ele>16.706273</ele>
        <time>2026-04-22T22:59:23.654Z</time>
      </trkpt>
      <trkpt lat="52.155424" lon="6.409728">
        <ele>16.769299</ele>
        <time>2026-04-22T22:59:25.124Z</time>
      </trkpt>
      <trkpt lat="52.155460" lon="6.409727">
        <ele>16.811186</ele>
        <time>2026-04-22T22:59:26.104Z</time>
      </trkpt>
      <trkpt lat="52.155486" lon="6.409779">
        <ele>16.859064</ele>
        <time>2026-04-22T22:59:27.268Z</time>
      </trkpt>
      <trkpt lat="52.155624" lon="6.409870">
        <ele>17.032247</ele>
        <time>2026-04-22T22:59:31.388Z</time>
      </trkpt>
      <trkpt lat="52.156076" lon="6.410500">
        <ele>17.636282</ele>
        <time>2026-04-22T22:59:48.037Z</time>
      </trkpt>
      <trkpt lat="52.156115" lon="6.410619">
        <ele>17.684717</ele>
        <time>2026-04-22T22:59:50.284Z</time>
      </trkpt>
      <trkpt lat="52.156183" lon="6.410729">
        <ele>17.740779</ele>
        <time>2026-04-22T22:59:52.866Z</time>
      </trkpt>
      <trkpt lat="52.156324" lon="6.410833">
        <ele>17.831343</ele>
        <time>2026-04-22T22:59:56.860Z</time>
      </trkpt>
      <trkpt lat="52.156697" lon="6.411305">
        <ele>18.107666</ele>
        <time>2026-04-22T23:00:08.422Z</time>
      </trkpt>
      <trkpt lat="52.157260" lon="6.412232">
        <ele>18.575951</ele>
        <time>2026-04-22T23:00:24.249Z</time>
      </trkpt>
      <trkpt lat="52.157319" lon="6.412390">
        <ele>18.521447</ele>
        <time>2026-04-22T23:00:26.245Z</time>
      </trkpt>
      <trkpt lat="52.157627" lon="6.412938">
        <ele>18.028473</ele>
        <time>2026-04-22T23:00:34.005Z</time>
      </trkpt>
      <trkpt lat="52.157743" lon="6.413068">
        <ele>17.876270</ele>
        <time>2026-04-22T23:00:36.348Z</time>
      </trkpt>
      <trkpt lat="52.157813" lon="6.413095">
        <ele>17.798496</ele>
        <time>2026-04-22T23:00:37.529Z</time>
      </trkpt>
      <trkpt lat="52.157828" lon="6.413123">
        <ele>17.773839</ele>
        <time>2026-04-22T23:00:37.803Z</time>
      </trkpt>
      <trkpt lat="52.157997" lon="6.413429">
        <ele>17.500737</ele>
        <time>2026-04-22T23:00:40.784Z</time>
      </trkpt>
      <trkpt lat="52.158076" lon="6.413569">
        <ele>17.374566</ele>
        <time>2026-04-22T23:00:42.189Z</time>
      </trkpt>
      <trkpt lat="52.158118" lon="6.413647">
        <ele>17.305727</ele>
        <time>2026-04-22T23:00:42.934Z</time>
      </trkpt>
      <trkpt lat="52.158227" lon="6.413860">
        <ele>17.121744</ele>
        <time>2026-04-22T23:00:44.954Z</time>
      </trkpt>
      <trkpt lat="52.158407" lon="6.414216">
        <ele>16.815746</ele>
        <time>2026-04-22T23:00:48.256Z</time>
      </trkpt>
      <trkpt lat="52.158485" lon="6.414360">
        <ele>16.688329</ele>
        <time>2026-04-22T23:00:49.624Z</time>
      </trkpt>
      <trkpt lat="52.158593" lon="6.414568">
        <ele>16.565998</ele>
        <time>2026-04-22T23:00:51.591Z</time>
      </trkpt>
      <trkpt lat="52.158794" lon="6.414979">
        <ele>16.355326</ele>
        <time>2026-04-22T23:00:55.572Z</time>
      </trkpt>
      <trkpt lat="52.159253" lon="6.415884">
        <ele>15.884683</ele>
        <time>2026-04-22T23:01:05.062Z</time>
      </trkpt>
      <trkpt lat="52.159331" lon="6.415973">
        <ele>15.822478</ele>
        <time>2026-04-22T23:01:06.359Z</time>
      </trkpt>
      <trkpt lat="52.159439" lon="6.416084">
        <ele>15.739062</ele>
        <time>2026-04-22T23:01:08.111Z</time>
      </trkpt>
      <trkpt lat="52.159845" lon="6.416385">
        <ele>15.457666</ele>
        <time>2026-04-22T23:01:14.102Z</time>
      </trkpt>
      <trkpt lat="52.159635" lon="6.417396">
        <ele>15.161954</ele>
        <time>2026-04-22T23:01:23.282Z</time>
      </trkpt>
      <trkpt lat="52.159624" lon="6.417554">
        <ele>15.117900</ele>
        <time>2026-04-22T23:01:24.614Z</time>
      </trkpt>
      <trkpt lat="52.159667" lon="6.417809">
        <ele>15.044633</ele>
        <time>2026-04-22T23:01:26.813Z</time>
      </trkpt>
      <trkpt lat="52.159752" lon="6.417933">
        <ele>14.993119</ele>
        <time>2026-04-22T23:01:28.348Z</time>
      </trkpt>
      <trkpt lat="52.159850" lon="6.418075">
        <ele>14.933904</ele>
        <time>2026-04-22T23:01:30.092Z</time>
      </trkpt>
      <trkpt lat="52.160187" lon="6.418359">
        <ele>14.762577</ele>
        <time>2026-04-22T23:01:34.998Z</time>
      </trkpt>
      <trkpt lat="52.160635" lon="6.418652">
        <ele>14.521251</ele>
        <time>2026-04-22T23:01:41.160Z</time>
      </trkpt>
      <trkpt lat="52.160645" lon="6.418610">
        <ele>14.506407</ele>
        <time>2026-04-22T23:01:41.666Z</time>
      </trkpt>
      <trkpt lat="52.160729" lon="6.418703">
        <ele>14.451866</ele>
        <time>2026-04-22T23:01:43.498Z</time>
      </trkpt>
      <trkpt lat="52.160905" lon="6.418975">
        <ele>14.321602</ele>
        <time>2026-04-22T23:01:47.900Z</time>
      </trkpt>
      <trkpt lat="52.160956" lon="6.418992">
        <ele>14.293642</ele>
        <time>2026-04-22T23:01:48.856Z</time>
      </trkpt>
      <trkpt lat="52.161075" lon="6.419285">
        <ele>14.177859</ele>
        <time>2026-04-22T23:01:51.694Z</time>
      </trkpt>
      <trkpt lat="52.161180" lon="6.419510">
        <ele>14.084710</ele>
        <time>2026-04-22T23:01:53.973Z</time>
      </trkpt>
      <trkpt lat="52.161430" lon="6.420020">
        <ele>13.869608</ele>
        <time>2026-04-22T23:01:59.241Z</time>
      </trkpt>
      <trkpt lat="52.161776" lon="6.420483">
        <ele>13.621638</ele>
        <time>2026-04-22T23:02:05.341Z</time>
      </trkpt>
      <trkpt lat="52.161831" lon="6.420542">
        <ele>13.582602</ele>
        <time>2026-04-22T23:02:06.273Z</time>
      </trkpt>
      <trkpt lat="52.162191" lon="6.420905">
        <ele>13.331630</ele>
        <time>2026-04-22T23:02:12.278Z</time>
      </trkpt>
      <trkpt lat="52.162176" lon="6.420987">
        <ele>13.300509</ele>
        <time>2026-04-22T23:02:12.986Z</time>
      </trkpt>
      <trkpt lat="52.162194" lon="6.421067">
        <ele>13.269517</ele>
        <time>2026-04-22T23:02:13.650Z</time>
      </trkpt>
      <trkpt lat="52.162233" lon="6.421112">
        <ele>13.241189</ele>
        <time>2026-04-22T23:02:14.260Z</time>
      </trkpt>
      <trkpt lat="52.162282" lon="6.421113">
        <ele>13.212134</ele>
        <time>2026-04-22T23:02:14.867Z</time>
      </trkpt>
      <trkpt lat="52.162447" lon="6.421762">
        <ele>12.956626</ele>
        <time>2026-04-22T23:02:20.114Z</time>
      </trkpt>
      <trkpt lat="52.162637" lon="6.422207">
        <ele>12.759437</ele>
        <time>2026-04-22T23:02:24.332Z</time>
      </trkpt>
      <trkpt lat="52.162737" lon="6.422375">
        <ele>12.674299</ele>
        <time>2026-04-22T23:02:26.219Z</time>
      </trkpt>
      <trkpt lat="52.162961" lon="6.422760">
        <ele>12.626577</ele>
        <time>2026-04-22T23:02:32.216Z</time>
      </trkpt>
      <trkpt lat="52.162984" lon="6.422841">
        <ele>12.624739</ele>
        <time>2026-04-22T23:02:33.270Z</time>
      </trkpt>
      <trkpt lat="52.162962" lon="6.422902">
        <ele>12.623282</ele>
        <time>2026-04-22T23:02:34.086Z</time>
      </trkpt>
      <trkpt lat="52.162973" lon="6.422950">
        <ele>12.622227</ele>
        <time>2026-04-22T23:02:34.680Z</time>
      </trkpt>
      <trkpt lat="52.163016" lon="6.423082">
        <ele>12.619150</ele>
        <time>2026-04-22T23:02:36.437Z</time>
      </trkpt>
      <trkpt lat="52.163107" lon="6.423250">
        <ele>12.614535</ele>
        <time>2026-04-22T23:02:39.059Z</time>
      </trkpt>
      <trkpt lat="52.163156" lon="6.423192">
        <ele>12.612503</ele>
        <time>2026-04-22T23:02:40.238Z</time>
      </trkpt>
      <trkpt lat="52.163203" lon="6.423146">
        <ele>12.610662</ele>
        <time>2026-04-22T23:02:41.317Z</time>
      </trkpt>
      <trkpt lat="52.163244" lon="6.423095">
        <ele>12.608931</ele>
        <time>2026-04-22T23:02:42.424Z</time>
      </trkpt>
      <trkpt lat="52.163272" lon="6.422830">
        <ele>12.603395</ele>
        <time>2026-04-22T23:02:45.947Z</time>
      </trkpt>
      <trkpt lat="52.163336" lon="6.422599">
        <ele>12.598176</ele>
        <time>2026-04-22T23:02:48.493Z</time>
      </trkpt>
      <trkpt lat="52.163563" lon="6.422267">
        <ele>12.587939</ele>
        <time>2026-04-22T23:02:53.901Z</time>
      </trkpt>
      <trkpt lat="52.163674" lon="6.422149">
        <ele>12.583491</ele>
        <time>2026-04-22T23:02:56.266Z</time>
      </trkpt>
      <trkpt lat="52.163843" lon="6.422030">
        <ele>12.577312</ele>
        <time>2026-04-22T23:02:59.199Z</time>
      </trkpt>
      <trkpt lat="52.164173" lon="6.421992">
        <ele>12.488380</ele>
        <time>2026-04-22T23:03:03.750Z</time>
      </trkpt>
      <trkpt lat="52.164949" lon="6.422049">
        <ele>12.229419</ele>
        <time>2026-04-22T23:03:13.526Z</time>
      </trkpt>
      <trkpt lat="52.165018" lon="6.422051">
        <ele>12.206413</ele>
        <time>2026-04-22T23:03:14.542Z</time>
      </trkpt>
      <trkpt lat="52.165588" lon="6.422089">
        <ele>12.016231</ele>
        <time>2026-04-22T23:03:22.183Z</time>
      </trkpt>
      <trkpt lat="52.165768" lon="6.422113">
        <ele>12.003655</ele>
        <time>2026-04-22T23:03:25.758Z</time>
      </trkpt>
      <trkpt lat="52.166087" lon="6.422007">
        <ele>12.163301</ele>
        <time>2026-04-22T23:03:30.869Z</time>
      </trkpt>
      <trkpt lat="52.166292" lon="6.422151">
        <ele>12.272762</ele>
        <time>2026-04-22T23:03:34.713Z</time>
      </trkpt>
      <trkpt lat="52.166342" lon="6.422205">
        <ele>12.302172</ele>
        <time>2026-04-22T23:03:35.834Z</time>
      </trkpt>
      <trkpt lat="52.166508" lon="6.422414">
        <ele>12.405022</ele>
        <time>2026-04-22T23:03:39.972Z</time>
      </trkpt>
      <trkpt lat="52.166608" lon="6.422613">
        <ele>12.482400</ele>
        <time>2026-04-22T23:03:43.298Z</time>
      </trkpt>
      <trkpt lat="52.166697" lon="6.422922">
        <ele>12.585078</ele>
        <time>2026-04-22T23:03:47.581Z</time>
      </trkpt>
      <trkpt lat="52.166732" lon="6.423292">
        <ele>12.697682</ele>
        <time>2026-04-22T23:03:51.633Z</time>
      </trkpt>
      <trkpt lat="52.166679" lon="6.425301">
        <ele>12.762619</ele>
        <time>2026-04-22T23:04:09.035Z</time>
      </trkpt>
      <trkpt lat="52.166414" lon="6.425290">
        <ele>12.734970</ele>
        <time>2026-04-22T23:04:14.211Z</time>
      </trkpt>
      <trkpt lat="52.166395" lon="6.426180">
        <ele>12.677998</ele>
        <time>2026-04-22T23:04:22.115Z</time>
      </trkpt>
      <trkpt lat="52.166396" lon="6.426265">
        <ele>12.672559</ele>
        <time>2026-04-22T23:04:22.846Z</time>
      </trkpt>
      <trkpt lat="52.166395" lon="6.426286">
        <ele>12.671212</ele>
        <time>2026-04-22T23:04:23.097Z</time>
      </trkpt>
      <trkpt lat="52.166393" lon="6.426458">
        <ele>12.649921</ele>
        <time>2026-04-22T23:04:25.176Z</time>
      </trkpt>
      <trkpt lat="52.166389" lon="6.426877">
        <ele>12.594103</ele>
        <time>2026-04-22T23:04:30.157Z</time>
      </trkpt>
      <trkpt lat="52.166389" lon="6.426909">
        <ele>12.589841</ele>
        <time>2026-04-22T23:04:30.443Z</time>
      </trkpt>
      <trkpt lat="52.166391" lon="6.427329">
        <ele>12.533895</ele>
        <time>2026-04-22T23:04:34.241Z</time>
      </trkpt>
      <trkpt lat="52.166392" lon="6.427679">
        <ele>12.487274</ele>
        <time>2026-04-22T23:04:37.346Z</time>
      </trkpt>
      <trkpt lat="52.166430" lon="6.429506">
        <ele>12.230318</ele>
        <time>2026-04-22T23:04:52.802Z</time>
      </trkpt>
      <trkpt lat="52.166456" lon="6.429770">
        <ele>12.181137</ele>
        <time>2026-04-22T23:04:55.029Z</time>
      </trkpt>
      <trkpt lat="52.166587" lon="6.430652">
        <ele>12.014219</ele>
        <time>2026-04-22T23:05:02.707Z</time>
      </trkpt>
      <trkpt lat="52.166652" lon="6.431274">
        <ele>11.898163</ele>
        <time>2026-04-22T23:05:08.150Z</time>
      </trkpt>
      <trkpt lat="52.166753" lon="6.433443">
        <ele>11.442382</ele>
        <time>2026-04-22T23:05:26.417Z</time>
      </trkpt>
      <trkpt lat="52.166898" lon="6.435371">
        <ele>10.974735</ele>
        <time>2026-04-22T23:05:42.542Z</time>
      </trkpt>
      <trkpt lat="52.167040" lon="6.436730">
        <ele>10.543376</ele>
        <time>2026-04-22T23:05:53.845Z</time>
      </trkpt>
      <trkpt lat="52.167255" lon="6.438379">
        <ele>10.104431</ele>
        <time>2026-04-22T23:06:07.267Z</time>
      </trkpt>
      <trkpt lat="52.167286" lon="6.438901">
        <ele>10.042187</ele>
        <time>2026-04-22T23:06:11.437Z</time>
      </trkpt>
      <trkpt lat="52.167317" lon="6.439044">
        <ele>10.024186</ele>
        <time>2026-04-22T23:06:12.673Z</time>
      </trkpt>
      <trkpt lat="52.167250" lon="6.439311">
        <ele>9.989948</ele>
        <time>2026-04-22T23:06:15.066Z</time>
      </trkpt>
      <trkpt lat="52.167306" lon="6.440137">
        <ele>9.891316</ele>
        <time>2026-04-22T23:06:22.247Z</time>
      </trkpt>
      <trkpt lat="52.167631" lon="6.441725">
        <ele>9.985206</ele>
        <time>2026-04-22T23:06:39.277Z</time>
      </trkpt>
      <trkpt lat="52.167777" lon="6.442273">
        <ele>10.090295</ele>
        <time>2026-04-22T23:06:45.761Z</time>
      </trkpt>
      <trkpt lat="52.167957" lon="6.443112">
        <ele>10.246634</ele>
        <time>2026-04-22T23:06:54.619Z</time>
      </trkpt>
      <trkpt lat="52.168150" lon="6.443784">
        <ele>10.254448</ele>
        <time>2026-04-22T23:07:01.192Z</time>
      </trkpt>
      <trkpt lat="52.168480" lon="6.445144">
        <ele>9.890875</ele>
        <time>2026-04-22T23:07:12.868Z</time>
      </trkpt>
      <trkpt lat="52.168660" lon="6.445756">
        <ele>9.722153</ele>
        <time>2026-04-22T23:07:18.160Z</time>
      </trkpt>
      <trkpt lat="52.169427" lon="6.448237">
        <ele>9.421367</ele>
        <time>2026-04-22T23:07:42.242Z</time>
      </trkpt>
      <trkpt lat="52.169708" lon="6.449016">
        <ele>9.394976</ele>
        <time>2026-04-22T23:07:50.834Z</time>
      </trkpt>
      <trkpt lat="52.169935" lon="6.449762">
        <ele>9.476959</ele>
        <time>2026-04-22T23:07:59.011Z</time>
      </trkpt>
      <trkpt lat="52.170392" lon="6.450867">
        <ele>9.608163</ele>
        <time>2026-04-22T23:08:11.965Z</time>
      </trkpt>
      <trkpt lat="52.170759" lon="6.451859">
        <ele>9.606711</ele>
        <time>2026-04-22T23:08:22.476Z</time>
      </trkpt>
      <trkpt lat="52.171460" lon="6.453469">
        <ele>9.444046</ele>
        <time>2026-04-22T23:08:39.303Z</time>
      </trkpt>
      <trkpt lat="52.172765" lon="6.456026">
        <ele>9.275352</ele>
        <time>2026-04-22T23:09:09.408Z</time>
      </trkpt>
      <trkpt lat="52.173129" lon="6.456863">
        <ele>9.226213</ele>
        <time>2026-04-22T23:09:18.098Z</time>
      </trkpt>
      <trkpt lat="52.173685" lon="6.457920">
        <ele>9.159525</ele>
        <time>2026-04-22T23:09:30.052Z</time>
      </trkpt>
      <trkpt lat="52.174920" lon="6.460534">
        <ele>9.699242</ele>
        <time>2026-04-22T23:10:02.575Z</time>
      </trkpt>
      <trkpt lat="52.174945" lon="6.460587">
        <ele>9.712353</ele>
        <time>2026-04-22T23:10:03.294Z</time>
      </trkpt>
      <trkpt lat="52.175199" lon="6.461065">
        <ele>9.891976</ele>
        <time>2026-04-22T23:10:10.145Z</time>
      </trkpt>
      <trkpt lat="52.175296" lon="6.461311">
        <ele>9.975290</ele>
        <time>2026-04-22T23:10:13.356Z</time>
      </trkpt>
      <trkpt lat="52.175409" lon="6.461526">
        <ele>10.055952</ele>
        <time>2026-04-22T23:10:16.455Z</time>
      </trkpt>
      <trkpt lat="52.175708" lon="6.461842">
        <ele>10.221464</ele>
        <time>2026-04-22T23:10:22.805Z</time>
      </trkpt>
      <trkpt lat="52.175726" lon="6.461940">
        <ele>10.250606</ele>
        <time>2026-04-22T23:10:23.867Z</time>
      </trkpt>
      <trkpt lat="52.175804" lon="6.461946">
        <ele>10.286880</ele>
        <time>2026-04-22T23:10:25.226Z</time>
      </trkpt>
      <trkpt lat="52.175880" lon="6.462007">
        <ele>10.326228</ele>
        <time>2026-04-22T23:10:26.559Z</time>
      </trkpt>
      <trkpt lat="52.176438" lon="6.463084">
        <ele>10.421234</ele>
        <time>2026-04-22T23:10:39.848Z</time>
      </trkpt>
      <trkpt lat="52.176392" lon="6.463308">
        <ele>10.373112</ele>
        <time>2026-04-22T23:10:41.896Z</time>
      </trkpt>
      <trkpt lat="52.176398" lon="6.463428">
        <ele>10.348586</ele>
        <time>2026-04-22T23:10:42.877Z</time>
      </trkpt>
      <trkpt lat="52.177656" lon="6.466016">
        <ele>9.761176</ele>
        <time>2026-04-22T23:11:09.636Z</time>
      </trkpt>
      <trkpt lat="52.178363" lon="6.467380">
        <ele>9.572450</ele>
        <time>2026-04-22T23:11:25.734Z</time>
      </trkpt>
      <trkpt lat="52.178475" lon="6.467523">
        <ele>9.610044</ele>
        <time>2026-04-22T23:11:27.957Z</time>
      </trkpt>
      <trkpt lat="52.178575" lon="6.467745">
        <ele>9.654687</ele>
        <time>2026-04-22T23:11:30.603Z</time>
      </trkpt>
      <trkpt lat="52.178625" lon="6.467941">
        <ele>9.689091</ele>
        <time>2026-04-22T23:11:32.655Z</time>
      </trkpt>
      <trkpt lat="52.183078" lon="6.476904">
        <ele>11.516514</ele>
        <time>2026-04-22T23:13:25.449Z</time>
      </trkpt>
      <trkpt lat="52.183170" lon="6.477016">
        <ele>11.531510</ele>
        <time>2026-04-22T23:13:27.245Z</time>
      </trkpt>
      <trkpt lat="52.183453" lon="6.477131">
        <ele>11.569606</ele>
        <time>2026-04-22T23:13:31.724Z</time>
      </trkpt>
      <trkpt lat="52.183538" lon="6.477221">
        <ele>11.582843</ele>
        <time>2026-04-22T23:13:33.257Z</time>
      </trkpt>
      <trkpt lat="52.184387" lon="6.478909">
        <ele>11.664185</ele>
        <time>2026-04-22T23:13:53.227Z</time>
      </trkpt>
      <trkpt lat="52.184853" lon="6.479868">
        <ele>11.620336</ele>
        <time>2026-04-22T23:14:03.904Z</time>
      </trkpt>
      <trkpt lat="52.185356" lon="6.480992">
        <ele>11.506995</ele>
        <time>2026-04-22T23:14:16.633Z</time>
      </trkpt>
      <trkpt lat="52.185448" lon="6.481461">
        <ele>11.425340</ele>
        <time>2026-04-22T23:14:21.065Z</time>
      </trkpt>
      <trkpt lat="52.185563" lon="6.481551">
        <ele>11.390841</ele>
        <time>2026-04-22T23:14:22.749Z</time>
      </trkpt>
      <trkpt lat="52.186008" lon="6.482446">
        <ele>11.199761</ele>
        <time>2026-04-22T23:14:32.146Z</time>
      </trkpt>
      <trkpt lat="52.186066" lon="6.482518">
        <ele>11.180047</ele>
        <time>2026-04-22T23:14:33.179Z</time>
      </trkpt>
      <trkpt lat="52.186042" lon="6.482927">
        <ele>11.111917</ele>
        <time>2026-04-22T23:14:36.633Z</time>
      </trkpt>
      <trkpt lat="52.186086" lon="6.483103">
        <ele>11.094086</ele>
        <time>2026-04-22T23:14:38.244Z</time>
      </trkpt>
      <trkpt lat="52.191466" lon="6.493956">
        <ele>10.362951</ele>
        <time>2026-04-22T23:16:42.381Z</time>
      </trkpt>
      <trkpt lat="52.192735" lon="6.496610">
        <ele>10.564524</ele>
        <time>2026-04-22T23:17:13.726Z</time>
      </trkpt>
      <trkpt lat="52.193407" lon="6.498170">
        <ele>10.946785</ele>
        <time>2026-04-22T23:17:32.554Z</time>
      </trkpt>
      <trkpt lat="52.193966" lon="6.499557">
        <ele>11.203891</ele>
        <time>2026-04-22T23:17:49.707Z</time>
      </trkpt>
      <trkpt lat="52.195368" lon="6.503658">
        <ele>11.121175</ele>
        <time>2026-04-22T23:18:31.252Z</time>
      </trkpt>
      <trkpt lat="52.195481" lon="6.503955">
        <ele>11.102146</ele>
        <time>2026-04-22T23:18:34.376Z</time>
      </trkpt>
      <trkpt lat="52.195611" lon="6.504107">
        <ele>11.087943</ele>
        <time>2026-04-22T23:18:36.733Z</time>
      </trkpt>
      <trkpt lat="52.195664" lon="6.504220">
        <ele>11.078643</ele>
        <time>2026-04-22T23:18:38.021Z</time>
      </trkpt>
      <trkpt lat="52.195665" lon="6.504600">
        <ele>11.047952</ele>
        <time>2026-04-22T23:18:41.433Z</time>
      </trkpt>
      <trkpt lat="52.195874" lon="6.505212">
        <ele>10.991370</ele>
        <time>2026-04-22T23:18:47.703Z</time>
      </trkpt>
      <trkpt lat="52.196048" lon="6.505596">
        <ele>10.952803</ele>
        <time>2026-04-22T23:18:51.973Z</time>
      </trkpt>
      <trkpt lat="52.197554" lon="6.509126">
        <ele>10.671774</ele>
        <time>2026-04-22T23:19:29.072Z</time>
      </trkpt>
      <trkpt lat="52.199374" lon="6.512575">
        <ele>12.438192</ele>
        <time>2026-04-22T23:20:16.490Z</time>
      </trkpt>
      <trkpt lat="52.199731" lon="6.513258">
        <ele>12.970147</ele>
        <time>2026-04-22T23:20:27.701Z</time>
      </trkpt>
      <trkpt lat="52.199759" lon="6.513302">
        <ele>13.007734</ele>
        <time>2026-04-22T23:20:28.532Z</time>
      </trkpt>
      <trkpt lat="52.199790" lon="6.513355">
        <ele>13.051150</ele>
        <time>2026-04-22T23:20:29.550Z</time>
      </trkpt>
      <trkpt lat="52.200368" lon="6.513043">
        <ele>13.750860</ele>
        <time>2026-04-22T23:20:42.581Z</time>
      </trkpt>
      <trkpt lat="52.201058" lon="6.512599">
        <ele>14.645102</ele>
        <time>2026-04-22T23:20:58.944Z</time>
      </trkpt>
      <trkpt lat="52.203725" lon="6.510927">
        <ele>15.522737</ele>
        <time>2026-04-22T23:21:43.467Z</time>
      </trkpt>
      <trkpt lat="52.203980" lon="6.510797">
        <ele>15.429245</ele>
        <time>2026-04-22T23:21:47.077Z</time>
      </trkpt>
      <trkpt lat="52.204023" lon="6.510657">
        <ele>15.395660</ele>
        <time>2026-04-22T23:21:48.347Z</time>
      </trkpt>
      <trkpt lat="52.204042" lon="6.510490">
        <ele>15.359232</ele>
        <time>2026-04-22T23:21:49.719Z</time>
      </trkpt>
      <trkpt lat="52.204405" lon="6.510258">
        <ele>15.222802</ele>
        <time>2026-04-22T23:21:54.764Z</time>
      </trkpt>
      <trkpt lat="52.204693" lon="6.510126">
        <ele>15.118116</ele>
        <time>2026-04-22T23:21:58.614Z</time>
      </trkpt>
      <trkpt lat="52.204907" lon="6.509982">
        <ele>15.042257</ele>
        <time>2026-04-22T23:22:01.621Z</time>
      </trkpt>
      <trkpt lat="52.205178" lon="6.509712">
        <ele>14.960459</ele>
        <time>2026-04-22T23:22:05.766Z</time>
      </trkpt>
      <trkpt lat="52.206522" lon="6.508862">
        <ele>14.595552</ele>
        <time>2026-04-22T23:22:25.982Z</time>
      </trkpt>
      <trkpt lat="52.207425" lon="6.508291">
        <ele>14.733319</ele>
        <time>2026-04-22T23:22:41.132Z</time>
      </trkpt>
      <trkpt lat="52.207670" lon="6.508099">
        <ele>14.771984</ele>
        <time>2026-04-22T23:22:45.422Z</time>
      </trkpt>
      <trkpt lat="52.208757" lon="6.507475">
        <ele>14.990177</ele>
        <time>2026-04-22T23:23:03.553Z</time>
      </trkpt>
      <trkpt lat="52.209160" lon="6.507154">
        <ele>15.093874</ele>
        <time>2026-04-22T23:23:10.612Z</time>
      </trkpt>
      <trkpt lat="52.209455" lon="6.507199">
        <ele>15.162386</ele>
        <time>2026-04-22T23:23:15.228Z</time>
      </trkpt>
      <trkpt lat="52.209802" lon="6.507331">
        <ele>15.244776</ele>
        <time>2026-04-22T23:23:20.717Z</time>
      </trkpt>
      <trkpt lat="52.210761" lon="6.507574">
        <ele>15.391404</ele>
        <time>2026-04-22T23:23:36.273Z</time>
      </trkpt>
      <trkpt lat="52.211530" lon="6.507790">
        <ele>15.503085</ele>
        <time>2026-04-22T23:23:48.144Z</time>
      </trkpt>
      <trkpt lat="52.212190" lon="6.507977">
        <ele>15.400012</ele>
        <time>2026-04-22T23:23:57.717Z</time>
      </trkpt>
      <trkpt lat="52.212605" lon="6.507940">
        <ele>15.304752</ele>
        <time>2026-04-22T23:24:03.148Z</time>
      </trkpt>
      <trkpt lat="52.212904" lon="6.507832">
        <ele>15.234563</ele>
        <time>2026-04-22T23:24:07.184Z</time>
      </trkpt>
      <trkpt lat="52.213005" lon="6.507760">
        <ele>15.209302</ele>
        <time>2026-04-22T23:24:08.682Z</time>
      </trkpt>
      <trkpt lat="52.213349" lon="6.507387">
        <ele>15.114642</ele>
        <time>2026-04-22T23:24:14.540Z</time>
      </trkpt>
      <trkpt lat="52.213509" lon="6.507250">
        <ele>15.200062</ele>
        <time>2026-04-22T23:24:17.281Z</time>
      </trkpt>
      <trkpt lat="52.213525" lon="6.507115">
        <ele>15.246937</ele>
        <time>2026-04-22T23:24:19.029Z</time>
      </trkpt>
      <trkpt lat="52.213593" lon="6.506985">
        <ele>15.305207</ele>
        <time>2026-04-22T23:24:21.295Z</time>
      </trkpt>
      <trkpt lat="52.214200" lon="6.506511">
        <ele>15.679596</ele>
        <time>2026-04-22T23:24:36.422Z</time>
      </trkpt>
      <trkpt lat="52.214315" lon="6.506391">
        <ele>15.755539</ele>
        <time>2026-04-22T23:24:39.639Z</time>
      </trkpt>
      <trkpt lat="52.214438" lon="6.506174">
        <ele>15.856314</ele>
        <time>2026-04-22T23:24:43.937Z</time>
      </trkpt>
      <trkpt lat="52.214551" lon="6.506186">
        <ele>15.919317</ele>
        <time>2026-04-22T23:24:46.053Z</time>
      </trkpt>
      <trkpt lat="52.215284" lon="6.505744">
        <ele>16.503910</ele>
        <time>2026-04-22T23:25:00.406Z</time>
      </trkpt>
      <trkpt lat="52.215756" lon="6.505455">
        <ele>16.957236</ele>
        <time>2026-04-22T23:25:09.755Z</time>
      </trkpt>
      <trkpt lat="52.216213" lon="6.505230">
        <ele>17.386479</ele>
        <time>2026-04-22T23:25:18.654Z</time>
      </trkpt>
      <trkpt lat="52.216632" lon="6.504860">
        <ele>17.822646</ele>
        <time>2026-04-22T23:25:27.387Z</time>
      </trkpt>
      <trkpt lat="52.217069" lon="6.504670">
        <ele>18.265876</ele>
        <time>2026-04-22T23:25:35.693Z</time>
      </trkpt>
      <trkpt lat="52.217615" lon="6.504704">
        <ele>18.801389</ele>
        <time>2026-04-22T23:25:45.564Z</time>
      </trkpt>
      <trkpt lat="52.219652" lon="6.505104">
        <ele>20.841412</ele>
        <time>2026-04-22T23:26:25.331Z</time>
      </trkpt>
      <trkpt lat="52.219876" lon="6.505122">
        <ele>21.066076</ele>
        <time>2026-04-22T23:26:29.575Z</time>
      </trkpt>
      <trkpt lat="52.220074" lon="6.505082">
        <ele>21.265935</ele>
        <time>2026-04-22T23:26:33.214Z</time>
      </trkpt>
      <trkpt lat="52.220544" lon="6.504868">
        <ele>21.020161</ele>
        <time>2026-04-22T23:26:41.430Z</time>
      </trkpt>
      <trkpt lat="52.220756" lon="6.504696">
        <ele>20.880046</ele>
        <time>2026-04-22T23:26:45.094Z</time>
      </trkpt>
      <trkpt lat="52.224281" lon="6.500550">
        <ele>17.991478</ele>
        <time>2026-04-22T23:27:39.201Z</time>
      </trkpt>
      <trkpt lat="52.224612" lon="6.500317">
        <ele>17.702920</ele>
        <time>2026-04-22T23:27:43.791Z</time>
      </trkpt>
      <trkpt lat="52.224732" lon="6.500260">
        <ele>17.671910</ele>
        <time>2026-04-22T23:27:45.410Z</time>
      </trkpt>
      <trkpt lat="52.224871" lon="6.500193">
        <ele>17.635948</ele>
        <time>2026-04-22T23:27:47.315Z</time>
      </trkpt>
      <trkpt lat="52.225062" lon="6.500144">
        <ele>17.587973</ele>
        <time>2026-04-22T23:27:49.866Z</time>
      </trkpt>
      <trkpt lat="52.225247" lon="6.500114">
        <ele>17.541843</ele>
        <time>2026-04-22T23:27:52.335Z</time>
      </trkpt>
      <trkpt lat="52.225956" lon="6.500193">
        <ele>17.365510</ele>
        <time>2026-04-22T23:28:02.432Z</time>
      </trkpt>
      <trkpt lat="52.226318" lon="6.500233">
        <ele>17.275482</ele>
        <time>2026-04-22T23:28:08.021Z</time>
      </trkpt>
      <trkpt lat="52.226463" lon="6.500254">
        <ele>17.249638</ele>
        <time>2026-04-22T23:28:11.087Z</time>
      </trkpt>
      <trkpt lat="52.226821" lon="6.500402">
        <ele>17.207623</ele>
        <time>2026-04-22T23:28:18.815Z</time>
      </trkpt>
      <trkpt lat="52.227348" lon="6.500477">
        <ele>17.147439</ele>
        <time>2026-04-22T23:28:29.396Z</time>
      </trkpt>
      <trkpt lat="52.227630" lon="6.500463">
        <ele>17.115342</ele>
        <time>2026-04-22T23:28:34.969Z</time>
      </trkpt>
      <trkpt lat="52.227891" lon="6.500401">
        <ele>17.085335</ele>
        <time>2026-04-22T23:28:40.046Z</time>
      </trkpt>
      <trkpt lat="52.228192" lon="6.500272">
        <ele>17.040747</ele>
        <time>2026-04-22T23:28:45.892Z</time>
      </trkpt>
      <trkpt lat="52.228352" lon="6.500167">
        <ele>16.973454</ele>
        <time>2026-04-22T23:28:49.089Z</time>
      </trkpt>
      <trkpt lat="52.229448" lon="6.499098">
        <ele>16.475239</ele>
        <time>2026-04-22T23:29:12.603Z</time>
      </trkpt>
      <trkpt lat="52.229531" lon="6.499022">
        <ele>16.438103</ele>
        <time>2026-04-22T23:29:14.477Z</time>
      </trkpt>
      <trkpt lat="52.230119" lon="6.498449">
        <ele>16.346309</ele>
        <time>2026-04-22T23:29:28.500Z</time>
      </trkpt>
      <trkpt lat="52.230186" lon="6.498350">
        <ele>16.345236</ele>
        <time>2026-04-22T23:29:30.361Z</time>
      </trkpt>
      <trkpt lat="52.230468" lon="6.497949">
        <ele>16.340800</ele>
        <time>2026-04-22T23:29:37.835Z</time>
      </trkpt>
      <trkpt lat="52.230756" lon="6.497718">
        <ele>16.336993</ele>
        <time>2026-04-22T23:29:44.260Z</time>
      </trkpt>
      <trkpt lat="52.230831" lon="6.497678">
        <ele>16.336057</ele>
        <time>2026-04-22T23:29:45.895Z</time>
      </trkpt>
      <trkpt lat="52.230873" lon="6.497655">
        <ele>16.335531</ele>
        <time>2026-04-22T23:29:46.780Z</time>
      </trkpt>
      <trkpt lat="52.230869" lon="6.497495">
        <ele>16.334367</ele>
        <time>2026-04-22T23:29:48.814Z</time>
      </trkpt>
      <trkpt lat="52.230889" lon="6.497389">
        <ele>16.333561</ele>
        <time>2026-04-22T23:29:50.188Z</time>
      </trkpt>
      <trkpt lat="52.231007" lon="6.497160">
        <ele>16.331387</ele>
        <time>2026-04-22T23:29:54.057Z</time>
      </trkpt>
      <trkpt lat="52.231655" lon="6.496244">
        <ele>16.521357</ele>
        <time>2026-04-22T23:30:11.635Z</time>
      </trkpt>
      <trkpt lat="52.232026" lon="6.496085">
        <ele>16.615248</ele>
        <time>2026-04-22T23:30:19.553Z</time>
      </trkpt>
      <trkpt lat="52.232135" lon="6.496014">
        <ele>16.643974</ele>
        <time>2026-04-22T23:30:22.058Z</time>
      </trkpt>
      <trkpt lat="52.232366" lon="6.495925">
        <ele>16.702071</ele>
        <time>2026-04-22T23:30:27.128Z</time>
      </trkpt>
      <trkpt lat="52.233435" lon="6.495720">
        <ele>17.420308</ele>
        <time>2026-04-22T23:30:52.088Z</time>
      </trkpt>
      <trkpt lat="52.233511" lon="6.495637">
        <ele>17.494939</ele>
        <time>2026-04-22T23:30:54.225Z</time>
      </trkpt>
      <trkpt lat="52.233541" lon="6.495542">
        <ele>17.548371</ele>
        <time>2026-04-22T23:30:55.816Z</time>
      </trkpt>
      <trkpt lat="52.233585" lon="6.495159">
        <ele>17.743173</ele>
        <time>2026-04-22T23:31:01.391Z</time>
      </trkpt>
      <trkpt lat="52.233594" lon="6.495108">
        <ele>17.769705</ele>
        <time>2026-04-22T23:31:02.158Z</time>
      </trkpt>
      <trkpt lat="52.233601" lon="6.495067">
        <ele>17.790983</ele>
        <time>2026-04-22T23:31:02.777Z</time>
      </trkpt>
      <trkpt lat="52.233654" lon="6.494951">
        <ele>17.863330</ele>
        <time>2026-04-22T23:31:04.763Z</time>
      </trkpt>
      <trkpt lat="52.233794" lon="6.494915">
        <ele>17.979012</ele>
        <time>2026-04-22T23:31:08.120Z</time>
      </trkpt>
      <trkpt lat="52.234163" lon="6.494996">
        <ele>18.253027</ele>
        <time>2026-04-22T23:31:17.333Z</time>
      </trkpt>
      <trkpt lat="52.234326" lon="6.495192">
        <ele>18.306136</ele>
        <time>2026-04-22T23:31:22.304Z</time>
      </trkpt>
      <trkpt lat="52.234400" lon="6.495014">
        <ele>18.340703</ele>
        <time>2026-04-22T23:31:24.748Z</time>
      </trkpt>
      <trkpt lat="52.234562" lon="6.494775">
        <ele>18.397983</ele>
        <time>2026-04-22T23:31:28.547Z</time>
      </trkpt>
      <trkpt lat="52.234708" lon="6.494571">
        <ele>18.448397</ele>
        <time>2026-04-22T23:31:31.635Z</time>
      </trkpt>
      <trkpt lat="52.234789" lon="6.494456">
        <ele>18.476558</ele>
        <time>2026-04-22T23:31:33.320Z</time>
      </trkpt>
      <trkpt lat="52.234966" lon="6.494219">
        <ele>18.536612</ele>
        <time>2026-04-22T23:31:36.782Z</time>
      </trkpt>
      <trkpt lat="52.235157" lon="6.493926">
        <ele>18.605367</ele>
        <time>2026-04-22T23:31:40.609Z</time>
      </trkpt>
      <trkpt lat="52.235497" lon="6.493299">
        <ele>18.657170</ele>
        <time>2026-04-22T23:31:47.881Z</time>
      </trkpt>
      <trkpt lat="52.235568" lon="6.493401">
        <ele>18.611592</ele>
        <time>2026-04-22T23:31:49.657Z</time>
      </trkpt>
      <trkpt lat="52.235619" lon="6.493534">
        <ele>18.565275</ele>
        <time>2026-04-22T23:31:51.351Z</time>
      </trkpt>
      <trkpt lat="52.235632" lon="6.493616">
        <ele>18.540274</ele>
        <time>2026-04-22T23:31:52.285Z</time>
      </trkpt>
      <trkpt lat="52.235687" lon="6.493956">
        <ele>18.436478</ele>
        <time>2026-04-22T23:31:56.062Z</time>
      </trkpt>
      <trkpt lat="52.235660" lon="6.494240">
        <ele>18.351649</ele>
        <time>2026-04-22T23:31:59.262Z</time>
      </trkpt>
      <trkpt lat="52.235664" lon="6.494359">
        <ele>18.316472</ele>
        <time>2026-04-22T23:32:00.606Z</time>
      </trkpt>
      <trkpt lat="52.235701" lon="6.494574">
        <ele>18.250555</ele>
        <time>2026-04-22T23:32:03.116Z</time>
      </trkpt>
      <trkpt lat="52.235731" lon="6.494618">
        <ele>18.231120</ele>
        <time>2026-04-22T23:32:03.861Z</time>
      </trkpt>
      <trkpt lat="52.235909" lon="6.494708">
        <ele>18.141312</ele>
        <time>2026-04-22T23:32:07.315Z</time>
      </trkpt>
      <trkpt lat="52.236074" lon="6.494939">
        <ele>18.036562</ele>
        <time>2026-04-22T23:32:11.406Z</time>
      </trkpt>
      <trkpt lat="52.236292" lon="6.494687">
        <ele>17.907832</ele>
        <time>2026-04-22T23:32:16.409Z</time>
      </trkpt>
      <trkpt lat="52.236360" lon="6.494490">
        <ele>17.842706</ele>
        <time>2026-04-22T23:32:18.995Z</time>
      </trkpt>
      <trkpt lat="52.236884" lon="6.494489">
        <ele>17.736489</ele>
        <time>2026-04-22T23:32:28.791Z</time>
      </trkpt>
      <trkpt lat="52.236989" lon="6.494446">
        <ele>17.714547</ele>
        <time>2026-04-22T23:32:30.904Z</time>
      </trkpt>
      <trkpt lat="52.237134" lon="6.494313">
        <ele>17.680835</ele>
        <time>2026-04-22T23:32:34.233Z</time>
      </trkpt>
      <trkpt lat="52.237609" lon="6.493775">
        <ele>17.563658</ele>
        <time>2026-04-22T23:32:45.680Z</time>
      </trkpt>
      <trkpt lat="52.238203" lon="6.493426">
        <ele>17.462828</ele>
        <time>2026-04-22T23:32:58.244Z</time>
      </trkpt>
      <trkpt lat="52.238253" lon="6.493402">
        <ele>17.458839</ele>
        <time>2026-04-22T23:32:59.302Z</time>
      </trkpt>
      <trkpt lat="52.238647" lon="6.493199">
        <ele>17.427213</ele>
        <time>2026-04-22T23:33:07.777Z</time>
      </trkpt>
      <trkpt lat="52.238862" lon="6.493123">
        <ele>17.410374</ele>
        <time>2026-04-22T23:33:12.299Z</time>
      </trkpt>
      <trkpt lat="52.239556" lon="6.493115">
        <ele>17.357248</ele>
        <time>2026-04-22T23:33:26.022Z</time>
      </trkpt>
      <trkpt lat="52.240091" lon="6.492936">
        <ele>17.325032</ele>
        <time>2026-04-22T23:33:36.563Z</time>
      </trkpt>
      <trkpt lat="52.240178" lon="6.492869">
        <ele>17.320367</ele>
        <time>2026-04-22T23:33:38.368Z</time>
      </trkpt>
      <trkpt lat="52.240209" lon="6.492849">
        <ele>17.318750</ele>
        <time>2026-04-22T23:33:39.010Z</time>
      </trkpt>
      <trkpt lat="52.240223" lon="6.492790">
        <ele>17.316871</ele>
        <time>2026-04-22T23:33:40.022Z</time>
      </trkpt>
      <trkpt lat="52.240345" lon="6.492706">
        <ele>17.310450</ele>
        <time>2026-04-22T23:33:43.525Z</time>
      </trkpt>
      <trkpt lat="52.241431" lon="6.492180">
        <ele>17.255513</ele>
        <time>2026-04-22T23:34:14.483Z</time>
      </trkpt>
      <trkpt lat="52.241758" lon="6.492053">
        <ele>17.624565</ele>
        <time>2026-04-22T23:34:24.725Z</time>
      </trkpt>
      <trkpt lat="52.241829" lon="6.492055">
        <ele>17.708629</ele>
        <time>2026-04-22T23:34:26.929Z</time>
      </trkpt>
      <trkpt lat="52.241901" lon="6.492104">
        <ele>17.800970</ele>
        <time>2026-04-22T23:34:29.408Z</time>
      </trkpt>
      <trkpt lat="52.241957" lon="6.492197">
        <ele>17.895521</ele>
        <time>2026-04-22T23:34:31.959Z</time>
      </trkpt>
      <trkpt lat="52.242486" lon="6.495222">
        <ele>19.934081</ele>
        <time>2026-04-22T23:35:37.447Z</time>
      </trkpt>
      <trkpt lat="52.242608" lon="6.495912">
        <ele>20.295739</ele>
        <time>2026-04-22T23:35:51.256Z</time>
      </trkpt>
      <trkpt lat="52.242675" lon="6.496162">
        <ele>20.433161</ele>
        <time>2026-04-22T23:35:56.274Z</time>
      </trkpt>
      <trkpt lat="52.242777" lon="6.496336">
        <ele>20.554461</ele>
        <time>2026-04-22T23:36:00.578Z</time>
      </trkpt>
      <trkpt lat="52.242947" lon="6.496475">
        <ele>20.710812</ele>
        <time>2026-04-22T23:36:06.014Z</time>
      </trkpt>
      <trkpt lat="52.243164" lon="6.496487">
        <ele>20.852562</ele>
        <time>2026-04-22T23:36:12.023Z</time>
      </trkpt>
      <trkpt lat="52.244643" lon="6.496355">
        <ele>20.379317</ele>
        <time>2026-04-22T23:36:51.001Z</time>
      </trkpt>
      <trkpt lat="52.245163" lon="6.496230">
        <ele>20.224195</ele>
        <time>2026-04-22T23:37:04.736Z</time>
      </trkpt>
      <trkpt lat="52.245359" lon="6.496141">
        <ele>20.170036</ele>
        <time>2026-04-22T23:37:10.093Z</time>
      </trkpt>
      <trkpt lat="52.245585" lon="6.495991">
        <ele>20.105091</ele>
        <time>2026-04-22T23:37:16.495Z</time>
      </trkpt>
      <trkpt lat="52.247060" lon="6.494779">
        <ele>19.794188</ele>
        <time>2026-04-22T23:38:01.227Z</time>
      </trkpt>
      <trkpt lat="52.247780" lon="6.494351">
        <ele>19.772682</ele>
        <time>2026-04-22T23:38:22.920Z</time>
      </trkpt>
      <trkpt lat="52.248342" lon="6.494204">
        <ele>19.760027</ele>
        <time>2026-04-22T23:38:38.745Z</time>
      </trkpt>
      <trkpt lat="52.248715" lon="6.494074">
        <ele>19.765767</ele>
        <time>2026-04-22T23:38:49.133Z</time>
      </trkpt>
      <trkpt lat="52.248722" lon="6.494072">
        <ele>19.765873</ele>
        <time>2026-04-22T23:38:49.318Z</time>
      </trkpt>
      <trkpt lat="52.249465" lon="6.493614">
        <ele>19.777824</ele>
        <time>2026-04-22T23:39:11.266Z</time>
      </trkpt>
      <trkpt lat="52.249797" lon="6.493463">
        <ele>19.783010</ele>
        <time>2026-04-22T23:39:21.010Z</time>
      </trkpt>
      <trkpt lat="52.250065" lon="6.493385">
        <ele>19.798850</ele>
        <time>2026-04-22T23:39:28.802Z</time>
      </trkpt>
      <trkpt lat="52.250629" lon="6.493300">
        <ele>19.892787</ele>
        <time>2026-04-22T23:39:45.151Z</time>
      </trkpt>
      <trkpt lat="52.251885" lon="6.492724">
        <ele>20.124682</ele>
        <time>2026-04-22T23:40:22.091Z</time>
      </trkpt>
      <trkpt lat="52.251955" lon="6.492733">
        <ele>20.143590</ele>
        <time>2026-04-22T23:40:24.045Z</time>
      </trkpt>
      <trkpt lat="52.252510" lon="6.493723">
        <ele>20.364876</ele>
        <time>2026-04-22T23:40:36.969Z</time>
      </trkpt>
      <trkpt lat="52.252717" lon="6.491494">
        <ele>20.708046</ele>
        <time>2026-04-22T23:40:59.555Z</time>
      </trkpt>
      <trkpt lat="52.252764" lon="6.491365">
        <ele>20.728597</ele>
        <time>2026-04-22T23:41:01.044Z</time>
      </trkpt>
      <trkpt lat="52.253980" lon="6.489030">
        <ele>20.764703</ele>
        <time>2026-04-22T23:41:29.999Z</time>
      </trkpt>
      <trkpt lat="52.254870" lon="6.485460">
        <ele>19.689215</ele>
        <time>2026-04-22T23:42:00.661Z</time>
      </trkpt>
      <trkpt lat="52.255510" lon="6.483050">
        <ele>18.972863</ele>
        <time>2026-04-22T23:42:21.453Z</time>
      </trkpt>
      <trkpt lat="52.259587" lon="6.484228">
        <ele>18.791310</ele>
        <time>2026-04-22T23:43:23.280Z</time>
      </trkpt>
      <trkpt lat="52.260161" lon="6.484498">
        <ele>18.773361</ele>
        <time>2026-04-22T23:43:32.383Z</time>
      </trkpt>
      <trkpt lat="52.263386" lon="6.486033">
        <ele>18.563081</ele>
        <time>2026-04-22T23:44:21.430Z</time>
      </trkpt>
      <trkpt lat="52.263459" lon="6.486104">
        <ele>18.548850</ele>
        <time>2026-04-22T23:44:22.642Z</time>
      </trkpt>
      <trkpt lat="52.264707" lon="6.487999">
        <ele>18.191869</ele>
        <time>2026-04-22T23:44:46.603Z</time>
      </trkpt>
      <trkpt lat="52.264766" lon="6.488096">
        <ele>18.154585</ele>
        <time>2026-04-22T23:44:47.747Z</time>
      </trkpt>
      <trkpt lat="52.264793" lon="6.488198">
        <ele>18.124286</ele>
        <time>2026-04-22T23:44:48.676Z</time>
      </trkpt>
      <trkpt lat="52.264804" lon="6.488080">
        <ele>18.091745</ele>
        <time>2026-04-22T23:44:50.609Z</time>
      </trkpt>
      <trkpt lat="52.265745" lon="6.485047">
        <ele>17.198868</ele>
        <time>2026-04-22T23:45:44.828Z</time>
      </trkpt>
      <trkpt lat="52.267392" lon="6.479807">
        <ele>15.899173</ele>
        <time>2026-04-22T23:47:20.967Z</time>
      </trkpt>
      <trkpt lat="52.267670" lon="6.478920">
        <ele>15.634730</ele>
        <time>2026-04-22T23:47:36.586Z</time>
      </trkpt>
      <trkpt lat="52.267835" lon="6.478391">
        <ele>15.477175</ele>
        <time>2026-04-22T23:47:46.016Z</time>
      </trkpt>
      <trkpt lat="52.268092" lon="6.477588">
        <ele>15.489651</ele>
        <time>2026-04-22T23:48:00.732Z</time>
      </trkpt>
      <trkpt lat="52.268866" lon="6.475091">
        <ele>15.625895</ele>
        <time>2026-04-22T23:48:50.222Z</time>
      </trkpt>
      <trkpt lat="52.268954" lon="6.474811">
        <ele>15.646622</ele>
        <time>2026-04-22T23:48:55.770Z</time>
      </trkpt>
      <trkpt lat="52.268994" lon="6.474751">
        <ele>15.652464</ele>
        <time>2026-04-22T23:48:57.328Z</time>
      </trkpt>
      <trkpt lat="52.269236" lon="6.474849">
        <ele>15.679291</ele>
        <time>2026-04-22T23:49:01.150Z</time>
      </trkpt>
      <trkpt lat="52.269467" lon="6.474991">
        <ele>15.705848</ele>
        <time>2026-04-22T23:49:04.845Z</time>
      </trkpt>
      <trkpt lat="52.269771" lon="6.475265">
        <ele>15.743204</ele>
        <time>2026-04-22T23:49:09.869Z</time>
      </trkpt>
      <trkpt lat="52.270975" lon="6.476883">
        <ele>16.058054</ele>
        <time>2026-04-22T23:49:32.821Z</time>
      </trkpt>
      <trkpt lat="52.271239" lon="6.477068">
        <ele>16.122332</ele>
        <time>2026-04-22T23:49:37.769Z</time>
      </trkpt>
      <trkpt lat="52.271592" lon="6.477160">
        <ele>16.301748</ele>
        <time>2026-04-22T23:49:44.219Z</time>
      </trkpt>
      <trkpt lat="52.271807" lon="6.477145">
        <ele>16.540171</ele>
        <time>2026-04-22T23:49:48.251Z</time>
      </trkpt>
      <trkpt lat="52.271932" lon="6.477112">
        <ele>16.680458</ele>
        <time>2026-04-22T23:49:50.674Z</time>
      </trkpt>
      <trkpt lat="52.272585" lon="6.476950">
        <ele>17.412229</ele>
        <time>2026-04-22T23:50:03.525Z</time>
      </trkpt>
      <trkpt lat="52.273263" lon="6.476802">
        <ele>18.170116</ele>
        <time>2026-04-22T23:50:16.888Z</time>
      </trkpt>
      <trkpt lat="52.273247" lon="6.476609">
        <ele>18.335813</ele>
        <time>2026-04-22T23:50:19.828Z</time>
      </trkpt>
      <trkpt lat="52.273350" lon="6.473160">
        <ele>21.075766</ele>
        <time>2026-04-22T23:51:03.293Z</time>
      </trkpt>
      <trkpt lat="52.273409" lon="6.472344">
        <ele>21.545447</ele>
        <time>2026-04-22T23:51:13.022Z</time>
      </trkpt>
      <trkpt lat="52.273656" lon="6.470575">
        <ele>22.235545</ele>
        <time>2026-04-22T23:51:32.396Z</time>
      </trkpt>
      <trkpt lat="52.273753" lon="6.470209">
        <ele>22.121978</ele>
        <time>2026-04-22T23:51:36.021Z</time>
      </trkpt>
      <trkpt lat="52.274034" lon="6.469516">
        <ele>21.885268</ele>
        <time>2026-04-22T23:51:42.916Z</time>
      </trkpt>
      <trkpt lat="52.274086" lon="6.469590">
        <ele>21.853183</ele>
        <time>2026-04-22T23:51:43.836Z</time>
      </trkpt>
      <trkpt lat="52.274149" lon="6.469432">
        <ele>21.799487</ele>
        <time>2026-04-22T23:51:46.755Z</time>
      </trkpt>
      <trkpt lat="52.274276" lon="6.468880">
        <ele>21.631574</ele>
        <time>2026-04-22T23:51:55.703Z</time>
      </trkpt>
      <trkpt lat="52.274369" lon="6.468474">
        <ele>21.499191</ele>
        <time>2026-04-22T23:52:02.079Z</time>
      </trkpt>
      <trkpt lat="52.274829" lon="6.466784">
        <ele>20.166002</ele>
        <time>2026-04-22T23:52:28.845Z</time>
      </trkpt>
      <trkpt lat="52.274914" lon="6.466344">
        <ele>19.833433</ele>
        <time>2026-04-22T23:52:35.736Z</time>
      </trkpt>
      <trkpt lat="52.274920" lon="6.465570">
        <ele>19.362821</ele>
        <time>2026-04-22T23:52:41.662Z</time>
      </trkpt>
      <trkpt lat="52.274983" lon="6.463771">
        <ele>19.011127</ele>
        <time>2026-04-22T23:52:56.817Z</time>
      </trkpt>
      <trkpt lat="52.275017" lon="6.462748">
        <ele>18.819813</ele>
        <time>2026-04-22T23:53:06.119Z</time>
      </trkpt>
      <trkpt lat="52.275135" lon="6.462855">
        <ele>18.812743</ele>
        <time>2026-04-22T23:53:08.149Z</time>
      </trkpt>
      <trkpt lat="52.276144" lon="6.463996">
        <ele>18.748460</ele>
        <time>2026-04-22T23:53:26.377Z</time>
      </trkpt>
      <trkpt lat="52.276474" lon="6.464325">
        <ele>18.728208</ele>
        <time>2026-04-22T23:53:31.855Z</time>
      </trkpt>
      <trkpt lat="52.278118" lon="6.465414">
        <ele>18.049635</ele>
        <time>2026-04-22T23:53:55.745Z</time>
      </trkpt>
      <trkpt lat="52.278852" lon="6.466066">
        <ele>17.968417</ele>
        <time>2026-04-22T23:54:07.171Z</time>
      </trkpt>
      <trkpt lat="52.279378" lon="6.466546">
        <ele>17.919169</ele>
        <time>2026-04-22T23:54:16.002Z</time>
      </trkpt>
      <trkpt lat="52.279544" lon="6.466637">
        <ele>17.904856</ele>
        <time>2026-04-22T23:54:18.720Z</time>
      </trkpt>
      <trkpt lat="52.279668" lon="6.466663">
        <ele>17.894636</ele>
        <time>2026-04-22T23:54:20.702Z</time>
      </trkpt>
      <trkpt lat="52.279737" lon="6.466465">
        <ele>17.893837</ele>
        <time>2026-04-22T23:54:23.712Z</time>
      </trkpt>
      <trkpt lat="52.279876" lon="6.466349">
        <ele>17.926774</ele>
        <time>2026-04-22T23:54:27.142Z</time>
      </trkpt>
      <trkpt lat="52.280936" lon="6.465921">
        <ele>18.157205</ele>
        <time>2026-04-22T23:54:51.333Z</time>
      </trkpt>
      <trkpt lat="52.281049" lon="6.465943">
        <ele>18.181222</ele>
        <time>2026-04-22T23:54:53.711Z</time>
      </trkpt>
      <trkpt lat="52.281348" lon="6.466248">
        <ele>18.255604</ele>
        <time>2026-04-22T23:55:00.805Z</time>
      </trkpt>
      <trkpt lat="52.282621" lon="6.465755">
        <ele>17.263885</ele>
        <time>2026-04-22T23:55:17.489Z</time>
      </trkpt>
      <trkpt lat="52.282687" lon="6.465676">
        <ele>17.198836</ele>
        <time>2026-04-22T23:55:18.445Z</time>
      </trkpt>
      <trkpt lat="52.282738" lon="6.465547">
        <ele>17.124119</ele>
        <time>2026-04-22T23:55:19.552Z</time>
      </trkpt>
      <trkpt lat="52.282808" lon="6.465054">
        <ele>16.877917</ele>
        <time>2026-04-22T23:55:23.202Z</time>
      </trkpt>
      <trkpt lat="52.282857" lon="6.464873">
        <ele>16.768648</ele>
        <time>2026-04-22T23:55:24.628Z</time>
      </trkpt>
      <trkpt lat="52.282935" lon="6.464757">
        <ele>16.664602</ele>
        <time>2026-04-22T23:55:25.863Z</time>
      </trkpt>
      <trkpt lat="52.283023" lon="6.464690">
        <ele>16.568818</ele>
        <time>2026-04-22T23:55:27.004Z</time>
      </trkpt>
      <trkpt lat="52.284361" lon="6.463188">
        <ele>15.046148</ele>
        <time>2026-04-22T23:55:46.823Z</time>
      </trkpt>
      <trkpt lat="52.284466" lon="6.463065">
        <ele>15.026095</ele>
        <time>2026-04-22T23:55:48.574Z</time>
      </trkpt>
      <trkpt lat="52.284717" lon="6.462770">
        <ele>14.978107</ele>
        <time>2026-04-22T23:55:52.872Z</time>
      </trkpt>
      <trkpt lat="52.286177" lon="6.461058">
        <ele>14.950855</ele>
        <time>2026-04-22T23:56:19.935Z</time>
      </trkpt>
      <trkpt lat="52.286639" lon="6.460525">
        <ele>15.130949</ele>
        <time>2026-04-22T23:56:29.344Z</time>
      </trkpt>
      <trkpt lat="52.286889" lon="6.460374">
        <ele>15.215832</ele>
        <time>2026-04-22T23:56:33.878Z</time>
      </trkpt>
      <trkpt lat="52.287655" lon="6.460098">
        <ele>15.353676</ele>
        <time>2026-04-22T23:56:47.002Z</time>
      </trkpt>
      <trkpt lat="52.291048" lon="6.458816">
        <ele>15.177439</ele>
        <time>2026-04-22T23:57:36.698Z</time>
      </trkpt>
      <trkpt lat="52.291205" lon="6.458797">
        <ele>15.221500</ele>
        <time>2026-04-22T23:57:39.086Z</time>
      </trkpt>
      <trkpt lat="52.291991" lon="6.458502">
        <ele>15.447205</ele>
        <time>2026-04-22T23:57:51.997Z</time>
      </trkpt>
      <trkpt lat="52.292944" lon="6.458183">
        <ele>15.788198</ele>
        <time>2026-04-22T23:58:08.589Z</time>
      </trkpt>
      <trkpt lat="52.293891" lon="6.457817">
        <ele>16.240295</ele>
        <time>2026-04-22T23:58:24.786Z</time>
      </trkpt>
      <trkpt lat="52.294612" lon="6.457562">
        <ele>16.422605</ele>
        <time>2026-04-22T23:58:36.947Z</time>
      </trkpt>
      <trkpt lat="52.294814" lon="6.457490">
        <ele>16.401988</ele>
        <time>2026-04-22T23:58:40.219Z</time>
      </trkpt>
      <trkpt lat="52.295074" lon="6.457382">
        <ele>16.375236</ele>
        <time>2026-04-22T23:58:44.324Z</time>
      </trkpt>
      <trkpt lat="52.295186" lon="6.457262">
        <ele>16.361883</ele>
        <time>2026-04-22T23:58:46.319Z</time>
      </trkpt>
      <trkpt lat="52.295231" lon="6.457190">
        <ele>16.355604</ele>
        <time>2026-04-22T23:58:47.261Z</time>
      </trkpt>
      <trkpt lat="52.295247" lon="6.457162">
        <ele>16.353267</ele>
        <time>2026-04-22T23:58:47.608Z</time>
      </trkpt>
      <trkpt lat="52.295336" lon="6.457058">
        <ele>16.342358</ele>
        <time>2026-04-22T23:58:49.200Z</time>
      </trkpt>
      <trkpt lat="52.295394" lon="6.457038">
        <ele>16.336447</ele>
        <time>2026-04-22T23:58:50.067Z</time>
      </trkpt>
      <trkpt lat="52.295532" lon="6.457147">
        <ele>16.321164</ele>
        <time>2026-04-22T23:58:52.266Z</time>
      </trkpt>
      <trkpt lat="52.297515" lon="6.456408">
        <ele>15.331191</ele>
        <time>2026-04-22T23:59:18.538Z</time>
      </trkpt>
      <trkpt lat="52.297586" lon="6.456425">
        <ele>15.287278</ele>
        <time>2026-04-22T23:59:19.454Z</time>
      </trkpt>
      <trkpt lat="52.297630" lon="6.456435">
        <ele>15.260093</ele>
        <time>2026-04-22T23:59:20.015Z</time>
      </trkpt>
      <trkpt lat="52.297705" lon="6.456441">
        <ele>15.214141</ele>
        <time>2026-04-22T23:59:20.978Z</time>
      </trkpt>
      <trkpt lat="52.298573" lon="6.456078">
        <ele>14.937502</ele>
        <time>2026-04-22T23:59:32.725Z</time>
      </trkpt>
      <trkpt lat="52.299513" lon="6.455764">
        <ele>14.666176</ele>
        <time>2026-04-22T23:59:46.397Z</time>
      </trkpt>
      <trkpt lat="52.302377" lon="6.454722">
        <ele>15.146729</ele>
        <time>2026-04-23T00:00:32.113Z</time>
      </trkpt>
      <trkpt lat="52.304127" lon="6.454085">
        <ele>15.544387</ele>
        <time>2026-04-23T00:01:00.605Z</time>
      </trkpt>
      <trkpt lat="52.304330" lon="6.454010">
        <ele>15.591776</ele>
        <time>2026-04-23T00:01:03.981Z</time>
      </trkpt>
      <trkpt lat="52.306727" lon="6.453119">
        <ele>15.808680</ele>
        <time>2026-04-23T00:01:40.820Z</time>
      </trkpt>
      <trkpt lat="52.308319" lon="6.452541">
        <ele>16.010078</ele>
        <time>2026-04-23T00:02:04.970Z</time>
      </trkpt>
      <trkpt lat="52.309687" lon="6.452038">
        <ele>16.790883</ele>
        <time>2026-04-23T00:02:30.958Z</time>
      </trkpt>
      <trkpt lat="52.309770" lon="6.452021">
        <ele>16.837463</ele>
        <time>2026-04-23T00:02:32.408Z</time>
      </trkpt>
      <trkpt lat="52.309812" lon="6.452013">
        <ele>16.861010</ele>
        <time>2026-04-23T00:02:33.138Z</time>
      </trkpt>
      <trkpt lat="52.311098" lon="6.451539">
        <ele>16.873830</ele>
        <time>2026-04-23T00:02:52.128Z</time>
      </trkpt>
      <trkpt lat="52.311420" lon="6.451427">
        <ele>16.834063</ele>
        <time>2026-04-23T00:02:56.447Z</time>
      </trkpt>
      <trkpt lat="52.314080" lon="6.450469">
        <ele>16.834681</ele>
        <time>2026-04-23T00:03:35.644Z</time>
      </trkpt>
      <trkpt lat="52.315257" lon="6.450058">
        <ele>17.381942</ele>
        <time>2026-04-23T00:03:57.978Z</time>
      </trkpt>
      <trkpt lat="52.317538" lon="6.449235">
        <ele>17.969911</ele>
        <time>2026-04-23T00:04:32.137Z</time>
      </trkpt>
      <trkpt lat="52.318235" lon="6.449000">
        <ele>18.556182</ele>
        <time>2026-04-23T00:04:46.174Z</time>
      </trkpt>
      <trkpt lat="52.318273" lon="6.448915">
        <ele>18.609213</ele>
        <time>2026-04-23T00:04:47.457Z</time>
      </trkpt>
      <trkpt lat="52.318294" lon="6.448867">
        <ele>18.638938</ele>
        <time>2026-04-23T00:04:48.212Z</time>
      </trkpt>
      <trkpt lat="52.318348" lon="6.448840">
        <ele>18.685456</ele>
        <time>2026-04-23T00:04:49.352Z</time>
      </trkpt>
      <trkpt lat="52.318723" lon="6.448701">
        <ele>19.002219</ele>
        <time>2026-04-23T00:04:57.200Z</time>
      </trkpt>
      <trkpt lat="52.318767" lon="6.448758">
        <ele>19.048456</ele>
        <time>2026-04-23T00:05:01.098Z</time>
      </trkpt>
      <trkpt lat="52.318931" lon="6.448697">
        <ele>19.078601</ele>
        <time>2026-04-23T00:05:08.061Z</time>
      </trkpt>
      <trkpt lat="52.319633" lon="6.448436">
        <ele>19.117255</ele>
        <time>2026-04-23T00:05:36.056Z</time>
      </trkpt>
      <trkpt lat="52.320291" lon="6.448192">
        <ele>19.153482</ele>
        <time>2026-04-23T00:06:00.143Z</time>
      </trkpt>
      <trkpt lat="52.320954" lon="6.447946">
        <ele>18.951985</ele>
        <time>2026-04-23T00:06:23.580Z</time>
      </trkpt>
      <trkpt lat="52.321659" lon="6.447676">
        <ele>18.577168</ele>
        <time>2026-04-23T00:07:18.896Z</time>
      </trkpt>
      <trkpt lat="52.321844" lon="6.447605">
        <ele>18.478801</ele>
        <time>2026-04-23T00:07:33.549Z</time>
      </trkpt>
      <trkpt lat="52.322072" lon="6.447554">
        <ele>18.359676</ele>
        <time>2026-04-23T00:07:51.290Z</time>
      </trkpt>
      <trkpt lat="52.324007" lon="6.447825">
        <ele>18.631479</ele>
        <time>2026-04-23T00:10:27.383Z</time>
      </trkpt>
      <trkpt lat="52.324439" lon="6.447902">
        <ele>18.862310</ele>
        <time>2026-04-23T00:11:03.020Z</time>
      </trkpt>
      <trkpt lat="52.325857" lon="6.448155">
        <ele>19.738623</ele>
        <time>2026-04-23T00:13:00.029Z</time>
      </trkpt>
      <trkpt lat="52.326482" lon="6.448260">
        <ele>19.856475</ele>
        <time>2026-04-23T00:13:51.226Z</time>
      </trkpt>
      <trkpt lat="52.327779" lon="6.448478">
        <ele>19.986472</ele>
        <time>2026-04-23T00:15:35.214Z</time>
      </trkpt>
      <trkpt lat="52.329315" lon="6.448984">
        <ele>18.936569</ele>
        <time>2026-04-23T00:17:35.482Z</time>
      </trkpt>
      <trkpt lat="52.329955" lon="6.449194">
        <ele>18.324318</ele>
        <time>2026-04-23T00:18:24.650Z</time>
      </trkpt>
      <trkpt lat="52.330682" lon="6.449427">
        <ele>17.579871</ele>
        <time>2026-04-23T00:19:20.030Z</time>
      </trkpt>
      <trkpt lat="52.331604" lon="6.449723">
        <ele>17.199068</ele>
        <time>2026-04-23T00:20:32.257Z</time>
      </trkpt>
      <trkpt lat="52.332084" lon="6.449874">
        <ele>17.389513</ele>
        <time>2026-04-23T00:21:11.386Z</time>
      </trkpt>
      <trkpt lat="52.332902" lon="6.450133">
        <ele>17.714139</ele>
        <time>2026-04-23T00:22:20.747Z</time>
      </trkpt>
      <trkpt lat="52.332910" lon="6.450081">
        <ele>17.726906</ele>
        <time>2026-04-23T00:22:23.515Z</time>
      </trkpt>
      <trkpt lat="52.333093" lon="6.450135">
        <ele>17.943434</ele>
        <time>2026-04-23T00:22:27.227Z</time>
      </trkpt>
      <trkpt lat="52.333867" lon="6.446312">
        <ele>21.473459</ele>
        <time>2026-04-23T00:25:56.907Z</time>
      </trkpt>
      <trkpt lat="52.334409" lon="6.443632">
        <ele>24.528569</ele>
        <time>2026-04-23T00:28:25.149Z</time>
      </trkpt>
      <trkpt lat="52.335620" lon="6.437644">
        <ele>32.550567</ele>
        <time>2026-04-23T00:34:04.974Z</time>
      </trkpt>
      <trkpt lat="52.336578" lon="6.432913">
        <ele>38.565905</ele>
        <time>2026-04-23T00:38:32.043Z</time>
      </trkpt>
      <trkpt lat="52.336613" lon="6.432936">
        <ele>38.619644</ele>
        <time>2026-04-23T00:38:35.191Z</time>
      </trkpt>
      <trkpt lat="52.336748" lon="6.432283">
        <ele>39.219801</ele>
        <time>2026-04-23T00:38:43.578Z</time>
      </trkpt>
      <trkpt lat="52.336754" lon="6.432042">
        <ele>39.429787</ele>
        <time>2026-04-23T00:38:46.424Z</time>
      </trkpt>
      <trkpt lat="52.336765" lon="6.431772">
        <ele>39.665369</ele>
        <time>2026-04-23T00:38:49.569Z</time>
      </trkpt>
      <trkpt lat="52.337659" lon="6.427480">
        <ele>43.219561</ele>
        <time>2026-04-23T00:39:44.007Z</time>
      </trkpt>
      <trkpt lat="52.337960" lon="6.426035">
        <ele>44.507764</ele>
        <time>2026-04-23T00:40:04.362Z</time>
      </trkpt>
      <trkpt lat="52.338014" lon="6.425565">
        <ele>44.911300</ele>
        <time>2026-04-23T00:40:10.039Z</time>
      </trkpt>
      <trkpt lat="52.338006" lon="6.425504">
        <ele>44.963944</ele>
        <time>2026-04-23T00:40:10.767Z</time>
      </trkpt>
      <trkpt lat="52.338111" lon="6.425321">
        <ele>45.174753</ele>
        <time>2026-04-23T00:40:13.617Z</time>
      </trkpt>
      <trkpt lat="52.338237" lon="6.424868">
        <ele>45.473093</ele>
        <time>2026-04-23T00:40:19.141Z</time>
      </trkpt>
      <trkpt lat="52.338398" lon="6.423903">
        <ele>46.072691</ele>
        <time>2026-04-23T00:40:29.668Z</time>
      </trkpt>
      <trkpt lat="52.339766" lon="6.417174">
        <ele>51.444701</ele>
        <time>2026-04-23T00:42:50.463Z</time>
      </trkpt>
      <trkpt lat="52.340196" lon="6.415743">
        <ele>53.940686</ele>
        <time>2026-04-23T00:43:28.514Z</time>
      </trkpt>
      <trkpt lat="52.341359" lon="6.412129">
        <ele>60.299740</ele>
        <time>2026-04-23T00:45:07.725Z</time>
      </trkpt>
      <trkpt lat="52.341446" lon="6.411865">
        <ele>60.742389</ele>
        <time>2026-04-23T00:45:11.444Z</time>
      </trkpt>
      <trkpt lat="52.342179" lon="6.409534">
        <ele>60.567242</ele>
        <time>2026-04-23T00:45:34.148Z</time>
      </trkpt>
      <trkpt lat="52.342543" lon="6.408573">
        <ele>59.370676</ele>
        <time>2026-04-23T00:45:41.920Z</time>
      </trkpt>
      <trkpt lat="52.342673" lon="6.408373">
        <ele>58.875654</ele>
        <time>2026-04-23T00:45:43.843Z</time>
      </trkpt>
      <trkpt lat="52.342893" lon="6.408191">
        <ele>58.191698</ele>
        <time>2026-04-23T00:45:46.453Z</time>
      </trkpt>
      <trkpt lat="52.344031" lon="6.407604">
        <ele>54.376480</ele>
        <time>2026-04-23T00:45:58.407Z</time>
      </trkpt>
      <trkpt lat="52.344224" lon="6.407458">
        <ele>53.307687</ele>
        <time>2026-04-23T00:46:00.457Z</time>
      </trkpt>
      <trkpt lat="52.344400" lon="6.407270">
        <ele>52.251231</ele>
        <time>2026-04-23T00:46:02.452Z</time>
      </trkpt>
      <trkpt lat="52.344484" lon="6.407156">
        <ele>51.702713</ele>
        <time>2026-04-23T00:46:03.486Z</time>
      </trkpt>
      <trkpt lat="52.345919" lon="6.404400">
        <ele>40.808648</ele>
        <time>2026-04-23T00:46:23.927Z</time>
      </trkpt>
      <trkpt lat="52.347104" lon="6.402151">
        <ele>34.498311</ele>
        <time>2026-04-23T00:46:42.222Z</time>
      </trkpt>
      <trkpt lat="52.347819" lon="6.400820">
        <ele>31.930730</ele>
        <time>2026-04-23T00:46:54.526Z</time>
      </trkpt>
      <trkpt lat="52.351039" lon="6.394713">
        <ele>22.754716</ele>
        <time>2026-04-23T00:47:49.188Z</time>
      </trkpt>
      <trkpt lat="52.351676" lon="6.393509">
        <ele>21.150663</ele>
        <time>2026-04-23T00:48:00.131Z</time>
      </trkpt>
      <trkpt lat="52.351899" lon="6.393084">
        <ele>20.586449</ele>
        <time>2026-04-23T00:48:04.013Z</time>
      </trkpt>
      <trkpt lat="52.353337" lon="6.390342">
        <ele>17.334892</ele>
        <time>2026-04-23T00:48:29.414Z</time>
      </trkpt>
      <trkpt lat="52.353364" lon="6.390282">
        <ele>17.270077</ele>
        <time>2026-04-23T00:48:30.193Z</time>
      </trkpt>
      <trkpt lat="52.353388" lon="6.390210">
        <ele>17.210528</ele>
        <time>2026-04-23T00:48:31.063Z</time>
      </trkpt>
      <trkpt lat="52.353308" lon="6.389976">
        <ele>17.064190</ele>
        <time>2026-04-23T00:48:35.110Z</time>
      </trkpt>
      <trkpt lat="52.352436" lon="6.386311">
        <ele>14.979438</ele>
        <time>2026-04-23T00:49:35.584Z</time>
      </trkpt>
      <trkpt lat="52.352338" lon="6.385918">
        <ele>14.768032</ele>
        <time>2026-04-23T00:49:41.919Z</time>
      </trkpt>
      <trkpt lat="52.352244" lon="6.385525">
        <ele>14.557836</ele>
        <time>2026-04-23T00:49:48.261Z</time>
      </trkpt>
      <trkpt lat="52.351880" lon="6.383996">
        <ele>14.087677</ele>
        <time>2026-04-23T00:50:14.128Z</time>
      </trkpt>
      <trkpt lat="52.351872" lon="6.383936">
        <ele>14.082595</ele>
        <time>2026-04-23T00:50:15.195Z</time>
      </trkpt>
      <trkpt lat="52.351783" lon="6.383561">
        <ele>14.049301</ele>
        <time>2026-04-23T00:50:22.001Z</time>
      </trkpt>
      <trkpt lat="52.351733" lon="6.383473">
        <ele>14.039354</ele>
        <time>2026-04-23T00:50:24.078Z</time>
      </trkpt>
      <trkpt lat="52.349333" lon="6.382522">
        <ele>14.008557</ele>
        <time>2026-04-23T00:51:33.803Z</time>
      </trkpt>
      <trkpt lat="52.349176" lon="6.382395">
        <ele>14.019420</ele>
        <time>2026-04-23T00:51:38.643Z</time>
      </trkpt>
      <trkpt lat="52.348515" lon="6.381424">
        <ele>13.739070</ele>
        <time>2026-04-23T00:52:02.693Z</time>
      </trkpt>
      <trkpt lat="52.346605" lon="6.378288">
        <ele>12.564500</ele>
        <time>2026-04-23T00:53:12.920Z</time>
      </trkpt>
      <trkpt lat="52.345051" lon="6.375647">
        <ele>11.916690</ele>
        <time>2026-04-23T00:54:12.922Z</time>
      </trkpt>
      <trkpt lat="52.343477" lon="6.372969">
        <ele>11.437686</ele>
        <time>2026-04-23T00:55:14.206Z</time>
      </trkpt>
      <trkpt lat="52.341438" lon="6.369499">
        <ele>11.207916</ele>
        <time>2026-04-23T00:56:34.628Z</time>
      </trkpt>
      <trkpt lat="52.341414" lon="6.369348">
        <ele>11.241255</ele>
        <time>2026-04-23T00:56:37.441Z</time>
      </trkpt>
      <trkpt lat="52.341262" lon="6.369303">
        <ele>11.295278</ele>
        <time>2026-04-23T00:56:40.056Z</time>
      </trkpt>
      <trkpt lat="52.340922" lon="6.369182">
        <ele>11.416970</ele>
        <time>2026-04-23T00:56:47.848Z</time>
      </trkpt>
      <trkpt lat="52.340755" lon="6.369123">
        <ele>11.476722</ele>
        <time>2026-04-23T00:56:51.684Z</time>
      </trkpt>
      <trkpt lat="52.340221" lon="6.368875">
        <ele>11.670858</ele>
        <time>2026-04-23T00:57:04.161Z</time>
      </trkpt>
      <trkpt lat="52.339374" lon="6.368472">
        <ele>11.626451</ele>
        <time>2026-04-23T00:57:22.574Z</time>
      </trkpt>
      <trkpt lat="52.339328" lon="6.368482">
        <ele>11.614179</ele>
        <time>2026-04-23T00:57:23.222Z</time>
      </trkpt>
      <trkpt lat="52.337881" lon="6.367874">
        <ele>11.219581</ele>
        <time>2026-04-23T00:57:42.950Z</time>
      </trkpt>
      <trkpt lat="52.335236" lon="6.366684">
        <ele>10.747458</ele>
        <time>2026-04-23T00:58:21.872Z</time>
      </trkpt>
      <trkpt lat="52.334221" lon="6.366246">
        <ele>10.774609</ele>
        <time>2026-04-23T00:58:38.230Z</time>
      </trkpt>
      <trkpt lat="52.331374" lon="6.365031">
        <ele>11.137602</ele>
        <time>2026-04-23T00:59:22.860Z</time>
      </trkpt>
      <trkpt lat="52.330591" lon="6.364663">
        <ele>11.220922</ele>
        <time>2026-04-23T00:59:35.614Z</time>
      </trkpt>
      <trkpt lat="52.329232" lon="6.364091">
        <ele>11.300995</ele>
        <time>2026-04-23T00:59:56.795Z</time>
      </trkpt>
      <trkpt lat="52.329163" lon="6.364029">
        <ele>11.292486</ele>
        <time>2026-04-23T00:59:57.915Z</time>
      </trkpt>
      <trkpt lat="52.326471" lon="6.360291">
        <ele>10.860941</ele>
        <time>2026-04-23T01:00:48.437Z</time>
      </trkpt>
      <trkpt lat="52.326490" lon="6.360246">
        <ele>10.853240</ele>
        <time>2026-04-23T01:00:48.941Z</time>
      </trkpt>
      <trkpt lat="52.327053" lon="6.358727">
        <ele>10.603113</ele>
        <time>2026-04-23T01:01:04.295Z</time>
      </trkpt>
      <trkpt lat="52.327880" lon="6.356450">
        <ele>10.118092</ele>
        <time>2026-04-23T01:01:26.160Z</time>
      </trkpt>
      <trkpt lat="52.328186" lon="6.355652">
        <ele>9.935463</ele>
        <time>2026-04-23T01:01:34.206Z</time>
      </trkpt>
      <trkpt lat="52.328384" lon="6.355137">
        <ele>10.032534</ele>
        <time>2026-04-23T01:01:39.654Z</time>
      </trkpt>
      <trkpt lat="52.328846" lon="6.353951">
        <ele>10.256917</ele>
        <time>2026-04-23T01:01:53.234Z</time>
      </trkpt>
      <trkpt lat="52.329837" lon="6.351322">
        <ele>10.973762</ele>
        <time>2026-04-23T01:02:25.328Z</time>
      </trkpt>
      <trkpt lat="52.330894" lon="6.348522">
        <ele>11.339075</ele>
        <time>2026-04-23T01:02:56.975Z</time>
      </trkpt>
      <trkpt lat="52.330958" lon="6.348411">
        <ele>11.348871</ele>
        <time>2026-04-23T01:02:58.271Z</time>
      </trkpt>
      <trkpt lat="52.330861" lon="6.348173">
        <ele>11.364620</ele>
        <time>2026-04-23T01:03:00.678Z</time>
      </trkpt>
      <trkpt lat="52.330825" lon="6.347965">
        <ele>11.328355</ele>
        <time>2026-04-23T01:03:02.480Z</time>
      </trkpt>
      <trkpt lat="52.330842" lon="6.347713">
        <ele>11.285824</ele>
        <time>2026-04-23T01:03:04.586Z</time>
      </trkpt>
      <trkpt lat="52.330890" lon="6.347516">
        <ele>11.250247</ele>
        <time>2026-04-23T01:03:06.338Z</time>
      </trkpt>
      <trkpt lat="52.330753" lon="6.347429">
        <ele>11.209906</ele>
        <time>2026-04-23T01:03:08.305Z</time>
      </trkpt>
      <trkpt lat="52.330532" lon="6.347265">
        <ele>11.143293</ele>
        <time>2026-04-23T01:03:11.519Z</time>
      </trkpt>
      <trkpt lat="52.330375" lon="6.347082">
        <ele>11.090379</ele>
        <time>2026-04-23T01:03:14.058Z</time>
      </trkpt>
      <trkpt lat="52.329586" lon="6.345892">
        <ele>10.849367</ele>
        <time>2026-04-23T01:03:29.075Z</time>
      </trkpt>
      <trkpt lat="52.329302" lon="6.345468">
        <ele>10.817272</ele>
        <time>2026-04-23T01:03:34.711Z</time>
      </trkpt>
      <trkpt lat="52.329235" lon="6.345362">
        <ele>10.809492</ele>
        <time>2026-04-23T01:03:36.086Z</time>
      </trkpt>
      <trkpt lat="52.328133" lon="6.343790">
        <ele>10.599995</ele>
        <time>2026-04-23T01:03:57.662Z</time>
      </trkpt>
      <trkpt lat="52.328015" lon="6.343612">
        <ele>10.553280</ele>
        <time>2026-04-23T01:03:59.922Z</time>
      </trkpt>
      <trkpt lat="52.328002" lon="6.343538">
        <ele>10.539584</ele>
        <time>2026-04-23T01:04:00.581Z</time>
      </trkpt>
      <trkpt lat="52.327909" lon="6.343322">
        <ele>10.492583</ele>
        <time>2026-04-23T01:04:02.823Z</time>
      </trkpt>
      <trkpt lat="52.327912" lon="6.343237">
        <ele>10.477438</ele>
        <time>2026-04-23T01:04:03.534Z</time>
      </trkpt>
      <trkpt lat="52.327865" lon="6.343116">
        <ele>10.451934</ele>
        <time>2026-04-23T01:04:04.737Z</time>
      </trkpt>
      <trkpt lat="52.327815" lon="6.343083">
        <ele>10.436242</ele>
        <time>2026-04-23T01:04:05.475Z</time>
      </trkpt>
      <trkpt lat="52.327745" lon="6.343102">
        <ele>10.415588</ele>
        <time>2026-04-23T01:04:06.451Z</time>
      </trkpt>
      <trkpt lat="52.327621" lon="6.342996">
        <ele>10.374867</ele>
        <time>2026-04-23T01:04:08.360Z</time>
      </trkpt>
      <trkpt lat="52.327591" lon="6.342964">
        <ele>10.364444</ele>
        <time>2026-04-23T01:04:08.833Z</time>
      </trkpt>
      <trkpt lat="52.327562" lon="6.342968">
        <ele>10.355973</ele>
        <time>2026-04-23T01:04:09.227Z</time>
      </trkpt>
      <trkpt lat="52.327298" lon="6.342609">
        <ele>10.256058</ele>
        <time>2026-04-23T01:04:13.836Z</time>
      </trkpt>
      <trkpt lat="52.327031" lon="6.342174">
        <ele>10.107626</ele>
        <time>2026-04-23T01:04:18.800Z</time>
      </trkpt>
      <trkpt lat="52.324856" lon="6.337905">
        <ele>8.520527</ele>
        <time>2026-04-23T01:05:03.776Z</time>
      </trkpt>
      <trkpt lat="52.324572" lon="6.337300">
        <ele>8.543157</ele>
        <time>2026-04-23T01:05:10.625Z</time>
      </trkpt>
      <trkpt lat="52.324489" lon="6.337053">
        <ele>8.555139</ele>
        <time>2026-04-23T01:05:13.219Z</time>
      </trkpt>
      <trkpt lat="52.323472" lon="6.332463">
        <ele>8.989196</ele>
        <time>2026-04-23T01:05:59.651Z</time>
      </trkpt>
      <trkpt lat="52.323375" lon="6.332046">
        <ele>9.039429</ele>
        <time>2026-04-23T01:06:03.932Z</time>
      </trkpt>
      <trkpt lat="52.323370" lon="6.331972">
        <ele>9.047811</ele>
        <time>2026-04-23T01:06:04.679Z</time>
      </trkpt>
      <trkpt lat="52.323330" lon="6.331898">
        <ele>9.058933</ele>
        <time>2026-04-23T01:06:05.627Z</time>
      </trkpt>
      <trkpt lat="52.323212" lon="6.331815">
        <ele>9.082592</ele>
        <time>2026-04-23T01:06:07.709Z</time>
      </trkpt>
      <trkpt lat="52.323124" lon="6.331762">
        <ele>9.099865</ele>
        <time>2026-04-23T01:06:09.211Z</time>
      </trkpt>
      <trkpt lat="52.323080" lon="6.331743">
        <ele>9.108248</ele>
        <time>2026-04-23T01:06:09.941Z</time>
      </trkpt>
      <trkpt lat="52.323042" lon="6.331763">
        <ele>9.115600</ele>
        <time>2026-04-23T01:06:10.545Z</time>
      </trkpt>
      <trkpt lat="52.322975" lon="6.331649">
        <ele>9.133406</ele>
        <time>2026-04-23T01:06:12.113Z</time>
      </trkpt>
      <trkpt lat="52.322944" lon="6.331509">
        <ele>9.150171</ele>
        <time>2026-04-23T01:06:13.537Z</time>
      </trkpt>
      <trkpt lat="52.322964" lon="6.330728">
        <ele>9.238178</ele>
        <time>2026-04-23T01:06:21.059Z</time>
      </trkpt>
      <trkpt lat="52.322974" lon="6.330393">
        <ele>9.275939</ele>
        <time>2026-04-23T01:06:24.290Z</time>
      </trkpt>
      <trkpt lat="52.322926" lon="6.329952">
        <ele>9.316876</ele>
        <time>2026-04-23T01:06:28.532Z</time>
      </trkpt>
      <trkpt lat="52.321739" lon="6.324634">
        <ele>9.012691</ele>
        <time>2026-04-23T01:07:18.393Z</time>
      </trkpt>
      <trkpt lat="52.320732" lon="6.320047">
        <ele>8.780305</ele>
        <time>2026-04-23T01:08:01.836Z</time>
      </trkpt>
      <trkpt lat="52.319830" lon="6.315930">
        <ele>8.497636</ele>
        <time>2026-04-23T01:08:40.135Z</time>
      </trkpt>
      <trkpt lat="52.319730" lon="6.315530">
        <ele>8.492152</ele>
        <time>2026-04-23T01:08:43.946Z</time>
      </trkpt>
      <trkpt lat="52.319550" lon="6.314990">
        <ele>8.484348</ele>
        <time>2026-04-23T01:08:49.441Z</time>
      </trkpt>
      <trkpt lat="52.319450" lon="6.314810">
        <ele>8.481262</ele>
        <time>2026-04-23T01:08:51.633Z</time>
      </trkpt>
      <trkpt lat="52.318870" lon="6.314010">
        <ele>8.465514</ele>
        <time>2026-04-23T01:09:02.903Z</time>
      </trkpt>
      <trkpt lat="52.318520" lon="6.313630">
        <ele>8.524023</ele>
        <time>2026-04-23T01:09:09.288Z</time>
      </trkpt>
      <trkpt lat="52.317710" lon="6.312940">
        <ele>8.693391</ele>
        <time>2026-04-23T01:09:23.679Z</time>
      </trkpt>
      <trkpt lat="52.317190" lon="6.312600">
        <ele>8.797222</ele>
        <time>2026-04-23T01:09:32.464Z</time>
      </trkpt>
      <trkpt lat="52.316633" lon="6.312308">
        <ele>8.880863</ele>
        <time>2026-04-23T01:09:41.598Z</time>
      </trkpt>
      <trkpt lat="52.316090" lon="6.312118">
        <ele>8.960269</ele>
        <time>2026-04-23T01:09:50.098Z</time>
      </trkpt>
      <trkpt lat="52.315810" lon="6.311903">
        <ele>9.004501</ele>
        <time>2026-04-23T01:09:54.686Z</time>
      </trkpt>
      <trkpt lat="52.315706" lon="6.311777">
        <ele>9.023008</ele>
        <time>2026-04-23T01:09:56.589Z</time>
      </trkpt>
      <trkpt lat="52.315554" lon="6.311457">
        <ele>9.059620</ele>
        <time>2026-04-23T01:10:00.339Z</time>
      </trkpt>
      <trkpt lat="52.315354" lon="6.310688">
        <ele>9.153874</ele>
        <time>2026-04-23T01:10:08.524Z</time>
      </trkpt>
      <trkpt lat="52.315289" lon="6.310592">
        <ele>9.170030</ele>
        <time>2026-04-23T01:10:09.954Z</time>
      </trkpt>
      <trkpt lat="52.315180" lon="6.310530">
        <ele>9.191321</ele>
        <time>2026-04-23T01:10:11.837Z</time>
      </trkpt>
      <trkpt lat="52.315060" lon="6.310540">
        <ele>9.213489</ele>
        <time>2026-04-23T01:10:13.808Z</time>
      </trkpt>
      <trkpt lat="52.314336" lon="6.310780">
        <ele>9.349778</ele>
        <time>2026-04-23T01:10:25.605Z</time>
      </trkpt>
      <trkpt lat="52.314782" lon="6.305125">
        <ele>8.808292</ele>
        <time>2026-04-23T01:11:14.592Z</time>
      </trkpt>
      <trkpt lat="52.314895" lon="6.303654">
        <ele>8.654351</ele>
        <time>2026-04-23T01:11:28.145Z</time>
      </trkpt>
      <trkpt lat="52.314320" lon="6.303530">
        <ele>8.551933</ele>
        <time>2026-04-23T01:11:36.452Z</time>
      </trkpt>
      <trkpt lat="52.314180" lon="6.303420">
        <ele>8.524506</ele>
        <time>2026-04-23T01:11:38.583Z</time>
      </trkpt>
      <trkpt lat="52.313805" lon="6.301630">
        <ele>8.335568</ele>
        <time>2026-04-23T01:11:54.183Z</time>
      </trkpt>
      <trkpt lat="52.313693" lon="6.301376">
        <ele>8.306009</ele>
        <time>2026-04-23T01:11:56.853Z</time>
      </trkpt>
      <trkpt lat="52.312548" lon="6.300355">
        <ele>8.101841</ele>
        <time>2026-04-23T01:12:16.665Z</time>
      </trkpt>
      <trkpt lat="52.312314" lon="6.300203">
        <ele>8.061132</ele>
        <time>2026-04-23T01:12:20.339Z</time>
      </trkpt>
      <trkpt lat="52.312096" lon="6.300134">
        <ele>8.025231</ele>
        <time>2026-04-23T01:12:23.446Z</time>
      </trkpt>
      <trkpt lat="52.310852" lon="6.300090">
        <ele>7.926981</ele>
        <time>2026-04-23T01:12:40.357Z</time>
      </trkpt>
      <trkpt lat="52.310580" lon="6.299980">
        <ele>7.975565</ele>
        <time>2026-04-23T01:12:44.431Z</time>
      </trkpt>
      <trkpt lat="52.309351" lon="6.298689">
        <ele>8.252986</ele>
        <time>2026-04-23T01:13:08.467Z</time>
      </trkpt>
      <trkpt lat="52.308856" lon="6.298006">
        <ele>8.428013</ele>
        <time>2026-04-23T01:13:19.012Z</time>
      </trkpt>
      <trkpt lat="52.308508" lon="6.297388">
        <ele>8.566844</ele>
        <time>2026-04-23T01:13:27.209Z</time>
      </trkpt>
      <trkpt lat="52.308039" lon="6.296268">
        <ele>8.678654</ele>
        <time>2026-04-23T01:13:39.790Z</time>
      </trkpt>
      <trkpt lat="52.307696" lon="6.295323">
        <ele>8.689226</ele>
        <time>2026-04-23T01:13:49.805Z</time>
      </trkpt>
      <trkpt lat="52.307195" lon="6.293971">
        <ele>8.699999</ele>
        <time>2026-04-23T01:14:04.026Z</time>
      </trkpt>
      <trkpt lat="52.306845" lon="6.293027">
        <ele>8.699999</ele>
        <time>2026-04-23T01:14:14.039Z</time>
      </trkpt>
      <trkpt lat="52.306763" lon="6.292930">
        <ele>8.699999</ele>
        <time>2026-04-23T01:14:15.546Z</time>
      </trkpt>
      <trkpt lat="52.306759" lon="6.292772">
        <ele>8.699999</ele>
        <time>2026-04-23T01:14:16.978Z</time>
      </trkpt>
      <trkpt lat="52.305799" lon="6.289631">
        <ele>8.648113</ele>
        <time>2026-04-23T01:14:48.599Z</time>
      </trkpt>
      <trkpt lat="52.305460" lon="6.288603">
        <ele>8.544074</ele>
        <time>2026-04-23T01:14:59.144Z</time>
      </trkpt>
      <trkpt lat="52.304083" lon="6.281508">
        <ele>7.718782</ele>
        <time>2026-04-23T01:16:02.717Z</time>
      </trkpt>
      <trkpt lat="52.304004" lon="6.279146">
        <ele>7.811385</ele>
        <time>2026-04-23T01:16:26.113Z</time>
      </trkpt>
      <trkpt lat="52.303843" lon="6.273467">
        <ele>7.651740</ele>
        <time>2026-04-23T01:17:15.908Z</time>
      </trkpt>
      <trkpt lat="52.303769" lon="6.271017">
        <ele>7.575562</ele>
        <time>2026-04-23T01:17:38.314Z</time>
      </trkpt>
      <trkpt lat="52.303664" lon="6.270644">
        <ele>7.565357</ele>
        <time>2026-04-23T01:17:42.016Z</time>
      </trkpt>
      <trkpt lat="52.303652" lon="6.270123">
        <ele>7.552399</ele>
        <time>2026-04-23T01:17:46.702Z</time>
      </trkpt>
      <trkpt lat="52.303662" lon="6.270037">
        <ele>7.550223</ele>
        <time>2026-04-23T01:17:47.793Z</time>
      </trkpt>
      <trkpt lat="52.302951" lon="6.269693">
        <ele>7.513817</ele>
        <time>2026-04-23T01:17:58.631Z</time>
      </trkpt>
      <trkpt lat="52.302594" lon="6.269405">
        <ele>7.482736</ele>
        <time>2026-04-23T01:18:04.305Z</time>
      </trkpt>
      <trkpt lat="52.302389" lon="6.269192">
        <ele>7.463773</ele>
        <time>2026-04-23T01:18:07.702Z</time>
      </trkpt>
      <trkpt lat="52.301920" lon="6.268548">
        <ele>7.415958</ele>
        <time>2026-04-23T01:18:16.492Z</time>
      </trkpt>
      <trkpt lat="52.301431" lon="6.267755">
        <ele>7.356083</ele>
        <time>2026-04-23T01:18:26.803Z</time>
      </trkpt>
      <trkpt lat="52.300956" lon="6.266890">
        <ele>7.286613</ele>
        <time>2026-04-23T01:18:37.234Z</time>
      </trkpt>
      <trkpt lat="52.300744" lon="6.266465">
        <ele>7.253839</ele>
        <time>2026-04-23T01:18:43.893Z</time>
      </trkpt>
      <trkpt lat="52.300651" lon="6.266177">
        <ele>7.234377</ele>
        <time>2026-04-23T01:18:47.817Z</time>
      </trkpt>
      <trkpt lat="52.300338" lon="6.265657">
        <ele>7.195289</ele>
        <time>2026-04-23T01:18:56.496Z</time>
      </trkpt>
      <trkpt lat="52.299830" lon="6.264887">
        <ele>7.142931</ele>
        <time>2026-04-23T01:19:09.765Z</time>
      </trkpt>
      <trkpt lat="52.298615" lon="6.263631">
        <ele>7.213642</ele>
        <time>2026-04-23T01:19:39.212Z</time>
      </trkpt>
      <trkpt lat="52.298409" lon="6.263386">
        <ele>7.279733</ele>
        <time>2026-04-23T01:19:44.757Z</time>
      </trkpt>
      <trkpt lat="52.297856" lon="6.262647">
        <ele>7.465034</ele>
        <time>2026-04-23T01:20:00.263Z</time>
      </trkpt>
      <trkpt lat="52.297695" lon="6.262328">
        <ele>7.530662</ele>
        <time>2026-04-23T01:20:05.756Z</time>
      </trkpt>
      <trkpt lat="52.297023" lon="6.261418">
        <ele>7.649741</ele>
        <time>2026-04-23T01:20:24.419Z</time>
      </trkpt>
      <trkpt lat="52.296396" lon="6.260553">
        <ele>7.756668</ele>
        <time>2026-04-23T01:20:41.101Z</time>
      </trkpt>
      <trkpt lat="52.296263" lon="6.260449">
        <ele>7.775820</ele>
        <time>2026-04-23T01:20:44.057Z</time>
      </trkpt>
      <trkpt lat="52.295504" lon="6.259568">
        <ele>7.615972</ele>
        <time>2026-04-23T01:21:02.514Z</time>
      </trkpt>
      <trkpt lat="52.295383" lon="6.259359">
        <ele>7.585746</ele>
        <time>2026-04-23T01:21:05.944Z</time>
      </trkpt>
      <trkpt lat="52.295297" lon="6.258980">
        <ele>7.543289</ele>
        <time>2026-04-23T01:21:10.772Z</time>
      </trkpt>
      <trkpt lat="52.295142" lon="6.258751">
        <ele>7.507413</ele>
        <time>2026-04-23T01:21:14.788Z</time>
      </trkpt>
      <trkpt lat="52.294891" lon="6.258132">
        <ele>7.376507</ele>
        <time>2026-04-23T01:21:23.351Z</time>
      </trkpt>
      <trkpt lat="52.294776" lon="6.257727">
        <ele>7.263564</ele>
        <time>2026-04-23T01:21:28.471Z</time>
      </trkpt>
      <trkpt lat="52.294685" lon="6.257517">
        <ele>7.198465</ele>
        <time>2026-04-23T01:21:31.432Z</time>
      </trkpt>
      <trkpt lat="52.294576" lon="6.257388">
        <ele>7.142815</ele>
        <time>2026-04-23T01:21:33.965Z</time>
      </trkpt>
      <trkpt lat="52.294263" lon="6.256646">
        <ele>6.914819</ele>
        <time>2026-04-23T01:21:44.277Z</time>
      </trkpt>
      <trkpt lat="52.294031" lon="6.256205">
        <ele>6.767682</ele>
        <time>2026-04-23T01:21:50.857Z</time>
      </trkpt>
      <trkpt lat="52.294063" lon="6.256105">
        <ele>6.739135</ele>
        <time>2026-04-23T01:21:52.651Z</time>
      </trkpt>
      <trkpt lat="52.294306" lon="6.252880">
        <ele>6.285926</ele>
        <time>2026-04-23T01:22:45.820Z</time>
      </trkpt>
      <trkpt lat="52.294488" lon="6.250717">
        <ele>6.598309</ele>
        <time>2026-04-23T01:23:24.693Z</time>
      </trkpt>
      <trkpt lat="52.294544" lon="6.250495">
        <ele>6.632667</ele>
        <time>2026-04-23T01:23:29.049Z</time>
      </trkpt>
      <trkpt lat="52.294566" lon="6.250087">
        <ele>6.674894</ele>
        <time>2026-04-23T01:23:36.354Z</time>
      </trkpt>
      <trkpt lat="52.294600" lon="6.250035">
        <ele>6.676714</ele>
        <time>2026-04-23T01:23:37.710Z</time>
      </trkpt>
      <trkpt lat="52.295302" lon="6.250034">
        <ele>6.704150</ele>
        <time>2026-04-23T01:23:57.431Z</time>
      </trkpt>
      <trkpt lat="52.295334" lon="6.250005">
        <ele>6.705580</ele>
        <time>2026-04-23T01:23:58.428Z</time>
      </trkpt>
      <trkpt lat="52.295420" lon="6.248087">
        <ele>6.761530</ele>
        <time>2026-04-23T01:24:30.670Z</time>
      </trkpt>
      <trkpt lat="52.295428" lon="6.247908">
        <ele>6.770261</ele>
        <time>2026-04-23T01:24:33.740Z</time>
      </trkpt>
      <trkpt lat="52.295470" lon="6.247797">
        <ele>6.776611</ele>
        <time>2026-04-23T01:24:35.986Z</time>
      </trkpt>
      <trkpt lat="52.295535" lon="6.247732">
        <ele>6.782672</ele>
        <time>2026-04-23T01:24:38.152Z</time>
      </trkpt>
      <trkpt lat="52.296339" lon="6.246391">
        <ele>6.874028</ele>
        <time>2026-04-23T01:25:11.268Z</time>
      </trkpt>
      <trkpt lat="52.296391" lon="6.246287">
        <ele>6.880562</ele>
        <time>2026-04-23T01:25:13.557Z</time>
      </trkpt>
      <trkpt lat="52.296647" lon="6.245582">
        <ele>6.637168</ele>
        <time>2026-04-23T01:25:27.173Z</time>
      </trkpt>
      <trkpt lat="52.296753" lon="6.245087">
        <ele>6.458924</ele>
        <time>2026-04-23T01:25:32.997Z</time>
      </trkpt>
      <trkpt lat="52.296775" lon="6.244987">
        <ele>6.422806</ele>
        <time>2026-04-23T01:25:34.164Z</time>
      </trkpt>
      <trkpt lat="52.296430" lon="6.244552">
        <ele>6.180705</ele>
        <time>2026-04-23T01:25:41.876Z</time>
      </trkpt>
      <trkpt lat="52.296117" lon="6.244137">
        <ele>5.956769</ele>
        <time>2026-04-23T01:25:48.868Z</time>
      </trkpt>
      <trkpt lat="52.294987" lon="6.242516">
        <ele>5.228502</ele>
        <time>2026-04-23T01:26:08.393Z</time>
      </trkpt>
      <trkpt lat="52.291962" lon="6.237771">
        <ele>4.987502</ele>
        <time>2026-04-23T01:27:10.038Z</time>
      </trkpt>
      <trkpt lat="52.291466" lon="6.237062">
        <ele>5.123239</ele>
        <time>2026-04-23T01:27:20.628Z</time>
      </trkpt>
      <trkpt lat="52.290809" lon="6.236216">
        <ele>5.295538</ele>
        <time>2026-04-23T01:27:34.047Z</time>
      </trkpt>
      <trkpt lat="52.290530" lon="6.235891">
        <ele>5.358160</ele>
        <time>2026-04-23T01:27:39.400Z</time>
      </trkpt>
      <trkpt lat="52.290403" lon="6.235802">
        <ele>5.381394</ele>
        <time>2026-04-23T01:27:41.547Z</time>
      </trkpt>
      <trkpt lat="52.290349" lon="6.235655">
        <ele>5.399030</ele>
        <time>2026-04-23T01:27:43.175Z</time>
      </trkpt>
      <trkpt lat="52.290044" lon="6.235269">
        <ele>5.463885</ele>
        <time>2026-04-23T01:27:49.121Z</time>
      </trkpt>
      <trkpt lat="52.289699" lon="6.234857">
        <ele>5.535724</ele>
        <time>2026-04-23T01:27:55.670Z</time>
      </trkpt>
      <trkpt lat="52.289470" lon="6.234639">
        <ele>5.580282</ele>
        <time>2026-04-23T01:27:59.726Z</time>
      </trkpt>
      <trkpt lat="52.289262" lon="6.234341">
        <ele>5.627577</ele>
        <time>2026-04-23T01:28:03.983Z</time>
      </trkpt>
      <trkpt lat="52.288936" lon="6.233999">
        <ele>5.726800</ele>
        <time>2026-04-23T01:28:10.061Z</time>
      </trkpt>
      <trkpt lat="52.288873" lon="6.233879">
        <ele>5.751578</ele>
        <time>2026-04-23T01:28:11.591Z</time>
      </trkpt>
      <trkpt lat="52.288359" lon="6.233251">
        <ele>5.915951</ele>
        <time>2026-04-23T01:28:21.986Z</time>
      </trkpt>
      <trkpt lat="52.287966" lon="6.232852">
        <ele>6.034455</ele>
        <time>2026-04-23T01:28:29.357Z</time>
      </trkpt>
      <trkpt lat="52.287433" lon="6.232203">
        <ele>6.091184</ele>
        <time>2026-04-23T01:28:39.607Z</time>
      </trkpt>
      <trkpt lat="52.287323" lon="6.232062">
        <ele>6.092744</ele>
        <time>2026-04-23T01:28:41.774Z</time>
      </trkpt>
      <trkpt lat="52.287376" lon="6.231913">
        <ele>6.093920</ele>
        <time>2026-04-23T01:28:43.397Z</time>
      </trkpt>
      <trkpt lat="52.287413" lon="6.231816">
        <ele>6.094700</ele>
        <time>2026-04-23T01:28:44.482Z</time>
      </trkpt>
      <trkpt lat="52.287454" lon="6.231710">
        <ele>6.095557</ele>
        <time>2026-04-23T01:28:46.085Z</time>
      </trkpt>
      <trkpt lat="52.287453" lon="6.231574">
        <ele>6.096485</ele>
        <time>2026-04-23T01:28:47.836Z</time>
      </trkpt>
      <trkpt lat="52.287338" lon="6.231429">
        <ele>6.098106</ele>
        <time>2026-04-23T01:28:50.850Z</time>
      </trkpt>
      <trkpt lat="52.286797" lon="6.230209">
        <ele>6.028585</ele>
        <time>2026-04-23T01:29:08.774Z</time>
      </trkpt>
      <trkpt lat="52.286689" lon="6.229917">
        <ele>5.950329</ele>
        <time>2026-04-23T01:29:12.769Z</time>
      </trkpt>
      <trkpt lat="52.285568" lon="6.225942">
        <ele>5.240784</ele>
        <time>2026-04-23T01:30:03.191Z</time>
      </trkpt>
      <trkpt lat="52.285414" lon="6.225727">
        <ele>5.210905</ele>
        <time>2026-04-23T01:30:07.614Z</time>
      </trkpt>
      <trkpt lat="52.285201" lon="6.225043">
        <ele>5.192551</ele>
        <time>2026-04-23T01:30:18.015Z</time>
      </trkpt>
      <trkpt lat="52.285176" lon="6.224933">
        <ele>5.203751</ele>
        <time>2026-04-23T01:30:19.612Z</time>
      </trkpt>
      <trkpt lat="52.285179" lon="6.224817">
        <ele>5.214832</ele>
        <time>2026-04-23T01:30:21.217Z</time>
      </trkpt>
      <trkpt lat="52.285178" lon="6.224552">
        <ele>5.240124</ele>
        <time>2026-04-23T01:30:24.898Z</time>
      </trkpt>
      <trkpt lat="52.284009" lon="6.220355">
        <ele>5.466484</ele>
        <time>2026-04-23T01:31:22.205Z</time>
      </trkpt>
      <trkpt lat="52.283853" lon="6.219905">
        <ele>5.469524</ele>
        <time>2026-04-23T01:31:28.565Z</time>
      </trkpt>
      <trkpt lat="52.283705" lon="6.219507">
        <ele>5.449250</ele>
        <time>2026-04-23T01:31:34.254Z</time>
      </trkpt>
      <trkpt lat="52.283529" lon="6.219182">
        <ele>5.430356</ele>
        <time>2026-04-23T01:31:39.562Z</time>
      </trkpt>
      <trkpt lat="52.283415" lon="6.219005">
        <ele>5.419169</ele>
        <time>2026-04-23T01:31:42.717Z</time>
      </trkpt>
      <trkpt lat="52.283259" lon="6.218838">
        <ele>5.405900</ele>
        <time>2026-04-23T01:31:46.502Z</time>
      </trkpt>
      <trkpt lat="52.283161" lon="6.218767">
        <ele>5.398272</ele>
        <time>2026-04-23T01:31:48.100Z</time>
      </trkpt>
      <trkpt lat="52.283083" lon="6.218759">
        <ele>5.392711</ele>
        <time>2026-04-23T01:31:49.243Z</time>
      </trkpt>
      <trkpt lat="52.282767" lon="6.218881">
        <ele>5.369608</ele>
        <time>2026-04-23T01:31:53.929Z</time>
      </trkpt>
      <trkpt lat="52.282687" lon="6.218789">
        <ele>5.362648</ele>
        <time>2026-04-23T01:31:55.308Z</time>
      </trkpt>
      <trkpt lat="52.282608" lon="6.218667">
        <ele>5.354915</ele>
        <time>2026-04-23T01:31:56.830Z</time>
      </trkpt>
      <trkpt lat="52.282565" lon="6.218559">
        <ele>5.349305</ele>
        <time>2026-04-23T01:31:57.938Z</time>
      </trkpt>
      <trkpt lat="52.282569" lon="6.218176">
        <ele>5.338183</ele>
        <time>2026-04-23T01:32:01.268Z</time>
      </trkpt>
      <trkpt lat="52.282486" lon="6.217964">
        <ele>5.333417</ele>
        <time>2026-04-23T01:32:03.490Z</time>
      </trkpt>
      <trkpt lat="52.281981" lon="6.217354">
        <ele>5.313984</ele>
        <time>2026-04-23T01:32:16.352Z</time>
      </trkpt>
      <trkpt lat="52.281049" lon="6.216341">
        <ele>5.270967</ele>
        <time>2026-04-23T01:32:38.963Z</time>
      </trkpt>
      <trkpt lat="52.280294" lon="6.215501">
        <ele>5.210896</ele>
        <time>2026-04-23T01:32:57.036Z</time>
      </trkpt>
      <trkpt lat="52.279553" lon="6.214680">
        <ele>5.165162</ele>
        <time>2026-04-23T01:33:14.847Z</time>
      </trkpt>
      <trkpt lat="52.279360" lon="6.214285">
        <ele>5.161054</ele>
        <time>2026-04-23T01:33:21.208Z</time>
      </trkpt>
      <trkpt lat="52.279049" lon="6.213495">
        <ele>5.153420</ele>
        <time>2026-04-23T01:33:33.069Z</time>
      </trkpt>
      <trkpt lat="52.275669" lon="6.205131">
        <ele>4.738959</ele>
        <time>2026-04-23T01:35:34.980Z</time>
      </trkpt>
      <trkpt lat="52.275465" lon="6.204809">
        <ele>4.786616</ele>
        <time>2026-04-23T01:35:40.734Z</time>
      </trkpt>
      <trkpt lat="52.275240" lon="6.204584">
        <ele>4.830939</ele>
        <time>2026-04-23T01:35:46.167Z</time>
      </trkpt>
      <trkpt lat="52.275210" lon="6.204487">
        <ele>4.842114</ele>
        <time>2026-04-23T01:35:47.556Z</time>
      </trkpt>
      <trkpt lat="52.275187" lon="6.204102">
        <ele>4.881886</ele>
        <time>2026-04-23T01:35:52.537Z</time>
      </trkpt>
      <trkpt lat="52.275090" lon="6.203690">
        <ele>4.927274</ele>
        <time>2026-04-23T01:35:58.286Z</time>
      </trkpt>
      <trkpt lat="52.274792" lon="6.202956">
        <ele>5.017843</ele>
        <time>2026-04-23T01:36:09.768Z</time>
      </trkpt>
      <trkpt lat="52.273563" lon="6.199883">
        <ele>5.371290</ele>
        <time>2026-04-23T01:36:57.580Z</time>
      </trkpt>
      <trkpt lat="52.273170" lon="6.198963">
        <ele>5.237536</ele>
        <time>2026-04-23T01:37:10.464Z</time>
      </trkpt>
      <trkpt lat="52.273025" lon="6.198727">
        <ele>5.197667</ele>
        <time>2026-04-23T01:37:14.195Z</time>
      </trkpt>
      <trkpt lat="52.272866" lon="6.198566">
        <ele>5.161226</ele>
        <time>2026-04-23T01:37:16.661Z</time>
      </trkpt>
      <trkpt lat="52.272870" lon="6.198490">
        <ele>5.152133</ele>
        <time>2026-04-23T01:37:17.288Z</time>
      </trkpt>
      <trkpt lat="52.272914" lon="6.198406">
        <ele>5.138951</ele>
        <time>2026-04-23T01:37:18.201Z</time>
      </trkpt>
      <trkpt lat="52.272974" lon="6.198289">
        <ele>5.120753</ele>
        <time>2026-04-23T01:37:19.490Z</time>
      </trkpt>
      <trkpt lat="52.272632" lon="6.197935">
        <ele>5.158588</ele>
        <time>2026-04-23T01:37:25.348Z</time>
      </trkpt>
      <trkpt lat="52.272529" lon="6.197866">
        <ele>5.184366</ele>
        <time>2026-04-23T01:37:27.044Z</time>
      </trkpt>
      <trkpt lat="52.272442" lon="6.197864">
        <ele>5.204516</ele>
        <time>2026-04-23T01:37:28.344Z</time>
      </trkpt>
      <trkpt lat="52.272166" lon="6.197626">
        <ele>5.276784</ele>
        <time>2026-04-23T01:37:33.207Z</time>
      </trkpt>
      <trkpt lat="52.272083" lon="6.197560">
        <ele>5.298160</ele>
        <time>2026-04-23T01:37:34.693Z</time>
      </trkpt>
      <trkpt lat="52.271913" lon="6.197433">
        <ele>5.341446</ele>
        <time>2026-04-23T01:37:37.653Z</time>
      </trkpt>
      <trkpt lat="52.271562" lon="6.197286">
        <ele>5.425357</ele>
        <time>2026-04-23T01:37:43.576Z</time>
      </trkpt>
      <trkpt lat="52.271292" lon="6.197168">
        <ele>5.490081</ele>
        <time>2026-04-23T01:37:48.497Z</time>
      </trkpt>
      <trkpt lat="52.270646" lon="6.196860">
        <ele>5.799100</ele>
        <time>2026-04-23T01:38:00.003Z</time>
      </trkpt>
      <trkpt lat="52.270272" lon="6.196698">
        <ele>5.990988</ele>
        <time>2026-04-23T01:38:06.406Z</time>
      </trkpt>
      <trkpt lat="52.270085" lon="6.196547">
        <ele>6.094434</ele>
        <time>2026-04-23T01:38:09.916Z</time>
      </trkpt>
      <trkpt lat="52.269887" lon="6.196285">
        <ele>6.220787</ele>
        <time>2026-04-23T01:38:14.237Z</time>
      </trkpt>
      <trkpt lat="52.269167" lon="6.194831">
        <ele>6.911177</ele>
        <time>2026-04-23T01:38:33.130Z</time>
      </trkpt>
      <trkpt lat="52.268771" lon="6.194003">
        <ele>7.331871</ele>
        <time>2026-04-23T01:38:44.966Z</time>
      </trkpt>
      <trkpt lat="52.268698" lon="6.194110">
        <ele>7.396023</ele>
        <time>2026-04-23T01:38:47.288Z</time>
      </trkpt>
      <trkpt lat="52.268524" lon="6.194317">
        <ele>7.536820</ele>
        <time>2026-04-23T01:38:52.396Z</time>
      </trkpt>
      <trkpt lat="52.268474" lon="6.194229">
        <ele>7.581025</ele>
        <time>2026-04-23T01:38:54.116Z</time>
      </trkpt>
      <trkpt lat="52.268305" lon="6.193940">
        <ele>7.603421</ele>
        <time>2026-04-23T01:38:59.831Z</time>
      </trkpt>
      <trkpt lat="52.268190" lon="6.193823">
        <ele>7.615824</ele>
        <time>2026-04-23T01:39:02.931Z</time>
      </trkpt>
      <trkpt lat="52.268099" lon="6.193767">
        <ele>7.624727</ele>
        <time>2026-04-23T01:39:05.131Z</time>
      </trkpt>
      <trkpt lat="52.267914" lon="6.193763">
        <ele>7.641666</ele>
        <time>2026-04-23T01:39:09.265Z</time>
      </trkpt>
      <trkpt lat="52.267809" lon="6.193783">
        <ele>7.651345</ele>
        <time>2026-04-23T01:39:11.614Z</time>
      </trkpt>
      <trkpt lat="52.267786" lon="6.193079">
        <ele>7.690846</ele>
        <time>2026-04-23T01:39:20.471Z</time>
      </trkpt>
      <trkpt lat="52.267718" lon="6.192665">
        <ele>7.714863</ele>
        <time>2026-04-23T01:39:25.363Z</time>
      </trkpt>
      <trkpt lat="52.267589" lon="6.192473">
        <ele>7.730839</ele>
        <time>2026-04-23T01:39:28.489Z</time>
      </trkpt>
      <trkpt lat="52.267266" lon="6.191740">
        <ele>7.494078</ele>
        <time>2026-04-23T01:39:38.304Z</time>
      </trkpt>
      <trkpt lat="52.267138" lon="6.191239">
        <ele>7.284185</ele>
        <time>2026-04-23T01:39:44.222Z</time>
      </trkpt>
      <trkpt lat="52.266890" lon="6.190263">
        <ele>6.875621</ele>
        <time>2026-04-23T01:39:56.029Z</time>
      </trkpt>
      <trkpt lat="52.266851" lon="6.190217">
        <ele>6.845235</ele>
        <time>2026-04-23T01:39:56.924Z</time>
      </trkpt>
      <trkpt lat="52.266767" lon="6.190195">
        <ele>6.791492</ele>
        <time>2026-04-23T01:39:58.501Z</time>
      </trkpt>
      <trkpt lat="52.266813" lon="6.189608">
        <ele>6.571341</ele>
        <time>2026-04-23T01:40:03.332Z</time>
      </trkpt>
      <trkpt lat="52.265920" lon="6.189477">
        <ele>6.111108</ele>
        <time>2026-04-23T01:40:15.062Z</time>
      </trkpt>
      <trkpt lat="52.265076" lon="6.189376">
        <ele>5.683400</ele>
        <time>2026-04-23T01:40:26.118Z</time>
      </trkpt>
      <trkpt lat="52.265030" lon="6.189370">
        <ele>5.677662</ele>
        <time>2026-04-23T01:40:26.725Z</time>
      </trkpt>
      <trkpt lat="52.263921" lon="6.189223">
        <ele>5.539311</ele>
        <time>2026-04-23T01:40:42.266Z</time>
      </trkpt>
      <trkpt lat="52.263475" lon="6.189212">
        <ele>5.483847</ele>
        <time>2026-04-23T01:40:49.290Z</time>
      </trkpt>
      <trkpt lat="52.263006" lon="6.189292">
        <ele>5.550670</ele>
        <time>2026-04-23T01:40:56.743Z</time>
      </trkpt>
      <trkpt lat="52.262749" lon="6.189311">
        <ele>5.628110</ele>
        <time>2026-04-23T01:41:00.835Z</time>
      </trkpt>
      <trkpt lat="52.261532" lon="6.188891">
        <ele>6.002530</ele>
        <time>2026-04-23T01:41:20.951Z</time>
      </trkpt>
      <trkpt lat="52.261500" lon="6.188876">
        <ele>6.012127</ele>
        <time>2026-04-23T01:41:21.498Z</time>
      </trkpt>
      <trkpt lat="52.260174" lon="6.188170">
        <ele>6.412673</ele>
        <time>2026-04-23T01:41:43.994Z</time>
      </trkpt>
      <trkpt lat="52.260079" lon="6.188191">
        <ele>6.440206</ele>
        <time>2026-04-23T01:41:45.499Z</time>
      </trkpt>
      <trkpt lat="52.260022" lon="6.188083">
        <ele>6.465275</ele>
        <time>2026-04-23T01:41:46.824Z</time>
      </trkpt>
      <trkpt lat="52.259945" lon="6.188019">
        <ele>6.490088</ele>
        <time>2026-04-23T01:41:48.159Z</time>
      </trkpt>
      <trkpt lat="52.259880" lon="6.188004">
        <ele>6.508941</ele>
        <time>2026-04-23T01:41:49.129Z</time>
      </trkpt>
      <trkpt lat="52.259759" lon="6.188071">
        <ele>6.543904</ele>
        <time>2026-04-23T01:41:51.050Z</time>
      </trkpt>
      <trkpt lat="52.260152" lon="6.185001">
        <ele>7.085312</ele>
        <time>2026-04-23T01:42:21.506Z</time>
      </trkpt>
      <trkpt lat="52.260178" lon="6.184525">
        <ele>7.201314</ele>
        <time>2026-04-23T01:42:26.648Z</time>
      </trkpt>
      <trkpt lat="52.260220" lon="6.183831">
        <ele>7.370596</ele>
        <time>2026-04-23T01:42:34.046Z</time>
      </trkpt>
      <trkpt lat="52.260282" lon="6.183094">
        <ele>7.551175</ele>
        <time>2026-04-23T01:42:41.830Z</time>
      </trkpt>
      <trkpt lat="52.260340" lon="6.181417">
        <ele>7.548062</ele>
        <time>2026-04-23T01:42:57.451Z</time>
      </trkpt>
      <trkpt lat="52.260306" lon="6.181034">
        <ele>7.483735</ele>
        <time>2026-04-23T01:43:00.763Z</time>
      </trkpt>
      <trkpt lat="52.260259" lon="6.180806">
        <ele>7.443746</ele>
        <time>2026-04-23T01:43:02.746Z</time>
      </trkpt>
      <trkpt lat="52.260029" lon="6.180012">
        <ele>7.297737</ele>
        <time>2026-04-23T01:43:09.755Z</time>
      </trkpt>
      <trkpt lat="52.259976" lon="6.179813">
        <ele>7.261664</ele>
        <time>2026-04-23T01:43:11.475Z</time>
      </trkpt>
      <trkpt lat="52.259787" lon="6.179097">
        <ele>7.131029</ele>
        <time>2026-04-23T01:43:17.681Z</time>
      </trkpt>
      <trkpt lat="52.259716" lon="6.178483">
        <ele>7.026036</ele>
        <time>2026-04-23T01:43:22.647Z</time>
      </trkpt>
      <trkpt lat="52.259649" lon="6.177547">
        <ele>6.867691</ele>
        <time>2026-04-23T01:43:30.411Z</time>
      </trkpt>
      <trkpt lat="52.259578" lon="6.176574">
        <ele>6.752472</ele>
        <time>2026-04-23T01:43:40.089Z</time>
      </trkpt>
      <trkpt lat="52.259544" lon="6.176389">
        <ele>6.773846</ele>
        <time>2026-04-23T01:43:42.058Z</time>
      </trkpt>
      <trkpt lat="52.259294" lon="6.175638">
        <ele>6.868444</ele>
        <time>2026-04-23T01:43:50.652Z</time>
      </trkpt>
      <trkpt lat="52.259014" lon="6.174863">
        <ele>6.968028</ele>
        <time>2026-04-23T01:43:59.117Z</time>
      </trkpt>
      <trkpt lat="52.258830" lon="6.174333">
        <ele>7.035453</ele>
        <time>2026-04-23T01:44:04.880Z</time>
      </trkpt>
      <trkpt lat="52.258774" lon="6.174169">
        <ele>7.056234</ele>
        <time>2026-04-23T01:44:06.561Z</time>
      </trkpt>
      <trkpt lat="52.258561" lon="6.173327">
        <ele>7.159189</ele>
        <time>2026-04-23T01:44:14.496Z</time>
      </trkpt>
      <trkpt lat="52.258514" lon="6.173146">
        <ele>7.181415</ele>
        <time>2026-04-23T01:44:16.262Z</time>
      </trkpt>
      <trkpt lat="52.258467" lon="6.172949">
        <ele>7.205317</ele>
        <time>2026-04-23T01:44:18.213Z</time>
      </trkpt>
      <trkpt lat="52.258380" lon="6.172583">
        <ele>7.249702</ele>
        <time>2026-04-23T01:44:21.967Z</time>
      </trkpt>
      <trkpt lat="52.258274" lon="6.172166">
        <ele>7.300746</ele>
        <time>2026-04-23T01:44:26.512Z</time>
      </trkpt>
      <trkpt lat="52.258178" lon="6.171790">
        <ele>7.346801</ele>
        <time>2026-04-23T01:44:30.763Z</time>
      </trkpt>
      <trkpt lat="52.258028" lon="6.171241">
        <ele>7.433421</ele>
        <time>2026-04-23T01:44:36.897Z</time>
      </trkpt>
      <trkpt lat="52.257923" lon="6.170923">
        <ele>7.505280</ele>
        <time>2026-04-23T01:44:40.328Z</time>
      </trkpt>
      <trkpt lat="52.257807" lon="6.170605">
        <ele>7.578904</ele>
        <time>2026-04-23T01:44:43.894Z</time>
      </trkpt>
      <trkpt lat="52.257623" lon="6.170125">
        <ele>7.691543</ele>
        <time>2026-04-23T01:44:49.595Z</time>
      </trkpt>
      <trkpt lat="52.257543" lon="6.169917">
        <ele>7.740400</ele>
        <time>2026-04-23T01:44:52.097Z</time>
      </trkpt>
      <trkpt lat="52.257438" lon="6.169642">
        <ele>7.804861</ele>
        <time>2026-04-23T01:44:55.339Z</time>
      </trkpt>
      <trkpt lat="52.257270" lon="6.169028">
        <ele>7.938622</ele>
        <time>2026-04-23T01:45:01.859Z</time>
      </trkpt>
      <trkpt lat="52.257211" lon="6.168568">
        <ele>8.016271</ele>
        <time>2026-04-23T01:45:06.275Z</time>
      </trkpt>
      <trkpt lat="52.257201" lon="6.168440">
        <ele>8.034871</ele>
        <time>2026-04-23T01:45:07.462Z</time>
      </trkpt>
      <trkpt lat="52.257230" lon="6.167771">
        <ele>8.131543</ele>
        <time>2026-04-23T01:45:13.854Z</time>
      </trkpt>
      <trkpt lat="52.257304" lon="6.167150">
        <ele>8.222736</ele>
        <time>2026-04-23T01:45:19.904Z</time>
      </trkpt>
      <trkpt lat="52.257316" lon="6.166866">
        <ele>8.263769</ele>
        <time>2026-04-23T01:45:22.699Z</time>
      </trkpt>
      <trkpt lat="52.257327" lon="6.166310">
        <ele>8.343954</ele>
        <time>2026-04-23T01:45:28.104Z</time>
      </trkpt>
      <trkpt lat="52.257365" lon="6.165824">
        <ele>8.400995</ele>
        <time>2026-04-23T01:45:32.990Z</time>
      </trkpt>
      <trkpt lat="52.257373" lon="6.165785">
        <ele>8.402022</ele>
        <time>2026-04-23T01:45:33.387Z</time>
      </trkpt>
      <trkpt lat="52.257182" lon="6.165574">
        <ele>8.411431</ele>
        <time>2026-04-23T01:45:37.147Z</time>
      </trkpt>
      <trkpt lat="52.257142" lon="6.165439">
        <ele>8.415177</ele>
        <time>2026-04-23T01:45:38.620Z</time>
      </trkpt>
      <trkpt lat="52.257072" lon="6.165325">
        <ele>8.419210</ele>
        <time>2026-04-23T01:45:40.250Z</time>
      </trkpt>
      <trkpt lat="52.257032" lon="6.165259">
        <ele>8.421530</ele>
        <time>2026-04-23T01:45:41.147Z</time>
      </trkpt>
      <trkpt lat="52.256645" lon="6.164643">
        <ele>8.443578</ele>
        <time>2026-04-23T01:45:49.541Z</time>
      </trkpt>
      <trkpt lat="52.256262" lon="6.164042">
        <ele>8.465248</ele>
        <time>2026-04-23T01:45:56.973Z</time>
      </trkpt>
      <trkpt lat="52.255931" lon="6.163455">
        <ele>8.417938</ele>
        <time>2026-04-23T01:46:03.609Z</time>
      </trkpt>
      <trkpt lat="52.255705" lon="6.163232">
        <ele>8.375601</ele>
        <time>2026-04-23T01:46:06.997Z</time>
      </trkpt>
      <trkpt lat="52.255555" lon="6.163009">
        <ele>8.343080</ele>
        <time>2026-04-23T01:46:09.586Z</time>
      </trkpt>
      <trkpt lat="52.255517" lon="6.162914">
        <ele>8.331941</ele>
        <time>2026-04-23T01:46:10.510Z</time>
      </trkpt>
      <trkpt lat="52.255599" lon="6.162619">
        <ele>8.300139</ele>
        <time>2026-04-23T01:46:14.272Z</time>
      </trkpt>
      <trkpt lat="52.255642" lon="6.162498">
        <ele>8.286406</ele>
        <time>2026-04-23T01:46:15.932Z</time>
      </trkpt>
      <trkpt lat="52.255668" lon="6.162422">
        <ele>8.277860</ele>
        <time>2026-04-23T01:46:17.027Z</time>
      </trkpt>
      <trkpt lat="52.255842" lon="6.162105">
        <ele>8.236067</ele>
        <time>2026-04-23T01:46:22.406Z</time>
      </trkpt>
      <trkpt lat="52.255942" lon="6.161823">
        <ele>8.204078</ele>
        <time>2026-04-23T01:46:26.636Z</time>
      </trkpt>
      <trkpt lat="52.256011" lon="6.161418">
        <ele>8.253201</ele>
        <time>2026-04-23T01:46:32.366Z</time>
      </trkpt>
      <trkpt lat="52.256124" lon="6.160948">
        <ele>8.424144</ele>
        <time>2026-04-23T01:46:37.688Z</time>
      </trkpt>
      <trkpt lat="52.256304" lon="6.160492">
        <ele>8.607829</ele>
        <time>2026-04-23T01:46:43.478Z</time>
      </trkpt>
      <trkpt lat="52.256327" lon="6.160430">
        <ele>8.632371</ele>
        <time>2026-04-23T01:46:44.251Z</time>
      </trkpt>
      <trkpt lat="52.256360" lon="6.160323">
        <ele>8.672932</ele>
        <time>2026-04-23T01:46:45.605Z</time>
      </trkpt>
      <trkpt lat="52.256397" lon="6.160207">
        <ele>8.717213</ele>
        <time>2026-04-23T01:46:47.059Z</time>
      </trkpt>
      <trkpt lat="52.256425" lon="6.160099">
        <ele>8.756919</ele>
        <time>2026-04-23T01:46:48.385Z</time>
      </trkpt>
      <trkpt lat="52.256435" lon="6.160056">
        <ele>8.772490</ele>
        <time>2026-04-23T01:46:48.933Z</time>
      </trkpt>
      <trkpt lat="52.256549" lon="6.159763">
        <ele>8.890021</ele>
        <time>2026-04-23T01:46:52.776Z</time>
      </trkpt>
      <trkpt lat="52.256615" lon="6.159517">
        <ele>8.980947</ele>
        <time>2026-04-23T01:46:55.698Z</time>
      </trkpt>
      <trkpt lat="52.256639" lon="6.159231">
        <ele>9.078672</ele>
        <time>2026-04-23T01:46:58.690Z</time>
      </trkpt>
      <trkpt lat="52.256636" lon="6.158860">
        <ele>9.169985</ele>
        <time>2026-04-23T01:47:02.411Z</time>
      </trkpt>
      <trkpt lat="52.256635" lon="6.158763">
        <ele>9.160210</ele>
        <time>2026-04-23T01:47:03.310Z</time>
      </trkpt>
      <trkpt lat="52.256630" lon="6.158591">
        <ele>9.142860</ele>
        <time>2026-04-23T01:47:04.981Z</time>
      </trkpt>
      <trkpt lat="52.256628" lon="6.158061">
        <ele>9.089458</ele>
        <time>2026-04-23T01:47:09.961Z</time>
      </trkpt>
      <trkpt lat="52.256728" lon="6.157354">
        <ele>9.016345</ele>
        <time>2026-04-23T01:47:16.272Z</time>
      </trkpt>
      <trkpt lat="52.256801" lon="6.157079">
        <ele>8.986144</ele>
        <time>2026-04-23T01:47:18.738Z</time>
      </trkpt>
      <trkpt lat="52.256950" lon="6.156692">
        <ele>8.940079</ele>
        <time>2026-04-23T01:47:22.442Z</time>
      </trkpt>
      <trkpt lat="52.257080" lon="6.156456">
        <ele>8.908090</ele>
        <time>2026-04-23T01:47:24.977Z</time>
      </trkpt>
      <trkpt lat="52.257155" lon="6.156327">
        <ele>8.890164</ele>
        <time>2026-04-23T01:47:26.387Z</time>
      </trkpt>
      <trkpt lat="52.257173" lon="6.156303">
        <ele>8.886339</ele>
        <time>2026-04-23T01:47:26.686Z</time>
      </trkpt>
      <trkpt lat="52.257423" lon="6.155900">
        <ele>8.845030</ele>
        <time>2026-04-23T01:47:31.260Z</time>
      </trkpt>
      <trkpt lat="52.257520" lon="6.155637">
        <ele>8.823677</ele>
        <time>2026-04-23T01:47:33.726Z</time>
      </trkpt>
      <trkpt lat="52.257569" lon="6.155268">
        <ele>8.797420</ele>
        <time>2026-04-23T01:47:36.796Z</time>
      </trkpt>
      <trkpt lat="52.257564" lon="6.155062">
        <ele>8.783084</ele>
        <time>2026-04-23T01:47:38.488Z</time>
      </trkpt>
      <trkpt lat="52.257497" lon="6.154742">
        <ele>8.759566</ele>
        <time>2026-04-23T01:47:41.420Z</time>
      </trkpt>
      <trkpt lat="52.257238" lon="6.154125">
        <ele>8.707540</ele>
        <time>2026-04-23T01:47:48.764Z</time>
      </trkpt>
      <trkpt lat="52.257217" lon="6.154076">
        <ele>8.703380</ele>
        <time>2026-04-23T01:47:49.383Z</time>
      </trkpt>
      <trkpt lat="52.257052" lon="6.153425">
        <ele>8.691055</ele>
        <time>2026-04-23T01:47:56.816Z</time>
      </trkpt>
      <trkpt lat="52.257010" lon="6.152991">
        <ele>8.709069</ele>
        <time>2026-04-23T01:48:01.437Z</time>
      </trkpt>
      <trkpt lat="52.257012" lon="6.152614">
        <ele>8.724526</ele>
        <time>2026-04-23T01:48:05.184Z</time>
      </trkpt>
      <trkpt lat="52.257016" lon="6.152526">
        <ele>8.728143</ele>
        <time>2026-04-23T01:48:06.018Z</time>
      </trkpt>
      <trkpt lat="52.257136" lon="6.151164">
        <ele>8.784558</ele>
        <time>2026-04-23T01:48:18.023Z</time>
      </trkpt>
      <trkpt lat="52.257165" lon="6.151013">
        <ele>8.791046</ele>
        <time>2026-04-23T01:48:19.461Z</time>
      </trkpt>
      <trkpt lat="52.257286" lon="6.150510">
        <ele>8.700730</ele>
        <time>2026-04-23T01:48:23.940Z</time>
      </trkpt>
      <trkpt lat="52.257424" lon="6.150262">
        <ele>8.613346</ele>
        <time>2026-04-23T01:48:26.648Z</time>
      </trkpt>
      <trkpt lat="52.257454" lon="6.150216">
        <ele>8.595821</ele>
        <time>2026-04-23T01:48:27.197Z</time>
      </trkpt>
      <trkpt lat="52.257578" lon="6.150030">
        <ele>8.524118</ele>
        <time>2026-04-23T01:48:29.427Z</time>
      </trkpt>
      <trkpt lat="52.257659" lon="6.149914">
        <ele>8.478238</ele>
        <time>2026-04-23T01:48:30.846Z</time>
      </trkpt>
      <trkpt lat="52.257642" lon="6.149843">
        <ele>8.458361</ele>
        <time>2026-04-23T01:48:31.467Z</time>
      </trkpt>
      <trkpt lat="52.257618" lon="6.149748">
        <ele>8.431565</ele>
        <time>2026-04-23T01:48:32.299Z</time>
      </trkpt>
      <trkpt lat="52.257494" lon="6.149365">
        <ele>8.318600</ele>
        <time>2026-04-23T01:48:37.260Z</time>
      </trkpt>
      <trkpt lat="52.257312" lon="6.148980">
        <ele>8.191772</ele>
        <time>2026-04-23T01:48:43.245Z</time>
      </trkpt>
      <trkpt lat="52.256270" lon="6.147248">
        <ele>7.438264</ele>
        <time>2026-04-23T01:49:10.272Z</time>
      </trkpt>
      <trkpt lat="52.256199" lon="6.147073">
        <ele>7.369604</ele>
        <time>2026-04-23T01:49:12.497Z</time>
      </trkpt>
      <trkpt lat="52.256109" lon="6.146940">
        <ele>7.304767</ele>
        <time>2026-04-23T01:49:14.590Z</time>
      </trkpt>
      <trkpt lat="52.252808" lon="6.142099">
        <ele>6.405221</ele>
        <time>2026-04-23T01:50:17.353Z</time>
      </trkpt>
      <trkpt lat="52.252720" lon="6.141970">
        <ele>6.410355</ele>
        <time>2026-04-23T01:50:19.789Z</time>
      </trkpt>
      <trkpt lat="52.252628" lon="6.141902">
        <ele>6.414740</ele>
        <time>2026-04-23T01:50:21.889Z</time>
      </trkpt>
      <trkpt lat="52.250998" lon="6.139660">
        <ele>6.367350</ele>
        <time>2026-04-23T01:51:05.999Z</time>
      </trkpt>
      <trkpt lat="52.250661" lon="6.139280">
        <ele>6.324977</ele>
        <time>2026-04-23T01:51:13.990Z</time>
      </trkpt>
      <trkpt lat="52.250538" lon="6.139140">
        <ele>6.309464</ele>
        <time>2026-04-23T01:51:16.878Z</time>
      </trkpt>
      <trkpt lat="52.250281" lon="6.138707">
        <ele>6.234673</ele>
        <time>2026-04-23T01:51:23.848Z</time>
      </trkpt>
      <trkpt lat="52.248936" lon="6.136732">
        <ele>5.313693</ele>
        <time>2026-04-23T01:51:56.632Z</time>
      </trkpt>
      <trkpt lat="52.248001" lon="6.135300">
        <ele>5.565695</ele>
        <time>2026-04-23T01:52:15.904Z</time>
      </trkpt>
      <trkpt lat="52.247839" lon="6.135226">
        <ele>5.598767</ele>
        <time>2026-04-23T01:52:19.017Z</time>
      </trkpt>
      <trkpt lat="52.247804" lon="6.135179">
        <ele>5.607676</ele>
        <time>2026-04-23T01:52:19.861Z</time>
      </trkpt>
      <trkpt lat="52.247475" lon="6.134739">
        <ele>5.739247</ele>
        <time>2026-04-23T01:52:27.730Z</time>
      </trkpt>
      <trkpt lat="52.247268" lon="6.134540">
        <ele>5.840248</ele>
        <time>2026-04-23T01:52:32.208Z</time>
      </trkpt>
      <trkpt lat="52.247210" lon="6.134496">
        <ele>5.867139</ele>
        <time>2026-04-23T01:52:33.418Z</time>
      </trkpt>
      <trkpt lat="52.247102" lon="6.134378">
        <ele>5.921777</ele>
        <time>2026-04-23T01:52:35.870Z</time>
      </trkpt>
      <trkpt lat="52.247058" lon="6.134243">
        <ele>5.961151</ele>
        <time>2026-04-23T01:52:37.655Z</time>
      </trkpt>
      <trkpt lat="52.247065" lon="6.134127">
        <ele>5.991160</ele>
        <time>2026-04-23T01:52:38.996Z</time>
      </trkpt>
      <trkpt lat="52.247110" lon="6.133484">
        <ele>6.157780</ele>
        <time>2026-04-23T01:52:45.854Z</time>
      </trkpt>
      <trkpt lat="52.247120" lon="6.133345">
        <ele>6.193812</ele>
        <time>2026-04-23T01:52:47.159Z</time>
      </trkpt>
      <trkpt lat="52.247570" lon="6.126475">
        <ele>5.287501</ele>
        <time>2026-04-23T01:53:44.948Z</time>
      </trkpt>
      <trkpt lat="52.247675" lon="6.125617">
        <ele>5.342630</ele>
        <time>2026-04-23T01:53:52.669Z</time>
      </trkpt>
      <trkpt lat="52.247983" lon="6.123556">
        <ele>5.508788</ele>
        <time>2026-04-23T01:54:13.336Z</time>
      </trkpt>
      <trkpt lat="52.247986" lon="6.122673">
        <ele>5.670565</ele>
        <time>2026-04-23T01:54:22.465Z</time>
      </trkpt>
      <trkpt lat="52.247948" lon="6.121968">
        <ele>5.800228</ele>
        <time>2026-04-23T01:54:29.621Z</time>
      </trkpt>
      <trkpt lat="52.247798" lon="6.121094">
        <ele>5.966526</ele>
        <time>2026-04-23T01:54:38.507Z</time>
      </trkpt>
      <trkpt lat="52.247759" lon="6.120912">
        <ele>5.992884</ele>
        <time>2026-04-23T01:54:40.305Z</time>
      </trkpt>
      <trkpt lat="52.247655" lon="6.120537">
        <ele>5.912868</ele>
        <time>2026-04-23T01:54:44.050Z</time>
      </trkpt>
      <trkpt lat="52.247155" lon="6.118779">
        <ele>5.536106</ele>
        <time>2026-04-23T01:55:00.175Z</time>
      </trkpt>
      <trkpt lat="52.247003" lon="6.118156">
        <ele>5.406635</ele>
        <time>2026-04-23T01:55:05.523Z</time>
      </trkpt>
      <trkpt lat="52.246890" lon="6.117398">
        <ele>5.261428</ele>
        <time>2026-04-23T01:55:11.638Z</time>
      </trkpt>
      <trkpt lat="52.246892" lon="6.117253">
        <ele>5.234433</ele>
        <time>2026-04-23T01:55:12.773Z</time>
      </trkpt>
      <trkpt lat="52.246989" lon="6.117132">
        <ele>5.197328</ele>
        <time>2026-04-23T01:55:14.357Z</time>
      </trkpt>
      <trkpt lat="52.246981" lon="6.116979">
        <ele>5.168747</ele>
        <time>2026-04-23T01:55:15.563Z</time>
      </trkpt>
      <trkpt lat="52.246950" lon="6.116844">
        <ele>5.141910</ele>
        <time>2026-04-23T01:55:16.728Z</time>
      </trkpt>
      <trkpt lat="52.246841" lon="6.116798">
        <ele>5.107686</ele>
        <time>2026-04-23T01:55:18.236Z</time>
      </trkpt>
      <trkpt lat="52.246786" lon="6.116656">
        <ele>5.076411</ele>
        <time>2026-04-23T01:55:19.617Z</time>
      </trkpt>
      <trkpt lat="52.246636" lon="6.115752">
        <ele>4.902081</ele>
        <time>2026-04-23T01:55:27.967Z</time>
      </trkpt>
      <trkpt lat="52.246507" lon="6.115182">
        <ele>5.082463</ele>
        <time>2026-04-23T01:55:34.182Z</time>
      </trkpt>
      <trkpt lat="52.246309" lon="6.114644">
        <ele>5.343505</ele>
        <time>2026-04-23T01:55:41.200Z</time>
      </trkpt>
      <trkpt lat="52.246023" lon="6.114146">
        <ele>5.627453</ele>
        <time>2026-04-23T01:55:48.912Z</time>
      </trkpt>
      <trkpt lat="52.245709" lon="6.113755">
        <ele>5.895644</ele>
        <time>2026-04-23T01:55:56.127Z</time>
      </trkpt>
      <trkpt lat="52.245558" lon="6.113609">
        <ele>6.014831</ele>
        <time>2026-04-23T01:55:59.291Z</time>
      </trkpt>
      <trkpt lat="52.245059" lon="6.113168">
        <ele>6.221388</ele>
        <time>2026-04-23T01:56:09.225Z</time>
      </trkpt>
      <trkpt lat="52.244759" lon="6.112833">
        <ele>6.320517</ele>
        <time>2026-04-23T01:56:15.086Z</time>
      </trkpt>
      <trkpt lat="52.244445" lon="6.112352">
        <ele>6.437944</ele>
        <time>2026-04-23T01:56:21.483Z</time>
      </trkpt>
      <trkpt lat="52.244372" lon="6.112199">
        <ele>6.470340</ele>
        <time>2026-04-23T01:56:23.246Z</time>
      </trkpt>
      <trkpt lat="52.244143" lon="6.111831">
        <ele>6.557971</ele>
        <time>2026-04-23T01:56:28.103Z</time>
      </trkpt>
      <trkpt lat="52.243786" lon="6.111306">
        <ele>6.569564</ele>
        <time>2026-04-23T01:56:35.252Z</time>
      </trkpt>
      <trkpt lat="52.242927" lon="6.110386">
        <ele>6.504759</ele>
        <time>2026-04-23T01:56:50.189Z</time>
      </trkpt>
      <trkpt lat="52.242779" lon="6.110188">
        <ele>6.492690</ele>
        <time>2026-04-23T01:56:52.971Z</time>
      </trkpt>
      <trkpt lat="52.242657" lon="6.109939">
        <ele>6.480371</ele>
        <time>2026-04-23T01:56:55.817Z</time>
      </trkpt>
      <trkpt lat="52.242362" lon="6.108635">
        <ele>6.498796</ele>
        <time>2026-04-23T01:57:08.103Z</time>
      </trkpt>
      <trkpt lat="52.242058" lon="6.107042">
        <ele>6.525266</ele>
        <time>2026-04-23T01:57:23.686Z</time>
      </trkpt>
      <trkpt lat="52.241699" lon="6.105017">
        <ele>6.593824</ele>
        <time>2026-04-23T01:57:43.970Z</time>
      </trkpt>
      <trkpt lat="52.241685" lon="6.104936">
        <ele>6.596561</ele>
        <time>2026-04-23T01:57:44.709Z</time>
      </trkpt>
      <trkpt lat="52.241712" lon="6.104882">
        <ele>6.598829</ele>
        <time>2026-04-23T01:57:45.328Z</time>
      </trkpt>
      <trkpt lat="52.241727" lon="6.104712">
        <ele>6.604414</ele>
        <time>2026-04-23T01:57:46.819Z</time>
      </trkpt>
      <trkpt lat="52.241703" lon="6.104633">
        <ele>6.607282</ele>
        <time>2026-04-23T01:57:47.565Z</time>
      </trkpt>
      <trkpt lat="52.241637" lon="6.104559">
        <ele>6.611534</ele>
        <time>2026-04-23T01:57:48.670Z</time>
      </trkpt>
      <trkpt lat="52.241625" lon="6.104466">
        <ele>6.614625</ele>
        <time>2026-04-23T01:57:49.456Z</time>
      </trkpt>
      <trkpt lat="52.241392" lon="6.102489">
        <ele>6.290788</ele>
        <time>2026-04-23T01:58:05.971Z</time>
      </trkpt>
      <trkpt lat="52.241359" lon="6.102181">
        <ele>6.236799</ele>
        <time>2026-04-23T01:58:08.655Z</time>
      </trkpt>
      <trkpt lat="52.241195" lon="6.101337">
        <ele>6.115026</ele>
        <time>2026-04-23T01:58:16.469Z</time>
      </trkpt>
      <trkpt lat="52.241089" lon="6.100820">
        <ele>6.128159</ele>
        <time>2026-04-23T01:58:21.531Z</time>
      </trkpt>
      <trkpt lat="52.240847" lon="6.099619">
        <ele>6.158616</ele>
        <time>2026-04-23T01:58:33.506Z</time>
      </trkpt>
      <trkpt lat="52.240836" lon="6.099567">
        <ele>6.159941</ele>
        <time>2026-04-23T01:58:33.999Z</time>
      </trkpt>
      <trkpt lat="52.240724" lon="6.099029">
        <ele>6.173629</ele>
        <time>2026-04-23T01:58:39.127Z</time>
      </trkpt>
      <trkpt lat="52.240714" lon="6.098986">
        <ele>6.174737</ele>
        <time>2026-04-23T01:58:39.542Z</time>
      </trkpt>
      <trkpt lat="52.240630" lon="6.098638">
        <ele>6.178327</ele>
        <time>2026-04-23T01:58:42.881Z</time>
      </trkpt>
      <trkpt lat="52.240001" lon="6.096628">
        <ele>6.066722</ele>
        <time>2026-04-23T01:59:02.907Z</time>
      </trkpt>
      <trkpt lat="52.239973" lon="6.096534">
        <ele>6.061554</ele>
        <time>2026-04-23T01:59:03.826Z</time>
      </trkpt>
      <trkpt lat="52.239911" lon="6.096298">
        <ele>6.048857</ele>
        <time>2026-04-23T01:59:06.116Z</time>
      </trkpt>
      <trkpt lat="52.239850" lon="6.096014">
        <ele>6.031044</ele>
        <time>2026-04-23T01:59:08.823Z</time>
      </trkpt>
      <trkpt lat="52.239750" lon="6.095294">
        <ele>5.955886</ele>
        <time>2026-04-23T01:59:15.473Z</time>
      </trkpt>
      <trkpt lat="52.239694" lon="6.094614">
        <ele>5.886039</ele>
        <time>2026-04-23T01:59:21.504Z</time>
      </trkpt>
      <trkpt lat="52.239656" lon="6.093613">
        <ele>5.783941</ele>
        <time>2026-04-23T01:59:30.133Z</time>
      </trkpt>
      <trkpt lat="52.239665" lon="6.092798">
        <ele>5.688433</ele>
        <time>2026-04-23T01:59:37.113Z</time>
      </trkpt>
      <trkpt lat="52.239644" lon="6.092476">
        <ele>5.644238</ele>
        <time>2026-04-23T01:59:39.826Z</time>
      </trkpt>
      <trkpt lat="52.239631" lon="6.091699">
        <ele>5.538154</ele>
        <time>2026-04-23T01:59:46.275Z</time>
      </trkpt>
      <trkpt lat="52.239566" lon="6.090806">
        <ele>5.415420</ele>
        <time>2026-04-23T01:59:53.917Z</time>
      </trkpt>
      <trkpt lat="52.239481" lon="6.090251">
        <ele>5.337341</ele>
        <time>2026-04-23T01:59:59.032Z</time>
      </trkpt>
      <trkpt lat="52.239370" lon="6.089752">
        <ele>5.426952</ele>
        <time>2026-04-23T02:00:03.786Z</time>
      </trkpt>
      <trkpt lat="52.239214" lon="6.089237">
        <ele>5.525099</ele>
        <time>2026-04-23T02:00:09.065Z</time>
      </trkpt>
      <trkpt lat="52.238394" lon="6.086842">
        <ele>6.070349</ele>
        <time>2026-04-23T02:00:37.287Z</time>
      </trkpt>
      <trkpt lat="52.238251" lon="6.086334">
        <ele>6.212943</ele>
        <time>2026-04-23T02:00:43.199Z</time>
      </trkpt>
      <trkpt lat="52.238254" lon="6.086195">
        <ele>6.248416</ele>
        <time>2026-04-23T02:00:44.698Z</time>
      </trkpt>
      <trkpt lat="52.238332" lon="6.086013">
        <ele>6.305072</ele>
        <time>2026-04-23T02:00:47.007Z</time>
      </trkpt>
      <trkpt lat="52.238318" lon="6.085894">
        <ele>6.335977</ele>
        <time>2026-04-23T02:00:48.222Z</time>
      </trkpt>
      <trkpt lat="52.238291" lon="6.085800">
        <ele>6.362457</ele>
        <time>2026-04-23T02:00:49.295Z</time>
      </trkpt>
      <trkpt lat="52.238248" lon="6.085701">
        <ele>6.393412</ele>
        <time>2026-04-23T02:00:50.517Z</time>
      </trkpt>
      <trkpt lat="52.238041" lon="6.085582">
        <ele>6.484810</ele>
        <time>2026-04-23T02:00:54.015Z</time>
      </trkpt>
      <trkpt lat="52.237969" lon="6.085501">
        <ele>6.521223</ele>
        <time>2026-04-23T02:00:55.383Z</time>
      </trkpt>
      <trkpt lat="52.237656" lon="6.084698">
        <ele>6.549597</ele>
        <time>2026-04-23T02:01:04.169Z</time>
      </trkpt>
      <trkpt lat="52.237469" lon="6.084028">
        <ele>6.509020</ele>
        <time>2026-04-23T02:01:10.501Z</time>
      </trkpt>
      <trkpt lat="52.237362" lon="6.083482">
        <ele>6.477427</ele>
        <time>2026-04-23T02:01:15.480Z</time>
      </trkpt>
      <trkpt lat="52.237298" lon="6.083013">
        <ele>6.450946</ele>
        <time>2026-04-23T02:01:19.663Z</time>
      </trkpt>
      <trkpt lat="52.237259" lon="6.082408">
        <ele>6.398229</ele>
        <time>2026-04-23T02:01:24.980Z</time>
      </trkpt>
      <trkpt lat="52.237319" lon="6.081296">
        <ele>6.196307</ele>
        <time>2026-04-23T02:01:34.901Z</time>
      </trkpt>
      <trkpt lat="52.237536" lon="6.079233">
        <ele>5.766350</ele>
        <time>2026-04-23T02:01:52.201Z</time>
      </trkpt>
      <trkpt lat="52.237581" lon="6.078489">
        <ele>5.540831</ele>
        <time>2026-04-23T02:01:58.219Z</time>
      </trkpt>
      <trkpt lat="52.237764" lon="6.076932">
        <ele>5.062590</ele>
        <time>2026-04-23T02:02:10.924Z</time>
      </trkpt>
      <trkpt lat="52.238068" lon="6.075617">
        <ele>4.766916</ele>
        <time>2026-04-23T02:02:22.514Z</time>
      </trkpt>
      <trkpt lat="52.238340" lon="6.074747">
        <ele>4.574451</ele>
        <time>2026-04-23T02:02:30.798Z</time>
      </trkpt>
      <trkpt lat="52.238588" lon="6.073001">
        <ele>4.370586</ele>
        <time>2026-04-23T02:02:46.395Z</time>
      </trkpt>
      <trkpt lat="52.238609" lon="6.072728">
        <ele>4.355176</ele>
        <time>2026-04-23T02:02:48.825Z</time>
      </trkpt>
      <trkpt lat="52.238599" lon="6.072186">
        <ele>4.324804</ele>
        <time>2026-04-23T02:02:53.638Z</time>
      </trkpt>
      <trkpt lat="52.238514" lon="6.071617">
        <ele>4.292000</ele>
        <time>2026-04-23T02:02:58.865Z</time>
      </trkpt>
      <trkpt lat="52.238375" lon="6.070079">
        <ele>4.325815</ele>
        <time>2026-04-23T02:03:13.029Z</time>
      </trkpt>
      <trkpt lat="52.237878" lon="6.064415">
        <ele>4.645908</ele>
        <time>2026-04-23T02:04:06.716Z</time>
      </trkpt>
      <trkpt lat="52.237799" lon="6.063605">
        <ele>4.658466</ele>
        <time>2026-04-23T02:04:14.190Z</time>
      </trkpt>
      <trkpt lat="52.237359" lon="6.058493">
        <ele>4.686618</ele>
        <time>2026-04-23T02:05:00.857Z</time>
      </trkpt>
      <trkpt lat="52.237165" lon="6.056251">
        <ele>4.904129</ele>
        <time>2026-04-23T02:05:21.918Z</time>
      </trkpt>
      <trkpt lat="52.237157" lon="6.056074">
        <ele>4.953869</ele>
        <time>2026-04-23T02:05:23.730Z</time>
      </trkpt>
      <trkpt lat="52.237150" lon="6.055832">
        <ele>5.021767</ele>
        <time>2026-04-23T02:05:26.244Z</time>
      </trkpt>
      <trkpt lat="52.237092" lon="6.055465">
        <ele>5.127991</ele>
        <time>2026-04-23T02:05:30.230Z</time>
      </trkpt>
      <trkpt lat="52.237086" lon="6.055284">
        <ele>5.178792</ele>
        <time>2026-04-23T02:05:32.158Z</time>
      </trkpt>
      <trkpt lat="52.237076" lon="6.054835">
        <ele>5.304711</ele>
        <time>2026-04-23T02:05:36.996Z</time>
      </trkpt>
      <trkpt lat="52.236888" lon="6.052899">
        <ele>5.604258</ele>
        <time>2026-04-23T02:06:03.796Z</time>
      </trkpt>
      <trkpt lat="52.236819" lon="6.052316">
        <ele>5.588589</ele>
        <time>2026-04-23T02:06:11.094Z</time>
      </trkpt>
      <trkpt lat="52.236704" lon="6.050967">
        <ele>5.552649</ele>
        <time>2026-04-23T02:06:27.007Z</time>
      </trkpt>
      <trkpt lat="52.236582" lon="6.050715">
        <ele>5.526494</ele>
        <time>2026-04-23T02:06:29.613Z</time>
      </trkpt>
      <trkpt lat="52.236452" lon="6.050227">
        <ele>5.451615</ele>
        <time>2026-04-23T02:06:33.965Z</time>
      </trkpt>
      <trkpt lat="52.236235" lon="6.049622">
        <ele>5.352962</ele>
        <time>2026-04-23T02:06:39.799Z</time>
      </trkpt>
      <trkpt lat="52.235586" lon="6.048403">
        <ele>5.136433</ele>
        <time>2026-04-23T02:06:54.034Z</time>
      </trkpt>
      <trkpt lat="52.235444" lon="6.048240">
        <ele>5.142572</ele>
        <time>2026-04-23T02:06:56.576Z</time>
      </trkpt>
      <trkpt lat="52.235401" lon="6.048191">
        <ele>5.144426</ele>
        <time>2026-04-23T02:06:57.333Z</time>
      </trkpt>
      <trkpt lat="52.235390" lon="6.048178">
        <ele>5.144907</ele>
        <time>2026-04-23T02:06:57.532Z</time>
      </trkpt>
      <trkpt lat="52.235346" lon="6.048123">
        <ele>5.146866</ele>
        <time>2026-04-23T02:06:58.359Z</time>
      </trkpt>
      <trkpt lat="52.234597" lon="6.047406">
        <ele>5.177572</ele>
        <time>2026-04-23T02:07:11.479Z</time>
      </trkpt>
      <trkpt lat="52.234489" lon="6.047333">
        <ele>5.181706</ele>
        <time>2026-04-23T02:07:13.262Z</time>
      </trkpt>
      <trkpt lat="52.233893" lon="6.046811">
        <ele>5.213220</ele>
        <time>2026-04-23T02:07:23.217Z</time>
      </trkpt>
      <trkpt lat="52.233454" lon="6.046326">
        <ele>5.252262</ele>
        <time>2026-04-23T02:07:31.252Z</time>
      </trkpt>
      <trkpt lat="52.233086" lon="6.045739">
        <ele>5.290157</ele>
        <time>2026-04-23T02:07:39.116Z</time>
      </trkpt>
      <trkpt lat="52.233049" lon="6.045667">
        <ele>5.294397</ele>
        <time>2026-04-23T02:07:40.004Z</time>
      </trkpt>
      <trkpt lat="52.233023" lon="6.045612">
        <ele>5.297531</ele>
        <time>2026-04-23T02:07:40.665Z</time>
      </trkpt>
      <trkpt lat="52.232946" lon="6.045441">
        <ele>5.307106</ele>
        <time>2026-04-23T02:07:42.641Z</time>
      </trkpt>
      <trkpt lat="52.232905" lon="6.045351">
        <ele>5.312166</ele>
        <time>2026-04-23T02:07:43.667Z</time>
      </trkpt>
      <trkpt lat="52.232372" lon="6.043962">
        <ele>5.442783</ele>
        <time>2026-04-23T02:07:58.747Z</time>
      </trkpt>
      <trkpt lat="52.231808" lon="6.042264">
        <ele>5.622547</ele>
        <time>2026-04-23T02:08:17.230Z</time>
      </trkpt>
      <trkpt lat="52.231744" lon="6.041958">
        <ele>5.656467</ele>
        <time>2026-04-23T02:08:20.429Z</time>
      </trkpt>
      <trkpt lat="52.231755" lon="6.041788">
        <ele>5.674400</ele>
        <time>2026-04-23T02:08:22.093Z</time>
      </trkpt>
      <trkpt lat="52.231804" lon="6.041566">
        <ele>5.699155</ele>
        <time>2026-04-23T02:08:24.408Z</time>
      </trkpt>
      <trkpt lat="52.231803" lon="6.041480">
        <ele>5.708178</ele>
        <time>2026-04-23T02:08:25.265Z</time>
      </trkpt>
      <trkpt lat="52.231767" lon="6.041370">
        <ele>5.721262</ele>
        <time>2026-04-23T02:08:26.457Z</time>
      </trkpt>
      <trkpt lat="52.231711" lon="6.041249">
        <ele>5.737172</ele>
        <time>2026-04-23T02:08:27.968Z</time>
      </trkpt>
      <trkpt lat="52.231549" lon="6.041189">
        <ele>5.765624</ele>
        <time>2026-04-23T02:08:30.606Z</time>
      </trkpt>
      <trkpt lat="52.231479" lon="6.041227">
        <ele>5.778259</ele>
        <time>2026-04-23T02:08:31.746Z</time>
      </trkpt>
      <trkpt lat="52.231428" lon="6.041293">
        <ele>5.789405</ele>
        <time>2026-04-23T02:08:32.802Z</time>
      </trkpt>
      <trkpt lat="52.231385" lon="6.041369">
        <ele>5.800259</ele>
        <time>2026-04-23T02:08:33.769Z</time>
      </trkpt>
      <trkpt lat="52.231318" lon="6.041342">
        <ele>5.812080</ele>
        <time>2026-04-23T02:08:34.878Z</time>
      </trkpt>
      <trkpt lat="52.231153" lon="6.041021">
        <ele>5.856042</ele>
        <time>2026-04-23T02:08:38.906Z</time>
      </trkpt>
      <trkpt lat="52.231026" lon="6.040879">
        <ele>5.882406</ele>
        <time>2026-04-23T02:08:41.332Z</time>
      </trkpt>
      <trkpt lat="52.229267" lon="6.037489">
        <ele>5.450877</ele>
        <time>2026-04-23T02:09:20.054Z</time>
      </trkpt>
      <trkpt lat="52.229184" lon="6.037216">
        <ele>5.404506</ele>
        <time>2026-04-23T02:09:22.603Z</time>
      </trkpt>
      <trkpt lat="52.228841" lon="6.035913">
        <ele>5.184420</ele>
        <time>2026-04-23T02:09:34.431Z</time>
      </trkpt>
      <trkpt lat="52.228720" lon="6.035600">
        <ele>5.094609</ele>
        <time>2026-04-23T02:09:37.527Z</time>
      </trkpt>
      <trkpt lat="52.228539" lon="6.035455">
        <ele>5.014738</ele>
        <time>2026-04-23T02:09:40.301Z</time>
      </trkpt>
      <trkpt lat="52.228411" lon="6.035436">
        <ele>4.963821</ele>
        <time>2026-04-23T02:09:42.077Z</time>
      </trkpt>
      <trkpt lat="52.228201" lon="6.035464">
        <ele>4.880351</ele>
        <time>2026-04-23T02:09:44.892Z</time>
      </trkpt>
      <trkpt lat="52.228094" lon="6.035416">
        <ele>4.836391</ele>
        <time>2026-04-23T02:09:46.352Z</time>
      </trkpt>
      <trkpt lat="52.227752" lon="6.034955">
        <ele>4.660693</ele>
        <time>2026-04-23T02:09:52.105Z</time>
      </trkpt>
      <trkpt lat="52.227449" lon="6.034741">
        <ele>4.529907</ele>
        <time>2026-04-23T02:09:56.505Z</time>
      </trkpt>
      <trkpt lat="52.227039" lon="6.034243">
        <ele>4.579753</ele>
        <time>2026-04-23T02:10:03.624Z</time>
      </trkpt>
      <trkpt lat="52.225420" lon="6.031685">
        <ele>5.240489</ele>
        <time>2026-04-23T02:10:41.190Z</time>
      </trkpt>
      <trkpt lat="52.224676" lon="6.030225">
        <ele>5.628109</ele>
        <time>2026-04-23T02:11:00.107Z</time>
      </trkpt>
      <trkpt lat="52.222955" lon="6.026595">
        <ele>5.962676</ele>
        <time>2026-04-23T02:11:42.990Z</time>
      </trkpt>
      <trkpt lat="52.222649" lon="6.025954">
        <ele>6.000635</ele>
        <time>2026-04-23T02:11:50.321Z</time>
      </trkpt>
      <trkpt lat="52.222370" lon="6.025260">
        <ele>6.122420</ele>
        <time>2026-04-23T02:11:57.804Z</time>
      </trkpt>
      <trkpt lat="52.222083" lon="6.024337">
        <ele>6.292129</ele>
        <time>2026-04-23T02:12:07.532Z</time>
      </trkpt>
      <trkpt lat="52.222091" lon="6.024106">
        <ele>6.330064</ele>
        <time>2026-04-23T02:12:09.768Z</time>
      </trkpt>
      <trkpt lat="52.222274" lon="6.023613">
        <ele>6.424575</ele>
        <time>2026-04-23T02:12:15.579Z</time>
      </trkpt>
      <trkpt lat="52.222345" lon="6.023304">
        <ele>6.478684</ele>
        <time>2026-04-23T02:12:19.055Z</time>
      </trkpt>
      <trkpt lat="52.222396" lon="6.022919">
        <ele>6.608764</ele>
        <time>2026-04-23T02:12:23.304Z</time>
      </trkpt>
      <trkpt lat="52.222397" lon="6.022697">
        <ele>6.688088</ele>
        <time>2026-04-23T02:12:25.750Z</time>
      </trkpt>
      <trkpt lat="52.222069" lon="6.020925">
        <ele>7.349503</ele>
        <time>2026-04-23T02:12:46.055Z</time>
      </trkpt>
      <trkpt lat="52.222030" lon="6.020721">
        <ele>7.425861</ele>
        <time>2026-04-23T02:12:48.183Z</time>
      </trkpt>
      <trkpt lat="52.221906" lon="6.020065">
        <ele>7.537854</ele>
        <time>2026-04-23T02:12:54.692Z</time>
      </trkpt>
      <trkpt lat="52.221872" lon="6.019873">
        <ele>7.538415</ele>
        <time>2026-04-23T02:12:56.534Z</time>
      </trkpt>
      <trkpt lat="52.221820" lon="6.019623">
        <ele>7.539156</ele>
        <time>2026-04-23T02:12:58.945Z</time>
      </trkpt>
      <trkpt lat="52.221687" lon="6.019036">
        <ele>7.540913</ele>
        <time>2026-04-23T02:13:04.510Z</time>
      </trkpt>
      <trkpt lat="52.221294" lon="6.017381">
        <ele>7.553520</ele>
        <time>2026-04-23T02:13:20.163Z</time>
      </trkpt>
      <trkpt lat="52.220951" lon="6.015938">
        <ele>7.596600</ele>
        <time>2026-04-23T02:13:34.600Z</time>
      </trkpt>
      <trkpt lat="52.220608" lon="6.014507">
        <ele>7.650299</ele>
        <time>2026-04-23T02:13:48.669Z</time>
      </trkpt>
      <trkpt lat="52.220494" lon="6.014033">
        <ele>7.676755</ele>
        <time>2026-04-23T02:13:53.405Z</time>
      </trkpt>
      <trkpt lat="52.220466" lon="6.013916">
        <ele>7.683281</ele>
        <time>2026-04-23T02:13:54.591Z</time>
      </trkpt>
      <trkpt lat="52.220245" lon="6.012997">
        <ele>7.734572</ele>
        <time>2026-04-23T02:14:03.928Z</time>
      </trkpt>
      <trkpt lat="52.220221" lon="6.012894">
        <ele>7.740297</ele>
        <time>2026-04-23T02:14:04.964Z</time>
      </trkpt>
      <trkpt lat="52.220176" lon="6.012697">
        <ele>7.751220</ele>
        <time>2026-04-23T02:14:06.933Z</time>
      </trkpt>
      <trkpt lat="52.219946" lon="6.011745">
        <ele>7.792083</ele>
        <time>2026-04-23T02:14:16.225Z</time>
      </trkpt>
      <trkpt lat="52.219689" lon="6.010673">
        <ele>7.822572</ele>
        <time>2026-04-23T02:14:26.527Z</time>
      </trkpt>
      <trkpt lat="52.219456" lon="6.009700">
        <ele>7.850241</ele>
        <time>2026-04-23T02:14:36.281Z</time>
      </trkpt>
      <trkpt lat="52.219268" lon="6.008914">
        <ele>7.974891</ele>
        <time>2026-04-23T02:14:44.449Z</time>
      </trkpt>
      <trkpt lat="52.219021" lon="6.007879">
        <ele>8.197953</ele>
        <time>2026-04-23T02:14:55.639Z</time>
      </trkpt>
      <trkpt lat="52.218972" lon="6.007672">
        <ele>8.242519</ele>
        <time>2026-04-23T02:14:57.863Z</time>
      </trkpt>
      <trkpt lat="52.218716" lon="6.006605">
        <ele>8.454539</ele>
        <time>2026-04-23T02:15:09.048Z</time>
      </trkpt>
      <trkpt lat="52.218496" lon="6.005699">
        <ele>8.514039</ele>
        <time>2026-04-23T02:15:18.518Z</time>
      </trkpt>
      <trkpt lat="52.218455" lon="6.005530">
        <ele>8.525136</ele>
        <time>2026-04-23T02:15:20.255Z</time>
      </trkpt>
      <trkpt lat="52.218370" lon="6.005169">
        <ele>8.548748</ele>
        <time>2026-04-23T02:15:23.890Z</time>
      </trkpt>
      <trkpt lat="52.218266" lon="6.004757">
        <ele>8.575953</ele>
        <time>2026-04-23T02:15:27.997Z</time>
      </trkpt>
      <trkpt lat="52.218061" lon="6.004886">
        <ele>8.597848</ele>
        <time>2026-04-23T02:15:31.224Z</time>
      </trkpt>
      <trkpt lat="52.217072" lon="6.005513">
        <ele>8.571303</ele>
        <time>2026-04-23T02:15:46.453Z</time>
      </trkpt>
      <trkpt lat="52.216975" lon="6.005574">
        <ele>8.564028</ele>
        <time>2026-04-23T02:15:47.893Z</time>
      </trkpt>
      <trkpt lat="52.216946" lon="6.005592">
        <ele>8.561857</ele>
        <time>2026-04-23T02:15:48.314Z</time>
      </trkpt>
      <trkpt lat="52.216788" lon="6.005693">
        <ele>8.549982</ele>
        <time>2026-04-23T02:15:50.716Z</time>
      </trkpt>
      <trkpt lat="52.216715" lon="6.005702">
        <ele>8.544858</ele>
        <time>2026-04-23T02:15:51.786Z</time>
      </trkpt>
      <trkpt lat="52.216540" lon="6.005683">
        <ele>8.532584</ele>
        <time>2026-04-23T02:15:54.362Z</time>
      </trkpt>
      <trkpt lat="52.216357" lon="6.005895">
        <ele>8.516880</ele>
        <time>2026-04-23T02:15:57.708Z</time>
      </trkpt>
      <trkpt lat="52.216229" lon="6.006038">
        <ele>8.506025</ele>
        <time>2026-04-23T02:16:00.029Z</time>
      </trkpt>
      <trkpt lat="52.216103" lon="6.006180">
        <ele>8.501941</ele>
        <time>2026-04-23T02:16:02.347Z</time>
      </trkpt>
      <trkpt lat="52.216022" lon="6.006235">
        <ele>8.504482</ele>
        <time>2026-04-23T02:16:03.686Z</time>
      </trkpt>
      <trkpt lat="52.215963" lon="6.006154">
        <ele>8.506716</ele>
        <time>2026-04-23T02:16:04.852Z</time>
      </trkpt>
      <trkpt lat="52.215803" lon="6.005543">
        <ele>8.518509</ele>
        <time>2026-04-23T02:16:11.104Z</time>
      </trkpt>
      <trkpt lat="52.215658" lon="6.005079">
        <ele>8.527754</ele>
        <time>2026-04-23T02:16:15.768Z</time>
      </trkpt>
      <trkpt lat="52.214926" lon="6.002747">
        <ele>8.661119</ele>
        <time>2026-04-23T02:16:39.788Z</time>
      </trkpt>
      <trkpt lat="52.214879" lon="6.002750">
        <ele>8.667823</ele>
        <time>2026-04-23T02:16:40.499Z</time>
      </trkpt>
      <trkpt lat="52.214788" lon="6.002672">
        <ele>8.682474</ele>
        <time>2026-04-23T02:16:42.056Z</time>
      </trkpt>
      <trkpt lat="52.214728" lon="6.002490">
        <ele>8.700522</ele>
        <time>2026-04-23T02:16:43.982Z</time>
      </trkpt>
      <trkpt lat="52.214573" lon="6.001986">
        <ele>8.749770</ele>
        <time>2026-04-23T02:16:49.287Z</time>
      </trkpt>
      <trkpt lat="52.214541" lon="6.001871">
        <ele>8.760800</ele>
        <time>2026-04-23T02:16:50.486Z</time>
      </trkpt>
      <trkpt lat="52.212410" lon="5.995029">
        <ele>10.008019</ele>
        <time>2026-04-23T02:18:05.845Z</time>
      </trkpt>
      <trkpt lat="52.212362" lon="5.994879">
        <ele>10.026694</ele>
        <time>2026-04-23T02:18:07.489Z</time>
      </trkpt>
      <trkpt lat="52.212230" lon="5.994447">
        <ele>10.079964</ele>
        <time>2026-04-23T02:18:12.094Z</time>
      </trkpt>
      <trkpt lat="52.212137" lon="5.994138">
        <ele>10.117955</ele>
        <time>2026-04-23T02:18:15.300Z</time>
      </trkpt>
      <trkpt lat="52.211659" lon="5.992612">
        <ele>10.211433</ele>
        <time>2026-04-23T02:18:30.997Z</time>
      </trkpt>
      <trkpt lat="52.211778" lon="5.991741">
        <ele>10.227282</ele>
        <time>2026-04-23T02:18:39.082Z</time>
      </trkpt>
      <trkpt lat="52.211482" lon="5.990785">
        <ele>10.253705</ele>
        <time>2026-04-23T02:18:52.210Z</time>
      </trkpt>
      <trkpt lat="52.211071" lon="5.989454">
        <ele>10.460612</ele>
        <time>2026-04-23T02:19:11.482Z</time>
      </trkpt>
      <trkpt lat="52.210683" lon="5.988191">
        <ele>10.662709</ele>
        <time>2026-04-23T02:19:29.594Z</time>
      </trkpt>
      <trkpt lat="52.210813" lon="5.987632">
        <ele>10.868334</ele>
        <time>2026-04-23T02:19:37.964Z</time>
      </trkpt>
      <trkpt lat="52.210634" lon="5.987415">
        <ele>10.993483</ele>
        <time>2026-04-23T02:19:43.226Z</time>
      </trkpt>
      <trkpt lat="52.210455" lon="5.987124">
        <ele>11.135287</ele>
        <time>2026-04-23T02:19:49.154Z</time>
      </trkpt>
      <trkpt lat="52.210408" lon="5.987031">
        <ele>11.176746</ele>
        <time>2026-04-23T02:19:50.836Z</time>
      </trkpt>
      <trkpt lat="52.210867" lon="5.986205">
        <ele>11.560229</ele>
        <time>2026-04-23T02:20:02.579Z</time>
      </trkpt>
      <trkpt lat="52.211101" lon="5.985683">
        <ele>11.694946</ele>
        <time>2026-04-23T02:20:09.256Z</time>
      </trkpt>
      <trkpt lat="52.211353" lon="5.984955">
        <ele>11.773126</ele>
        <time>2026-04-23T02:20:17.505Z</time>
      </trkpt>
      <trkpt lat="52.211395" lon="5.984931">
        <ele>11.779917</ele>
        <time>2026-04-23T02:20:18.162Z</time>
      </trkpt>
      <trkpt lat="52.211476" lon="5.984879">
        <ele>11.793199</ele>
        <time>2026-04-23T02:20:19.413Z</time>
      </trkpt>
      <trkpt lat="52.211516" lon="5.984800">
        <ele>11.802781</ele>
        <time>2026-04-23T02:20:20.329Z</time>
      </trkpt>
      <trkpt lat="52.211545" lon="5.984707">
        <ele>11.812538</ele>
        <time>2026-04-23T02:20:21.223Z</time>
      </trkpt>
      <trkpt lat="52.211563" lon="5.984575">
        <ele>11.825182</ele>
        <time>2026-04-23T02:20:22.409Z</time>
      </trkpt>
      <trkpt lat="52.211633" lon="5.984324">
        <ele>11.850967</ele>
        <time>2026-04-23T02:20:24.834Z</time>
      </trkpt>
      <trkpt lat="52.211652" lon="5.984254">
        <ele>11.858126</ele>
        <time>2026-04-23T02:20:25.503Z</time>
      </trkpt>
      <trkpt lat="52.211881" lon="5.983550">
        <ele>11.932651</ele>
        <time>2026-04-23T02:20:32.755Z</time>
      </trkpt>
      <trkpt lat="52.211911" lon="5.983363">
        <ele>11.975746</ele>
        <time>2026-04-23T02:20:34.548Z</time>
      </trkpt>
      <trkpt lat="52.211914" lon="5.983067">
        <ele>12.052649</ele>
        <time>2026-04-23T02:20:37.330Z</time>
      </trkpt>
      <trkpt lat="52.211842" lon="5.982018">
        <ele>12.326855</ele>
        <time>2026-04-23T02:20:47.749Z</time>
      </trkpt>
      <trkpt lat="52.211837" lon="5.981950">
        <ele>12.344647</ele>
        <time>2026-04-23T02:20:48.469Z</time>
      </trkpt>
      <trkpt lat="52.211849" lon="5.981842">
        <ele>12.373160</ele>
        <time>2026-04-23T02:20:49.616Z</time>
      </trkpt>
      <trkpt lat="52.212633" lon="5.981086">
        <ele>12.767798</ele>
        <time>2026-04-23T02:21:05.377Z</time>
      </trkpt>
      <trkpt lat="52.212585" lon="5.980838">
        <ele>12.845013</ele>
        <time>2026-04-23T02:21:08.976Z</time>
      </trkpt>
      <trkpt lat="52.212463" lon="5.979759">
        <ele>13.170764</ele>
        <time>2026-04-23T02:21:24.308Z</time>
      </trkpt>
      <trkpt lat="52.212310" lon="5.978389">
        <ele>13.582643</ele>
        <time>2026-04-23T02:21:42.967Z</time>
      </trkpt>
      <trkpt lat="52.212294" lon="5.978252">
        <ele>13.619264</ele>
        <time>2026-04-23T02:21:44.746Z</time>
      </trkpt>
      <trkpt lat="52.212238" lon="5.977721">
        <ele>13.760745</ele>
        <time>2026-04-23T02:21:51.612Z</time>
      </trkpt>
      <trkpt lat="52.212219" lon="5.977513">
        <ele>13.815966</ele>
        <time>2026-04-23T02:21:54.301Z</time>
      </trkpt>
      <trkpt lat="52.212162" lon="5.976983">
        <ele>13.957262</ele>
        <time>2026-04-23T02:22:01.330Z</time>
      </trkpt>
      <trkpt lat="52.212235" lon="5.976963">
        <ele>13.988983</ele>
        <time>2026-04-23T02:22:02.865Z</time>
      </trkpt>
      <trkpt lat="52.212218" lon="5.976800">
        <ele>14.032400</ele>
        <time>2026-04-23T02:22:04.554Z</time>
      </trkpt>
      <trkpt lat="52.212198" lon="5.976607">
        <ele>14.083798</ele>
        <time>2026-04-23T02:22:06.516Z</time>
      </trkpt>
      <trkpt lat="52.212184" lon="5.976466">
        <ele>14.121305</ele>
        <time>2026-04-23T02:22:07.902Z</time>
      </trkpt>
      <trkpt lat="52.212096" lon="5.975762">
        <ele>14.309971</ele>
        <time>2026-04-23T02:22:15.502Z</time>
      </trkpt>
      <trkpt lat="52.212085" lon="5.975672">
        <ele>14.334069</ele>
        <time>2026-04-23T02:22:16.543Z</time>
      </trkpt>
      <trkpt lat="52.212080" lon="5.975632">
        <ele>14.348265</ele>
        <time>2026-04-23T02:22:17.021Z</time>
      </trkpt>
      <trkpt lat="52.212032" lon="5.975217">
        <ele>14.575715</ele>
        <time>2026-04-23T02:22:21.746Z</time>
      </trkpt>
      <trkpt lat="52.212028" lon="5.975182">
        <ele>14.594890</ele>
        <time>2026-04-23T02:22:22.169Z</time>
      </trkpt>
      <trkpt lat="52.212019" lon="5.975070">
        <ele>14.655725</ele>
        <time>2026-04-23T02:22:23.491Z</time>
      </trkpt>
      <trkpt lat="52.211791" lon="5.973114">
        <ele>15.728046</ele>
        <time>2026-04-23T02:22:46.445Z</time>
      </trkpt>
      <trkpt lat="52.211731" lon="5.972597">
        <ele>15.981260</ele>
        <time>2026-04-23T02:22:52.006Z</time>
      </trkpt>
      <trkpt lat="52.211708" lon="5.972393">
        <ele>16.055121</ele>
        <time>2026-04-23T02:22:54.266Z</time>
      </trkpt>
      <trkpt lat="52.211638" lon="5.971796">
        <ele>16.271563</ele>
        <time>2026-04-23T02:23:00.883Z</time>
      </trkpt>
      <trkpt lat="52.211619" lon="5.971629">
        <ele>16.332046</ele>
        <time>2026-04-23T02:23:02.663Z</time>
      </trkpt>
      <trkpt lat="52.211607" lon="5.971069">
        <ele>16.531578</ele>
        <time>2026-04-23T02:23:08.632Z</time>
      </trkpt>
      <trkpt lat="52.211607" lon="5.970869">
        <ele>16.602795</ele>
        <time>2026-04-23T02:23:10.755Z</time>
      </trkpt>
      <trkpt lat="52.211607" lon="5.970711">
        <ele>16.659057</ele>
        <time>2026-04-23T02:23:12.487Z</time>
      </trkpt>
      <trkpt lat="52.211607" lon="5.970553">
        <ele>16.715319</ele>
        <time>2026-04-23T02:23:14.242Z</time>
      </trkpt>
      <trkpt lat="52.211606" lon="5.970394">
        <ele>16.771940</ele>
        <time>2026-04-23T02:23:15.893Z</time>
      </trkpt>
      <trkpt lat="52.211605" lon="5.970242">
        <ele>16.826069</ele>
        <time>2026-04-23T02:23:17.482Z</time>
      </trkpt>
      <trkpt lat="52.211602" lon="5.968904">
        <ele>17.059099</ele>
        <time>2026-04-23T02:23:29.996Z</time>
      </trkpt>
      <trkpt lat="52.211602" lon="5.968805">
        <ele>17.068728</ele>
        <time>2026-04-23T02:23:30.943Z</time>
      </trkpt>
      <trkpt lat="52.211608" lon="5.967961">
        <ele>17.150820</ele>
        <time>2026-04-23T02:23:38.742Z</time>
      </trkpt>
      <trkpt lat="52.211635" lon="5.967885">
        <ele>17.159364</ele>
        <time>2026-04-23T02:23:39.840Z</time>
      </trkpt>
      <trkpt lat="52.211650" lon="5.967863">
        <ele>17.162565</ele>
        <time>2026-04-23T02:23:40.260Z</time>
      </trkpt>
      <trkpt lat="52.211696" lon="5.967788">
        <ele>17.172886</ele>
        <time>2026-04-23T02:23:41.631Z</time>
      </trkpt>
      <trkpt lat="52.211756" lon="5.967728">
        <ele>17.184055</ele>
        <time>2026-04-23T02:23:43.076Z</time>
      </trkpt>
      <trkpt lat="52.212062" lon="5.967642">
        <ele>17.233341</ele>
        <time>2026-04-23T02:23:49.612Z</time>
      </trkpt>
      <trkpt lat="52.212106" lon="5.967628">
        <ele>17.240456</ele>
        <time>2026-04-23T02:23:50.585Z</time>
      </trkpt>
      <trkpt lat="52.212594" lon="5.967458">
        <ele>17.365090</ele>
        <time>2026-04-23T02:24:01.053Z</time>
      </trkpt>
      <trkpt lat="52.213159" lon="5.967187">
        <ele>17.522385</ele>
        <time>2026-04-23T02:24:14.076Z</time>
      </trkpt>
      <trkpt lat="52.213381" lon="5.967060">
        <ele>17.585219</ele>
        <time>2026-04-23T02:24:19.007Z</time>
      </trkpt>
      <trkpt lat="52.213448" lon="5.967020">
        <ele>17.604275</ele>
        <time>2026-04-23T02:24:20.440Z</time>
      </trkpt>
      <trkpt lat="52.213413" lon="5.966934">
        <ele>17.621171</ele>
        <time>2026-04-23T02:24:21.763Z</time>
      </trkpt>
      <trkpt lat="52.214128" lon="5.966413">
        <ele>17.920269</ele>
        <time>2026-04-23T02:24:33.611Z</time>
      </trkpt>
      <trkpt lat="52.214317" lon="5.966275">
        <ele>18.026977</ele>
        <time>2026-04-23T02:24:36.839Z</time>
      </trkpt>
      <trkpt lat="52.215327" lon="5.965381">
        <ele>18.619120</ele>
        <time>2026-04-23T02:24:57.669Z</time>
      </trkpt>
      <trkpt lat="52.215412" lon="5.965306">
        <ele>18.657414</ele>
        <time>2026-04-23T02:24:59.448Z</time>
      </trkpt>
      <trkpt lat="52.215472" lon="5.965259">
        <ele>18.644798</ele>
        <time>2026-04-23T02:25:00.562Z</time>
      </trkpt>
      <trkpt lat="52.215942" lon="5.964923">
        <ele>18.547532</ele>
        <time>2026-04-23T02:25:08.636Z</time>
      </trkpt>
      <trkpt lat="52.215982" lon="5.964894">
        <ele>18.539235</ele>
        <time>2026-04-23T02:25:09.278Z</time>
      </trkpt>
      <trkpt lat="52.216219" lon="5.964761">
        <ele>18.491727</ele>
        <time>2026-04-23T02:25:12.746Z</time>
      </trkpt>
      <trkpt lat="52.216247" lon="5.964887">
        <ele>18.476160</ele>
        <time>2026-04-23T02:25:13.859Z</time>
      </trkpt>
      <trkpt lat="52.216287" lon="5.964913">
        <ele>18.467998</ele>
        <time>2026-04-23T02:25:14.415Z</time>
      </trkpt>
      <trkpt lat="52.216367" lon="5.964884">
        <ele>18.452464</ele>
        <time>2026-04-23T02:25:15.507Z</time>
      </trkpt>
      <trkpt lat="52.216449" lon="5.964837">
        <ele>18.435989</ele>
        <time>2026-04-23T02:25:16.612Z</time>
      </trkpt>
      <trkpt lat="52.216459" lon="5.964787">
        <ele>18.429880</ele>
        <time>2026-04-23T02:25:17.209Z</time>
      </trkpt>
      <trkpt lat="52.216493" lon="5.964724">
        <ele>18.420130</ele>
        <time>2026-04-23T02:25:18.133Z</time>
      </trkpt>
      <trkpt lat="52.216764" lon="5.964564">
        <ele>18.365501</ele>
        <time>2026-04-23T02:25:23.381Z</time>
      </trkpt>
      <trkpt lat="52.217522" lon="5.964169">
        <ele>18.167102</ele>
        <time>2026-04-23T02:25:37.674Z</time>
      </trkpt>
      <trkpt lat="52.217894" lon="5.963870">
        <ele>18.052852</ele>
        <time>2026-04-23T02:25:45.787Z</time>
      </trkpt>
      <trkpt lat="52.218056" lon="5.963692">
        <ele>17.999045</ele>
        <time>2026-04-23T02:25:49.782Z</time>
      </trkpt>
      <trkpt lat="52.218408" lon="5.963126">
        <ele>17.862903</ele>
        <time>2026-04-23T02:25:59.898Z</time>
      </trkpt>
      <trkpt lat="52.218563" lon="5.962848">
        <ele>17.819373</ele>
        <time>2026-04-23T02:26:04.568Z</time>
      </trkpt>
      <trkpt lat="52.218636" lon="5.962716">
        <ele>17.813741</ele>
        <time>2026-04-23T02:26:06.672Z</time>
      </trkpt>
      <trkpt lat="52.218697" lon="5.962610">
        <ele>17.809136</ele>
        <time>2026-04-23T02:26:08.392Z</time>
      </trkpt>
      <trkpt lat="52.219313" lon="5.961510">
        <ele>17.761938</ele>
        <time>2026-04-23T02:26:26.181Z</time>
      </trkpt>
      <trkpt lat="52.219387" lon="5.961413">
        <ele>17.757032</ele>
        <time>2026-04-23T02:26:28.069Z</time>
      </trkpt>
      <trkpt lat="52.219429" lon="5.961366">
        <ele>17.754399</ele>
        <time>2026-04-23T02:26:29.087Z</time>
      </trkpt>
      <trkpt lat="52.219470" lon="5.961272">
        <ele>17.750745</ele>
        <time>2026-04-23T02:26:30.485Z</time>
      </trkpt>
      <trkpt lat="52.219489" lon="5.961208">
        <ele>17.748493</ele>
        <time>2026-04-23T02:26:31.356Z</time>
      </trkpt>
      <trkpt lat="52.220047" lon="5.960180">
        <ele>17.867276</ele>
        <time>2026-04-23T02:26:49.064Z</time>
      </trkpt>
      <trkpt lat="52.220700" lon="5.959011">
        <ele>18.129891</ele>
        <time>2026-04-23T02:27:10.291Z</time>
      </trkpt>
      <trkpt lat="52.220679" lon="5.958949">
        <ele>18.141652</ele>
        <time>2026-04-23T02:27:10.976Z</time>
      </trkpt>
      <trkpt lat="52.220662" lon="5.958899">
        <ele>18.151144</ele>
        <time>2026-04-23T02:27:11.534Z</time>
      </trkpt>
      <trkpt lat="52.220290" lon="5.957800">
        <ele>18.430670</ele>
        <time>2026-04-23T02:27:23.155Z</time>
      </trkpt>
      <trkpt lat="52.219866" lon="5.956547">
        <ele>18.787932</ele>
        <time>2026-04-23T02:27:37.463Z</time>
      </trkpt>
      <trkpt lat="52.219817" lon="5.956319">
        <ele>18.848237</ele>
        <time>2026-04-23T02:27:39.901Z</time>
      </trkpt>
      <trkpt lat="52.219945" lon="5.956078">
        <ele>18.927844</ele>
        <time>2026-04-23T02:27:44.149Z</time>
      </trkpt>
      <trkpt lat="52.220014" lon="5.955883">
        <ele>19.022685</ele>
        <time>2026-04-23T02:27:47.226Z</time>
      </trkpt>
      <trkpt lat="52.220042" lon="5.955764">
        <ele>19.091846</ele>
        <time>2026-04-23T02:27:49.030Z</time>
      </trkpt>
      <trkpt lat="52.220112" lon="5.955460">
        <ele>19.268044</ele>
        <time>2026-04-23T02:27:54.024Z</time>
      </trkpt>
      <trkpt lat="52.220103" lon="5.954979">
        <ele>19.529129</ele>
        <time>2026-04-23T02:28:01.791Z</time>
      </trkpt>
      <trkpt lat="52.220137" lon="5.954885">
        <ele>19.588353</ele>
        <time>2026-04-23T02:28:03.539Z</time>
      </trkpt>
      <trkpt lat="52.220152" lon="5.954790">
        <ele>19.641579</ele>
        <time>2026-04-23T02:28:05.056Z</time>
      </trkpt>
      <trkpt lat="52.220180" lon="5.954622">
        <ele>19.736039</ele>
        <time>2026-04-23T02:28:07.827Z</time>
      </trkpt>
      <trkpt lat="52.220188" lon="5.954576">
        <ele>19.761982</ele>
        <time>2026-04-23T02:28:08.540Z</time>
      </trkpt>
      <trkpt lat="52.220207" lon="5.954451">
        <ele>19.831856</ele>
        <time>2026-04-23T02:28:10.558Z</time>
      </trkpt>
      <trkpt lat="52.220156" lon="5.954385">
        <ele>19.889493</ele>
        <time>2026-04-23T02:28:12.144Z</time>
      </trkpt>
      <trkpt lat="52.220119" lon="5.954142">
        <ele>20.025342</ele>
        <time>2026-04-23T02:28:15.881Z</time>
      </trkpt>
      <trkpt lat="52.220177" lon="5.953699">
        <ele>20.271115</ele>
        <time>2026-04-23T02:28:20.855Z</time>
      </trkpt>
      <trkpt lat="52.220172" lon="5.953456">
        <ele>20.403027</ele>
        <time>2026-04-23T02:28:23.302Z</time>
      </trkpt>
      <trkpt lat="52.220187" lon="5.953276">
        <ele>20.501584</ele>
        <time>2026-04-23T02:28:25.040Z</time>
      </trkpt>
      <trkpt lat="52.220201" lon="5.952571">
        <ele>20.631971</ele>
        <time>2026-04-23T02:28:32.088Z</time>
      </trkpt>
      <trkpt lat="52.220188" lon="5.951942">
        <ele>20.720245</ele>
        <time>2026-04-23T02:28:38.357Z</time>
      </trkpt>
      <trkpt lat="52.220211" lon="5.951395">
        <ele>20.797148</ele>
        <time>2026-04-23T02:28:42.966Z</time>
      </trkpt>
      <trkpt lat="52.220213" lon="5.951353">
        <ele>20.803057</ele>
        <time>2026-04-23T02:28:43.330Z</time>
      </trkpt>
      <trkpt lat="52.220215" lon="5.951313">
        <ele>20.808686</ele>
        <time>2026-04-23T02:28:43.686Z</time>
      </trkpt>
      <trkpt lat="52.220222" lon="5.951185">
        <ele>20.826711</ele>
        <time>2026-04-23T02:28:44.816Z</time>
      </trkpt>
      <trkpt lat="52.220236" lon="5.950947">
        <ele>20.860246</ele>
        <time>2026-04-23T02:28:46.974Z</time>
      </trkpt>
      <trkpt lat="52.220315" lon="5.949552">
        <ele>21.210706</ele>
        <time>2026-04-23T02:29:00.971Z</time>
      </trkpt>
      <trkpt lat="52.220310" lon="5.947705">
        <ele>21.864896</ele>
        <time>2026-04-23T02:29:21.061Z</time>
      </trkpt>
      <trkpt lat="52.220288" lon="5.946481">
        <ele>22.269454</ele>
        <time>2026-04-23T02:29:33.778Z</time>
      </trkpt>
      <trkpt lat="52.220287" lon="5.946436">
        <ele>22.283868</ele>
        <time>2026-04-23T02:29:34.238Z</time>
      </trkpt>
      <trkpt lat="52.220286" lon="5.946193">
        <ele>22.361654</ele>
        <time>2026-04-23T02:29:36.714Z</time>
      </trkpt>
      <trkpt lat="52.220284" lon="5.946078">
        <ele>22.398480</ele>
        <time>2026-04-23T02:29:37.875Z</time>
      </trkpt>
      <trkpt lat="52.220280" lon="5.945511">
        <ele>22.579989</ele>
        <time>2026-04-23T02:29:43.669Z</time>
      </trkpt>
      <trkpt lat="52.220264" lon="5.944878">
        <ele>22.782785</ele>
        <time>2026-04-23T02:29:50.166Z</time>
      </trkpt>
      <trkpt lat="52.220217" lon="5.944238">
        <ele>23.021215</ele>
        <time>2026-04-23T02:29:56.844Z</time>
      </trkpt>
      <trkpt lat="52.219889" lon="5.941325">
        <ele>24.561076</ele>
        <time>2026-04-23T02:30:29.937Z</time>
      </trkpt>
      <trkpt lat="52.219826" lon="5.940774">
        <ele>24.918778</ele>
        <time>2026-04-23T02:30:36.574Z</time>
      </trkpt>
      <trkpt lat="52.219763" lon="5.940652">
        <ele>25.020603</ele>
        <time>2026-04-23T02:30:38.464Z</time>
      </trkpt>
      <trkpt lat="52.219778" lon="5.940196">
        <ele>25.312028</ele>
        <time>2026-04-23T02:30:43.942Z</time>
      </trkpt>
      <trkpt lat="52.219896" lon="5.938700">
        <ele>26.274608</ele>
        <time>2026-04-23T02:31:01.829Z</time>
      </trkpt>
      <trkpt lat="52.220003" lon="5.937445">
        <ele>27.014823</ele>
        <time>2026-04-23T02:31:15.648Z</time>
      </trkpt>
      <trkpt lat="52.220025" lon="5.937282">
        <ele>27.111901</ele>
        <time>2026-04-23T02:31:17.456Z</time>
      </trkpt>
      <trkpt lat="52.220059" lon="5.937015">
        <ele>27.270513</ele>
        <time>2026-04-23T02:31:20.446Z</time>
      </trkpt>
      <trkpt lat="52.220105" lon="5.936360">
        <ele>27.653969</ele>
        <time>2026-04-23T02:31:27.820Z</time>
      </trkpt>
      <trkpt lat="52.220126" lon="5.936107">
        <ele>27.802463</ele>
        <time>2026-04-23T02:31:30.766Z</time>
      </trkpt>
      <trkpt lat="52.220370" lon="5.933160">
        <ele>30.237478</ele>
        <time>2026-04-23T02:32:08.349Z</time>
      </trkpt>
      <trkpt lat="52.220385" lon="5.932969">
        <ele>30.401684</ele>
        <time>2026-04-23T02:32:10.761Z</time>
      </trkpt>
      <trkpt lat="52.220416" lon="5.932272">
        <ele>30.900364</ele>
        <time>2026-04-23T02:32:19.396Z</time>
      </trkpt>
      <trkpt lat="52.220446" lon="5.929147">
        <ele>33.088654</ele>
        <time>2026-04-23T02:32:55.606Z</time>
      </trkpt>
      <trkpt lat="52.220452" lon="5.928807">
        <ele>33.350591</ele>
        <time>2026-04-23T02:32:59.472Z</time>
      </trkpt>
      <trkpt lat="52.220454" lon="5.928708">
        <ele>33.426871</ele>
        <time>2026-04-23T02:33:00.620Z</time>
      </trkpt>
      <trkpt lat="52.220462" lon="5.927687">
        <ele>34.213193</ele>
        <time>2026-04-23T02:33:12.878Z</time>
      </trkpt>
      <trkpt lat="52.220472" lon="5.926429">
        <ele>35.632398</ele>
        <time>2026-04-23T02:33:28.624Z</time>
      </trkpt>
      <trkpt lat="52.220489" lon="5.925159">
        <ele>37.691972</ele>
        <time>2026-04-23T02:33:49.159Z</time>
      </trkpt>
      <trkpt lat="52.220491" lon="5.924531">
        <ele>38.710177</ele>
        <time>2026-04-23T02:33:59.337Z</time>
      </trkpt>
      <trkpt lat="52.220496" lon="5.923831">
        <ele>39.900301</ele>
        <time>2026-04-23T02:34:11.142Z</time>
      </trkpt>
      <trkpt lat="52.220485" lon="5.923052">
        <ele>41.387983</ele>
        <time>2026-04-23T02:34:25.464Z</time>
      </trkpt>
      <trkpt lat="52.220447" lon="5.922634">
        <ele>42.194779</ele>
        <time>2026-04-23T02:34:33.108Z</time>
      </trkpt>
      <trkpt lat="52.220387" lon="5.922145">
        <ele>43.146933</ele>
        <time>2026-04-23T02:34:41.557Z</time>
      </trkpt>
      <trkpt lat="52.220263" lon="5.921164">
        <ele>45.059342</ele>
        <time>2026-04-23T02:34:57.932Z</time>
      </trkpt>
      <trkpt lat="52.219745" lon="5.916852">
        <ele>50.622183</ele>
        <time>2026-04-23T02:35:58.795Z</time>
      </trkpt>
      <trkpt lat="52.219531" lon="5.914954">
        <ele>53.169574</ele>
        <time>2026-04-23T02:36:25.791Z</time>
      </trkpt>
      <trkpt lat="52.219453" lon="5.913863">
        <ele>55.019288</ele>
        <time>2026-04-23T02:36:42.467Z</time>
      </trkpt>
      <trkpt lat="52.219386" lon="5.911232">
        <ele>60.113869</ele>
        <time>2026-04-23T02:37:27.124Z</time>
      </trkpt>
      <trkpt lat="52.219485" lon="5.910563">
        <ele>61.649728</ele>
        <time>2026-04-23T02:37:39.753Z</time>
      </trkpt>
      <trkpt lat="52.219652" lon="5.910118">
        <ele>62.814281</ele>
        <time>2026-04-23T02:37:49.607Z</time>
      </trkpt>
      <trkpt lat="52.219549" lon="5.909999">
        <ele>63.273936</ele>
        <time>2026-04-23T02:37:53.545Z</time>
      </trkpt>
      <trkpt lat="52.219484" lon="5.909930">
        <ele>63.556368</ele>
        <time>2026-04-23T02:37:55.998Z</time>
      </trkpt>
      <trkpt lat="52.219458" lon="5.909815">
        <ele>63.829917</ele>
        <time>2026-04-23T02:37:58.400Z</time>
      </trkpt>
      <trkpt lat="52.219358" lon="5.905337">
        <ele>73.606418</ele>
        <time>2026-04-23T02:39:23.605Z</time>
      </trkpt>
      <trkpt lat="52.219317" lon="5.904759">
        <ele>74.539194</ele>
        <time>2026-04-23T02:39:31.857Z</time>
      </trkpt>
      <trkpt lat="52.219244" lon="5.903831">
        <ele>75.966338</ele>
        <time>2026-04-23T02:39:42.400Z</time>
      </trkpt>
      <trkpt lat="52.219034" lon="5.902781">
        <ele>76.432126</ele>
        <time>2026-04-23T02:39:52.420Z</time>
      </trkpt>
      <trkpt lat="52.218770" lon="5.901636">
        <ele>76.948045</ele>
        <time>2026-04-23T02:40:04.575Z</time>
      </trkpt>
      <trkpt lat="52.218654" lon="5.900884">
        <ele>77.407704</ele>
        <time>2026-04-23T02:40:14.447Z</time>
      </trkpt>
      <trkpt lat="52.218521" lon="5.900351">
        <ele>77.983575</ele>
        <time>2026-04-23T02:40:22.513Z</time>
      </trkpt>
      <trkpt lat="52.218474" lon="5.899986">
        <ele>78.356782</ele>
        <time>2026-04-23T02:40:27.905Z</time>
      </trkpt>
      <trkpt lat="52.218499" lon="5.899672">
        <ele>78.673619</ele>
        <time>2026-04-23T02:40:32.571Z</time>
      </trkpt>
      <trkpt lat="52.218556" lon="5.899278">
        <ele>79.078706</ele>
        <time>2026-04-23T02:40:38.373Z</time>
      </trkpt>
      <trkpt lat="52.218773" lon="5.898650">
        <ele>79.800152</ele>
        <time>2026-04-23T02:40:47.896Z</time>
      </trkpt>
      <trkpt lat="52.219113" lon="5.898015">
        <ele>80.119421</ele>
        <time>2026-04-23T02:40:57.829Z</time>
      </trkpt>
      <trkpt lat="52.219825" lon="5.896351">
        <ele>80.132175</ele>
        <time>2026-04-23T02:41:16.011Z</time>
      </trkpt>
      <trkpt lat="52.219922" lon="5.895822">
        <ele>79.959111</ele>
        <time>2026-04-23T02:41:20.104Z</time>
      </trkpt>
      <trkpt lat="52.220110" lon="5.895059">
        <ele>79.127705</ele>
        <time>2026-04-23T02:41:25.965Z</time>
      </trkpt>
      <trkpt lat="52.220525" lon="5.893401">
        <ele>77.317053</ele>
        <time>2026-04-23T02:41:37.842Z</time>
      </trkpt>
      <trkpt lat="52.220584" lon="5.892889">
        <ele>77.262954</ele>
        <time>2026-04-23T02:41:41.464Z</time>
      </trkpt>
      <trkpt lat="52.220563" lon="5.892231">
        <ele>77.433847</ele>
        <time>2026-04-23T02:41:46.473Z</time>
      </trkpt>
      <trkpt lat="52.220496" lon="5.891572">
        <ele>77.607105</ele>
        <time>2026-04-23T02:41:52.697Z</time>
      </trkpt>
      <trkpt lat="52.220348" lon="5.890645">
        <ele>77.855566</ele>
        <time>2026-04-23T02:42:05.142Z</time>
      </trkpt>
      <trkpt lat="52.220190" lon="5.888852">
        <ele>80.324849</ele>
        <time>2026-04-23T02:42:34.880Z</time>
      </trkpt>
      <trkpt lat="52.220002" lon="5.887170">
        <ele>82.806065</ele>
        <time>2026-04-23T02:43:00.699Z</time>
      </trkpt>
      <trkpt lat="52.219990" lon="5.886528">
        <ele>83.405560</ele>
        <time>2026-04-23T02:43:09.240Z</time>
      </trkpt>
      <trkpt lat="52.219642" lon="5.884250">
        <ele>85.409448</ele>
        <time>2026-04-23T02:43:37.632Z</time>
      </trkpt>
      <trkpt lat="52.219442" lon="5.882778">
        <ele>86.032503</ele>
        <time>2026-04-23T02:43:54.146Z</time>
      </trkpt>
      <trkpt lat="52.219421" lon="5.882462">
        <ele>86.163850</ele>
        <time>2026-04-23T02:43:57.460Z</time>
      </trkpt>
      <trkpt lat="52.219422" lon="5.881842">
        <ele>86.420054</ele>
        <time>2026-04-23T02:44:03.663Z</time>
      </trkpt>
      <trkpt lat="52.219474" lon="5.881027">
        <ele>86.503621</ele>
        <time>2026-04-23T02:44:11.441Z</time>
      </trkpt>
      <trkpt lat="52.219433" lon="5.880656">
        <ele>86.519953</ele>
        <time>2026-04-23T02:44:14.920Z</time>
      </trkpt>
      <trkpt lat="52.219304" lon="5.879993">
        <ele>86.550088</ele>
        <time>2026-04-23T02:44:21.365Z</time>
      </trkpt>
      <trkpt lat="52.219236" lon="5.878984">
        <ele>86.594062</ele>
        <time>2026-04-23T02:44:30.335Z</time>
      </trkpt>
      <trkpt lat="52.219022" lon="5.878338">
        <ele>86.637216</ele>
        <time>2026-04-23T02:44:36.920Z</time>
      </trkpt>
      <trkpt lat="52.218895" lon="5.878123">
        <ele>86.656037</ele>
        <time>2026-04-23T02:44:39.672Z</time>
      </trkpt>
      <trkpt lat="52.218811" lon="5.877760">
        <ele>86.680490</ele>
        <time>2026-04-23T02:44:43.296Z</time>
      </trkpt>
      <trkpt lat="52.218682" lon="5.877023">
        <ele>86.728793</ele>
        <time>2026-04-23T02:44:50.552Z</time>
      </trkpt>
      <trkpt lat="52.218632" lon="5.876218">
        <ele>86.779783</ele>
        <time>2026-04-23T02:44:58.328Z</time>
      </trkpt>
      <trkpt lat="52.218631" lon="5.875261">
        <ele>86.588867</ele>
        <time>2026-04-23T02:45:07.685Z</time>
      </trkpt>
      <trkpt lat="52.218569" lon="5.874139">
        <ele>86.330433</ele>
        <time>2026-04-23T02:45:17.045Z</time>
      </trkpt>
      <trkpt lat="52.218551" lon="5.873800">
        <ele>86.252374</ele>
        <time>2026-04-23T02:45:19.724Z</time>
      </trkpt>
      <trkpt lat="52.218474" lon="5.873350">
        <ele>86.145192</ele>
        <time>2026-04-23T02:45:23.297Z</time>
      </trkpt>
      <trkpt lat="52.218419" lon="5.873198">
        <ele>86.090933</ele>
        <time>2026-04-23T02:45:24.612Z</time>
      </trkpt>
      <trkpt lat="52.218330" lon="5.873054">
        <ele>85.960880</ele>
        <time>2026-04-23T02:45:26.134Z</time>
      </trkpt>
      <trkpt lat="52.218185" lon="5.872962">
        <ele>85.799431</ele>
        <time>2026-04-23T02:45:27.986Z</time>
      </trkpt>
      <trkpt lat="52.218056" lon="5.872924">
        <ele>85.663394</ele>
        <time>2026-04-23T02:45:29.546Z</time>
      </trkpt>
      <trkpt lat="52.217897" lon="5.872903">
        <ele>85.497845</ele>
        <time>2026-04-23T02:45:31.407Z</time>
      </trkpt>
      <trkpt lat="52.217812" lon="5.872891">
        <ele>85.409304</ele>
        <time>2026-04-23T02:45:32.404Z</time>
      </trkpt>
      <trkpt lat="52.217399" lon="5.872917">
        <ele>84.980377</ele>
        <time>2026-04-23T02:45:37.296Z</time>
      </trkpt>
      <trkpt lat="52.216908" lon="5.872941">
        <ele>84.470593</ele>
        <time>2026-04-23T02:45:43.435Z</time>
      </trkpt>
      <trkpt lat="52.216845" lon="5.872828">
        <ele>84.373449</ele>
        <time>2026-04-23T02:45:44.611Z</time>
      </trkpt>
      <trkpt lat="52.216804" lon="5.872810">
        <ele>84.329388</ele>
        <time>2026-04-23T02:45:45.139Z</time>
      </trkpt>
      <trkpt lat="52.216717" lon="5.872844">
        <ele>84.236753</ele>
        <time>2026-04-23T02:45:46.268Z</time>
      </trkpt>
      <trkpt lat="52.216398" lon="5.872967">
        <ele>83.904112</ele>
        <time>2026-04-23T02:45:50.439Z</time>
      </trkpt>
      <trkpt lat="52.215251" lon="5.873481">
        <ele>82.697028</ele>
        <time>2026-04-23T02:46:05.398Z</time>
      </trkpt>
      <trkpt lat="52.214726" lon="5.873702">
        <ele>81.525451</ele>
        <time>2026-04-23T02:46:11.625Z</time>
      </trkpt>
      <trkpt lat="52.214377" lon="5.873619">
        <ele>80.355067</ele>
        <time>2026-04-23T02:46:15.444Z</time>
      </trkpt>
      <trkpt lat="52.213836" lon="5.873415">
        <ele>78.512469</ele>
        <time>2026-04-23T02:46:21.053Z</time>
      </trkpt>
      <trkpt lat="52.213650" lon="5.873301">
        <ele>77.853141</ele>
        <time>2026-04-23T02:46:22.978Z</time>
      </trkpt>
      <trkpt lat="52.213442" lon="5.873091">
        <ele>77.041498</ele>
        <time>2026-04-23T02:46:25.308Z</time>
      </trkpt>
      <trkpt lat="52.213306" lon="5.872861">
        <ele>76.355461</ele>
        <time>2026-04-23T02:46:27.137Z</time>
      </trkpt>
      <trkpt lat="52.212812" lon="5.871558">
        <ele>71.369579</ele>
        <time>2026-04-23T02:46:35.804Z</time>
      </trkpt>
      <trkpt lat="52.212662" lon="5.871335">
        <ele>70.292036</ele>
        <time>2026-04-23T02:46:37.671Z</time>
      </trkpt>
      <trkpt lat="52.211461" lon="5.870594">
        <ele>64.183380</ele>
        <time>2026-04-23T02:46:49.812Z</time>
      </trkpt>
      <trkpt lat="52.211291" lon="5.870540">
        <ele>63.454201</ele>
        <time>2026-04-23T02:46:51.486Z</time>
      </trkpt>
      <trkpt lat="52.211031" lon="5.870552">
        <ele>62.359090</ele>
        <time>2026-04-23T02:46:54.005Z</time>
      </trkpt>
      <trkpt lat="52.210859" lon="5.870472">
        <ele>61.606085</ele>
        <time>2026-04-23T02:46:55.751Z</time>
      </trkpt>
      <trkpt lat="52.210506" lon="5.870085">
        <ele>59.815634</ele>
        <time>2026-04-23T02:46:59.916Z</time>
      </trkpt>
      <trkpt lat="52.210084" lon="5.869485">
        <ele>58.442774</ele>
        <time>2026-04-23T02:47:05.613Z</time>
      </trkpt>
      <trkpt lat="52.210025" lon="5.869325">
        <ele>58.214693</ele>
        <time>2026-04-23T02:47:06.798Z</time>
      </trkpt>
      <trkpt lat="52.209894" lon="5.868941">
        <ele>57.677887</ele>
        <time>2026-04-23T02:47:09.662Z</time>
      </trkpt>
      <trkpt lat="52.209294" lon="5.867615">
        <ele>55.728151</ele>
        <time>2026-04-23T02:47:21.633Z</time>
      </trkpt>
      <trkpt lat="52.209226" lon="5.867278">
        <ele>55.650843</ele>
        <time>2026-04-23T02:47:24.575Z</time>
      </trkpt>
      <trkpt lat="52.209135" lon="5.866082">
        <ele>55.388245</ele>
        <time>2026-04-23T02:47:34.653Z</time>
      </trkpt>
      <trkpt lat="52.208736" lon="5.865280">
        <ele>55.163154</ele>
        <time>2026-04-23T02:47:43.545Z</time>
      </trkpt>
      <trkpt lat="52.208716" lon="5.865173">
        <ele>55.138779</ele>
        <time>2026-04-23T02:47:44.548Z</time>
      </trkpt>
      <trkpt lat="52.208731" lon="5.863545">
        <ele>54.994844</ele>
        <time>2026-04-23T02:47:59.850Z</time>
      </trkpt>
      <trkpt lat="52.208637" lon="5.862931">
        <ele>54.948262</ele>
        <time>2026-04-23T02:48:05.608Z</time>
      </trkpt>
      <trkpt lat="52.208540" lon="5.862587">
        <ele>54.920389</ele>
        <time>2026-04-23T02:48:08.882Z</time>
      </trkpt>
      <trkpt lat="52.208411" lon="5.862324">
        <ele>54.895594</ele>
        <time>2026-04-23T02:48:11.712Z</time>
      </trkpt>
      <trkpt lat="52.206972" lon="5.860116">
        <ele>53.365471</ele>
        <time>2026-04-23T02:48:36.209Z</time>
      </trkpt>
      <trkpt lat="52.206594" lon="5.859674">
        <ele>53.166792</ele>
        <time>2026-04-23T02:48:42.034Z</time>
      </trkpt>
      <trkpt lat="52.206280" lon="5.859487">
        <ele>53.023984</ele>
        <time>2026-04-23T02:48:46.398Z</time>
      </trkpt>
      <trkpt lat="52.205526" lon="5.859143">
        <ele>52.689492</ele>
        <time>2026-04-23T02:48:57.515Z</time>
      </trkpt>
      <trkpt lat="52.205326" lon="5.859010">
        <ele>52.636526</ele>
        <time>2026-04-23T02:49:00.921Z</time>
      </trkpt>
      <trkpt lat="52.204504" lon="5.858089">
        <ele>52.605713</ele>
        <time>2026-04-23T02:49:16.147Z</time>
      </trkpt>
      <trkpt lat="52.204367" lon="5.858002">
        <ele>52.601170</ele>
        <time>2026-04-23T02:49:18.248Z</time>
      </trkpt>
      <trkpt lat="52.203952" lon="5.857896">
        <ele>52.588190</ele>
        <time>2026-04-23T02:49:24.126Z</time>
      </trkpt>
      <trkpt lat="52.203542" lon="5.857714">
        <ele>52.556766</ele>
        <time>2026-04-23T02:49:30.120Z</time>
      </trkpt>
      <trkpt lat="52.203316" lon="5.857550">
        <ele>52.533499</ele>
        <time>2026-04-23T02:49:33.640Z</time>
      </trkpt>
      <trkpt lat="52.203205" lon="5.857421">
        <ele>52.520680</ele>
        <time>2026-04-23T02:49:35.598Z</time>
      </trkpt>
      <trkpt lat="52.203129" lon="5.857292">
        <ele>52.510364</ele>
        <time>2026-04-23T02:49:37.184Z</time>
      </trkpt>
      <trkpt lat="52.203018" lon="5.856981">
        <ele>52.489616</ele>
        <time>2026-04-23T02:49:40.430Z</time>
      </trkpt>
      <trkpt lat="52.202735" lon="5.856030">
        <ele>52.428669</ele>
        <time>2026-04-23T02:49:50.042Z</time>
      </trkpt>
      <trkpt lat="52.202570" lon="5.855364">
        <ele>52.290770</ele>
        <time>2026-04-23T02:49:56.352Z</time>
      </trkpt>
      <trkpt lat="52.202476" lon="5.854984">
        <ele>52.184442</ele>
        <time>2026-04-23T02:49:59.829Z</time>
      </trkpt>
      <trkpt lat="52.202369" lon="5.854553">
        <ele>52.063783</ele>
        <time>2026-04-23T02:50:03.647Z</time>
      </trkpt>
      <trkpt lat="52.202320" lon="5.854235">
        <ele>51.978703</ele>
        <time>2026-04-23T02:50:06.282Z</time>
      </trkpt>
      <trkpt lat="52.202265" lon="5.852775">
        <ele>51.591747</ele>
        <time>2026-04-23T02:50:17.876Z</time>
      </trkpt>
      <trkpt lat="52.202161" lon="5.851507">
        <ele>51.214389</ele>
        <time>2026-04-23T02:50:28.646Z</time>
      </trkpt>
      <trkpt lat="52.202149" lon="5.849901">
        <ele>50.696483</ele>
        <time>2026-04-23T02:50:41.702Z</time>
      </trkpt>
      <trkpt lat="52.201929" lon="5.848614">
        <ele>49.932374</ele>
        <time>2026-04-23T02:50:51.962Z</time>
      </trkpt>
      <trkpt lat="52.201850" lon="5.847461">
        <ele>49.268880</ele>
        <time>2026-04-23T02:51:00.521Z</time>
      </trkpt>
      <trkpt lat="52.201831" lon="5.846388">
        <ele>48.810222</ele>
        <time>2026-04-23T02:51:08.390Z</time>
      </trkpt>
      <trkpt lat="52.201690" lon="5.844968">
        <ele>48.268638</ele>
        <time>2026-04-23T02:51:19.841Z</time>
      </trkpt>
      <trkpt lat="52.201668" lon="5.844671">
        <ele>48.156007</ele>
        <time>2026-04-23T02:51:22.354Z</time>
      </trkpt>
      <trkpt lat="52.201698" lon="5.844419">
        <ele>48.059358</ele>
        <time>2026-04-23T02:51:24.559Z</time>
      </trkpt>
      <trkpt lat="52.201745" lon="5.844072">
        <ele>48.031052</ele>
        <time>2026-04-23T02:51:27.740Z</time>
      </trkpt>
      <trkpt lat="52.201664" lon="5.843254">
        <ele>48.136366</ele>
        <time>2026-04-23T02:51:35.790Z</time>
      </trkpt>
      <trkpt lat="52.201569" lon="5.842975">
        <ele>48.176932</ele>
        <time>2026-04-23T02:51:39.130Z</time>
      </trkpt>
      <trkpt lat="52.201415" lon="5.842740">
        <ele>48.220658</ele>
        <time>2026-04-23T02:51:42.552Z</time>
      </trkpt>
      <trkpt lat="52.201388" lon="5.842623">
        <ele>48.236548</ele>
        <time>2026-04-23T02:51:43.765Z</time>
      </trkpt>
      <trkpt lat="52.201284" lon="5.841398">
        <ele>48.365640</ele>
        <time>2026-04-23T02:51:55.964Z</time>
      </trkpt>
      <trkpt lat="52.201275" lon="5.841139">
        <ele>48.341807</ele>
        <time>2026-04-23T02:51:58.393Z</time>
      </trkpt>
      <trkpt lat="52.201302" lon="5.840715">
        <ele>48.302645</ele>
        <time>2026-04-23T02:52:02.208Z</time>
      </trkpt>
      <trkpt lat="52.201246" lon="5.839992">
        <ele>48.235695</ele>
        <time>2026-04-23T02:52:08.347Z</time>
      </trkpt>
      <trkpt lat="52.201108" lon="5.838460">
        <ele>48.185535</ele>
        <time>2026-04-23T02:52:21.179Z</time>
      </trkpt>
      <trkpt lat="52.201059" lon="5.837917">
        <ele>48.458091</ele>
        <time>2026-04-23T02:52:26.210Z</time>
      </trkpt>
      <trkpt lat="52.200792" lon="5.836584">
        <ele>49.154503</ele>
        <time>2026-04-23T02:52:42.255Z</time>
      </trkpt>
      <trkpt lat="52.200701" lon="5.836581">
        <ele>49.228250</ele>
        <time>2026-04-23T02:52:44.136Z</time>
      </trkpt>
      <trkpt lat="52.200538" lon="5.836541">
        <ele>49.361805</ele>
        <time>2026-04-23T02:52:47.642Z</time>
      </trkpt>
      <trkpt lat="52.200426" lon="5.836601">
        <ele>49.457319</ele>
        <time>2026-04-23T02:52:50.204Z</time>
      </trkpt>
      <trkpt lat="52.200321" lon="5.836792">
        <ele>49.599804</ele>
        <time>2026-04-23T02:52:53.593Z</time>
      </trkpt>
      <trkpt lat="52.199686" lon="5.834303">
        <ele>51.969141</ele>
        <time>2026-04-23T02:53:26.935Z</time>
      </trkpt>
      <trkpt lat="52.199450" lon="5.833550">
        <ele>52.791832</ele>
        <time>2026-04-23T02:53:37.993Z</time>
      </trkpt>
      <trkpt lat="52.199185" lon="5.832846">
        <ele>53.619390</ele>
        <time>2026-04-23T02:53:49.604Z</time>
      </trkpt>
      <trkpt lat="52.198592" lon="5.831749">
        <ele>55.084004</ele>
        <time>2026-04-23T02:54:08.707Z</time>
      </trkpt>
      <trkpt lat="52.198220" lon="5.831078">
        <ele>55.418205</ele>
        <time>2026-04-23T02:54:19.820Z</time>
      </trkpt>
      <trkpt lat="52.197997" lon="5.830622">
        <ele>55.633686</ele>
        <time>2026-04-23T02:54:26.082Z</time>
      </trkpt>
      <trkpt lat="52.197848" lon="5.830033">
        <ele>55.869054</ele>
        <time>2026-04-23T02:54:31.933Z</time>
      </trkpt>
      <trkpt lat="52.197307" lon="5.825873">
        <ele>55.981273</ele>
        <time>2026-04-23T02:57:58.819Z</time>
      </trkpt>
      <trkpt lat="52.196942" lon="5.823068">
        <ele>55.203353</ele>
        <time>2026-04-23T03:00:16.021Z</time>
      </trkpt>
      <trkpt lat="52.196921" lon="5.823075">
        <ele>55.180124</ele>
        <time>2026-04-23T03:00:16.747Z</time>
      </trkpt>
      <trkpt lat="52.196056" lon="5.816684">
        <ele>50.445085</ele>
        <time>2026-04-23T03:01:03.960Z</time>
      </trkpt>
      <trkpt lat="52.195950" lon="5.815782">
        <ele>49.828963</ele>
        <time>2026-04-23T03:01:10.786Z</time>
      </trkpt>
      <trkpt lat="52.195488" lon="5.810745">
        <ele>47.143052</ele>
        <time>2026-04-23T03:01:49.821Z</time>
      </trkpt>
      <trkpt lat="52.195474" lon="5.810660">
        <ele>47.105950</ele>
        <time>2026-04-23T03:01:50.527Z</time>
      </trkpt>
      <trkpt lat="52.195268" lon="5.809573">
        <ele>46.626338</ele>
        <time>2026-04-23T03:01:59.631Z</time>
      </trkpt>
      <trkpt lat="52.194919" lon="5.807689">
        <ele>45.793859</ele>
        <time>2026-04-23T03:02:15.504Z</time>
      </trkpt>
      <trkpt lat="52.194561" lon="5.806685">
        <ele>45.302125</ele>
        <time>2026-04-23T03:02:24.547Z</time>
      </trkpt>
      <trkpt lat="52.193556" lon="5.802382">
        <ele>42.285973</ele>
        <time>2026-04-23T03:02:59.002Z</time>
      </trkpt>
      <trkpt lat="52.193528" lon="5.802294">
        <ele>42.208938</ele>
        <time>2026-04-23T03:02:59.720Z</time>
      </trkpt>
      <trkpt lat="52.193158" lon="5.801883">
        <ele>41.641565</ele>
        <time>2026-04-23T03:03:04.890Z</time>
      </trkpt>
      <trkpt lat="52.193086" lon="5.801705">
        <ele>41.475868</ele>
        <time>2026-04-23T03:03:06.384Z</time>
      </trkpt>
      <trkpt lat="52.193065" lon="5.801682">
        <ele>41.443808</ele>
        <time>2026-04-23T03:03:06.668Z</time>
      </trkpt>
      <trkpt lat="52.193042" lon="5.801643">
        <ele>41.401759</ele>
        <time>2026-04-23T03:03:07.047Z</time>
      </trkpt>
      <trkpt lat="52.193103" lon="5.801395">
        <ele>41.194136</ele>
        <time>2026-04-23T03:03:08.905Z</time>
      </trkpt>
      <trkpt lat="52.193243" lon="5.801298">
        <ele>40.999061</ele>
        <time>2026-04-23T03:03:10.620Z</time>
      </trkpt>
      <trkpt lat="52.193485" lon="5.800964">
        <ele>40.590469</ele>
        <time>2026-04-23T03:03:14.206Z</time>
      </trkpt>
      <trkpt lat="52.193930" lon="5.800449">
        <ele>39.887200</ele>
        <time>2026-04-23T03:03:20.498Z</time>
      </trkpt>
      <trkpt lat="52.194048" lon="5.800234">
        <ele>39.659182</ele>
        <time>2026-04-23T03:03:22.576Z</time>
      </trkpt>
      <trkpt lat="52.194513" lon="5.799711">
        <ele>38.931167</ele>
        <time>2026-04-23T03:03:29.417Z</time>
      </trkpt>
      <trkpt lat="52.194592" lon="5.799552">
        <ele>38.793543</ele>
        <time>2026-04-23T03:03:31.004Z</time>
      </trkpt>
      <trkpt lat="52.195578" lon="5.797784">
        <ele>37.846784</ele>
        <time>2026-04-23T03:03:49.971Z</time>
      </trkpt>
      <trkpt lat="52.195622" lon="5.797591">
        <ele>37.765223</ele>
        <time>2026-04-23T03:03:51.617Z</time>
      </trkpt>
      <trkpt lat="52.195630" lon="5.797519">
        <ele>37.736240</ele>
        <time>2026-04-23T03:03:52.196Z</time>
      </trkpt>
      <trkpt lat="52.196137" lon="5.796085">
        <ele>37.300527</ele>
        <time>2026-04-23T03:04:05.780Z</time>
      </trkpt>
      <trkpt lat="52.196317" lon="5.795476">
        <ele>37.135193</ele>
        <time>2026-04-23T03:04:11.471Z</time>
      </trkpt>
      <trkpt lat="52.196627" lon="5.793945">
        <ele>36.817918</ele>
        <time>2026-04-23T03:04:25.022Z</time>
      </trkpt>
      <trkpt lat="52.196617" lon="5.793731">
        <ele>36.785948</ele>
        <time>2026-04-23T03:04:26.823Z</time>
      </trkpt>
      <trkpt lat="52.196350" lon="5.792140">
        <ele>36.540230</ele>
        <time>2026-04-23T03:04:41.076Z</time>
      </trkpt>
      <trkpt lat="52.196071" lon="5.790441">
        <ele>36.359279</ele>
        <time>2026-04-23T03:04:56.730Z</time>
      </trkpt>
      <trkpt lat="52.195585" lon="5.787287">
        <ele>35.978176</ele>
        <time>2026-04-23T03:05:24.685Z</time>
      </trkpt>
      <trkpt lat="52.195349" lon="5.784717">
        <ele>35.414158</ele>
        <time>2026-04-23T03:05:46.917Z</time>
      </trkpt>
      <trkpt lat="52.195066" lon="5.781307">
        <ele>34.644593</ele>
        <time>2026-04-23T03:06:14.204Z</time>
      </trkpt>
      <trkpt lat="52.194983" lon="5.780336">
        <ele>34.477106</ele>
        <time>2026-04-23T03:06:23.640Z</time>
      </trkpt>
      <trkpt lat="52.194963" lon="5.780171">
        <ele>34.512598</ele>
        <time>2026-04-23T03:06:25.335Z</time>
      </trkpt>
      <trkpt lat="52.194955" lon="5.780007">
        <ele>34.547315</ele>
        <time>2026-04-23T03:06:33.577Z</time>
      </trkpt>
      <trkpt lat="52.194961" lon="5.779914">
        <ele>34.567049</ele>
        <time>2026-04-23T03:06:38.234Z</time>
      </trkpt>
      <trkpt lat="52.194889" lon="5.779987">
        <ele>34.596232</ele>
        <time>2026-04-23T03:06:40.208Z</time>
      </trkpt>
      <trkpt lat="52.194849" lon="5.780034">
        <ele>34.613202</ele>
        <time>2026-04-23T03:06:41.295Z</time>
      </trkpt>
      <trkpt lat="52.194814" lon="5.780043">
        <ele>34.625400</ele>
        <time>2026-04-23T03:06:41.920Z</time>
      </trkpt>
      <trkpt lat="52.194614" lon="5.780093">
        <ele>34.695055</ele>
        <time>2026-04-23T03:06:45.543Z</time>
      </trkpt>
      <trkpt lat="52.193915" lon="5.780329">
        <ele>34.940790</ele>
        <time>2026-04-23T03:06:57.958Z</time>
      </trkpt>
      <trkpt lat="52.193067" lon="5.780609">
        <ele>34.904769</ele>
        <time>2026-04-23T03:07:10.398Z</time>
      </trkpt>
      <trkpt lat="52.192818" lon="5.780694">
        <ele>34.795535</ele>
        <time>2026-04-23T03:07:13.819Z</time>
      </trkpt>
      <trkpt lat="52.192127" lon="5.780945">
        <ele>34.491560</ele>
        <time>2026-04-23T03:07:23.073Z</time>
      </trkpt>
      <trkpt lat="52.192100" lon="5.780955">
        <ele>34.479672</ele>
        <time>2026-04-23T03:07:23.428Z</time>
      </trkpt>
      <trkpt lat="52.191738" lon="5.780683">
        <ele>34.304510</ele>
        <time>2026-04-23T03:07:30.497Z</time>
      </trkpt>
      <trkpt lat="52.191713" lon="5.780668">
        <ele>34.288077</ele>
        <time>2026-04-23T03:07:30.847Z</time>
      </trkpt>
      <trkpt lat="52.191630" lon="5.780628">
        <ele>34.234686</ele>
        <time>2026-04-23T03:07:31.952Z</time>
      </trkpt>
      <trkpt lat="52.191601" lon="5.780550">
        <ele>34.200187</ele>
        <time>2026-04-23T03:07:32.667Z</time>
      </trkpt>
      <trkpt lat="52.191171" lon="5.778719">
        <ele>33.458669</ele>
        <time>2026-04-23T03:07:48.230Z</time>
      </trkpt>
      <trkpt lat="52.190637" lon="5.776969">
        <ele>32.856673</ele>
        <time>2026-04-23T03:08:04.021Z</time>
      </trkpt>
      <trkpt lat="52.189869" lon="5.774859">
        <ele>32.274378</ele>
        <time>2026-04-23T03:08:24.499Z</time>
      </trkpt>
      <trkpt lat="52.189498" lon="5.773861">
        <ele>32.079195</ele>
        <time>2026-04-23T03:08:34.609Z</time>
      </trkpt>
      <trkpt lat="52.189336" lon="5.772929">
        <ele>31.914038</ele>
        <time>2026-04-23T03:08:42.963Z</time>
      </trkpt>
      <trkpt lat="52.189033" lon="5.772100">
        <ele>31.539268</ele>
        <time>2026-04-23T03:08:50.850Z</time>
      </trkpt>
      <trkpt lat="52.188431" lon="5.770456">
        <ele>30.795690</ele>
        <time>2026-04-23T03:09:05.790Z</time>
      </trkpt>
      <trkpt lat="52.188095" lon="5.769857">
        <ele>30.480601</ele>
        <time>2026-04-23T03:09:12.070Z</time>
      </trkpt>
      <trkpt lat="52.187994" lon="5.769681">
        <ele>30.387045</ele>
        <time>2026-04-23T03:09:13.957Z</time>
      </trkpt>
      <trkpt lat="52.187468" lon="5.768040">
        <ele>29.668409</ele>
        <time>2026-04-23T03:09:28.634Z</time>
      </trkpt>
      <trkpt lat="52.186790" lon="5.765925">
        <ele>29.337234</ele>
        <time>2026-04-23T03:09:48.693Z</time>
      </trkpt>
      <trkpt lat="52.186770" lon="5.765867">
        <ele>29.328491</ele>
        <time>2026-04-23T03:09:49.325Z</time>
      </trkpt>
      <trkpt lat="52.186369" lon="5.766365">
        <ele>29.326362</ele>
        <time>2026-04-23T03:09:59.894Z</time>
      </trkpt>
      <trkpt lat="52.185972" lon="5.767015">
        <ele>29.561753</ele>
        <time>2026-04-23T03:10:12.299Z</time>
      </trkpt>
      <trkpt lat="52.185913" lon="5.767163">
        <ele>29.607045</ele>
        <time>2026-04-23T03:10:14.733Z</time>
      </trkpt>
      <trkpt lat="52.185339" lon="5.768626">
        <ele>30.022323</ele>
        <time>2026-04-23T03:10:32.675Z</time>
      </trkpt>
      <trkpt lat="52.184997" lon="5.769786">
        <ele>30.123034</ele>
        <time>2026-04-23T03:10:45.699Z</time>
      </trkpt>
      <trkpt lat="52.184921" lon="5.770256">
        <ele>30.161066</ele>
        <time>2026-04-23T03:10:50.087Z</time>
      </trkpt>
      <trkpt lat="52.184771" lon="5.770109">
        <ele>30.183398</ele>
        <time>2026-04-23T03:10:52.626Z</time>
      </trkpt>
      <trkpt lat="52.184430" lon="5.769696">
        <ele>30.237601</ele>
        <time>2026-04-23T03:10:58.670Z</time>
      </trkpt>
      <trkpt lat="52.184138" lon="5.769447">
        <ele>30.060918</ele>
        <time>2026-04-23T03:11:03.244Z</time>
      </trkpt>
      <trkpt lat="52.183110" lon="5.768730">
        <ele>29.444379</ele>
        <time>2026-04-23T03:11:17.769Z</time>
      </trkpt>
      <trkpt lat="52.182632" lon="5.768248">
        <ele>29.177404</ele>
        <time>2026-04-23T03:11:24.836Z</time>
      </trkpt>
      <trkpt lat="52.181846" lon="5.767442">
        <ele>28.861250</ele>
        <time>2026-04-23T03:11:36.886Z</time>
      </trkpt>
      <trkpt lat="52.180831" lon="5.766420">
        <ele>28.821193</ele>
        <time>2026-04-23T03:11:55.251Z</time>
      </trkpt>
      <trkpt lat="52.180636" lon="5.766169">
        <ele>28.909460</ele>
        <time>2026-04-23T03:11:59.555Z</time>
      </trkpt>
      <trkpt lat="52.180206" lon="5.765476">
        <ele>29.124259</ele>
        <time>2026-04-23T03:12:09.853Z</time>
      </trkpt>
      <trkpt lat="52.180177" lon="5.765417">
        <ele>29.140734</ele>
        <time>2026-04-23T03:12:10.635Z</time>
      </trkpt>
      <trkpt lat="52.179115" lon="5.764664">
        <ele>29.372235</ele>
        <time>2026-04-23T03:12:35.308Z</time>
      </trkpt>
      <trkpt lat="52.178738" lon="5.764367">
        <ele>29.425003</ele>
        <time>2026-04-23T03:12:43.808Z</time>
      </trkpt>
      <trkpt lat="52.178020" lon="5.763830">
        <ele>29.499999</ele>
        <time>2026-04-23T03:12:59.677Z</time>
      </trkpt>
      <trkpt lat="52.175179" lon="5.761772">
        <ele>29.293312</ele>
        <time>2026-04-23T03:14:02.513Z</time>
      </trkpt>
      <trkpt lat="52.174698" lon="5.761393">
        <ele>29.112250</ele>
        <time>2026-04-23T03:14:12.432Z</time>
      </trkpt>
      <trkpt lat="52.173504" lon="5.760541">
        <ele>28.349564</ele>
        <time>2026-04-23T03:14:35.664Z</time>
      </trkpt>
      <trkpt lat="52.173136" lon="5.760254">
        <ele>28.199198</ele>
        <time>2026-04-23T03:14:43.198Z</time>
      </trkpt>
      <trkpt lat="52.169916" lon="5.757860">
        <ele>28.253832</ele>
        <time>2026-04-23T03:15:56.229Z</time>
      </trkpt>
      <trkpt lat="52.169868" lon="5.757878">
        <ele>28.241165</ele>
        <time>2026-04-23T03:15:57.176Z</time>
      </trkpt>
      <trkpt lat="52.169773" lon="5.757914">
        <ele>28.216084</ele>
        <time>2026-04-23T03:15:59.040Z</time>
      </trkpt>
      <trkpt lat="52.169346" lon="5.758094">
        <ele>28.102665</ele>
        <time>2026-04-23T03:16:07.305Z</time>
      </trkpt>
      <trkpt lat="52.168892" lon="5.758193">
        <ele>27.984874</ele>
        <time>2026-04-23T03:16:16.079Z</time>
      </trkpt>
      <trkpt lat="52.168690" lon="5.758182">
        <ele>27.932898</ele>
        <time>2026-04-23T03:16:19.924Z</time>
      </trkpt>
      <trkpt lat="52.168426" lon="5.758108">
        <ele>27.864011</ele>
        <time>2026-04-23T03:16:25.042Z</time>
      </trkpt>
      <trkpt lat="52.168160" lon="5.757930">
        <ele>27.809256</ele>
        <time>2026-04-23T03:16:30.607Z</time>
      </trkpt>
      <trkpt lat="52.168003" lon="5.757738">
        <ele>27.796642</ele>
        <time>2026-04-23T03:16:34.440Z</time>
      </trkpt>
      <trkpt lat="52.167105" lon="5.757688">
        <ele>27.738892</ele>
        <time>2026-04-23T03:16:59.386Z</time>
      </trkpt>
      <trkpt lat="52.166156" lon="5.757255">
        <ele>27.737534</ele>
        <time>2026-04-23T03:17:26.499Z</time>
      </trkpt>
      <trkpt lat="52.165806" lon="5.757140">
        <ele>27.772658</ele>
        <time>2026-04-23T03:17:36.647Z</time>
      </trkpt>
      <trkpt lat="52.165670" lon="5.757140">
        <ele>27.786037</ele>
        <time>2026-04-23T03:17:40.546Z</time>
      </trkpt>
      <trkpt lat="52.164928" lon="5.757330">
        <ele>27.859926</ele>
        <time>2026-04-23T03:18:02.114Z</time>
      </trkpt>
      <trkpt lat="52.164517" lon="5.757507">
        <ele>27.806552</ele>
        <time>2026-04-23T03:18:14.108Z</time>
      </trkpt>
      <trkpt lat="52.164257" lon="5.757732">
        <ele>27.724166</ele>
        <time>2026-04-23T03:18:22.171Z</time>
      </trkpt>
      <trkpt lat="52.164129" lon="5.757779">
        <ele>27.687443</ele>
        <time>2026-04-23T03:18:25.673Z</time>
      </trkpt>
      <trkpt lat="52.163787" lon="5.757789">
        <ele>27.591708</ele>
        <time>2026-04-23T03:18:34.729Z</time>
      </trkpt>
      <trkpt lat="52.163402" lon="5.757703">
        <ele>27.482947</ele>
        <time>2026-04-23T03:18:44.832Z</time>
      </trkpt>
      <trkpt lat="52.163148" lon="5.757513">
        <ele>27.404730</ele>
        <time>2026-04-23T03:18:52.037Z</time>
      </trkpt>
      <trkpt lat="52.162459" lon="5.756704">
        <ele>27.084471</ele>
        <time>2026-04-23T03:19:14.115Z</time>
      </trkpt>
      <trkpt lat="52.162177" lon="5.756399">
        <ele>26.951862</ele>
        <time>2026-04-23T03:19:23.085Z</time>
      </trkpt>
      <trkpt lat="52.161663" lon="5.755967">
        <ele>26.725260</ele>
        <time>2026-04-23T03:19:38.597Z</time>
      </trkpt>
      <trkpt lat="52.159719" lon="5.755904">
        <ele>26.263775</ele>
        <time>2026-04-23T03:20:31.330Z</time>
      </trkpt>
      <trkpt lat="52.159360" lon="5.755852">
        <ele>26.100129</ele>
        <time>2026-04-23T03:20:40.942Z</time>
      </trkpt>
      <trkpt lat="52.156517" lon="5.755275">
        <ele>24.811435</ele>
        <time>2026-04-23T03:21:55.374Z</time>
      </trkpt>
      <trkpt lat="52.156151" lon="5.755044">
        <ele>24.644863</ele>
        <time>2026-04-23T03:22:05.802Z</time>
      </trkpt>
      <trkpt lat="52.155569" lon="5.754668">
        <ele>24.600093</ele>
        <time>2026-04-23T03:22:22.700Z</time>
      </trkpt>
      <trkpt lat="52.155087" lon="5.754270">
        <ele>24.561454</ele>
        <time>2026-04-23T03:22:37.593Z</time>
      </trkpt>
      <trkpt lat="52.154403" lon="5.753805">
        <ele>24.578106</ele>
        <time>2026-04-23T03:22:58.292Z</time>
      </trkpt>
      <trkpt lat="52.154237" lon="5.753792">
        <ele>24.654563</ele>
        <time>2026-04-23T03:23:03.042Z</time>
      </trkpt>
      <trkpt lat="52.153458" lon="5.754109">
        <ele>25.023946</ele>
        <time>2026-04-23T03:23:27.051Z</time>
      </trkpt>
      <trkpt lat="52.152619" lon="5.754389">
        <ele>25.338154</ele>
        <time>2026-04-23T03:23:53.396Z</time>
      </trkpt>
      <trkpt lat="52.152436" lon="5.754419">
        <ele>25.329832</ele>
        <time>2026-04-23T03:23:58.828Z</time>
      </trkpt>
      <trkpt lat="52.152209" lon="5.754441">
        <ele>25.319542</ele>
        <time>2026-04-23T03:24:05.457Z</time>
      </trkpt>
      <trkpt lat="52.151908" lon="5.754334">
        <ele>25.305603</ele>
        <time>2026-04-23T03:24:13.986Z</time>
      </trkpt>
      <trkpt lat="52.150953" lon="5.754092">
        <ele>25.248349</ele>
        <time>2026-04-23T03:24:39.205Z</time>
      </trkpt>
      <trkpt lat="52.150008" lon="5.749734">
        <ele>24.359045</ele>
        <time>2026-04-23T03:25:54.839Z</time>
      </trkpt>
      <trkpt lat="52.149093" lon="5.745515">
        <ele>23.794088</ele>
        <time>2026-04-23T03:27:09.261Z</time>
      </trkpt>
      <trkpt lat="52.148653" lon="5.741529">
        <ele>23.279288</ele>
        <time>2026-04-23T03:28:16.425Z</time>
      </trkpt>
      <trkpt lat="52.148612" lon="5.741195">
        <ele>23.232519</ele>
        <time>2026-04-23T03:28:21.989Z</time>
      </trkpt>
      <trkpt lat="52.148575" lon="5.741052">
        <ele>23.211209</ele>
        <time>2026-04-23T03:28:24.491Z</time>
      </trkpt>
      <trkpt lat="52.148509" lon="5.741074">
        <ele>23.196134</ele>
        <time>2026-04-23T03:28:25.425Z</time>
      </trkpt>
      <trkpt lat="52.147994" lon="5.739211">
        <ele>22.801908</ele>
        <time>2026-04-23T03:28:43.042Z</time>
      </trkpt>
      <trkpt lat="52.147591" lon="5.737775">
        <ele>22.437120</ele>
        <time>2026-04-23T03:28:55.961Z</time>
      </trkpt>
      <trkpt lat="52.147428" lon="5.737201">
        <ele>22.225782</ele>
        <time>2026-04-23T03:29:01.057Z</time>
      </trkpt>
      <trkpt lat="52.147284" lon="5.736914">
        <ele>22.091120</ele>
        <time>2026-04-23T03:29:03.976Z</time>
      </trkpt>
      <trkpt lat="52.147295" lon="5.736710">
        <ele>22.016734</ele>
        <time>2026-04-23T03:29:05.543Z</time>
      </trkpt>
      <trkpt lat="52.146862" lon="5.735130">
        <ele>21.388182</ele>
        <time>2026-04-23T03:29:18.985Z</time>
      </trkpt>
      <trkpt lat="52.145987" lon="5.731234">
        <ele>21.157440</ele>
        <time>2026-04-23T03:29:56.674Z</time>
      </trkpt>
      <trkpt lat="52.145870" lon="5.730687">
        <ele>21.134733</ele>
        <time>2026-04-23T03:30:01.986Z</time>
      </trkpt>
      <trkpt lat="52.145008" lon="5.727675">
        <ele>20.958957</ele>
        <time>2026-04-23T03:30:31.292Z</time>
      </trkpt>
      <trkpt lat="52.144280" lon="5.725140">
        <ele>20.751825</ele>
        <time>2026-04-23T03:30:56.430Z</time>
      </trkpt>
      <trkpt lat="52.144190" lon="5.724780">
        <ele>20.720818</ele>
        <time>2026-04-23T03:30:59.852Z</time>
      </trkpt>
      <trkpt lat="52.144180" lon="5.724660">
        <ele>20.711158</ele>
        <time>2026-04-23T03:31:00.911Z</time>
      </trkpt>
      <trkpt lat="52.144153" lon="5.724545">
        <ele>20.701337</ele>
        <time>2026-04-23T03:31:01.985Z</time>
      </trkpt>
      <trkpt lat="52.143996" lon="5.721880">
        <ele>20.026015</ele>
        <time>2026-04-23T03:31:23.924Z</time>
      </trkpt>
      <trkpt lat="52.143763" lon="5.721868">
        <ele>19.919600</ele>
        <time>2026-04-23T03:31:26.938Z</time>
      </trkpt>
      <trkpt lat="52.143510" lon="5.721961">
        <ele>19.810297</ele>
        <time>2026-04-23T03:31:30.319Z</time>
      </trkpt>
      <trkpt lat="52.143291" lon="5.720887">
        <ele>19.551674</ele>
        <time>2026-04-23T03:31:39.506Z</time>
      </trkpt>
      <trkpt lat="52.143244" lon="5.720524">
        <ele>19.466896</ele>
        <time>2026-04-23T03:31:42.621Z</time>
      </trkpt>
      <trkpt lat="52.143207" lon="5.720109">
        <ele>19.371064</ele>
        <time>2026-04-23T03:31:46.236Z</time>
      </trkpt>
      <trkpt lat="52.143197" lon="5.718898">
        <ele>19.140656</ele>
        <time>2026-04-23T03:31:56.751Z</time>
      </trkpt>
      <trkpt lat="52.143220" lon="5.718320">
        <ele>19.079240</ele>
        <time>2026-04-23T03:32:01.750Z</time>
      </trkpt>
      <trkpt lat="52.143210" lon="5.716050">
        <ele>18.862925</ele>
        <time>2026-04-23T03:32:21.329Z</time>
      </trkpt>
      <trkpt lat="52.142992" lon="5.714268">
        <ele>18.819516</ele>
        <time>2026-04-23T03:32:37.883Z</time>
      </trkpt>
      <trkpt lat="52.142603" lon="5.711858">
        <ele>18.744228</ele>
        <time>2026-04-23T03:33:00.672Z</time>
      </trkpt>
      <trkpt lat="52.142531" lon="5.710837">
        <ele>18.710009</ele>
        <time>2026-04-23T03:33:09.629Z</time>
      </trkpt>
      <trkpt lat="52.142511" lon="5.710028">
        <ele>18.669667</ele>
        <time>2026-04-23T03:33:16.907Z</time>
      </trkpt>
      <trkpt lat="52.142550" lon="5.709570">
        <ele>18.643629</ele>
        <time>2026-04-23T03:33:21.039Z</time>
      </trkpt>
      <trkpt lat="52.142670" lon="5.709180">
        <ele>18.619063</ele>
        <time>2026-04-23T03:33:24.936Z</time>
      </trkpt>
      <trkpt lat="52.142940" lon="5.708640">
        <ele>18.579841</ele>
        <time>2026-04-23T03:33:31.170Z</time>
      </trkpt>
      <trkpt lat="52.142960" lon="5.708020">
        <ele>18.544880</ele>
        <time>2026-04-23T03:33:36.773Z</time>
      </trkpt>
      <trkpt lat="52.143060" lon="5.707300">
        <ele>18.475300</ele>
        <time>2026-04-23T03:33:43.301Z</time>
      </trkpt>
      <trkpt lat="52.142993" lon="5.705470">
        <ele>18.287187</ele>
        <time>2026-04-23T03:33:58.995Z</time>
      </trkpt>
      <trkpt lat="52.143052" lon="5.705301">
        <ele>18.267236</ele>
        <time>2026-04-23T03:34:00.737Z</time>
      </trkpt>
      <trkpt lat="52.143390" lon="5.705070">
        <ele>18.245555</ele>
        <time>2026-04-23T03:34:06.144Z</time>
      </trkpt>
      <trkpt lat="52.143297" lon="5.704759">
        <ele>18.255870</ele>
        <time>2026-04-23T03:34:09.316Z</time>
      </trkpt>
      <trkpt lat="52.143050" lon="5.703710">
        <ele>18.289369</ele>
        <time>2026-04-23T03:34:19.731Z</time>
      </trkpt>
      <trkpt lat="52.143050" lon="5.703420">
        <ele>18.298015</ele>
        <time>2026-04-23T03:34:22.452Z</time>
      </trkpt>
      <trkpt lat="52.142930" lon="5.702310">
        <ele>18.308639</ele>
        <time>2026-04-23T03:34:32.903Z</time>
      </trkpt>
      <trkpt lat="52.142890" lon="5.701760">
        <ele>18.275203</ele>
        <time>2026-04-23T03:34:37.899Z</time>
      </trkpt>
      <trkpt lat="52.142940" lon="5.701620">
        <ele>18.265424</ele>
        <time>2026-04-23T03:34:39.343Z</time>
      </trkpt>
      <trkpt lat="52.144880" lon="5.699430">
        <ele>17.976586</ele>
        <time>2026-04-23T03:35:13.176Z</time>
      </trkpt>
      <trkpt lat="52.145060" lon="5.699120">
        <ele>17.937995</ele>
        <time>2026-04-23T03:35:16.886Z</time>
      </trkpt>
      <trkpt lat="52.145268" lon="5.698862">
        <ele>17.899478</ele>
        <time>2026-04-23T03:35:20.557Z</time>
      </trkpt>
      <trkpt lat="52.145100" lon="5.698530">
        <ele>17.842984</ele>
        <time>2026-04-23T03:35:24.233Z</time>
      </trkpt>
      <trkpt lat="52.144840" lon="5.698150">
        <ele>17.749404</ele>
        <time>2026-04-23T03:35:29.063Z</time>
      </trkpt>
      <trkpt lat="52.144722" lon="5.697906">
        <ele>17.698323</ele>
        <time>2026-04-23T03:35:31.688Z</time>
      </trkpt>
      <trkpt lat="52.144770" lon="5.697630">
        <ele>17.651154</ele>
        <time>2026-04-23T03:35:34.109Z</time>
      </trkpt>
      <trkpt lat="52.145136" lon="5.696626">
        <ele>17.459138</ele>
        <time>2026-04-23T03:35:43.941Z</time>
      </trkpt>
      <trkpt lat="52.146750" lon="5.689110">
        <ele>16.901002</ele>
        <time>2026-04-23T03:36:54.387Z</time>
      </trkpt>
      <trkpt lat="52.147710" lon="5.684480">
        <ele>16.663041</ele>
        <time>2026-04-23T03:37:37.821Z</time>
      </trkpt>
      <trkpt lat="52.147782" lon="5.684048">
        <ele>16.668482</ele>
        <time>2026-04-23T03:37:41.917Z</time>
      </trkpt>
      <trkpt lat="52.147860" lon="5.683360">
        <ele>16.676985</ele>
        <time>2026-04-23T03:37:48.421Z</time>
      </trkpt>
      <trkpt lat="52.147804" lon="5.681423">
        <ele>16.638738</ele>
        <time>2026-04-23T03:38:06.129Z</time>
      </trkpt>
      <trkpt lat="52.147790" lon="5.679670">
        <ele>16.542520</ele>
        <time>2026-04-23T03:38:21.506Z</time>
      </trkpt>
      <trkpt lat="52.147844" lon="5.678891">
        <ele>16.522826</ele>
        <time>2026-04-23T03:38:28.479Z</time>
      </trkpt>
      <trkpt lat="52.147811" lon="5.676692">
        <ele>16.499295</ele>
        <time>2026-04-23T03:38:48.798Z</time>
      </trkpt>
      <trkpt lat="52.147843" lon="5.675628">
        <ele>16.474186</ele>
        <time>2026-04-23T03:38:58.388Z</time>
      </trkpt>
      <trkpt lat="52.148183" lon="5.673542">
        <ele>16.423285</ele>
        <time>2026-04-23T03:39:17.425Z</time>
      </trkpt>
      <trkpt lat="52.148224" lon="5.673237">
        <ele>16.437891</ele>
        <time>2026-04-23T03:39:20.248Z</time>
      </trkpt>
      <trkpt lat="52.148227" lon="5.672690">
        <ele>16.463480</ele>
        <time>2026-04-23T03:39:25.255Z</time>
      </trkpt>
      <trkpt lat="52.148145" lon="5.672235">
        <ele>16.485664</ele>
        <time>2026-04-23T03:39:29.613Z</time>
      </trkpt>
      <trkpt lat="52.147699" lon="5.671123">
        <ele>16.547810</ele>
        <time>2026-04-23T03:39:42.344Z</time>
      </trkpt>
      <trkpt lat="52.147531" lon="5.670635">
        <ele>16.577940</ele>
        <time>2026-04-23T03:39:47.669Z</time>
      </trkpt>
      <trkpt lat="52.147445" lon="5.670058">
        <ele>16.611909</ele>
        <time>2026-04-23T03:39:53.414Z</time>
      </trkpt>
      <trkpt lat="52.147300" lon="5.669029">
        <ele>16.672307</ele>
        <time>2026-04-23T03:40:03.543Z</time>
      </trkpt>
      <trkpt lat="52.147269" lon="5.668534">
        <ele>16.700772</ele>
        <time>2026-04-23T03:40:08.211Z</time>
      </trkpt>
      <trkpt lat="52.147323" lon="5.667565">
        <ele>16.573489</ele>
        <time>2026-04-23T03:40:16.701Z</time>
      </trkpt>
      <trkpt lat="52.147362" lon="5.666893">
        <ele>16.394792</ele>
        <time>2026-04-23T03:40:22.313Z</time>
      </trkpt>
      <trkpt lat="52.147393" lon="5.666721">
        <ele>16.347334</ele>
        <time>2026-04-23T03:40:23.760Z</time>
      </trkpt>
      <trkpt lat="52.147826" lon="5.665490">
        <ele>15.971701</ele>
        <time>2026-04-23T03:40:34.960Z</time>
      </trkpt>
      <trkpt lat="52.147837" lon="5.665216">
        <ele>15.904351</ele>
        <time>2026-04-23T03:40:37.101Z</time>
      </trkpt>
      <trkpt lat="52.147756" lon="5.662384">
        <ele>15.263263</ele>
        <time>2026-04-23T03:41:00.657Z</time>
      </trkpt>
      <trkpt lat="52.147753" lon="5.662292">
        <ele>15.270110</ele>
        <time>2026-04-23T03:41:01.534Z</time>
      </trkpt>
      <trkpt lat="52.147751" lon="5.662223">
        <ele>15.275243</ele>
        <time>2026-04-23T03:41:02.175Z</time>
      </trkpt>
      <trkpt lat="52.147741" lon="5.661666">
        <ele>15.316654</ele>
        <time>2026-04-23T03:41:07.453Z</time>
      </trkpt>
      <trkpt lat="52.147782" lon="5.661414">
        <ele>15.336028</ele>
        <time>2026-04-23T03:41:09.958Z</time>
      </trkpt>
      <trkpt lat="52.147653" lon="5.661303">
        <ele>15.353695</ele>
        <time>2026-04-23T03:41:12.262Z</time>
      </trkpt>
      <trkpt lat="52.147439" lon="5.661176">
        <ele>15.381277</ele>
        <time>2026-04-23T03:41:15.907Z</time>
      </trkpt>
      <trkpt lat="52.146240" lon="5.661470">
        <ele>15.460780</ele>
        <time>2026-04-23T03:41:35.016Z</time>
      </trkpt>
      <trkpt lat="52.146037" lon="5.661424">
        <ele>15.454433</ele>
        <time>2026-04-23T03:41:38.036Z</time>
      </trkpt>
      <trkpt lat="52.143613" lon="5.658081">
        <ele>15.054195</ele>
        <time>2026-04-23T03:42:23.309Z</time>
      </trkpt>
      <trkpt lat="52.142365" lon="5.656737">
        <ele>14.662960</ele>
        <time>2026-04-23T03:42:43.702Z</time>
      </trkpt>
      <trkpt lat="52.142283" lon="5.656649">
        <ele>14.640427</ele>
        <time>2026-04-23T03:42:45.064Z</time>
      </trkpt>
      <trkpt lat="52.140477" lon="5.654763">
        <ele>14.372902</ele>
        <time>2026-04-23T03:43:16.256Z</time>
      </trkpt>
      <trkpt lat="52.140289" lon="5.654640">
        <ele>14.338446</ele>
        <time>2026-04-23T03:43:19.265Z</time>
      </trkpt>
      <trkpt lat="52.139325" lon="5.654365">
        <ele>14.171997</ele>
        <time>2026-04-23T03:43:33.100Z</time>
      </trkpt>
      <trkpt lat="52.139159" lon="5.654244">
        <ele>14.141067</ele>
        <time>2026-04-23T03:43:35.593Z</time>
      </trkpt>
      <trkpt lat="52.139087" lon="5.654098">
        <ele>14.117782</ele>
        <time>2026-04-23T03:43:37.173Z</time>
      </trkpt>
      <trkpt lat="52.139022" lon="5.653768">
        <ele>14.064831</ele>
        <time>2026-04-23T03:43:40.085Z</time>
      </trkpt>
      <trkpt lat="52.138895" lon="5.652519">
        <ele>13.871407</ele>
        <time>2026-04-23T03:43:50.800Z</time>
      </trkpt>
      <trkpt lat="52.138718" lon="5.651528">
        <ele>13.713719</ele>
        <time>2026-04-23T03:43:59.751Z</time>
      </trkpt>
      <trkpt lat="52.138680" lon="5.650848">
        <ele>13.674693</ele>
        <time>2026-04-23T03:44:07.974Z</time>
      </trkpt>
      <trkpt lat="52.138593" lon="5.649225">
        <ele>13.650153</ele>
        <time>2026-04-23T03:44:28.119Z</time>
      </trkpt>
      <trkpt lat="52.138587" lon="5.646846">
        <ele>13.564884</ele>
        <time>2026-04-23T03:44:58.029Z</time>
      </trkpt>
      <trkpt lat="52.138579" lon="5.646314">
        <ele>13.539914</ele>
        <time>2026-04-23T03:45:04.372Z</time>
      </trkpt>
      <trkpt lat="52.138495" lon="5.645063">
        <ele>13.458966</ele>
        <time>2026-04-23T03:45:19.210Z</time>
      </trkpt>
      <trkpt lat="52.138416" lon="5.644426">
        <ele>13.393911</ele>
        <time>2026-04-23T03:45:26.803Z</time>
      </trkpt>
      <trkpt lat="52.138263" lon="5.643403">
        <ele>13.288509</ele>
        <time>2026-04-23T03:45:39.391Z</time>
      </trkpt>
      <trkpt lat="52.138238" lon="5.643075">
        <ele>13.255423</ele>
        <time>2026-04-23T03:45:43.453Z</time>
      </trkpt>
      <trkpt lat="52.138150" lon="5.641240">
        <ele>13.219257</ele>
        <time>2026-04-23T03:46:06.247Z</time>
      </trkpt>
      <trkpt lat="52.138207" lon="5.639995">
        <ele>13.230704</ele>
        <time>2026-04-23T03:46:21.911Z</time>
      </trkpt>
      <trkpt lat="52.138224" lon="5.639795">
        <ele>13.232555</ele>
        <time>2026-04-23T03:46:24.475Z</time>
      </trkpt>
      <trkpt lat="52.138320" lon="5.638600">
        <ele>13.254424</ele>
        <time>2026-04-23T03:46:39.768Z</time>
      </trkpt>
      <trkpt lat="52.138320" lon="5.637890">
        <ele>13.268045</ele>
        <time>2026-04-23T03:46:48.758Z</time>
      </trkpt>
      <trkpt lat="52.138208" lon="5.635960">
        <ele>13.230102</ele>
        <time>2026-04-23T03:47:12.683Z</time>
      </trkpt>
      <trkpt lat="52.138250" lon="5.635210">
        <ele>13.173667</ele>
        <time>2026-04-23T03:47:21.794Z</time>
      </trkpt>
      <trkpt lat="52.138225" lon="5.634766">
        <ele>13.140256</ele>
        <time>2026-04-23T03:47:27.118Z</time>
      </trkpt>
      <trkpt lat="52.138130" lon="5.634530">
        <ele>13.119107</ele>
        <time>2026-04-23T03:47:30.475Z</time>
      </trkpt>
      <trkpt lat="52.137980" lon="5.634300">
        <ele>13.093959</ele>
        <time>2026-04-23T03:47:34.468Z</time>
      </trkpt>
      <trkpt lat="52.137593" lon="5.633815">
        <ele>13.020415</ele>
        <time>2026-04-23T03:47:43.975Z</time>
      </trkpt>
      <trkpt lat="52.136548" lon="5.632675">
        <ele>12.807397</ele>
        <time>2026-04-23T03:48:01.796Z</time>
      </trkpt>
      <trkpt lat="52.134880" lon="5.630710">
        <ele>12.423855</ele>
        <time>2026-04-23T03:48:31.314Z</time>
      </trkpt>
      <trkpt lat="52.134000" lon="5.629810">
        <ele>12.043390</ele>
        <time>2026-04-23T03:48:45.168Z</time>
      </trkpt>
      <trkpt lat="52.133543" lon="5.629536">
        <ele>11.865076</ele>
        <time>2026-04-23T03:48:51.677Z</time>
      </trkpt>
      <trkpt lat="52.133360" lon="5.629360">
        <ele>11.787261</ele>
        <time>2026-04-23T03:48:54.573Z</time>
      </trkpt>
      <trkpt lat="52.132280" lon="5.628072">
        <ele>11.692242</ele>
        <time>2026-04-23T03:49:14.054Z</time>
      </trkpt>
      <trkpt lat="52.132421" lon="5.626940">
        <ele>11.661245</ele>
        <time>2026-04-23T03:49:24.933Z</time>
      </trkpt>
      <trkpt lat="52.132664" lon="5.624832">
        <ele>11.658458</ele>
        <time>2026-04-23T03:49:44.453Z</time>
      </trkpt>
      <trkpt lat="52.132684" lon="5.624560">
        <ele>11.658103</ele>
        <time>2026-04-23T03:49:46.867Z</time>
      </trkpt>
      <trkpt lat="52.132663" lon="5.624001">
        <ele>11.615485</ele>
        <time>2026-04-23T03:49:51.767Z</time>
      </trkpt>
      <trkpt lat="52.132543" lon="5.623064">
        <ele>11.508118</ele>
        <time>2026-04-23T03:49:59.990Z</time>
      </trkpt>
      <trkpt lat="52.132354" lon="5.622132">
        <ele>11.398018</ele>
        <time>2026-04-23T03:50:08.295Z</time>
      </trkpt>
      <trkpt lat="52.131978" lon="5.620530">
        <ele>11.386528</ele>
        <time>2026-04-23T03:50:23.849Z</time>
      </trkpt>
      <trkpt lat="52.131908" lon="5.619975">
        <ele>11.416024</ele>
        <time>2026-04-23T03:50:29.263Z</time>
      </trkpt>
      <trkpt lat="52.131876" lon="5.619385">
        <ele>11.446857</ele>
        <time>2026-04-23T03:50:34.974Z</time>
      </trkpt>
      <trkpt lat="52.131885" lon="5.618835">
        <ele>11.475499</ele>
        <time>2026-04-23T03:50:40.268Z</time>
      </trkpt>
      <trkpt lat="52.132043" lon="5.615556">
        <ele>11.518083</ele>
        <time>2026-04-23T03:51:09.968Z</time>
      </trkpt>
      <trkpt lat="52.132022" lon="5.613145">
        <ele>11.593146</ele>
        <time>2026-04-23T03:51:32.551Z</time>
      </trkpt>
      <trkpt lat="52.131935" lon="5.608744">
        <ele>11.606274</ele>
        <time>2026-04-23T03:52:12.719Z</time>
      </trkpt>
      <trkpt lat="52.131945" lon="5.608336">
        <ele>11.584637</ele>
        <time>2026-04-23T03:52:16.306Z</time>
      </trkpt>
      <trkpt lat="52.131999" lon="5.607647">
        <ele>11.547831</ele>
        <time>2026-04-23T03:52:22.401Z</time>
      </trkpt>
      <trkpt lat="52.132097" lon="5.606904">
        <ele>11.496644</ele>
        <time>2026-04-23T03:52:29.058Z</time>
      </trkpt>
      <trkpt lat="52.132313" lon="5.605921">
        <ele>11.351164</ele>
        <time>2026-04-23T03:52:38.225Z</time>
      </trkpt>
      <trkpt lat="52.132434" lon="5.605510">
        <ele>11.287650</ele>
        <time>2026-04-23T03:52:42.258Z</time>
      </trkpt>
      <trkpt lat="52.132718" lon="5.604728">
        <ele>11.161046</ele>
        <time>2026-04-23T03:52:50.034Z</time>
      </trkpt>
      <trkpt lat="52.133011" lon="5.604191">
        <ele>11.007270</ele>
        <time>2026-04-23T03:52:56.017Z</time>
      </trkpt>
      <trkpt lat="52.133232" lon="5.603954">
        <ele>10.875656</ele>
        <time>2026-04-23T03:52:59.492Z</time>
      </trkpt>
      <trkpt lat="52.133258" lon="5.603866">
        <ele>10.845835</ele>
        <time>2026-04-23T03:53:00.275Z</time>
      </trkpt>
      <trkpt lat="52.133200" lon="5.603799">
        <ele>10.810467</ele>
        <time>2026-04-23T03:53:01.227Z</time>
      </trkpt>
      <trkpt lat="52.133153" lon="5.603711">
        <ele>10.774849</ele>
        <time>2026-04-23T03:53:02.181Z</time>
      </trkpt>
      <trkpt lat="52.133061" lon="5.603368">
        <ele>10.660555</ele>
        <time>2026-04-23T03:53:05.295Z</time>
      </trkpt>
      <trkpt lat="52.132984" lon="5.603272">
        <ele>10.612323</ele>
        <time>2026-04-23T03:53:06.623Z</time>
      </trkpt>
      <trkpt lat="52.132963" lon="5.603173">
        <ele>10.580340</ele>
        <time>2026-04-23T03:53:07.516Z</time>
      </trkpt>
      <trkpt lat="52.132981" lon="5.602970">
        <ele>10.517712</ele>
        <time>2026-04-23T03:53:09.248Z</time>
      </trkpt>
      <trkpt lat="52.133020" lon="5.602891">
        <ele>10.486757</ele>
        <time>2026-04-23T03:53:10.089Z</time>
      </trkpt>
      <trkpt lat="52.133061" lon="5.602840">
        <ele>10.461096</ele>
        <time>2026-04-23T03:53:10.795Z</time>
      </trkpt>
      <trkpt lat="52.133129" lon="5.602786">
        <ele>10.423466</ele>
        <time>2026-04-23T03:53:11.827Z</time>
      </trkpt>
      <trkpt lat="52.132904" lon="5.602402">
        <ele>10.261371</ele>
        <time>2026-04-23T03:53:16.520Z</time>
      </trkpt>
      <trkpt lat="52.132650" lon="5.601877">
        <ele>9.924011</ele>
        <time>2026-04-23T03:53:21.738Z</time>
      </trkpt>
      <trkpt lat="52.132437" lon="5.601454">
        <ele>9.612413</ele>
        <time>2026-04-23T03:53:25.408Z</time>
      </trkpt>
      <trkpt lat="52.132237" lon="5.601283">
        <ele>9.402845</ele>
        <time>2026-04-23T03:53:27.806Z</time>
      </trkpt>
      <trkpt lat="52.132078" lon="5.601247">
        <ele>9.253904</ele>
        <time>2026-04-23T03:53:29.639Z</time>
      </trkpt>
      <trkpt lat="52.132067" lon="5.600876">
        <ele>9.042361</ele>
        <time>2026-04-23T03:53:32.509Z</time>
      </trkpt>
      <trkpt lat="52.132003" lon="5.600623">
        <ele>8.886513</ele>
        <time>2026-04-23T03:53:34.841Z</time>
      </trkpt>
      <trkpt lat="52.131690" lon="5.599997">
        <ele>8.628118</ele>
        <time>2026-04-23T03:53:41.829Z</time>
      </trkpt>
      <trkpt lat="52.131514" lon="5.599630">
        <ele>8.824364</ele>
        <time>2026-04-23T03:53:46.000Z</time>
      </trkpt>
      <trkpt lat="52.131326" lon="5.599250">
        <ele>9.030023</ele>
        <time>2026-04-23T03:53:51.093Z</time>
      </trkpt>
      <trkpt lat="52.131142" lon="5.598901">
        <ele>9.223882</ele>
        <time>2026-04-23T03:53:57.137Z</time>
      </trkpt>
      <trkpt lat="52.131082" lon="5.598795">
        <ele>9.284641</ele>
        <time>2026-04-23T03:53:59.106Z</time>
      </trkpt>
      <trkpt lat="52.131016" lon="5.598668">
        <ele>9.354760</ele>
        <time>2026-04-23T03:54:01.483Z</time>
      </trkpt>
      <trkpt lat="52.130724" lon="5.598067">
        <ele>9.677741</ele>
        <time>2026-04-23T03:54:11.382Z</time>
      </trkpt>
      <trkpt lat="52.130676" lon="5.597969">
        <ele>9.730572</ele>
        <time>2026-04-23T03:54:12.554Z</time>
      </trkpt>
      <trkpt lat="52.130640" lon="5.597848">
        <ele>9.773396</ele>
        <time>2026-04-23T03:54:13.772Z</time>
      </trkpt>
      <trkpt lat="52.130413" lon="5.597082">
        <ele>9.639855</ele>
        <time>2026-04-23T03:54:20.892Z</time>
      </trkpt>
      <trkpt lat="52.130340" lon="5.596814">
        <ele>9.593823</ele>
        <time>2026-04-23T03:54:23.306Z</time>
      </trkpt>
      <trkpt lat="52.130106" lon="5.596012">
        <ele>9.454411</ele>
        <time>2026-04-23T03:54:30.289Z</time>
      </trkpt>
      <trkpt lat="52.130031" lon="5.595762">
        <ele>9.410725</ele>
        <time>2026-04-23T03:54:32.534Z</time>
      </trkpt>
      <trkpt lat="52.129724" lon="5.594837">
        <ele>9.273473</ele>
        <time>2026-04-23T03:54:41.347Z</time>
      </trkpt>
      <trkpt lat="52.129637" lon="5.594603">
        <ele>9.247244</ele>
        <time>2026-04-23T03:54:43.699Z</time>
      </trkpt>
      <trkpt lat="52.129361" lon="5.593835">
        <ele>9.161921</ele>
        <time>2026-04-23T03:54:51.561Z</time>
      </trkpt>
      <trkpt lat="52.129300" lon="5.593687">
        <ele>9.144829</ele>
        <time>2026-04-23T03:54:53.105Z</time>
      </trkpt>
      <trkpt lat="52.129182" lon="5.593621">
        <ele>9.125344</ele>
        <time>2026-04-23T03:54:54.883Z</time>
      </trkpt>
      <trkpt lat="52.128636" lon="5.593443">
        <ele>9.038377</ele>
        <time>2026-04-23T03:55:03.045Z</time>
      </trkpt>
      <trkpt lat="52.128430" lon="5.593377">
        <ele>8.930962</ele>
        <time>2026-04-23T03:55:06.257Z</time>
      </trkpt>
      <trkpt lat="52.127926" lon="5.593210">
        <ele>8.654984</ele>
        <time>2026-04-23T03:55:14.088Z</time>
      </trkpt>
      <trkpt lat="52.127348" lon="5.593044">
        <ele>8.340053</ele>
        <time>2026-04-23T03:55:22.213Z</time>
      </trkpt>
      <trkpt lat="52.127320" lon="5.593039">
        <ele>8.324939</ele>
        <time>2026-04-23T03:55:22.555Z</time>
      </trkpt>
      <trkpt lat="52.126700" lon="5.592880">
        <ele>8.008610</ele>
        <time>2026-04-23T03:55:29.575Z</time>
      </trkpt>
      <trkpt lat="52.126545" lon="5.592862">
        <ele>7.945791</ele>
        <time>2026-04-23T03:55:31.372Z</time>
      </trkpt>
      <trkpt lat="52.126356" lon="5.592848">
        <ele>7.869307</ele>
        <time>2026-04-23T03:55:33.691Z</time>
      </trkpt>
      <trkpt lat="52.125776" lon="5.592684">
        <ele>7.631330</ele>
        <time>2026-04-23T03:55:41.139Z</time>
      </trkpt>
      <trkpt lat="52.125255" lon="5.592263">
        <ele>7.396217</ele>
        <time>2026-04-23T03:55:49.280Z</time>
      </trkpt>
      <trkpt lat="52.125205" lon="5.592213">
        <ele>7.372498</ele>
        <time>2026-04-23T03:55:50.382Z</time>
      </trkpt>
      <trkpt lat="52.125425" lon="5.591591">
        <ele>7.729361</ele>
        <time>2026-04-23T03:56:00.156Z</time>
      </trkpt>
      <trkpt lat="52.125425" lon="5.591428">
        <ele>7.833549</ele>
        <time>2026-04-23T03:56:02.680Z</time>
      </trkpt>
      <trkpt lat="52.125341" lon="5.591224">
        <ele>7.990557</ele>
        <time>2026-04-23T03:56:06.258Z</time>
      </trkpt>
      <trkpt lat="52.125327" lon="5.591109">
        <ele>8.065495</ele>
        <time>2026-04-23T03:56:07.867Z</time>
      </trkpt>
      <trkpt lat="52.125326" lon="5.590910">
        <ele>8.192699</ele>
        <time>2026-04-23T03:56:10.411Z</time>
      </trkpt>
      <trkpt lat="52.125314" lon="5.590718">
        <ele>8.316058</ele>
        <time>2026-04-23T03:56:12.634Z</time>
      </trkpt>
      <trkpt lat="52.125150" lon="5.590238">
        <ele>8.667183</ele>
        <time>2026-04-23T03:56:18.498Z</time>
      </trkpt>
      <trkpt lat="52.125097" lon="5.590157">
        <ele>8.742850</ele>
        <time>2026-04-23T03:56:19.837Z</time>
      </trkpt>
      <trkpt lat="52.124550" lon="5.589399">
        <ele>9.245838</ele>
        <time>2026-04-23T03:56:32.903Z</time>
      </trkpt>
      <trkpt lat="52.124462" lon="5.589215">
        <ele>9.261742</ele>
        <time>2026-04-23T03:56:35.059Z</time>
      </trkpt>
      <trkpt lat="52.124478" lon="5.588997">
        <ele>9.276713</ele>
        <time>2026-04-23T03:56:37.030Z</time>
      </trkpt>
      <trkpt lat="52.124428" lon="5.588903">
        <ele>9.285193</ele>
        <time>2026-04-23T03:56:38.133Z</time>
      </trkpt>
      <trkpt lat="52.124376" lon="5.588795">
        <ele>9.294552</ele>
        <time>2026-04-23T03:56:39.307Z</time>
      </trkpt>
      <trkpt lat="52.124314" lon="5.588674">
        <ele>9.305299</ele>
        <time>2026-04-23T03:56:40.696Z</time>
      </trkpt>
      <trkpt lat="52.124135" lon="5.588672">
        <ele>9.325180</ele>
        <time>2026-04-23T03:56:43.299Z</time>
      </trkpt>
      <trkpt lat="52.124064" lon="5.588602">
        <ele>9.334398</ele>
        <time>2026-04-23T03:56:44.533Z</time>
      </trkpt>
      <trkpt lat="52.123791" lon="5.588189">
        <ele>9.375779</ele>
        <time>2026-04-23T03:56:50.144Z</time>
      </trkpt>
      <trkpt lat="52.123267" lon="5.587203">
        <ele>9.237675</ele>
        <time>2026-04-23T03:57:01.411Z</time>
      </trkpt>
      <trkpt lat="52.122392" lon="5.585533">
        <ele>8.684057</ele>
        <time>2026-04-23T03:57:19.167Z</time>
      </trkpt>
      <trkpt lat="52.122159" lon="5.584928">
        <ele>8.606287</ele>
        <time>2026-04-23T03:57:25.171Z</time>
      </trkpt>
      <trkpt lat="52.121946" lon="5.584184">
        <ele>8.521235</ele>
        <time>2026-04-23T03:57:32.343Z</time>
      </trkpt>
      <trkpt lat="52.120894" lon="5.578978">
        <ele>8.276379</ele>
        <time>2026-04-23T03:58:21.684Z</time>
      </trkpt>
      <trkpt lat="52.120818" lon="5.578162">
        <ele>8.245513</ele>
        <time>2026-04-23T03:58:29.012Z</time>
      </trkpt>
      <trkpt lat="52.120825" lon="5.577543">
        <ele>8.222360</ele>
        <time>2026-04-23T03:58:34.665Z</time>
      </trkpt>
      <trkpt lat="52.120866" lon="5.577005">
        <ele>8.204850</ele>
        <time>2026-04-23T03:58:39.626Z</time>
      </trkpt>
      <trkpt lat="52.120907" lon="5.576922">
        <ele>8.202427</ele>
        <time>2026-04-23T03:58:40.598Z</time>
      </trkpt>
      <trkpt lat="52.120979" lon="5.576910">
        <ele>8.199746</ele>
        <time>2026-04-23T03:58:41.694Z</time>
      </trkpt>
      <trkpt lat="52.120998" lon="5.576841">
        <ele>8.198026</ele>
        <time>2026-04-23T03:58:42.381Z</time>
      </trkpt>
      <trkpt lat="52.121020" lon="5.576709">
        <ele>8.194915</ele>
        <time>2026-04-23T03:58:43.647Z</time>
      </trkpt>
      <trkpt lat="52.121029" lon="5.576642">
        <ele>8.193355</ele>
        <time>2026-04-23T03:58:44.276Z</time>
      </trkpt>
      <trkpt lat="52.120942" lon="5.576557">
        <ele>8.189597</ele>
        <time>2026-04-23T03:58:45.806Z</time>
      </trkpt>
      <trkpt lat="52.120922" lon="5.576389">
        <ele>8.185705</ele>
        <time>2026-04-23T03:58:47.384Z</time>
      </trkpt>
      <trkpt lat="52.121040" lon="5.575634">
        <ele>8.167985</ele>
        <time>2026-04-23T03:58:54.533Z</time>
      </trkpt>
      <trkpt lat="52.121142" lon="5.575165">
        <ele>8.156669</ele>
        <time>2026-04-23T03:58:59.003Z</time>
      </trkpt>
      <trkpt lat="52.121687" lon="5.573403">
        <ele>8.076810</ele>
        <time>2026-04-23T03:59:16.176Z</time>
      </trkpt>
      <trkpt lat="52.122404" lon="5.571047">
        <ele>8.003210</ele>
        <time>2026-04-23T03:59:40.039Z</time>
      </trkpt>
      <trkpt lat="52.122517" lon="5.570474">
        <ele>8.005048</ele>
        <time>2026-04-23T03:59:45.430Z</time>
      </trkpt>
      <trkpt lat="52.122633" lon="5.569144">
        <ele>8.017808</ele>
        <time>2026-04-23T03:59:57.563Z</time>
      </trkpt>
      <trkpt lat="52.122641" lon="5.568909">
        <ele>8.049242</ele>
        <time>2026-04-23T04:00:00.494Z</time>
      </trkpt>
      <trkpt lat="52.122628" lon="5.568753">
        <ele>8.070267</ele>
        <time>2026-04-23T04:00:02.479Z</time>
      </trkpt>
      <trkpt lat="52.122611" lon="5.568581">
        <ele>8.093534</ele>
        <time>2026-04-23T04:00:04.683Z</time>
      </trkpt>
      <trkpt lat="52.122568" lon="5.568175">
        <ele>8.148558</ele>
        <time>2026-04-23T04:00:09.976Z</time>
      </trkpt>
      <trkpt lat="52.122464" lon="5.566844">
        <ele>8.327752</ele>
        <time>2026-04-23T04:00:28.255Z</time>
      </trkpt>
      <trkpt lat="52.122355" lon="5.565388">
        <ele>8.357668</ele>
        <time>2026-04-23T04:00:42.046Z</time>
      </trkpt>
      <trkpt lat="52.122318" lon="5.564612">
        <ele>8.321856</ele>
        <time>2026-04-23T04:00:48.858Z</time>
      </trkpt>
      <trkpt lat="52.122316" lon="5.564581">
        <ele>8.320422</ele>
        <time>2026-04-23T04:00:49.122Z</time>
      </trkpt>
      <trkpt lat="52.122279" lon="5.563976">
        <ele>8.292447</ele>
        <time>2026-04-23T04:00:54.320Z</time>
      </trkpt>
      <trkpt lat="52.122293" lon="5.563675">
        <ele>8.278558</ele>
        <time>2026-04-23T04:00:56.869Z</time>
      </trkpt>
      <trkpt lat="52.122284" lon="5.563567">
        <ele>8.273544</ele>
        <time>2026-04-23T04:00:57.776Z</time>
      </trkpt>
      <trkpt lat="52.122225" lon="5.563226">
        <ele>8.249363</ele>
        <time>2026-04-23T04:01:00.691Z</time>
      </trkpt>
      <trkpt lat="52.122127" lon="5.561794">
        <ele>8.119096</ele>
        <time>2026-04-23T04:01:13.196Z</time>
      </trkpt>
      <trkpt lat="52.122132" lon="5.561667">
        <ele>8.107591</ele>
        <time>2026-04-23T04:01:14.349Z</time>
      </trkpt>
      <trkpt lat="52.122156" lon="5.561598">
        <ele>8.100421</ele>
        <time>2026-04-23T04:01:15.072Z</time>
      </trkpt>
      <trkpt lat="52.122222" lon="5.561530">
        <ele>8.088921</ele>
        <time>2026-04-23T04:01:16.250Z</time>
      </trkpt>
      <trkpt lat="52.122232" lon="5.561426">
        <ele>8.079404</ele>
        <time>2026-04-23T04:01:17.216Z</time>
      </trkpt>
      <trkpt lat="52.122229" lon="5.561316">
        <ele>8.069449</ele>
        <time>2026-04-23T04:01:18.236Z</time>
      </trkpt>
      <trkpt lat="52.122219" lon="5.561234">
        <ele>8.061891</ele>
        <time>2026-04-23T04:01:18.993Z</time>
      </trkpt>
      <trkpt lat="52.122112" lon="5.561117">
        <ele>8.042914</ele>
        <time>2026-04-23T04:01:20.919Z</time>
      </trkpt>
      <trkpt lat="52.122081" lon="5.560942">
        <ele>8.026447</ele>
        <time>2026-04-23T04:01:22.585Z</time>
      </trkpt>
      <trkpt lat="52.121931" lon="5.560973">
        <ele>8.004182</ele>
        <time>2026-04-23T04:01:25.636Z</time>
      </trkpt>
      <trkpt lat="52.121844" lon="5.560992">
        <ele>8.000819</ele>
        <time>2026-04-23T04:01:27.378Z</time>
      </trkpt>
      <trkpt lat="52.121695" lon="5.561137">
        <ele>8.001536</ele>
        <time>2026-04-23T04:01:30.861Z</time>
      </trkpt>
      <trkpt lat="52.121415" lon="5.561192">
        <ele>8.002700</ele>
        <time>2026-04-23T04:01:34.931Z</time>
      </trkpt>
      <trkpt lat="52.121254" lon="5.561216">
        <ele>8.003368</ele>
        <time>2026-04-23T04:01:37.341Z</time>
      </trkpt>
      <trkpt lat="52.120917" lon="5.561194">
        <ele>8.004761</ele>
        <time>2026-04-23T04:01:42.346Z</time>
      </trkpt>
      <trkpt lat="52.120632" lon="5.561106">
        <ele>8.005958</ele>
        <time>2026-04-23T04:01:46.708Z</time>
      </trkpt>
      <trkpt lat="52.120422" lon="5.560975">
        <ele>8.006887</ele>
        <time>2026-04-23T04:01:50.096Z</time>
      </trkpt>
      <trkpt lat="52.120068" lon="5.560646">
        <ele>8.013143</ele>
        <time>2026-04-23T04:01:56.188Z</time>
      </trkpt>
      <trkpt lat="52.118394" lon="5.558868">
        <ele>8.057856</ele>
        <time>2026-04-23T04:02:26.168Z</time>
      </trkpt>
      <trkpt lat="52.114149" lon="5.554248">
        <ele>7.816781</ele>
        <time>2026-04-23T04:03:40.676Z</time>
      </trkpt>
      <trkpt lat="52.113942" lon="5.554089">
        <ele>7.825805</ele>
        <time>2026-04-23T04:03:44.019Z</time>
      </trkpt>
      <trkpt lat="52.113527" lon="5.553862">
        <ele>7.843065</ele>
        <time>2026-04-23T04:03:50.479Z</time>
      </trkpt>
      <trkpt lat="52.113199" lon="5.553887">
        <ele>7.856011</ele>
        <time>2026-04-23T04:03:55.521Z</time>
      </trkpt>
      <trkpt lat="52.112980" lon="5.553834">
        <ele>7.864740</ele>
        <time>2026-04-23T04:03:58.898Z</time>
      </trkpt>
      <trkpt lat="52.112656" lon="5.553694">
        <ele>7.877956</ele>
        <time>2026-04-23T04:04:03.971Z</time>
      </trkpt>
      <trkpt lat="52.112341" lon="5.553496">
        <ele>7.886803</ele>
        <time>2026-04-23T04:04:09.007Z</time>
      </trkpt>
      <trkpt lat="52.110085" lon="5.551433">
        <ele>7.863963</ele>
        <time>2026-04-23T04:04:47.504Z</time>
      </trkpt>
      <trkpt lat="52.109768" lon="5.551112">
        <ele>7.849509</ele>
        <time>2026-04-23T04:04:53.066Z</time>
      </trkpt>
      <trkpt lat="52.108401" lon="5.549918">
        <ele>7.713825</ele>
        <time>2026-04-23T04:05:15.054Z</time>
      </trkpt>
      <trkpt lat="52.107845" lon="5.549391">
        <ele>7.642872</ele>
        <time>2026-04-23T04:05:24.250Z</time>
      </trkpt>
      <trkpt lat="52.107231" lon="5.548984">
        <ele>7.670653</ele>
        <time>2026-04-23T04:05:34.271Z</time>
      </trkpt>
      <trkpt lat="52.105846" lon="5.548714">
        <ele>7.747741</ele>
        <time>2026-04-23T04:05:55.824Z</time>
      </trkpt>
      <trkpt lat="52.105071" lon="5.548605">
        <ele>7.711455</ele>
        <time>2026-04-23T04:06:07.237Z</time>
      </trkpt>
      <trkpt lat="52.104417" lon="5.548575">
        <ele>7.680937</ele>
        <time>2026-04-23T04:06:16.563Z</time>
      </trkpt>
      <trkpt lat="52.104194" lon="5.548534">
        <ele>7.668354</ele>
        <time>2026-04-23T04:06:19.749Z</time>
      </trkpt>
      <trkpt lat="52.103781" lon="5.548322">
        <ele>7.598499</ele>
        <time>2026-04-23T04:06:25.864Z</time>
      </trkpt>
      <trkpt lat="52.102970" lon="5.547608">
        <ele>7.449769</ele>
        <time>2026-04-23T04:06:38.997Z</time>
      </trkpt>
      <trkpt lat="52.102475" lon="5.547221">
        <ele>7.380530</ele>
        <time>2026-04-23T04:06:46.865Z</time>
      </trkpt>
      <trkpt lat="52.102411" lon="5.547116">
        <ele>7.380052</ele>
        <time>2026-04-23T04:06:48.175Z</time>
      </trkpt>
      <trkpt lat="52.102342" lon="5.546815">
        <ele>7.379014</ele>
        <time>2026-04-23T04:06:51.045Z</time>
      </trkpt>
      <trkpt lat="52.102295" lon="5.546766">
        <ele>7.378720</ele>
        <time>2026-04-23T04:06:51.862Z</time>
      </trkpt>
      <trkpt lat="52.102237" lon="5.546757">
        <ele>7.378413</ele>
        <time>2026-04-23T04:06:52.725Z</time>
      </trkpt>
      <trkpt lat="52.102085" lon="5.546893">
        <ele>7.377501</ele>
        <time>2026-04-23T04:06:55.274Z</time>
      </trkpt>
      <trkpt lat="52.101985" lon="5.546885">
        <ele>7.376974</ele>
        <time>2026-04-23T04:06:56.766Z</time>
      </trkpt>
      <trkpt lat="52.099364" lon="5.545350">
        <ele>7.541895</ele>
        <time>2026-04-23T04:07:38.930Z</time>
      </trkpt>
      <trkpt lat="52.098648" lon="5.544868">
        <ele>7.651494</ele>
        <time>2026-04-23T04:07:50.998Z</time>
      </trkpt>
      <trkpt lat="52.096698" lon="5.543611">
        <ele>8.023170</ele>
        <time>2026-04-23T04:08:22.924Z</time>
      </trkpt>
      <trkpt lat="52.096299" lon="5.543373">
        <ele>8.113003</ele>
        <time>2026-04-23T04:08:29.904Z</time>
      </trkpt>
      <trkpt lat="52.096001" lon="5.543251">
        <ele>8.177962</ele>
        <time>2026-04-23T04:08:34.947Z</time>
      </trkpt>
      <trkpt lat="52.095403" lon="5.543157">
        <ele>8.180561</ele>
        <time>2026-04-23T04:08:44.720Z</time>
      </trkpt>
      <trkpt lat="52.092624" lon="5.543018">
        <ele>7.857567</ele>
        <time>2026-04-23T04:09:24.175Z</time>
      </trkpt>
      <trkpt lat="52.092477" lon="5.543004">
        <ele>7.827126</ele>
        <time>2026-04-23T04:09:26.152Z</time>
      </trkpt>
      <trkpt lat="52.092375" lon="5.542973">
        <ele>7.803338</ele>
        <time>2026-04-23T04:09:27.532Z</time>
      </trkpt>
      <trkpt lat="52.089937" lon="5.542503">
        <ele>7.254197</ele>
        <time>2026-04-23T04:10:01.433Z</time>
      </trkpt>
      <trkpt lat="52.089686" lon="5.542429">
        <ele>7.237445</ele>
        <time>2026-04-23T04:10:05.155Z</time>
      </trkpt>
      <trkpt lat="52.085663" lon="5.540309">
        <ele>7.448903</ele>
        <time>2026-04-23T04:11:09.457Z</time>
      </trkpt>
      <trkpt lat="52.084299" lon="5.539795">
        <ele>7.459540</ele>
        <time>2026-04-23T04:11:30.077Z</time>
      </trkpt>
      <trkpt lat="52.083319" lon="5.539308">
        <ele>7.447505</ele>
        <time>2026-04-23T04:11:45.423Z</time>
      </trkpt>
      <trkpt lat="52.082959" lon="5.539170">
        <ele>7.438050</ele>
        <time>2026-04-23T04:11:50.942Z</time>
      </trkpt>
      <trkpt lat="52.082844" lon="5.539149">
        <ele>7.435092</ele>
        <time>2026-04-23T04:11:53.284Z</time>
      </trkpt>
      <trkpt lat="52.082421" lon="5.539147">
        <ele>7.424278</ele>
        <time>2026-04-23T04:11:59.578Z</time>
      </trkpt>
      <trkpt lat="52.081718" lon="5.539320">
        <ele>7.378611</ele>
        <time>2026-04-23T04:12:09.789Z</time>
      </trkpt>
      <trkpt lat="52.081289" lon="5.539400">
        <ele>7.313883</ele>
        <time>2026-04-23T04:12:15.681Z</time>
      </trkpt>
      <trkpt lat="52.080956" lon="5.539400">
        <ele>7.263965</ele>
        <time>2026-04-23T04:12:20.297Z</time>
      </trkpt>
      <trkpt lat="52.080255" lon="5.539164">
        <ele>7.156659</ele>
        <time>2026-04-23T04:12:30.617Z</time>
      </trkpt>
      <trkpt lat="52.080235" lon="5.539154">
        <ele>7.153522</ele>
        <time>2026-04-23T04:12:30.928Z</time>
      </trkpt>
      <trkpt lat="52.080121" lon="5.539112">
        <ele>7.147774</ele>
        <time>2026-04-23T04:12:32.636Z</time>
      </trkpt>
      <trkpt lat="52.079971" lon="5.539127">
        <ele>7.168485</ele>
        <time>2026-04-23T04:12:34.860Z</time>
      </trkpt>
      <trkpt lat="52.079899" lon="5.539099">
        <ele>7.178687</ele>
        <time>2026-04-23T04:12:35.988Z</time>
      </trkpt>
      <trkpt lat="52.079253" lon="5.538839">
        <ele>7.270400</ele>
        <time>2026-04-23T04:12:46.381Z</time>
      </trkpt>
      <trkpt lat="52.078064" lon="5.538115">
        <ele>7.444525</ele>
        <time>2026-04-23T04:13:06.165Z</time>
      </trkpt>
      <trkpt lat="52.077751" lon="5.538030">
        <ele>7.487596</ele>
        <time>2026-04-23T04:13:11.036Z</time>
      </trkpt>
      <trkpt lat="52.076976" lon="5.538003">
        <ele>7.592810</ele>
        <time>2026-04-23T04:13:23.142Z</time>
      </trkpt>
      <trkpt lat="52.076253" lon="5.538013">
        <ele>7.658452</ele>
        <time>2026-04-23T04:13:34.253Z</time>
      </trkpt>
      <trkpt lat="52.075392" lon="5.538014">
        <ele>7.708459</ele>
        <time>2026-04-23T04:13:46.834Z</time>
      </trkpt>
      <trkpt lat="52.075183" lon="5.538007">
        <ele>7.720601</ele>
        <time>2026-04-23T04:13:49.913Z</time>
      </trkpt>
      <trkpt lat="52.074993" lon="5.537782">
        <ele>7.734250</ele>
        <time>2026-04-23T04:13:54.641Z</time>
      </trkpt>
      <trkpt lat="52.074964" lon="5.537750">
        <ele>7.736285</ele>
        <time>2026-04-23T04:13:55.343Z</time>
      </trkpt>
      <trkpt lat="52.074879" lon="5.537560">
        <ele>7.751907</ele>
        <time>2026-04-23T04:13:58.293Z</time>
      </trkpt>
      <trkpt lat="52.074884" lon="5.537466">
        <ele>7.759295</ele>
        <time>2026-04-23T04:13:59.509Z</time>
      </trkpt>
      <trkpt lat="52.074817" lon="5.537421">
        <ele>7.768530</ele>
        <time>2026-04-23T04:14:01.014Z</time>
      </trkpt>
      <trkpt lat="52.074737" lon="5.537366">
        <ele>7.779594</ele>
        <time>2026-04-23T04:14:02.849Z</time>
      </trkpt>
      <trkpt lat="52.074652" lon="5.537407">
        <ele>7.790889</ele>
        <time>2026-04-23T04:14:04.710Z</time>
      </trkpt>
      <trkpt lat="52.074638" lon="5.537381">
        <ele>7.793595</ele>
        <time>2026-04-23T04:14:05.174Z</time>
      </trkpt>
      <trkpt lat="52.074572" lon="5.537283">
        <ele>7.804979</ele>
        <time>2026-04-23T04:14:07.104Z</time>
      </trkpt>
      <trkpt lat="52.074519" lon="5.537288">
        <ele>7.811742</ele>
        <time>2026-04-23T04:14:08.199Z</time>
      </trkpt>
      <trkpt lat="52.074314" lon="5.536871">
        <ele>7.853555</ele>
        <time>2026-04-23T04:14:15.109Z</time>
      </trkpt>
      <trkpt lat="52.074168" lon="5.536669">
        <ele>7.877971</ele>
        <time>2026-04-23T04:14:19.110Z</time>
      </trkpt>
      <trkpt lat="52.073962" lon="5.536413">
        <ele>7.910995</ele>
        <time>2026-04-23T04:14:24.546Z</time>
      </trkpt>
      <trkpt lat="52.073808" lon="5.536121">
        <ele>7.941123</ele>
        <time>2026-04-23T04:14:29.377Z</time>
      </trkpt>
      <trkpt lat="52.073417" lon="5.534897">
        <ele>7.870016</ele>
        <time>2026-04-23T04:14:46.631Z</time>
      </trkpt>
      <trkpt lat="52.073358" lon="5.534602">
        <ele>7.840842</ele>
        <time>2026-04-23T04:14:50.389Z</time>
      </trkpt>
      <trkpt lat="52.073288" lon="5.534113">
        <ele>7.793624</ele>
        <time>2026-04-23T04:14:56.348Z</time>
      </trkpt>
      <trkpt lat="52.073194" lon="5.533325">
        <ele>7.718135</ele>
        <time>2026-04-23T04:15:05.956Z</time>
      </trkpt>
      <trkpt lat="52.073203" lon="5.532763">
        <ele>7.602409</ele>
        <time>2026-04-23T04:15:10.808Z</time>
      </trkpt>
      <trkpt lat="52.073189" lon="5.531194">
        <ele>7.115012</ele>
        <time>2026-04-23T04:15:23.282Z</time>
      </trkpt>
      <trkpt lat="52.073105" lon="5.530862">
        <ele>7.003495</ele>
        <time>2026-04-23T04:15:26.124Z</time>
      </trkpt>
      <trkpt lat="52.073090" lon="5.530823">
        <ele>6.989205</ele>
        <time>2026-04-23T04:15:26.490Z</time>
      </trkpt>
      <trkpt lat="52.073098" lon="5.530639">
        <ele>6.931910</ele>
        <time>2026-04-23T04:15:27.977Z</time>
      </trkpt>
      <trkpt lat="52.072312" lon="5.530579">
        <ele>6.718666</ele>
        <time>2026-04-23T04:15:42.735Z</time>
      </trkpt>
      <trkpt lat="52.071370" lon="5.530550">
        <ele>6.594617</ele>
        <time>2026-04-23T04:16:01.962Z</time>
      </trkpt>
      <trkpt lat="52.070862" lon="5.530365">
        <ele>6.520993</ele>
        <time>2026-04-23T04:16:12.372Z</time>
      </trkpt>
      <trkpt lat="52.070741" lon="5.530331">
        <ele>6.500864</ele>
        <time>2026-04-23T04:16:14.802Z</time>
      </trkpt>
      <trkpt lat="52.070652" lon="5.530300">
        <ele>6.485944</ele>
        <time>2026-04-23T04:16:16.581Z</time>
      </trkpt>
      <trkpt lat="52.070430" lon="5.530224">
        <ele>6.448754</ele>
        <time>2026-04-23T04:16:21.038Z</time>
      </trkpt>
      <trkpt lat="52.069707" lon="5.530017">
        <ele>6.328412</ele>
        <time>2026-04-23T04:16:35.358Z</time>
      </trkpt>
      <trkpt lat="52.069612" lon="5.529956">
        <ele>6.311669</ele>
        <time>2026-04-23T04:16:37.337Z</time>
      </trkpt>
      <trkpt lat="52.069459" lon="5.529858">
        <ele>6.284714</ele>
        <time>2026-04-23T04:16:40.509Z</time>
      </trkpt>
      <trkpt lat="52.069100" lon="5.529530">
        <ele>6.226364</ele>
        <time>2026-04-23T04:16:48.460Z</time>
      </trkpt>
      <trkpt lat="52.068081" lon="5.529155">
        <ele>6.100175</ele>
        <time>2026-04-23T04:17:09.288Z</time>
      </trkpt>
      <trkpt lat="52.067981" lon="5.529195">
        <ele>6.087737</ele>
        <time>2026-04-23T04:17:11.296Z</time>
      </trkpt>
      <trkpt lat="52.067629" lon="5.529316">
        <ele>6.044282</ele>
        <time>2026-04-23T04:17:18.351Z</time>
      </trkpt>
      <trkpt lat="52.067479" lon="5.529299">
        <ele>6.026418</ele>
        <time>2026-04-23T04:17:21.325Z</time>
      </trkpt>
      <trkpt lat="52.066971" lon="5.528937">
        <ele>5.961747</ele>
        <time>2026-04-23T04:17:32.326Z</time>
      </trkpt>
      <trkpt lat="52.066540" lon="5.528570">
        <ele>5.905019</ele>
        <time>2026-04-23T04:17:41.899Z</time>
      </trkpt>
      <trkpt lat="52.066483" lon="5.528484">
        <ele>5.895954</ele>
        <time>2026-04-23T04:17:43.425Z</time>
      </trkpt>
      <trkpt lat="52.066365" lon="5.528174">
        <ele>5.869816</ele>
        <time>2026-04-23T04:17:47.841Z</time>
      </trkpt>
      <trkpt lat="52.066030" lon="5.526930">
        <ele>5.809664</ele>
        <time>2026-04-23T04:18:04.493Z</time>
      </trkpt>
      <trkpt lat="52.065839" lon="5.525638">
        <ele>5.781880</ele>
        <time>2026-04-23T04:18:20.923Z</time>
      </trkpt>
      <trkpt lat="52.065848" lon="5.525347">
        <ele>5.775787</ele>
        <time>2026-04-23T04:18:24.578Z</time>
      </trkpt>
      <trkpt lat="52.066137" lon="5.523446">
        <ele>5.650841</ele>
        <time>2026-04-23T04:18:48.628Z</time>
      </trkpt>
      <trkpt lat="52.065333" lon="5.523083">
        <ele>5.540165</ele>
        <time>2026-04-23T04:19:00.466Z</time>
      </trkpt>
      <trkpt lat="52.064878" lon="5.522811">
        <ele>5.469160</ele>
        <time>2026-04-23T04:19:07.185Z</time>
      </trkpt>
      <trkpt lat="52.064146" lon="5.522343">
        <ele>5.350661</ele>
        <time>2026-04-23T04:19:18.261Z</time>
      </trkpt>
      <trkpt lat="52.063576" lon="5.521963">
        <ele>5.257851</ele>
        <time>2026-04-23T04:19:27.350Z</time>
      </trkpt>
      <trkpt lat="52.062531" lon="5.521122">
        <ele>5.257551</ele>
        <time>2026-04-23T04:19:44.919Z</time>
      </trkpt>
      <trkpt lat="52.062487" lon="5.521086">
        <ele>5.257693</ele>
        <time>2026-04-23T04:19:45.667Z</time>
      </trkpt>
      <trkpt lat="52.062112" lon="5.520777">
        <ele>5.258910</ele>
        <time>2026-04-23T04:19:51.968Z</time>
      </trkpt>
      <trkpt lat="52.060617" lon="5.519544">
        <ele>5.136988</ele>
        <time>2026-04-23T04:20:16.014Z</time>
      </trkpt>
      <trkpt lat="52.059500" lon="5.518720">
        <ele>5.176520</ele>
        <time>2026-04-23T04:20:34.212Z</time>
      </trkpt>
      <trkpt lat="52.059220" lon="5.518590">
        <ele>5.197153</ele>
        <time>2026-04-23T04:20:38.628Z</time>
      </trkpt>
      <trkpt lat="52.058900" lon="5.518640">
        <ele>5.219932</ele>
        <time>2026-04-23T04:20:43.579Z</time>
      </trkpt>
      <trkpt lat="52.058311" lon="5.519050">
        <ele>5.283578</ele>
        <time>2026-04-23T04:20:53.522Z</time>
      </trkpt>
      <trkpt lat="52.057935" lon="5.519339">
        <ele>5.333461</ele>
        <time>2026-04-23T04:21:00.014Z</time>
      </trkpt>
      <trkpt lat="52.056223" lon="5.520458">
        <ele>5.529123</ele>
        <time>2026-04-23T04:21:27.924Z</time>
      </trkpt>
      <trkpt lat="52.055721" lon="5.520789">
        <ele>5.577437</ele>
        <time>2026-04-23T04:21:35.926Z</time>
      </trkpt>
      <trkpt lat="52.054155" lon="5.521814">
        <ele>5.893522</ele>
        <time>2026-04-23T04:22:02.342Z</time>
      </trkpt>
      <trkpt lat="52.053887" lon="5.522026">
        <ele>5.959093</ele>
        <time>2026-04-23T04:22:07.105Z</time>
      </trkpt>
      <trkpt lat="52.053703" lon="5.522453">
        <ele>6.032990</ele>
        <time>2026-04-23T04:22:12.204Z</time>
      </trkpt>
      <trkpt lat="52.053448" lon="5.523222">
        <ele>6.172336</ele>
        <time>2026-04-23T04:22:20.709Z</time>
      </trkpt>
      <trkpt lat="52.052628" lon="5.525732">
        <ele>6.925963</ele>
        <time>2026-04-23T04:22:48.186Z</time>
      </trkpt>
      <trkpt lat="52.052440" lon="5.526300">
        <ele>7.237247</ele>
        <time>2026-04-23T04:22:55.003Z</time>
      </trkpt>
      <trkpt lat="52.051431" lon="5.529364">
        <ele>9.535171</ele>
        <time>2026-04-23T04:23:38.049Z</time>
      </trkpt>
      <trkpt lat="52.050866" lon="5.530946">
        <ele>10.695278</ele>
        <time>2026-04-23T04:23:59.698Z</time>
      </trkpt>
      <trkpt lat="52.050704" lon="5.531476">
        <ele>11.006054</ele>
        <time>2026-04-23T04:24:06.221Z</time>
      </trkpt>
      <trkpt lat="52.050640" lon="5.531585">
        <ele>11.085186</ele>
        <time>2026-04-23T04:24:07.865Z</time>
      </trkpt>
      <trkpt lat="52.050570" lon="5.531594">
        <ele>11.145142</ele>
        <time>2026-04-23T04:24:09.116Z</time>
      </trkpt>
      <trkpt lat="52.050491" lon="5.531554">
        <ele>11.215791</ele>
        <time>2026-04-23T04:24:10.577Z</time>
      </trkpt>
      <trkpt lat="52.050432" lon="5.531433">
        <ele>11.296875</ele>
        <time>2026-04-23T04:24:12.243Z</time>
      </trkpt>
      <trkpt lat="52.050344" lon="5.530350">
        <ele>11.719106</ele>
        <time>2026-04-23T04:24:23.868Z</time>
      </trkpt>
      <trkpt lat="52.050357" lon="5.530163">
        <ele>11.734924</ele>
        <time>2026-04-23T04:24:25.899Z</time>
      </trkpt>
      <trkpt lat="52.050497" lon="5.529561">
        <ele>11.789019</ele>
        <time>2026-04-23T04:24:32.825Z</time>
      </trkpt>
      <trkpt lat="52.050481" lon="5.529401">
        <ele>11.802643</ele>
        <time>2026-04-23T04:24:34.508Z</time>
      </trkpt>
      <trkpt lat="52.050407" lon="5.529264">
        <ele>11.817969</ele>
        <time>2026-04-23T04:24:36.354Z</time>
      </trkpt>
      <trkpt lat="52.050291" lon="5.529228">
        <ele>11.834109</ele>
        <time>2026-04-23T04:24:38.251Z</time>
      </trkpt>
      <trkpt lat="52.049946" lon="5.529203">
        <ele>11.881308</ele>
        <time>2026-04-23T04:24:43.547Z</time>
      </trkpt>
      <trkpt lat="52.049774" lon="5.529205">
        <ele>11.904817</ele>
        <time>2026-04-23T04:24:45.979Z</time>
      </trkpt>
      <trkpt lat="52.049845" lon="5.527851">
        <ele>10.993640</ele>
        <time>2026-04-23T04:24:56.321Z</time>
      </trkpt>
      <trkpt lat="52.049909" lon="5.525180">
        <ele>8.570609</ele>
        <time>2026-04-23T04:25:14.304Z</time>
      </trkpt>
      <trkpt lat="52.049987" lon="5.523999">
        <ele>7.645627</ele>
        <time>2026-04-23T04:25:22.893Z</time>
      </trkpt>
      <trkpt lat="52.050094" lon="5.521737">
        <ele>6.523152</ele>
        <time>2026-04-23T04:25:41.130Z</time>
      </trkpt>
      <trkpt lat="52.050249" lon="5.516129">
        <ele>5.434848</ele>
        <time>2026-04-23T04:26:28.605Z</time>
      </trkpt>
      <trkpt lat="52.048995" lon="5.516241">
        <ele>5.301864</ele>
        <time>2026-04-23T04:26:53.846Z</time>
      </trkpt>
      <trkpt lat="52.047910" lon="5.516384">
        <ele>5.324092</ele>
        <time>2026-04-23T04:27:15.955Z</time>
      </trkpt>
      <trkpt lat="52.047772" lon="5.516458">
        <ele>5.327060</ele>
        <time>2026-04-23T04:27:18.893Z</time>
      </trkpt>
      <trkpt lat="52.047398" lon="5.516968">
        <ele>5.338278</ele>
        <time>2026-04-23T04:27:28.675Z</time>
      </trkpt>
      <trkpt lat="52.047260" lon="5.517203">
        <ele>5.359409</ele>
        <time>2026-04-23T04:27:31.696Z</time>
      </trkpt>
      <trkpt lat="52.046670" lon="5.517845">
        <ele>5.434478</ele>
        <time>2026-04-23T04:27:42.762Z</time>
      </trkpt>
      <trkpt lat="52.046829" lon="5.517356">
        <ele>5.470450</ele>
        <time>2026-04-23T04:27:48.133Z</time>
      </trkpt>
      <trkpt lat="52.046861" lon="5.517222">
        <ele>5.479798</ele>
        <time>2026-04-23T04:27:49.516Z</time>
      </trkpt>
      <trkpt lat="52.046927" lon="5.516955">
        <ele>5.498512</ele>
        <time>2026-04-23T04:27:52.225Z</time>
      </trkpt>
      <trkpt lat="52.046989" lon="5.516262">
        <ele>5.489139</ele>
        <time>2026-04-23T04:27:58.696Z</time>
      </trkpt>
      <trkpt lat="52.047150" lon="5.513832">
        <ele>5.138692</ele>
        <time>2026-04-23T04:28:19.416Z</time>
      </trkpt>
      <trkpt lat="52.047244" lon="5.512818">
        <ele>5.050988</ele>
        <time>2026-04-23T04:28:28.152Z</time>
      </trkpt>
      <trkpt lat="52.047348" lon="5.511752">
        <ele>4.975439</ele>
        <time>2026-04-23T04:28:37.829Z</time>
      </trkpt>
      <trkpt lat="52.047698" lon="5.507164">
        <ele>4.890834</ele>
        <time>2026-04-23T04:29:20.080Z</time>
      </trkpt>
      <trkpt lat="52.047716" lon="5.506935">
        <ele>4.887927</ele>
        <time>2026-04-23T04:29:22.946Z</time>
      </trkpt>
      <trkpt lat="52.048242" lon="5.500335">
        <ele>4.810782</ele>
        <time>2026-04-23T04:30:45.088Z</time>
      </trkpt>
      <trkpt lat="52.048419" lon="5.497594">
        <ele>4.829302</ele>
        <time>2026-04-23T04:31:19.304Z</time>
      </trkpt>
      <trkpt lat="52.048870" lon="5.492654">
        <ele>4.962956</ele>
        <time>2026-04-23T04:32:22.279Z</time>
      </trkpt>
      <trkpt lat="52.048868" lon="5.492114">
        <ele>4.958337</ele>
        <time>2026-04-23T04:32:28.943Z</time>
      </trkpt>
      <trkpt lat="52.048919" lon="5.491343">
        <ele>4.951705</ele>
        <time>2026-04-23T04:32:38.458Z</time>
      </trkpt>
      <trkpt lat="52.048924" lon="5.491272">
        <ele>4.951094</ele>
        <time>2026-04-23T04:32:39.315Z</time>
      </trkpt>
      <trkpt lat="52.048903" lon="5.491268">
        <ele>4.950800</ele>
        <time>2026-04-23T04:32:39.633Z</time>
      </trkpt>
      <trkpt lat="52.048711" lon="5.491235">
        <ele>4.948115</ele>
        <time>2026-04-23T04:32:42.438Z</time>
      </trkpt>
      <trkpt lat="52.048682" lon="5.491231">
        <ele>4.947710</ele>
        <time>2026-04-23T04:32:42.854Z</time>
      </trkpt>
      <trkpt lat="52.048253" lon="5.491186">
        <ele>4.961511</ele>
        <time>2026-04-23T04:32:49.077Z</time>
      </trkpt>
      <trkpt lat="52.046958" lon="5.490954">
        <ele>5.124176</ele>
        <time>2026-04-23T04:33:09.155Z</time>
      </trkpt>
      <trkpt lat="52.045916" lon="5.490770">
        <ele>5.219168</ele>
        <time>2026-04-23T04:33:25.588Z</time>
      </trkpt>
      <trkpt lat="52.043594" lon="5.490398">
        <ele>5.416461</ele>
        <time>2026-04-23T04:34:00.236Z</time>
      </trkpt>
      <trkpt lat="52.043211" lon="5.490454">
        <ele>5.452888</ele>
        <time>2026-04-23T04:34:06.452Z</time>
      </trkpt>
      <trkpt lat="52.042575" lon="5.490693">
        <ele>5.601015</ele>
        <time>2026-04-23T04:34:16.743Z</time>
      </trkpt>
      <trkpt lat="52.042520" lon="5.490712">
        <ele>5.616706</ele>
        <time>2026-04-23T04:34:17.627Z</time>
      </trkpt>
      <trkpt lat="52.042270" lon="5.490808">
        <ele>5.688390</ele>
        <time>2026-04-23T04:34:21.723Z</time>
      </trkpt>
      <trkpt lat="52.042015" lon="5.490906">
        <ele>5.761511</ele>
        <time>2026-04-23T04:34:26.013Z</time>
      </trkpt>
      <trkpt lat="52.041314" lon="5.491180">
        <ele>5.962706</ele>
        <time>2026-04-23T04:34:37.227Z</time>
      </trkpt>
      <trkpt lat="52.040920" lon="5.491345">
        <ele>6.117385</ele>
        <time>2026-04-23T04:34:43.793Z</time>
      </trkpt>
      <trkpt lat="52.040844" lon="5.491292">
        <ele>6.149597</ele>
        <time>2026-04-23T04:34:45.160Z</time>
      </trkpt>
      <trkpt lat="52.040574" lon="5.491397">
        <ele>6.257733</ele>
        <time>2026-04-23T04:34:49.807Z</time>
      </trkpt>
      <trkpt lat="52.040231" lon="5.491533">
        <ele>6.395253</ele>
        <time>2026-04-23T04:34:55.804Z</time>
      </trkpt>
      <trkpt lat="52.040115" lon="5.491576">
        <ele>6.441596</ele>
        <time>2026-04-23T04:34:57.808Z</time>
      </trkpt>
      <trkpt lat="52.038545" lon="5.492181">
        <ele>7.059058</ele>
        <time>2026-04-23T04:35:23.779Z</time>
      </trkpt>
      <trkpt lat="52.038232" lon="5.492273">
        <ele>7.179515</ele>
        <time>2026-04-23T04:35:29.285Z</time>
      </trkpt>
      <trkpt lat="52.037836" lon="5.492274">
        <ele>7.329482</ele>
        <time>2026-04-23T04:35:36.129Z</time>
      </trkpt>
      <trkpt lat="52.037386" lon="5.492148">
        <ele>7.350913</ele>
        <time>2026-04-23T04:35:43.311Z</time>
      </trkpt>
      <trkpt lat="52.037020" lon="5.491927">
        <ele>7.347776</ele>
        <time>2026-04-23T04:35:49.203Z</time>
      </trkpt>
      <trkpt lat="52.036420" lon="5.491446">
        <ele>7.342402</ele>
        <time>2026-04-23T04:35:58.545Z</time>
      </trkpt>
      <trkpt lat="52.035916" lon="5.490891">
        <ele>7.468562</ele>
        <time>2026-04-23T04:36:06.812Z</time>
      </trkpt>
      <trkpt lat="52.035892" lon="5.490860">
        <ele>7.483692</ele>
        <time>2026-04-23T04:36:07.249Z</time>
      </trkpt>
      <trkpt lat="52.035473" lon="5.490273">
        <ele>7.756705</ele>
        <time>2026-04-23T04:36:16.169Z</time>
      </trkpt>
      <trkpt lat="52.035209" lon="5.489902">
        <ele>7.928951</ele>
        <time>2026-04-23T04:36:22.426Z</time>
      </trkpt>
      <trkpt lat="52.035099" lon="5.489791">
        <ele>7.992854</ele>
        <time>2026-04-23T04:36:24.807Z</time>
      </trkpt>
      <trkpt lat="52.034865" lon="5.489661">
        <ele>8.114909</ele>
        <time>2026-04-23T04:36:29.467Z</time>
      </trkpt>
      <trkpt lat="52.033884" lon="5.489525">
        <ele>9.094216</ele>
        <time>2026-04-23T04:36:48.098Z</time>
      </trkpt>
      <trkpt lat="52.033455" lon="5.489408">
        <ele>9.592525</ele>
        <time>2026-04-23T04:36:56.820Z</time>
      </trkpt>
      <trkpt lat="52.033069" lon="5.489238">
        <ele>10.050650</ele>
        <time>2026-04-23T04:37:04.774Z</time>
      </trkpt>
      <trkpt lat="52.032890" lon="5.489166">
        <ele>10.261888</ele>
        <time>2026-04-23T04:37:08.368Z</time>
      </trkpt>
      <trkpt lat="52.032778" lon="5.489118">
        <ele>10.373291</ele>
        <time>2026-04-23T04:37:10.633Z</time>
      </trkpt>
      <trkpt lat="52.032560" lon="5.489043">
        <ele>10.577668</ele>
        <time>2026-04-23T04:37:14.970Z</time>
      </trkpt>
      <trkpt lat="52.031659" lon="5.488732">
        <ele>11.422488</ele>
        <time>2026-04-23T04:37:32.794Z</time>
      </trkpt>
      <trkpt lat="52.031024" lon="5.488206">
        <ele>12.123011</ele>
        <time>2026-04-23T04:37:44.400Z</time>
      </trkpt>
      <trkpt lat="52.030977" lon="5.488170">
        <ele>12.186761</ele>
        <time>2026-04-23T04:37:45.236Z</time>
      </trkpt>
      <trkpt lat="52.030302" lon="5.487575">
        <ele>13.128921</ele>
        <time>2026-04-23T04:37:58.782Z</time>
      </trkpt>
      <trkpt lat="52.029950" lon="5.487168">
        <ele>13.658949</ele>
        <time>2026-04-23T04:38:07.616Z</time>
      </trkpt>
      <trkpt lat="52.029545" lon="5.486541">
        <ele>14.708091</ele>
        <time>2026-04-23T04:38:20.610Z</time>
      </trkpt>
      <trkpt lat="52.029305" lon="5.486285">
        <ele>15.696759</ele>
        <time>2026-04-23T04:38:27.941Z</time>
      </trkpt>
      <trkpt lat="52.028199" lon="5.485531">
        <ele>19.827357</ele>
        <time>2026-04-23T04:39:02.908Z</time>
      </trkpt>
      <trkpt lat="52.027543" lon="5.485040">
        <ele>23.295745</ele>
        <time>2026-04-23T04:39:27.712Z</time>
      </trkpt>
      <trkpt lat="52.026738" lon="5.484334">
        <ele>28.010369</ele>
        <time>2026-04-23T04:40:01.876Z</time>
      </trkpt>
      <trkpt lat="52.026040" lon="5.483914">
        <ele>31.754377</ele>
        <time>2026-04-23T04:40:29.047Z</time>
      </trkpt>
      <trkpt lat="52.025466" lon="5.483478">
        <ele>34.885394</ele>
        <time>2026-04-23T04:40:50.334Z</time>
      </trkpt>
      <trkpt lat="52.025114" lon="5.483080">
        <ele>37.004416</ele>
        <time>2026-04-23T04:41:04.218Z</time>
      </trkpt>
      <trkpt lat="52.024404" lon="5.481955">
        <ele>42.459671</ele>
        <time>2026-04-23T04:41:39.127Z</time>
      </trkpt>
      <trkpt lat="52.023539" lon="5.480253">
        <ele>49.973260</ele>
        <time>2026-04-23T04:42:33.430Z</time>
      </trkpt>
      <trkpt lat="52.023356" lon="5.479958">
        <ele>51.152015</ele>
        <time>2026-04-23T04:42:43.312Z</time>
      </trkpt>
      <trkpt lat="52.023126" lon="5.479745">
        <ele>52.362616</ele>
        <time>2026-04-23T04:42:52.939Z</time>
      </trkpt>
      <trkpt lat="52.022273" lon="5.479165">
        <ele>56.591130</ele>
        <time>2026-04-23T04:43:21.619Z</time>
      </trkpt>
      <trkpt lat="52.021948" lon="5.478865">
        <ele>57.537961</ele>
        <time>2026-04-23T04:43:31.130Z</time>
      </trkpt>
      <trkpt lat="52.021698" lon="5.478533">
        <ele>58.107350</ele>
        <time>2026-04-23T04:43:38.721Z</time>
      </trkpt>
      <trkpt lat="52.020450" lon="5.476565">
        <ele>60.568414</ele>
        <time>2026-04-23T04:44:12.680Z</time>
      </trkpt>
      <trkpt lat="52.020179" lon="5.476227">
        <ele>60.783768</ele>
        <time>2026-04-23T04:44:18.679Z</time>
      </trkpt>
      <trkpt lat="52.019688" lon="5.475809">
        <ele>61.133193</ele>
        <time>2026-04-23T04:44:27.977Z</time>
      </trkpt>
      <trkpt lat="52.019479" lon="5.475632">
        <ele>61.281763</ele>
        <time>2026-04-23T04:44:31.765Z</time>
      </trkpt>
      <trkpt lat="52.019245" lon="5.475434">
        <ele>61.308459</ele>
        <time>2026-04-23T04:44:35.942Z</time>
      </trkpt>
      <trkpt lat="52.018216" lon="5.474557">
        <ele>60.806256</ele>
        <time>2026-04-23T04:44:52.156Z</time>
      </trkpt>
      <trkpt lat="52.017537" lon="5.474054">
        <ele>60.182104</ele>
        <time>2026-04-23T04:45:01.341Z</time>
      </trkpt>
      <trkpt lat="52.015770" lon="5.472914">
        <ele>56.640978</ele>
        <time>2026-04-23T04:45:22.529Z</time>
      </trkpt>
      <trkpt lat="52.015616" lon="5.472817">
        <ele>56.199662</ele>
        <time>2026-04-23T04:45:24.254Z</time>
      </trkpt>
      <trkpt lat="52.015210" lon="5.472558">
        <ele>55.034236</ele>
        <time>2026-04-23T04:45:28.753Z</time>
      </trkpt>
      <trkpt lat="52.014386" lon="5.472079">
        <ele>52.700989</ele>
        <time>2026-04-23T04:45:37.635Z</time>
      </trkpt>
      <trkpt lat="52.012985" lon="5.471435">
        <ele>49.159412</ele>
        <time>2026-04-23T04:45:52.882Z</time>
      </trkpt>
      <trkpt lat="52.012954" lon="5.471418">
        <ele>49.079827</ele>
        <time>2026-04-23T04:45:53.242Z</time>
      </trkpt>
      <trkpt lat="52.012909" lon="5.471402">
        <ele>48.967778</ele>
        <time>2026-04-23T04:45:53.748Z</time>
      </trkpt>
      <trkpt lat="52.012877" lon="5.471388">
        <ele>48.887168</ele>
        <time>2026-04-23T04:45:54.118Z</time>
      </trkpt>
      <trkpt lat="52.011229" lon="5.470637">
        <ele>46.132729</ele>
        <time>2026-04-23T04:46:14.302Z</time>
      </trkpt>
      <trkpt lat="52.008289" lon="5.469253">
        <ele>40.006884</ele>
        <time>2026-04-23T04:46:48.370Z</time>
      </trkpt>
      <trkpt lat="52.007944" lon="5.468991">
        <ele>39.063836</ele>
        <time>2026-04-23T04:46:52.262Z</time>
      </trkpt>
      <trkpt lat="52.007684" lon="5.468667">
        <ele>38.252404</ele>
        <time>2026-04-23T04:46:55.577Z</time>
      </trkpt>
      <trkpt lat="52.007269" lon="5.468067">
        <ele>36.535921</ele>
        <time>2026-04-23T04:47:01.113Z</time>
      </trkpt>
      <trkpt lat="52.006711" lon="5.467161">
        <ele>33.958904</ele>
        <time>2026-04-23T04:47:09.070Z</time>
      </trkpt>
      <trkpt lat="52.006435" lon="5.466646">
        <ele>32.585893</ele>
        <time>2026-04-23T04:47:13.338Z</time>
      </trkpt>
      <trkpt lat="52.006349" lon="5.466475">
        <ele>32.141884</ele>
        <time>2026-04-23T04:47:14.716Z</time>
      </trkpt>
      <trkpt lat="52.006267" lon="5.466305">
        <ele>31.757196</ele>
        <time>2026-04-23T04:47:16.070Z</time>
      </trkpt>
      <trkpt lat="52.006119" lon="5.466024">
        <ele>31.115509</ele>
        <time>2026-04-23T04:47:19.409Z</time>
      </trkpt>
      <trkpt lat="52.005826" lon="5.465520">
        <ele>29.912651</ele>
        <time>2026-04-23T04:47:25.696Z</time>
      </trkpt>
      <trkpt lat="52.005544" lon="5.465093">
        <ele>28.826010</ele>
        <time>2026-04-23T04:47:31.453Z</time>
      </trkpt>
      <trkpt lat="52.005347" lon="5.464796">
        <ele>28.068430</ele>
        <time>2026-04-23T04:47:35.432Z</time>
      </trkpt>
      <trkpt lat="52.004134" lon="5.463331">
        <ele>26.999454</ele>
        <time>2026-04-23T04:47:58.748Z</time>
      </trkpt>
      <trkpt lat="52.003864" lon="5.463044">
        <ele>26.999454</ele>
        <time>2026-04-23T04:48:04.110Z</time>
      </trkpt>
      <trkpt lat="52.003747" lon="5.463250">
        <ele>26.999454</ele>
        <time>2026-04-23T04:48:07.050Z</time>
      </trkpt>
    </trkseg>
  </trk>
</gpx>